<?xml version="1.0" encoding="UTF-8" standalone="no" ?>
<gpx xmlns="http://www.topografix.com/GPX/1/1" xmlns:xsi="http://www.w3.org/2001/XMLSchema-instance" xsi:schemaLocation="http://www.topografix.com/GPX/1/1 http://www.topografix.com/GPX/1/1/gpx.xsd" version="1.1" creator="VisuGPX - https://www.visugpx.com">
  <metadata>
    <name>150211ROBMinots</name>
    <desc><![CDATA[bonne sortie mouvementée]]></desc>
  </metadata>
  <trk>
    <name><![CDATA[150211ROBMinots]]></name>
    <trkseg>
      <trkpt lat="43.41577" lon="6.07077">
        <ele>200.60000610352</ele>
        <time>2015-02-11T12:38:25Z</time>
      </trkpt>
      <trkpt lat="43.41578" lon="6.07081">
        <ele>200.60000610352</ele>
        <time>2015-02-11T12:38:26Z</time>
      </trkpt>
      <trkpt lat="43.41584" lon="6.07095">
        <ele>200.80000305176</ele>
        <time>2015-02-11T12:38:30Z</time>
      </trkpt>
      <trkpt lat="43.41579" lon="6.07106">
        <ele>201</ele>
        <time>2015-02-11T12:38:33Z</time>
      </trkpt>
      <trkpt lat="43.41578" lon="6.07106">
        <ele>199.19999694824</ele>
        <time>2015-02-11T12:38:34Z</time>
      </trkpt>
      <trkpt lat="43.41574" lon="6.07108">
        <ele>198.80000305176</ele>
        <time>2015-02-11T12:38:35Z</time>
      </trkpt>
      <trkpt lat="43.4157" lon="6.0711">
        <ele>198</ele>
        <time>2015-02-11T12:38:36Z</time>
      </trkpt>
      <trkpt lat="43.41568" lon="6.07112">
        <ele>198</ele>
        <time>2015-02-11T12:38:37Z</time>
      </trkpt>
      <trkpt lat="43.41564" lon="6.07114">
        <ele>197.80000305176</ele>
        <time>2015-02-11T12:38:38Z</time>
      </trkpt>
      <trkpt lat="43.41561" lon="6.07115">
        <ele>198.60000610352</ele>
        <time>2015-02-11T12:38:39Z</time>
      </trkpt>
      <trkpt lat="43.41558" lon="6.07115">
        <ele>198.39999389648</ele>
        <time>2015-02-11T12:38:40Z</time>
      </trkpt>
      <trkpt lat="43.41555" lon="6.07114">
        <ele>198.39999389648</ele>
        <time>2015-02-11T12:38:41Z</time>
      </trkpt>
      <trkpt lat="43.41552" lon="6.07111">
        <ele>198.39999389648</ele>
        <time>2015-02-11T12:38:42Z</time>
      </trkpt>
      <trkpt lat="43.4155" lon="6.07108">
        <ele>198.80000305176</ele>
        <time>2015-02-11T12:38:43Z</time>
      </trkpt>
      <trkpt lat="43.4155" lon="6.07104">
        <ele>198.60000610352</ele>
        <time>2015-02-11T12:38:44Z</time>
      </trkpt>
      <trkpt lat="43.41549" lon="6.071">
        <ele>198.80000305176</ele>
        <time>2015-02-11T12:38:45Z</time>
      </trkpt>
      <trkpt lat="43.41549" lon="6.07097">
        <ele>198.39999389648</ele>
        <time>2015-02-11T12:38:46Z</time>
      </trkpt>
      <trkpt lat="43.41549" lon="6.07092">
        <ele>198.80000305176</ele>
        <time>2015-02-11T12:38:47Z</time>
      </trkpt>
      <trkpt lat="43.41549" lon="6.07088">
        <ele>199</ele>
        <time>2015-02-11T12:38:48Z</time>
      </trkpt>
      <trkpt lat="43.41548" lon="6.07084">
        <ele>199</ele>
        <time>2015-02-11T12:38:49Z</time>
      </trkpt>
      <trkpt lat="43.41547" lon="6.07079">
        <ele>199</ele>
        <time>2015-02-11T12:38:50Z</time>
      </trkpt>
      <trkpt lat="43.41541" lon="6.07073">
        <ele>199</ele>
        <time>2015-02-11T12:38:52Z</time>
      </trkpt>
      <trkpt lat="43.41537" lon="6.07072">
        <ele>198.80000305176</ele>
        <time>2015-02-11T12:38:53Z</time>
      </trkpt>
      <trkpt lat="43.41532" lon="6.07073">
        <ele>199.19999694824</ele>
        <time>2015-02-11T12:38:54Z</time>
      </trkpt>
      <trkpt lat="43.41527" lon="6.07074">
        <ele>198.80000305176</ele>
        <time>2015-02-11T12:38:55Z</time>
      </trkpt>
      <trkpt lat="43.41522" lon="6.07076">
        <ele>198.60000610352</ele>
        <time>2015-02-11T12:38:56Z</time>
      </trkpt>
      <trkpt lat="43.41518" lon="6.07077">
        <ele>198.39999389648</ele>
        <time>2015-02-11T12:38:57Z</time>
      </trkpt>
      <trkpt lat="43.41503" lon="6.07078">
        <ele>198.19999694824</ele>
        <time>2015-02-11T12:39:00Z</time>
      </trkpt>
      <trkpt lat="43.41499" lon="6.07077">
        <ele>198.80000305176</ele>
        <time>2015-02-11T12:39:01Z</time>
      </trkpt>
      <trkpt lat="43.41494" lon="6.07076">
        <ele>198</ele>
        <time>2015-02-11T12:39:02Z</time>
      </trkpt>
      <trkpt lat="43.41489" lon="6.07075">
        <ele>198.19999694824</ele>
        <time>2015-02-11T12:39:03Z</time>
      </trkpt>
      <trkpt lat="43.4148" lon="6.07072">
        <ele>198.39999389648</ele>
        <time>2015-02-11T12:39:05Z</time>
      </trkpt>
      <trkpt lat="43.41475" lon="6.07071">
        <ele>197.80000305176</ele>
        <time>2015-02-11T12:39:07Z</time>
      </trkpt>
      <trkpt lat="43.41472" lon="6.07069">
        <ele>198</ele>
        <time>2015-02-11T12:39:09Z</time>
      </trkpt>
      <trkpt lat="43.41471" lon="6.07069">
        <ele>197.60000610352</ele>
        <time>2015-02-11T12:39:11Z</time>
      </trkpt>
      <trkpt lat="43.41471" lon="6.07069">
        <ele>197.80000305176</ele>
        <time>2015-02-11T12:39:13Z</time>
      </trkpt>
      <trkpt lat="43.41471" lon="6.07069">
        <ele>197.80000305176</ele>
        <time>2015-02-11T12:39:15Z</time>
      </trkpt>
      <trkpt lat="43.41471" lon="6.07069">
        <ele>197.60000610352</ele>
        <time>2015-02-11T12:39:17Z</time>
      </trkpt>
      <trkpt lat="43.41471" lon="6.07069">
        <ele>197.80000305176</ele>
        <time>2015-02-11T12:39:20Z</time>
      </trkpt>
      <trkpt lat="43.4147" lon="6.07064">
        <ele>197.80000305176</ele>
        <time>2015-02-11T12:39:23Z</time>
      </trkpt>
      <trkpt lat="43.41472" lon="6.07056">
        <ele>197.39999389648</ele>
        <time>2015-02-11T12:39:26Z</time>
      </trkpt>
      <trkpt lat="43.41475" lon="6.07051">
        <ele>197.39999389648</ele>
        <time>2015-02-11T12:39:28Z</time>
      </trkpt>
      <trkpt lat="43.41477" lon="6.07047">
        <ele>197.39999389648</ele>
        <time>2015-02-11T12:39:29Z</time>
      </trkpt>
      <trkpt lat="43.41482" lon="6.07036">
        <ele>197.39999389648</ele>
        <time>2015-02-11T12:39:32Z</time>
      </trkpt>
      <trkpt lat="43.41486" lon="6.07027">
        <ele>198</ele>
        <time>2015-02-11T12:39:34Z</time>
      </trkpt>
      <trkpt lat="43.41492" lon="6.07011">
        <ele>198.39999389648</ele>
        <time>2015-02-11T12:39:37Z</time>
      </trkpt>
      <trkpt lat="43.41497" lon="6.06994">
        <ele>199</ele>
        <time>2015-02-11T12:39:40Z</time>
      </trkpt>
      <trkpt lat="43.41497" lon="6.06987">
        <ele>199</ele>
        <time>2015-02-11T12:39:41Z</time>
      </trkpt>
      <trkpt lat="43.41492" lon="6.06968">
        <ele>199.39999389648</ele>
        <time>2015-02-11T12:39:44Z</time>
      </trkpt>
      <trkpt lat="43.41484" lon="6.06954">
        <ele>199.39999389648</ele>
        <time>2015-02-11T12:39:47Z</time>
      </trkpt>
      <trkpt lat="43.41479" lon="6.06944">
        <ele>199.80000305176</ele>
        <time>2015-02-11T12:39:49Z</time>
      </trkpt>
      <trkpt lat="43.41476" lon="6.06939">
        <ele>199.80000305176</ele>
        <time>2015-02-11T12:39:50Z</time>
      </trkpt>
      <trkpt lat="43.41471" lon="6.06927">
        <ele>200</ele>
        <time>2015-02-11T12:39:53Z</time>
      </trkpt>
      <trkpt lat="43.41471" lon="6.06924">
        <ele>200.19999694824</ele>
        <time>2015-02-11T12:39:54Z</time>
      </trkpt>
      <trkpt lat="43.41476" lon="6.06913">
        <ele>200.80000305176</ele>
        <time>2015-02-11T12:39:57Z</time>
      </trkpt>
      <trkpt lat="43.41479" lon="6.06899">
        <ele>200.39999389648</ele>
        <time>2015-02-11T12:40:02Z</time>
      </trkpt>
      <trkpt lat="43.41479" lon="6.06881">
        <ele>200.19999694824</ele>
        <time>2015-02-11T12:40:07Z</time>
      </trkpt>
      <trkpt lat="43.41479" lon="6.06876">
        <ele>200.19999694824</ele>
        <time>2015-02-11T12:40:08Z</time>
      </trkpt>
      <trkpt lat="43.41477" lon="6.06862">
        <ele>200.39999389648</ele>
        <time>2015-02-11T12:40:11Z</time>
      </trkpt>
      <trkpt lat="43.41476" lon="6.06856">
        <ele>200.60000610352</ele>
        <time>2015-02-11T12:40:12Z</time>
      </trkpt>
      <trkpt lat="43.41477" lon="6.06845">
        <ele>200.80000305176</ele>
        <time>2015-02-11T12:40:14Z</time>
      </trkpt>
      <trkpt lat="43.41479" lon="6.06836">
        <ele>200.19999694824</ele>
        <time>2015-02-11T12:40:16Z</time>
      </trkpt>
      <trkpt lat="43.41482" lon="6.06827">
        <ele>200.39999389648</ele>
        <time>2015-02-11T12:40:18Z</time>
      </trkpt>
      <trkpt lat="43.41486" lon="6.06817">
        <ele>200.39999389648</ele>
        <time>2015-02-11T12:40:20Z</time>
      </trkpt>
      <trkpt lat="43.41494" lon="6.06788">
        <ele>200.80000305176</ele>
        <time>2015-02-11T12:40:25Z</time>
      </trkpt>
      <trkpt lat="43.41496" lon="6.06782">
        <ele>200.80000305176</ele>
        <time>2015-02-11T12:40:26Z</time>
      </trkpt>
      <trkpt lat="43.415" lon="6.06746">
        <ele>201.60000610352</ele>
        <time>2015-02-11T12:40:32Z</time>
      </trkpt>
      <trkpt lat="43.41501" lon="6.06735">
        <ele>201.80000305176</ele>
        <time>2015-02-11T12:40:34Z</time>
      </trkpt>
      <trkpt lat="43.41503" lon="6.06688">
        <ele>202.60000610352</ele>
        <time>2015-02-11T12:40:43Z</time>
      </trkpt>
      <trkpt lat="43.41508" lon="6.06646">
        <ele>203.19999694824</ele>
        <time>2015-02-11T12:40:51Z</time>
      </trkpt>
      <trkpt lat="43.41518" lon="6.06587">
        <ele>204</ele>
        <time>2015-02-11T12:41:02Z</time>
      </trkpt>
      <trkpt lat="43.41528" lon="6.06527">
        <ele>204</ele>
        <time>2015-02-11T12:41:12Z</time>
      </trkpt>
      <trkpt lat="43.41539" lon="6.06494">
        <ele>204.19999694824</ele>
        <time>2015-02-11T12:41:18Z</time>
      </trkpt>
      <trkpt lat="43.41546" lon="6.06482">
        <ele>205</ele>
        <time>2015-02-11T12:41:21Z</time>
      </trkpt>
      <trkpt lat="43.41549" lon="6.06476">
        <ele>205.39999389648</ele>
        <time>2015-02-11T12:41:23Z</time>
      </trkpt>
      <trkpt lat="43.41551" lon="6.06471">
        <ele>205.39999389648</ele>
        <time>2015-02-11T12:41:25Z</time>
      </trkpt>
      <trkpt lat="43.41552" lon="6.06459">
        <ele>205.19999694824</ele>
        <time>2015-02-11T12:41:28Z</time>
      </trkpt>
      <trkpt lat="43.41551" lon="6.06448">
        <ele>205.19999694824</ele>
        <time>2015-02-11T12:41:30Z</time>
      </trkpt>
      <trkpt lat="43.41552" lon="6.06436">
        <ele>205.60000610352</ele>
        <time>2015-02-11T12:41:32Z</time>
      </trkpt>
      <trkpt lat="43.41553" lon="6.06429">
        <ele>205.80000305176</ele>
        <time>2015-02-11T12:41:33Z</time>
      </trkpt>
      <trkpt lat="43.41555" lon="6.06416">
        <ele>206.39999389648</ele>
        <time>2015-02-11T12:41:35Z</time>
      </trkpt>
      <trkpt lat="43.41558" lon="6.06399">
        <ele>207.39999389648</ele>
        <time>2015-02-11T12:41:38Z</time>
      </trkpt>
      <trkpt lat="43.41559" lon="6.06394">
        <ele>207.60000610352</ele>
        <time>2015-02-11T12:41:39Z</time>
      </trkpt>
      <trkpt lat="43.41562" lon="6.0638">
        <ele>208.19999694824</ele>
        <time>2015-02-11T12:41:42Z</time>
      </trkpt>
      <trkpt lat="43.41565" lon="6.06369">
        <ele>208.39999389648</ele>
        <time>2015-02-11T12:41:44Z</time>
      </trkpt>
      <trkpt lat="43.41566" lon="6.06365">
        <ele>209</ele>
        <time>2015-02-11T12:41:45Z</time>
      </trkpt>
      <trkpt lat="43.4157" lon="6.06352">
        <ele>210</ele>
        <time>2015-02-11T12:41:48Z</time>
      </trkpt>
      <trkpt lat="43.41571" lon="6.06349">
        <ele>210.60000610352</ele>
        <time>2015-02-11T12:41:49Z</time>
      </trkpt>
      <trkpt lat="43.41577" lon="6.06339">
        <ele>211</ele>
        <time>2015-02-11T12:41:52Z</time>
      </trkpt>
      <trkpt lat="43.41584" lon="6.06328">
        <ele>211.60000610352</ele>
        <time>2015-02-11T12:41:55Z</time>
      </trkpt>
      <trkpt lat="43.41593" lon="6.06309">
        <ele>213</ele>
        <time>2015-02-11T12:42:00Z</time>
      </trkpt>
      <trkpt lat="43.41595" lon="6.063">
        <ele>213.19999694824</ele>
        <time>2015-02-11T12:42:02Z</time>
      </trkpt>
      <trkpt lat="43.4159" lon="6.06278">
        <ele>213.39999389648</ele>
        <time>2015-02-11T12:42:07Z</time>
      </trkpt>
      <trkpt lat="43.41592" lon="6.06268">
        <ele>213.60000610352</ele>
        <time>2015-02-11T12:42:10Z</time>
      </trkpt>
      <trkpt lat="43.41596" lon="6.06263">
        <ele>214.19999694824</ele>
        <time>2015-02-11T12:42:12Z</time>
      </trkpt>
      <trkpt lat="43.416" lon="6.0626">
        <ele>214.39999389648</ele>
        <time>2015-02-11T12:42:14Z</time>
      </trkpt>
      <trkpt lat="43.41605" lon="6.06256">
        <ele>214.60000610352</ele>
        <time>2015-02-11T12:42:17Z</time>
      </trkpt>
      <trkpt lat="43.41607" lon="6.06252">
        <ele>214.60000610352</ele>
        <time>2015-02-11T12:42:19Z</time>
      </trkpt>
      <trkpt lat="43.41607" lon="6.06245">
        <ele>214.60000610352</ele>
        <time>2015-02-11T12:42:21Z</time>
      </trkpt>
      <trkpt lat="43.41611" lon="6.06229">
        <ele>214.80000305176</ele>
        <time>2015-02-11T12:42:25Z</time>
      </trkpt>
      <trkpt lat="43.41611" lon="6.06226">
        <ele>214.80000305176</ele>
        <time>2015-02-11T12:42:26Z</time>
      </trkpt>
      <trkpt lat="43.41612" lon="6.06213">
        <ele>214.80000305176</ele>
        <time>2015-02-11T12:42:30Z</time>
      </trkpt>
      <trkpt lat="43.41611" lon="6.06206">
        <ele>214.80000305176</ele>
        <time>2015-02-11T12:42:32Z</time>
      </trkpt>
      <trkpt lat="43.41605" lon="6.06189">
        <ele>214.60000610352</ele>
        <time>2015-02-11T12:42:37Z</time>
      </trkpt>
      <trkpt lat="43.41605" lon="6.06179">
        <ele>214.39999389648</ele>
        <time>2015-02-11T12:42:39Z</time>
      </trkpt>
      <trkpt lat="43.41608" lon="6.06168">
        <ele>214.19999694824</ele>
        <time>2015-02-11T12:42:41Z</time>
      </trkpt>
      <trkpt lat="43.41621" lon="6.06149">
        <ele>213.39999389648</ele>
        <time>2015-02-11T12:42:45Z</time>
      </trkpt>
      <trkpt lat="43.41633" lon="6.06128">
        <ele>213.60000610352</ele>
        <time>2015-02-11T12:42:50Z</time>
      </trkpt>
      <trkpt lat="43.41631" lon="6.06121">
        <ele>213.39999389648</ele>
        <time>2015-02-11T12:42:52Z</time>
      </trkpt>
      <trkpt lat="43.41629" lon="6.06118">
        <ele>213.39999389648</ele>
        <time>2015-02-11T12:42:53Z</time>
      </trkpt>
      <trkpt lat="43.41626" lon="6.06111">
        <ele>213</ele>
        <time>2015-02-11T12:42:55Z</time>
      </trkpt>
      <trkpt lat="43.41623" lon="6.06096">
        <ele>212.60000610352</ele>
        <time>2015-02-11T12:42:58Z</time>
      </trkpt>
      <trkpt lat="43.41622" lon="6.06091">
        <ele>212.60000610352</ele>
        <time>2015-02-11T12:42:59Z</time>
      </trkpt>
      <trkpt lat="43.41622" lon="6.06059">
        <ele>213.39999389648</ele>
        <time>2015-02-11T12:43:05Z</time>
      </trkpt>
      <trkpt lat="43.41623" lon="6.06048">
        <ele>214</ele>
        <time>2015-02-11T12:43:07Z</time>
      </trkpt>
      <trkpt lat="43.41627" lon="6.06016">
        <ele>214.80000305176</ele>
        <time>2015-02-11T12:43:13Z</time>
      </trkpt>
      <trkpt lat="43.41629" lon="6.06005">
        <ele>215</ele>
        <time>2015-02-11T12:43:15Z</time>
      </trkpt>
      <trkpt lat="43.41632" lon="6.05986">
        <ele>215.60000610352</ele>
        <time>2015-02-11T12:43:18Z</time>
      </trkpt>
      <trkpt lat="43.41633" lon="6.05973">
        <ele>216.19999694824</ele>
        <time>2015-02-11T12:43:20Z</time>
      </trkpt>
      <trkpt lat="43.41634" lon="6.05967">
        <ele>216.39999389648</ele>
        <time>2015-02-11T12:43:21Z</time>
      </trkpt>
      <trkpt lat="43.41637" lon="6.05953">
        <ele>216.60000610352</ele>
        <time>2015-02-11T12:43:23Z</time>
      </trkpt>
      <trkpt lat="43.4164" lon="6.05933">
        <ele>217.19999694824</ele>
        <time>2015-02-11T12:43:26Z</time>
      </trkpt>
      <trkpt lat="43.41643" lon="6.05913">
        <ele>217.80000305176</ele>
        <time>2015-02-11T12:43:29Z</time>
      </trkpt>
      <trkpt lat="43.41646" lon="6.05878">
        <ele>218.39999389648</ele>
        <time>2015-02-11T12:43:35Z</time>
      </trkpt>
      <trkpt lat="43.41647" lon="6.05873">
        <ele>218.39999389648</ele>
        <time>2015-02-11T12:43:36Z</time>
      </trkpt>
      <trkpt lat="43.41648" lon="6.05844">
        <ele>218.60000610352</ele>
        <time>2015-02-11T12:43:42Z</time>
      </trkpt>
      <trkpt lat="43.41648" lon="6.05839">
        <ele>218.60000610352</ele>
        <time>2015-02-11T12:43:43Z</time>
      </trkpt>
      <trkpt lat="43.41649" lon="6.05817">
        <ele>219.19999694824</ele>
        <time>2015-02-11T12:43:48Z</time>
      </trkpt>
      <trkpt lat="43.4165" lon="6.05803">
        <ele>219.60000610352</ele>
        <time>2015-02-11T12:43:51Z</time>
      </trkpt>
      <trkpt lat="43.4165" lon="6.05784">
        <ele>219.19999694824</ele>
        <time>2015-02-11T12:43:55Z</time>
      </trkpt>
      <trkpt lat="43.41651" lon="6.05759">
        <ele>219.60000610352</ele>
        <time>2015-02-11T12:44:00Z</time>
      </trkpt>
      <trkpt lat="43.4165" lon="6.05737">
        <ele>219.60000610352</ele>
        <time>2015-02-11T12:44:04Z</time>
      </trkpt>
      <trkpt lat="43.41649" lon="6.05716">
        <ele>219.19999694824</ele>
        <time>2015-02-11T12:44:08Z</time>
      </trkpt>
      <trkpt lat="43.41649" lon="6.05711">
        <ele>219.19999694824</ele>
        <time>2015-02-11T12:44:09Z</time>
      </trkpt>
      <trkpt lat="43.41647" lon="6.05679">
        <ele>218.80000305176</ele>
        <time>2015-02-11T12:44:15Z</time>
      </trkpt>
      <trkpt lat="43.41647" lon="6.05673">
        <ele>218.80000305176</ele>
        <time>2015-02-11T12:44:16Z</time>
      </trkpt>
      <trkpt lat="43.41643" lon="6.05638">
        <ele>218.60000610352</ele>
        <time>2015-02-11T12:44:22Z</time>
      </trkpt>
      <trkpt lat="43.41642" lon="6.05626">
        <ele>218.19999694824</ele>
        <time>2015-02-11T12:44:24Z</time>
      </trkpt>
      <trkpt lat="43.41636" lon="6.05586">
        <ele>218.39999389648</ele>
        <time>2015-02-11T12:44:31Z</time>
      </trkpt>
      <trkpt lat="43.41628" lon="6.05549">
        <ele>218</ele>
        <time>2015-02-11T12:44:37Z</time>
      </trkpt>
      <trkpt lat="43.41625" lon="6.05537">
        <ele>217.80000305176</ele>
        <time>2015-02-11T12:44:39Z</time>
      </trkpt>
      <trkpt lat="43.41619" lon="6.05513">
        <ele>217.60000610352</ele>
        <time>2015-02-11T12:44:43Z</time>
      </trkpt>
      <trkpt lat="43.41611" lon="6.05485">
        <ele>217.39999389648</ele>
        <time>2015-02-11T12:44:48Z</time>
      </trkpt>
      <trkpt lat="43.41597" lon="6.05435">
        <ele>217.19999694824</ele>
        <time>2015-02-11T12:44:57Z</time>
      </trkpt>
      <trkpt lat="43.41595" lon="6.0543">
        <ele>217.19999694824</ele>
        <time>2015-02-11T12:44:58Z</time>
      </trkpt>
      <trkpt lat="43.41579" lon="6.05381">
        <ele>217.19999694824</ele>
        <time>2015-02-11T12:45:07Z</time>
      </trkpt>
      <trkpt lat="43.41558" lon="6.05329">
        <ele>216.39999389648</ele>
        <time>2015-02-11T12:45:17Z</time>
      </trkpt>
      <trkpt lat="43.41557" lon="6.05324">
        <ele>216.19999694824</ele>
        <time>2015-02-11T12:45:18Z</time>
      </trkpt>
      <trkpt lat="43.41548" lon="6.05289">
        <ele>215.80000305176</ele>
        <time>2015-02-11T12:45:24Z</time>
      </trkpt>
      <trkpt lat="43.41536" lon="6.05257">
        <ele>215</ele>
        <time>2015-02-11T12:45:30Z</time>
      </trkpt>
      <trkpt lat="43.41531" lon="6.05245">
        <ele>214.60000610352</ele>
        <time>2015-02-11T12:45:32Z</time>
      </trkpt>
      <trkpt lat="43.41521" lon="6.05222">
        <ele>214</ele>
        <time>2015-02-11T12:45:36Z</time>
      </trkpt>
      <trkpt lat="43.41512" lon="6.05206">
        <ele>213.80000305176</ele>
        <time>2015-02-11T12:45:39Z</time>
      </trkpt>
      <trkpt lat="43.4151" lon="6.052">
        <ele>213.80000305176</ele>
        <time>2015-02-11T12:45:40Z</time>
      </trkpt>
      <trkpt lat="43.41497" lon="6.05173">
        <ele>213.39999389648</ele>
        <time>2015-02-11T12:45:45Z</time>
      </trkpt>
      <trkpt lat="43.41497" lon="6.05163">
        <ele>213.19999694824</ele>
        <time>2015-02-11T12:45:47Z</time>
      </trkpt>
      <trkpt lat="43.41504" lon="6.05156">
        <ele>213.39999389648</ele>
        <time>2015-02-11T12:45:50Z</time>
      </trkpt>
      <trkpt lat="43.4151" lon="6.05155">
        <ele>213.60000610352</ele>
        <time>2015-02-11T12:45:52Z</time>
      </trkpt>
      <trkpt lat="43.41522" lon="6.05152">
        <ele>213.80000305176</ele>
        <time>2015-02-11T12:45:56Z</time>
      </trkpt>
      <trkpt lat="43.41528" lon="6.05151">
        <ele>214</ele>
        <time>2015-02-11T12:45:58Z</time>
      </trkpt>
      <trkpt lat="43.41544" lon="6.0515">
        <ele>214.39999389648</ele>
        <time>2015-02-11T12:46:03Z</time>
      </trkpt>
      <trkpt lat="43.41552" lon="6.0515">
        <ele>214.80000305176</ele>
        <time>2015-02-11T12:46:06Z</time>
      </trkpt>
      <trkpt lat="43.41557" lon="6.05151">
        <ele>215</ele>
        <time>2015-02-11T12:46:08Z</time>
      </trkpt>
      <trkpt lat="43.41566" lon="6.05154">
        <ele>216.19999694824</ele>
        <time>2015-02-11T12:46:12Z</time>
      </trkpt>
      <trkpt lat="43.41573" lon="6.05156">
        <ele>216.80000305176</ele>
        <time>2015-02-11T12:46:15Z</time>
      </trkpt>
      <trkpt lat="43.4158" lon="6.05157">
        <ele>217.19999694824</ele>
        <time>2015-02-11T12:46:18Z</time>
      </trkpt>
      <trkpt lat="43.4159" lon="6.0516">
        <ele>218.19999694824</ele>
        <time>2015-02-11T12:46:22Z</time>
      </trkpt>
      <trkpt lat="43.41592" lon="6.0516">
        <ele>218.19999694824</ele>
        <time>2015-02-11T12:46:23Z</time>
      </trkpt>
      <trkpt lat="43.41595" lon="6.0516">
        <ele>218.39999389648</ele>
        <time>2015-02-11T12:46:24Z</time>
      </trkpt>
      <trkpt lat="43.41624" lon="6.05163">
        <ele>220.39999389648</ele>
        <time>2015-02-11T12:46:35Z</time>
      </trkpt>
      <trkpt lat="43.41627" lon="6.05163">
        <ele>220.39999389648</ele>
        <time>2015-02-11T12:46:36Z</time>
      </trkpt>
      <trkpt lat="43.41644" lon="6.05164">
        <ele>221.39999389648</ele>
        <time>2015-02-11T12:46:43Z</time>
      </trkpt>
      <trkpt lat="43.41646" lon="6.05165">
        <ele>221.60000610352</ele>
        <time>2015-02-11T12:46:44Z</time>
      </trkpt>
      <trkpt lat="43.41658" lon="6.05165">
        <ele>222.60000610352</ele>
        <time>2015-02-11T12:46:50Z</time>
      </trkpt>
      <trkpt lat="43.41666" lon="6.05164">
        <ele>223.60000610352</ele>
        <time>2015-02-11T12:46:54Z</time>
      </trkpt>
      <trkpt lat="43.41668" lon="6.05163">
        <ele>223.80000305176</ele>
        <time>2015-02-11T12:46:55Z</time>
      </trkpt>
      <trkpt lat="43.41678" lon="6.05154">
        <ele>224.39999389648</ele>
        <time>2015-02-11T12:47:00Z</time>
      </trkpt>
      <trkpt lat="43.41685" lon="6.05145">
        <ele>224.80000305176</ele>
        <time>2015-02-11T12:47:04Z</time>
      </trkpt>
      <trkpt lat="43.41695" lon="6.05135">
        <ele>225.39999389648</ele>
        <time>2015-02-11T12:47:09Z</time>
      </trkpt>
      <trkpt lat="43.41703" lon="6.05126">
        <ele>226</ele>
        <time>2015-02-11T12:47:13Z</time>
      </trkpt>
      <trkpt lat="43.41724" lon="6.05112">
        <ele>227.19999694824</ele>
        <time>2015-02-11T12:47:23Z</time>
      </trkpt>
      <trkpt lat="43.41732" lon="6.05107">
        <ele>227.60000610352</ele>
        <time>2015-02-11T12:47:27Z</time>
      </trkpt>
      <trkpt lat="43.41738" lon="6.05109">
        <ele>228.39999389648</ele>
        <time>2015-02-11T12:47:30Z</time>
      </trkpt>
      <trkpt lat="43.4174" lon="6.05114">
        <ele>229</ele>
        <time>2015-02-11T12:47:32Z</time>
      </trkpt>
      <trkpt lat="43.4174" lon="6.05124">
        <ele>229.80000305176</ele>
        <time>2015-02-11T12:47:35Z</time>
      </trkpt>
      <trkpt lat="43.41739" lon="6.05136">
        <ele>229.80000305176</ele>
        <time>2015-02-11T12:47:38Z</time>
      </trkpt>
      <trkpt lat="43.41742" lon="6.05169">
        <ele>229.80000305176</ele>
        <time>2015-02-11T12:47:47Z</time>
      </trkpt>
      <trkpt lat="43.41751" lon="6.05178">
        <ele>230.39999389648</ele>
        <time>2015-02-11T12:47:52Z</time>
      </trkpt>
      <trkpt lat="43.41758" lon="6.0518">
        <ele>230.60000610352</ele>
        <time>2015-02-11T12:47:55Z</time>
      </trkpt>
      <trkpt lat="43.4177" lon="6.05182">
        <ele>231.19999694824</ele>
        <time>2015-02-11T12:48:00Z</time>
      </trkpt>
      <trkpt lat="43.41774" lon="6.05181">
        <ele>231.60000610352</ele>
        <time>2015-02-11T12:48:02Z</time>
      </trkpt>
      <trkpt lat="43.41793" lon="6.05183">
        <ele>232.60000610352</ele>
        <time>2015-02-11T12:48:11Z</time>
      </trkpt>
      <trkpt lat="43.41795" lon="6.05183">
        <ele>232.60000610352</ele>
        <time>2015-02-11T12:48:12Z</time>
      </trkpt>
      <trkpt lat="43.41811" lon="6.05183">
        <ele>233.60000610352</ele>
        <time>2015-02-11T12:48:18Z</time>
      </trkpt>
      <trkpt lat="43.41833" lon="6.05184">
        <ele>234.60000610352</ele>
        <time>2015-02-11T12:48:25Z</time>
      </trkpt>
      <trkpt lat="43.41836" lon="6.05184">
        <ele>234.80000305176</ele>
        <time>2015-02-11T12:48:26Z</time>
      </trkpt>
      <trkpt lat="43.41838" lon="6.05184">
        <ele>234.80000305176</ele>
        <time>2015-02-11T12:48:27Z</time>
      </trkpt>
      <trkpt lat="43.41855" lon="6.05183">
        <ele>235.80000305176</ele>
        <time>2015-02-11T12:48:33Z</time>
      </trkpt>
      <trkpt lat="43.4186" lon="6.05181">
        <ele>236.19999694824</ele>
        <time>2015-02-11T12:48:35Z</time>
      </trkpt>
      <trkpt lat="43.41871" lon="6.05179">
        <ele>237</ele>
        <time>2015-02-11T12:48:39Z</time>
      </trkpt>
      <trkpt lat="43.4188" lon="6.05176">
        <ele>237.39999389648</ele>
        <time>2015-02-11T12:48:43Z</time>
      </trkpt>
      <trkpt lat="43.41892" lon="6.05171">
        <ele>238.19999694824</ele>
        <time>2015-02-11T12:48:49Z</time>
      </trkpt>
      <trkpt lat="43.41893" lon="6.05169">
        <ele>238.60000610352</ele>
        <time>2015-02-11T12:48:50Z</time>
      </trkpt>
      <trkpt lat="43.41899" lon="6.05165">
        <ele>239</ele>
        <time>2015-02-11T12:48:54Z</time>
      </trkpt>
      <trkpt lat="43.41903" lon="6.05161">
        <ele>239.19999694824</ele>
        <time>2015-02-11T12:48:57Z</time>
      </trkpt>
      <trkpt lat="43.41906" lon="6.05176">
        <ele>240.39999389648</ele>
        <time>2015-02-11T12:49:03Z</time>
      </trkpt>
      <trkpt lat="43.41909" lon="6.05161">
        <ele>240.80000305176</ele>
        <time>2015-02-11T12:49:05Z</time>
      </trkpt>
      <trkpt lat="43.41919" lon="6.05155">
        <ele>241.60000610352</ele>
        <time>2015-02-11T12:49:07Z</time>
      </trkpt>
      <trkpt lat="43.41943" lon="6.05146">
        <ele>242</ele>
        <time>2015-02-11T12:49:12Z</time>
      </trkpt>
      <trkpt lat="43.41958" lon="6.05142">
        <ele>242.60000610352</ele>
        <time>2015-02-11T12:49:16Z</time>
      </trkpt>
      <trkpt lat="43.41969" lon="6.05137">
        <ele>243.19999694824</ele>
        <time>2015-02-11T12:49:19Z</time>
      </trkpt>
      <trkpt lat="43.41978" lon="6.05134">
        <ele>243.60000610352</ele>
        <time>2015-02-11T12:49:22Z</time>
      </trkpt>
      <trkpt lat="43.41995" lon="6.05132">
        <ele>244.60000610352</ele>
        <time>2015-02-11T12:49:27Z</time>
      </trkpt>
      <trkpt lat="43.42001" lon="6.0513">
        <ele>244.60000610352</ele>
        <time>2015-02-11T12:49:29Z</time>
      </trkpt>
      <trkpt lat="43.42012" lon="6.05127">
        <ele>245</ele>
        <time>2015-02-11T12:49:32Z</time>
      </trkpt>
      <trkpt lat="43.42033" lon="6.05121">
        <ele>245.39999389648</ele>
        <time>2015-02-11T12:49:38Z</time>
      </trkpt>
      <trkpt lat="43.42048" lon="6.05117">
        <ele>245.80000305176</ele>
        <time>2015-02-11T12:49:43Z</time>
      </trkpt>
      <trkpt lat="43.42057" lon="6.05116">
        <ele>246.19999694824</ele>
        <time>2015-02-11T12:49:46Z</time>
      </trkpt>
      <trkpt lat="43.42068" lon="6.05114">
        <ele>247</ele>
        <time>2015-02-11T12:49:50Z</time>
      </trkpt>
      <trkpt lat="43.42077" lon="6.05113">
        <ele>247.60000610352</ele>
        <time>2015-02-11T12:49:54Z</time>
      </trkpt>
      <trkpt lat="43.42085" lon="6.05114">
        <ele>248</ele>
        <time>2015-02-11T12:49:57Z</time>
      </trkpt>
      <trkpt lat="43.42091" lon="6.05115">
        <ele>248.19999694824</ele>
        <time>2015-02-11T12:50:00Z</time>
      </trkpt>
      <trkpt lat="43.42109" lon="6.05115">
        <ele>249</ele>
        <time>2015-02-11T12:50:07Z</time>
      </trkpt>
      <trkpt lat="43.42112" lon="6.05115">
        <ele>249</ele>
        <time>2015-02-11T12:50:08Z</time>
      </trkpt>
      <trkpt lat="43.42125" lon="6.05118">
        <ele>250</ele>
        <time>2015-02-11T12:50:14Z</time>
      </trkpt>
      <trkpt lat="43.42126" lon="6.05119">
        <ele>250.19999694824</ele>
        <time>2015-02-11T12:50:15Z</time>
      </trkpt>
      <trkpt lat="43.42134" lon="6.05122">
        <ele>251</ele>
        <time>2015-02-11T12:50:21Z</time>
      </trkpt>
      <trkpt lat="43.42135" lon="6.05123">
        <ele>251</ele>
        <time>2015-02-11T12:50:22Z</time>
      </trkpt>
      <trkpt lat="43.42137" lon="6.05124">
        <ele>251</ele>
        <time>2015-02-11T12:50:26Z</time>
      </trkpt>
      <trkpt lat="43.42138" lon="6.05124">
        <ele>251.19999694824</ele>
        <time>2015-02-11T12:50:28Z</time>
      </trkpt>
      <trkpt lat="43.42137" lon="6.05124">
        <ele>251</ele>
        <time>2015-02-11T12:50:32Z</time>
      </trkpt>
      <trkpt lat="43.42137" lon="6.05124">
        <ele>250.80000305176</ele>
        <time>2015-02-11T12:50:34Z</time>
      </trkpt>
      <trkpt lat="43.42137" lon="6.05124">
        <ele>250.80000305176</ele>
        <time>2015-02-11T12:50:41Z</time>
      </trkpt>
      <trkpt lat="43.42137" lon="6.05124">
        <ele>251</ele>
        <time>2015-02-11T12:51:23Z</time>
      </trkpt>
      <trkpt lat="43.42137" lon="6.05124">
        <ele>251</ele>
        <time>2015-02-11T12:52:05Z</time>
      </trkpt>
      <trkpt lat="43.42137" lon="6.05124">
        <ele>251</ele>
        <time>2015-02-11T12:52:21Z</time>
      </trkpt>
      <trkpt lat="43.42137" lon="6.05124">
        <ele>251.19999694824</ele>
        <time>2015-02-11T12:52:46Z</time>
      </trkpt>
      <trkpt lat="43.42138" lon="6.05125">
        <ele>251.19999694824</ele>
        <time>2015-02-11T12:53:01Z</time>
      </trkpt>
      <trkpt lat="43.42139" lon="6.05125">
        <ele>251</ele>
        <time>2015-02-11T12:53:02Z</time>
      </trkpt>
      <trkpt lat="43.42144" lon="6.05136">
        <ele>251.39999389648</ele>
        <time>2015-02-11T12:53:07Z</time>
      </trkpt>
      <trkpt lat="43.42159" lon="6.05156">
        <ele>251.80000305176</ele>
        <time>2015-02-11T12:53:14Z</time>
      </trkpt>
      <trkpt lat="43.4217" lon="6.05163">
        <ele>252</ele>
        <time>2015-02-11T12:53:18Z</time>
      </trkpt>
      <trkpt lat="43.42173" lon="6.05165">
        <ele>252</ele>
        <time>2015-02-11T12:53:19Z</time>
      </trkpt>
      <trkpt lat="43.4219" lon="6.05175">
        <ele>252.60000610352</ele>
        <time>2015-02-11T12:53:25Z</time>
      </trkpt>
      <trkpt lat="43.42199" lon="6.05182">
        <ele>253</ele>
        <time>2015-02-11T12:53:29Z</time>
      </trkpt>
      <trkpt lat="43.42204" lon="6.05185">
        <ele>253.19999694824</ele>
        <time>2015-02-11T12:53:31Z</time>
      </trkpt>
      <trkpt lat="43.42215" lon="6.05192">
        <ele>253.80000305176</ele>
        <time>2015-02-11T12:53:35Z</time>
      </trkpt>
      <trkpt lat="43.42221" lon="6.05195">
        <ele>254.39999389648</ele>
        <time>2015-02-11T12:53:37Z</time>
      </trkpt>
      <trkpt lat="43.42229" lon="6.05205">
        <ele>255.19999694824</ele>
        <time>2015-02-11T12:53:41Z</time>
      </trkpt>
      <trkpt lat="43.42234" lon="6.05211">
        <ele>255.39999389648</ele>
        <time>2015-02-11T12:53:43Z</time>
      </trkpt>
      <trkpt lat="43.42237" lon="6.05213">
        <ele>255.80000305176</ele>
        <time>2015-02-11T12:53:44Z</time>
      </trkpt>
      <trkpt lat="43.42247" lon="6.05216">
        <ele>255.80000305176</ele>
        <time>2015-02-11T12:53:47Z</time>
      </trkpt>
      <trkpt lat="43.42258" lon="6.05215">
        <ele>256.79998779297</ele>
        <time>2015-02-11T12:53:50Z</time>
      </trkpt>
      <trkpt lat="43.42268" lon="6.05215">
        <ele>256.79998779297</ele>
        <time>2015-02-11T12:53:53Z</time>
      </trkpt>
      <trkpt lat="43.42286" lon="6.05216">
        <ele>257.60000610352</ele>
        <time>2015-02-11T12:53:58Z</time>
      </trkpt>
      <trkpt lat="43.42289" lon="6.05217">
        <ele>257.79998779297</ele>
        <time>2015-02-11T12:53:59Z</time>
      </trkpt>
      <trkpt lat="43.42296" lon="6.05219">
        <ele>258.20001220703</ele>
        <time>2015-02-11T12:54:01Z</time>
      </trkpt>
      <trkpt lat="43.42305" lon="6.05221">
        <ele>258.39999389648</ele>
        <time>2015-02-11T12:54:04Z</time>
      </trkpt>
      <trkpt lat="43.42315" lon="6.05224">
        <ele>259</ele>
        <time>2015-02-11T12:54:08Z</time>
      </trkpt>
      <trkpt lat="43.42326" lon="6.05225">
        <ele>260</ele>
        <time>2015-02-11T12:54:13Z</time>
      </trkpt>
      <trkpt lat="43.42327" lon="6.05226">
        <ele>260.20001220703</ele>
        <time>2015-02-11T12:54:14Z</time>
      </trkpt>
      <trkpt lat="43.42333" lon="6.05228">
        <ele>261</ele>
        <time>2015-02-11T12:54:17Z</time>
      </trkpt>
      <trkpt lat="43.42344" lon="6.05232">
        <ele>262.39999389648</ele>
        <time>2015-02-11T12:54:22Z</time>
      </trkpt>
      <trkpt lat="43.42345" lon="6.05233">
        <ele>262.60000610352</ele>
        <time>2015-02-11T12:54:23Z</time>
      </trkpt>
      <trkpt lat="43.42355" lon="6.05232">
        <ele>263.39999389648</ele>
        <time>2015-02-11T12:54:27Z</time>
      </trkpt>
      <trkpt lat="43.4236" lon="6.05231">
        <ele>263.60000610352</ele>
        <time>2015-02-11T12:54:29Z</time>
      </trkpt>
      <trkpt lat="43.42376" lon="6.05227">
        <ele>264.39999389648</ele>
        <time>2015-02-11T12:54:36Z</time>
      </trkpt>
      <trkpt lat="43.42379" lon="6.05227">
        <ele>264.79998779297</ele>
        <time>2015-02-11T12:54:38Z</time>
      </trkpt>
      <trkpt lat="43.42388" lon="6.05226">
        <ele>265.39999389648</ele>
        <time>2015-02-11T12:54:43Z</time>
      </trkpt>
      <trkpt lat="43.42395" lon="6.05224">
        <ele>265.79998779297</ele>
        <time>2015-02-11T12:54:46Z</time>
      </trkpt>
      <trkpt lat="43.4241" lon="6.05221">
        <ele>266.20001220703</ele>
        <time>2015-02-11T12:54:53Z</time>
      </trkpt>
      <trkpt lat="43.42416" lon="6.05221">
        <ele>266.60000610352</ele>
        <time>2015-02-11T12:54:56Z</time>
      </trkpt>
      <trkpt lat="43.42441" lon="6.05221">
        <ele>267.60000610352</ele>
        <time>2015-02-11T12:55:07Z</time>
      </trkpt>
      <trkpt lat="43.42451" lon="6.05217">
        <ele>268.20001220703</ele>
        <time>2015-02-11T12:55:11Z</time>
      </trkpt>
      <trkpt lat="43.42453" lon="6.05216">
        <ele>268.60000610352</ele>
        <time>2015-02-11T12:55:12Z</time>
      </trkpt>
      <trkpt lat="43.42461" lon="6.05213">
        <ele>269.60000610352</ele>
        <time>2015-02-11T12:55:15Z</time>
      </trkpt>
      <trkpt lat="43.42464" lon="6.05212">
        <ele>270.20001220703</ele>
        <time>2015-02-11T12:55:17Z</time>
      </trkpt>
      <trkpt lat="43.42467" lon="6.05212">
        <ele>270.79998779297</ele>
        <time>2015-02-11T12:55:19Z</time>
      </trkpt>
      <trkpt lat="43.42471" lon="6.05213">
        <ele>271</ele>
        <time>2015-02-11T12:55:22Z</time>
      </trkpt>
      <trkpt lat="43.42487" lon="6.05216">
        <ele>271.20001220703</ele>
        <time>2015-02-11T12:55:29Z</time>
      </trkpt>
      <trkpt lat="43.42499" lon="6.05221">
        <ele>270.79998779297</ele>
        <time>2015-02-11T12:55:33Z</time>
      </trkpt>
      <trkpt lat="43.42512" lon="6.05224">
        <ele>270.79998779297</ele>
        <time>2015-02-11T12:55:38Z</time>
      </trkpt>
      <trkpt lat="43.42525" lon="6.05225">
        <ele>271.39999389648</ele>
        <time>2015-02-11T12:55:44Z</time>
      </trkpt>
      <trkpt lat="43.42535" lon="6.05225">
        <ele>271.79998779297</ele>
        <time>2015-02-11T12:55:49Z</time>
      </trkpt>
      <trkpt lat="43.42542" lon="6.05222">
        <ele>272.20001220703</ele>
        <time>2015-02-11T12:55:52Z</time>
      </trkpt>
      <trkpt lat="43.42547" lon="6.05219">
        <ele>273</ele>
        <time>2015-02-11T12:55:55Z</time>
      </trkpt>
      <trkpt lat="43.42549" lon="6.05218">
        <ele>273.20001220703</ele>
        <time>2015-02-11T12:55:56Z</time>
      </trkpt>
      <trkpt lat="43.42559" lon="6.05217">
        <ele>274.20001220703</ele>
        <time>2015-02-11T12:56:01Z</time>
      </trkpt>
      <trkpt lat="43.42572" lon="6.05221">
        <ele>273.79998779297</ele>
        <time>2015-02-11T12:56:06Z</time>
      </trkpt>
      <trkpt lat="43.42585" lon="6.05229">
        <ele>273.79998779297</ele>
        <time>2015-02-11T12:56:11Z</time>
      </trkpt>
      <trkpt lat="43.42601" lon="6.05242">
        <ele>274.20001220703</ele>
        <time>2015-02-11T12:56:18Z</time>
      </trkpt>
      <trkpt lat="43.42616" lon="6.05255">
        <ele>274.79998779297</ele>
        <time>2015-02-11T12:56:24Z</time>
      </trkpt>
      <trkpt lat="43.42622" lon="6.0526">
        <ele>275.79998779297</ele>
        <time>2015-02-11T12:56:28Z</time>
      </trkpt>
      <trkpt lat="43.42624" lon="6.0526">
        <ele>275.79998779297</ele>
        <time>2015-02-11T12:56:29Z</time>
      </trkpt>
      <trkpt lat="43.4263" lon="6.05263">
        <ele>275.79998779297</ele>
        <time>2015-02-11T12:56:34Z</time>
      </trkpt>
      <trkpt lat="43.42633" lon="6.05264">
        <ele>276.39999389648</ele>
        <time>2015-02-11T12:56:40Z</time>
      </trkpt>
      <trkpt lat="43.42634" lon="6.05265">
        <ele>276.39999389648</ele>
        <time>2015-02-11T12:56:41Z</time>
      </trkpt>
      <trkpt lat="43.42633" lon="6.05265">
        <ele>276.20001220703</ele>
        <time>2015-02-11T12:56:44Z</time>
      </trkpt>
      <trkpt lat="43.42633" lon="6.05265">
        <ele>276.39999389648</ele>
        <time>2015-02-11T12:56:48Z</time>
      </trkpt>
      <trkpt lat="43.42633" lon="6.05264">
        <ele>276.60000610352</ele>
        <time>2015-02-11T12:56:54Z</time>
      </trkpt>
      <trkpt lat="43.42633" lon="6.05264">
        <ele>276.20001220703</ele>
        <time>2015-02-11T12:57:01Z</time>
      </trkpt>
      <trkpt lat="43.42633" lon="6.05265">
        <ele>276.20001220703</ele>
        <time>2015-02-11T12:57:17Z</time>
      </trkpt>
      <trkpt lat="43.42633" lon="6.05265">
        <ele>276</ele>
        <time>2015-02-11T12:58:27Z</time>
      </trkpt>
      <trkpt lat="43.42633" lon="6.05265">
        <ele>276.39999389648</ele>
        <time>2015-02-11T12:58:36Z</time>
      </trkpt>
      <trkpt lat="43.42633" lon="6.05265">
        <ele>276.39999389648</ele>
        <time>2015-02-11T12:58:40Z</time>
      </trkpt>
      <trkpt lat="43.42631" lon="6.05266">
        <ele>276</ele>
        <time>2015-02-11T12:58:47Z</time>
      </trkpt>
      <trkpt lat="43.42631" lon="6.05266">
        <ele>276</ele>
        <time>2015-02-11T12:58:56Z</time>
      </trkpt>
      <trkpt lat="43.42631" lon="6.05265">
        <ele>276</ele>
        <time>2015-02-11T12:59:03Z</time>
      </trkpt>
      <trkpt lat="43.42631" lon="6.05265">
        <ele>275.79998779297</ele>
        <time>2015-02-11T12:59:13Z</time>
      </trkpt>
      <trkpt lat="43.42633" lon="6.05265">
        <ele>276</ele>
        <time>2015-02-11T12:59:19Z</time>
      </trkpt>
      <trkpt lat="43.42633" lon="6.05265">
        <ele>276.20001220703</ele>
        <time>2015-02-11T12:59:31Z</time>
      </trkpt>
      <trkpt lat="43.42635" lon="6.05266">
        <ele>276.60000610352</ele>
        <time>2015-02-11T12:59:38Z</time>
      </trkpt>
      <trkpt lat="43.42635" lon="6.05266">
        <ele>276</ele>
        <time>2015-02-11T12:59:47Z</time>
      </trkpt>
      <trkpt lat="43.42635" lon="6.05265">
        <ele>275.79998779297</ele>
        <time>2015-02-11T13:00:18Z</time>
      </trkpt>
      <trkpt lat="43.42635" lon="6.05265">
        <ele>275.79998779297</ele>
        <time>2015-02-11T13:00:30Z</time>
      </trkpt>
      <trkpt lat="43.42635" lon="6.05265">
        <ele>276</ele>
        <time>2015-02-11T13:00:54Z</time>
      </trkpt>
      <trkpt lat="43.42635" lon="6.05263">
        <ele>276</ele>
        <time>2015-02-11T13:01:54Z</time>
      </trkpt>
      <trkpt lat="43.42635" lon="6.05263">
        <ele>275.79998779297</ele>
        <time>2015-02-11T13:02:37Z</time>
      </trkpt>
      <trkpt lat="43.42635" lon="6.05263">
        <ele>275.79998779297</ele>
        <time>2015-02-11T13:03:01Z</time>
      </trkpt>
      <trkpt lat="43.42635" lon="6.05263">
        <ele>275.79998779297</ele>
        <time>2015-02-11T13:03:19Z</time>
      </trkpt>
      <trkpt lat="43.42636" lon="6.05263">
        <ele>275.79998779297</ele>
        <time>2015-02-11T13:03:23Z</time>
      </trkpt>
      <trkpt lat="43.42636" lon="6.05262">
        <ele>276</ele>
        <time>2015-02-11T13:03:35Z</time>
      </trkpt>
      <trkpt lat="43.42636" lon="6.05262">
        <ele>276</ele>
        <time>2015-02-11T13:03:36Z</time>
      </trkpt>
      <trkpt lat="43.42636" lon="6.05261">
        <ele>276</ele>
        <time>2015-02-11T13:03:50Z</time>
      </trkpt>
      <trkpt lat="43.42636" lon="6.0526">
        <ele>275.79998779297</ele>
        <time>2015-02-11T13:04:05Z</time>
      </trkpt>
      <trkpt lat="43.42636" lon="6.05261">
        <ele>276</ele>
        <time>2015-02-11T13:04:13Z</time>
      </trkpt>
      <trkpt lat="43.42636" lon="6.05261">
        <ele>276.39999389648</ele>
        <time>2015-02-11T13:04:24Z</time>
      </trkpt>
      <trkpt lat="43.42636" lon="6.05261">
        <ele>276.20001220703</ele>
        <time>2015-02-11T13:04:42Z</time>
      </trkpt>
      <trkpt lat="43.42636" lon="6.05261">
        <ele>276</ele>
        <time>2015-02-11T13:05:13Z</time>
      </trkpt>
      <trkpt lat="43.42636" lon="6.05261">
        <ele>276</ele>
        <time>2015-02-11T13:05:39Z</time>
      </trkpt>
      <trkpt lat="43.42636" lon="6.0526">
        <ele>276</ele>
        <time>2015-02-11T13:05:54Z</time>
      </trkpt>
      <trkpt lat="43.42636" lon="6.0526">
        <ele>276</ele>
        <time>2015-02-11T13:05:55Z</time>
      </trkpt>
      <trkpt lat="43.42636" lon="6.0526">
        <ele>276</ele>
        <time>2015-02-11T13:06:35Z</time>
      </trkpt>
      <trkpt lat="43.42636" lon="6.05259">
        <ele>276.20001220703</ele>
        <time>2015-02-11T13:06:49Z</time>
      </trkpt>
      <trkpt lat="43.42635" lon="6.05258">
        <ele>276.39999389648</ele>
        <time>2015-02-11T13:07:03Z</time>
      </trkpt>
      <trkpt lat="43.42635" lon="6.05258">
        <ele>276.39999389648</ele>
        <time>2015-02-11T13:07:28Z</time>
      </trkpt>
      <trkpt lat="43.42635" lon="6.05258">
        <ele>276.39999389648</ele>
        <time>2015-02-11T13:07:59Z</time>
      </trkpt>
      <trkpt lat="43.42635" lon="6.05259">
        <ele>277</ele>
        <time>2015-02-11T13:12:20Z</time>
      </trkpt>
      <trkpt lat="43.42635" lon="6.05259">
        <ele>277</ele>
        <time>2015-02-11T13:12:31Z</time>
      </trkpt>
      <trkpt lat="43.42635" lon="6.0526">
        <ele>277.20001220703</ele>
        <time>2015-02-11T13:15:45Z</time>
      </trkpt>
      <trkpt lat="43.42635" lon="6.0526">
        <ele>277.20001220703</ele>
        <time>2015-02-11T13:16:18Z</time>
      </trkpt>
      <trkpt lat="43.42635" lon="6.0526">
        <ele>277.20001220703</ele>
        <time>2015-02-11T13:16:31Z</time>
      </trkpt>
      <trkpt lat="43.42635" lon="6.0526">
        <ele>277.60000610352</ele>
        <time>2015-02-11T13:16:48Z</time>
      </trkpt>
      <trkpt lat="43.42635" lon="6.05261">
        <ele>277.60000610352</ele>
        <time>2015-02-11T13:17:05Z</time>
      </trkpt>
      <trkpt lat="43.42635" lon="6.05262">
        <ele>277.79998779297</ele>
        <time>2015-02-11T13:17:07Z</time>
      </trkpt>
      <trkpt lat="43.42638" lon="6.05271">
        <ele>278.39999389648</ele>
        <time>2015-02-11T13:17:15Z</time>
      </trkpt>
      <trkpt lat="43.42643" lon="6.05274">
        <ele>278.60000610352</ele>
        <time>2015-02-11T13:17:17Z</time>
      </trkpt>
      <trkpt lat="43.42652" lon="6.05283">
        <ele>279</ele>
        <time>2015-02-11T13:17:21Z</time>
      </trkpt>
      <trkpt lat="43.42658" lon="6.05295">
        <ele>280</ele>
        <time>2015-02-11T13:17:25Z</time>
      </trkpt>
      <trkpt lat="43.42663" lon="6.05304">
        <ele>280.39999389648</ele>
        <time>2015-02-11T13:17:28Z</time>
      </trkpt>
      <trkpt lat="43.42669" lon="6.05312">
        <ele>280.79998779297</ele>
        <time>2015-02-11T13:17:31Z</time>
      </trkpt>
      <trkpt lat="43.42671" lon="6.05314">
        <ele>280.79998779297</ele>
        <time>2015-02-11T13:17:32Z</time>
      </trkpt>
      <trkpt lat="43.42675" lon="6.05323">
        <ele>281.39999389648</ele>
        <time>2015-02-11T13:17:35Z</time>
      </trkpt>
      <trkpt lat="43.42676" lon="6.05324">
        <ele>282</ele>
        <time>2015-02-11T13:17:36Z</time>
      </trkpt>
      <trkpt lat="43.42677" lon="6.05325">
        <ele>282.20001220703</ele>
        <time>2015-02-11T13:17:37Z</time>
      </trkpt>
      <trkpt lat="43.4268" lon="6.0533">
        <ele>282.60000610352</ele>
        <time>2015-02-11T13:17:40Z</time>
      </trkpt>
      <trkpt lat="43.42684" lon="6.05333">
        <ele>283</ele>
        <time>2015-02-11T13:17:42Z</time>
      </trkpt>
      <trkpt lat="43.42686" lon="6.05334">
        <ele>283.20001220703</ele>
        <time>2015-02-11T13:17:43Z</time>
      </trkpt>
      <trkpt lat="43.4269" lon="6.05336">
        <ele>283.39999389648</ele>
        <time>2015-02-11T13:17:45Z</time>
      </trkpt>
      <trkpt lat="43.42701" lon="6.05339">
        <ele>283.60000610352</ele>
        <time>2015-02-11T13:17:50Z</time>
      </trkpt>
      <trkpt lat="43.42706" lon="6.05339">
        <ele>284.39999389648</ele>
        <time>2015-02-11T13:17:52Z</time>
      </trkpt>
      <trkpt lat="43.42716" lon="6.0534">
        <ele>284.79998779297</ele>
        <time>2015-02-11T13:17:56Z</time>
      </trkpt>
      <trkpt lat="43.42722" lon="6.05348">
        <ele>285.60000610352</ele>
        <time>2015-02-11T13:18:01Z</time>
      </trkpt>
      <trkpt lat="43.4272" lon="6.0536">
        <ele>286</ele>
        <time>2015-02-11T13:18:06Z</time>
      </trkpt>
      <trkpt lat="43.42718" lon="6.05368">
        <ele>286.39999389648</ele>
        <time>2015-02-11T13:18:09Z</time>
      </trkpt>
      <trkpt lat="43.42719" lon="6.05372">
        <ele>286.60000610352</ele>
        <time>2015-02-11T13:18:11Z</time>
      </trkpt>
      <trkpt lat="43.42719" lon="6.05376">
        <ele>287.20001220703</ele>
        <time>2015-02-11T13:18:13Z</time>
      </trkpt>
      <trkpt lat="43.4272" lon="6.05382">
        <ele>287.60000610352</ele>
        <time>2015-02-11T13:18:16Z</time>
      </trkpt>
      <trkpt lat="43.42721" lon="6.05385">
        <ele>287.60000610352</ele>
        <time>2015-02-11T13:18:17Z</time>
      </trkpt>
      <trkpt lat="43.42722" lon="6.05387">
        <ele>287.79998779297</ele>
        <time>2015-02-11T13:18:18Z</time>
      </trkpt>
      <trkpt lat="43.42723" lon="6.05394">
        <ele>288.39999389648</ele>
        <time>2015-02-11T13:18:22Z</time>
      </trkpt>
      <trkpt lat="43.42725" lon="6.05401">
        <ele>289.20001220703</ele>
        <time>2015-02-11T13:18:25Z</time>
      </trkpt>
      <trkpt lat="43.42726" lon="6.05408">
        <ele>289.79998779297</ele>
        <time>2015-02-11T13:18:29Z</time>
      </trkpt>
      <trkpt lat="43.42729" lon="6.05417">
        <ele>290.20001220703</ele>
        <time>2015-02-11T13:18:33Z</time>
      </trkpt>
      <trkpt lat="43.4273" lon="6.05421">
        <ele>290.20001220703</ele>
        <time>2015-02-11T13:18:35Z</time>
      </trkpt>
      <trkpt lat="43.42732" lon="6.05437">
        <ele>291.20001220703</ele>
        <time>2015-02-11T13:18:41Z</time>
      </trkpt>
      <trkpt lat="43.42731" lon="6.05439">
        <ele>291.39999389648</ele>
        <time>2015-02-11T13:18:42Z</time>
      </trkpt>
      <trkpt lat="43.42731" lon="6.05451">
        <ele>291.79998779297</ele>
        <time>2015-02-11T13:18:48Z</time>
      </trkpt>
      <trkpt lat="43.42726" lon="6.05458">
        <ele>292.39999389648</ele>
        <time>2015-02-11T13:18:52Z</time>
      </trkpt>
      <trkpt lat="43.42724" lon="6.05464">
        <ele>292.79998779297</ele>
        <time>2015-02-11T13:18:55Z</time>
      </trkpt>
      <trkpt lat="43.42724" lon="6.05477">
        <ele>293</ele>
        <time>2015-02-11T13:19:01Z</time>
      </trkpt>
      <trkpt lat="43.42726" lon="6.0549">
        <ele>294</ele>
        <time>2015-02-11T13:19:07Z</time>
      </trkpt>
      <trkpt lat="43.42727" lon="6.055">
        <ele>294.60000610352</ele>
        <time>2015-02-11T13:19:11Z</time>
      </trkpt>
      <trkpt lat="43.42727" lon="6.05507">
        <ele>294.79998779297</ele>
        <time>2015-02-11T13:19:14Z</time>
      </trkpt>
      <trkpt lat="43.42728" lon="6.05519">
        <ele>295.60000610352</ele>
        <time>2015-02-11T13:19:18Z</time>
      </trkpt>
      <trkpt lat="43.42728" lon="6.05524">
        <ele>296</ele>
        <time>2015-02-11T13:19:20Z</time>
      </trkpt>
      <trkpt lat="43.4273" lon="6.05534">
        <ele>296.79998779297</ele>
        <time>2015-02-11T13:19:24Z</time>
      </trkpt>
      <trkpt lat="43.42733" lon="6.05541">
        <ele>297.20001220703</ele>
        <time>2015-02-11T13:19:27Z</time>
      </trkpt>
      <trkpt lat="43.42737" lon="6.05557">
        <ele>298</ele>
        <time>2015-02-11T13:19:34Z</time>
      </trkpt>
      <trkpt lat="43.42742" lon="6.05568">
        <ele>298.60000610352</ele>
        <time>2015-02-11T13:19:39Z</time>
      </trkpt>
      <trkpt lat="43.42746" lon="6.05573">
        <ele>299.20001220703</ele>
        <time>2015-02-11T13:19:42Z</time>
      </trkpt>
      <trkpt lat="43.42751" lon="6.05578">
        <ele>300</ele>
        <time>2015-02-11T13:19:46Z</time>
      </trkpt>
      <trkpt lat="43.42752" lon="6.05581">
        <ele>300.39999389648</ele>
        <time>2015-02-11T13:19:47Z</time>
      </trkpt>
      <trkpt lat="43.42754" lon="6.05583">
        <ele>300.60000610352</ele>
        <time>2015-02-11T13:19:51Z</time>
      </trkpt>
      <trkpt lat="43.42754" lon="6.05583">
        <ele>300.60000610352</ele>
        <time>2015-02-11T13:19:56Z</time>
      </trkpt>
      <trkpt lat="43.42753" lon="6.05585">
        <ele>300.79998779297</ele>
        <time>2015-02-11T13:20:02Z</time>
      </trkpt>
      <trkpt lat="43.42753" lon="6.05586">
        <ele>301.20001220703</ele>
        <time>2015-02-11T13:20:11Z</time>
      </trkpt>
      <trkpt lat="43.42753" lon="6.05586">
        <ele>300.79998779297</ele>
        <time>2015-02-11T13:20:18Z</time>
      </trkpt>
      <trkpt lat="43.42753" lon="6.05585">
        <ele>300.79998779297</ele>
        <time>2015-02-11T13:20:23Z</time>
      </trkpt>
      <trkpt lat="43.42753" lon="6.05585">
        <ele>300.79998779297</ele>
        <time>2015-02-11T13:20:27Z</time>
      </trkpt>
      <trkpt lat="43.42753" lon="6.05586">
        <ele>301.20001220703</ele>
        <time>2015-02-11T13:20:34Z</time>
      </trkpt>
      <trkpt lat="43.42753" lon="6.05585">
        <ele>300.60000610352</ele>
        <time>2015-02-11T13:21:23Z</time>
      </trkpt>
      <trkpt lat="43.42753" lon="6.05585">
        <ele>300.79998779297</ele>
        <time>2015-02-11T13:21:31Z</time>
      </trkpt>
      <trkpt lat="43.42753" lon="6.05585">
        <ele>301</ele>
        <time>2015-02-11T13:21:53Z</time>
      </trkpt>
      <trkpt lat="43.42753" lon="6.05585">
        <ele>300.79998779297</ele>
        <time>2015-02-11T13:22:00Z</time>
      </trkpt>
      <trkpt lat="43.42755" lon="6.05586">
        <ele>301.20001220703</ele>
        <time>2015-02-11T13:22:04Z</time>
      </trkpt>
      <trkpt lat="43.42755" lon="6.05586">
        <ele>301.39999389648</ele>
        <time>2015-02-11T13:22:13Z</time>
      </trkpt>
      <trkpt lat="43.42756" lon="6.05591">
        <ele>301.39999389648</ele>
        <time>2015-02-11T13:22:17Z</time>
      </trkpt>
      <trkpt lat="43.42756" lon="6.05593">
        <ele>301.39999389648</ele>
        <time>2015-02-11T13:22:18Z</time>
      </trkpt>
      <trkpt lat="43.42755" lon="6.05602">
        <ele>302</ele>
        <time>2015-02-11T13:22:21Z</time>
      </trkpt>
      <trkpt lat="43.42752" lon="6.05609">
        <ele>303</ele>
        <time>2015-02-11T13:22:24Z</time>
      </trkpt>
      <trkpt lat="43.42751" lon="6.05615">
        <ele>303.39999389648</ele>
        <time>2015-02-11T13:22:26Z</time>
      </trkpt>
      <trkpt lat="43.42749" lon="6.0562">
        <ele>304.20001220703</ele>
        <time>2015-02-11T13:22:28Z</time>
      </trkpt>
      <trkpt lat="43.42747" lon="6.05623">
        <ele>304.39999389648</ele>
        <time>2015-02-11T13:22:29Z</time>
      </trkpt>
      <trkpt lat="43.42746" lon="6.05626">
        <ele>304.60000610352</ele>
        <time>2015-02-11T13:22:30Z</time>
      </trkpt>
      <trkpt lat="43.42743" lon="6.05632">
        <ele>305.20001220703</ele>
        <time>2015-02-11T13:22:33Z</time>
      </trkpt>
      <trkpt lat="43.42738" lon="6.05637">
        <ele>305.39999389648</ele>
        <time>2015-02-11T13:22:36Z</time>
      </trkpt>
      <trkpt lat="43.42732" lon="6.05644">
        <ele>305.39999389648</ele>
        <time>2015-02-11T13:22:40Z</time>
      </trkpt>
      <trkpt lat="43.4273" lon="6.05649">
        <ele>306</ele>
        <time>2015-02-11T13:22:43Z</time>
      </trkpt>
      <trkpt lat="43.42726" lon="6.05659">
        <ele>306.60000610352</ele>
        <time>2015-02-11T13:22:49Z</time>
      </trkpt>
      <trkpt lat="43.42723" lon="6.05667">
        <ele>307.39999389648</ele>
        <time>2015-02-11T13:22:56Z</time>
      </trkpt>
      <trkpt lat="43.42722" lon="6.05669">
        <ele>307.60000610352</ele>
        <time>2015-02-11T13:23:00Z</time>
      </trkpt>
      <trkpt lat="43.42722" lon="6.05669">
        <ele>307.60000610352</ele>
        <time>2015-02-11T13:23:04Z</time>
      </trkpt>
      <trkpt lat="43.42716" lon="6.05673">
        <ele>308</ele>
        <time>2015-02-11T13:23:10Z</time>
      </trkpt>
      <trkpt lat="43.42711" lon="6.05677">
        <ele>308.60000610352</ele>
        <time>2015-02-11T13:23:14Z</time>
      </trkpt>
      <trkpt lat="43.42709" lon="6.0568">
        <ele>309</ele>
        <time>2015-02-11T13:23:16Z</time>
      </trkpt>
      <trkpt lat="43.42706" lon="6.05685">
        <ele>309.39999389648</ele>
        <time>2015-02-11T13:23:20Z</time>
      </trkpt>
      <trkpt lat="43.42706" lon="6.05688">
        <ele>309.39999389648</ele>
        <time>2015-02-11T13:23:22Z</time>
      </trkpt>
      <trkpt lat="43.42706" lon="6.05692">
        <ele>309.79998779297</ele>
        <time>2015-02-11T13:23:24Z</time>
      </trkpt>
      <trkpt lat="43.42705" lon="6.05693">
        <ele>310</ele>
        <time>2015-02-11T13:23:25Z</time>
      </trkpt>
      <trkpt lat="43.42705" lon="6.05695">
        <ele>310.39999389648</ele>
        <time>2015-02-11T13:23:27Z</time>
      </trkpt>
      <trkpt lat="43.42705" lon="6.05694">
        <ele>310.39999389648</ele>
        <time>2015-02-11T13:23:32Z</time>
      </trkpt>
      <trkpt lat="43.42706" lon="6.05695">
        <ele>310.39999389648</ele>
        <time>2015-02-11T13:23:34Z</time>
      </trkpt>
      <trkpt lat="43.42706" lon="6.0569">
        <ele>309.79998779297</ele>
        <time>2015-02-11T13:23:42Z</time>
      </trkpt>
      <trkpt lat="43.42706" lon="6.05686">
        <ele>309.60000610352</ele>
        <time>2015-02-11T13:23:49Z</time>
      </trkpt>
      <trkpt lat="43.42706" lon="6.05686">
        <ele>309.79998779297</ele>
        <time>2015-02-11T13:23:50Z</time>
      </trkpt>
      <trkpt lat="43.42706" lon="6.05687">
        <ele>309.60000610352</ele>
        <time>2015-02-11T13:23:57Z</time>
      </trkpt>
      <trkpt lat="43.42707" lon="6.05686">
        <ele>309.79998779297</ele>
        <time>2015-02-11T13:24:04Z</time>
      </trkpt>
      <trkpt lat="43.42706" lon="6.05688">
        <ele>309.60000610352</ele>
        <time>2015-02-11T13:24:10Z</time>
      </trkpt>
      <trkpt lat="43.42706" lon="6.0569">
        <ele>309.60000610352</ele>
        <time>2015-02-11T13:24:12Z</time>
      </trkpt>
      <trkpt lat="43.42704" lon="6.05696">
        <ele>310.39999389648</ele>
        <time>2015-02-11T13:24:17Z</time>
      </trkpt>
      <trkpt lat="43.42703" lon="6.05701">
        <ele>311.20001220703</ele>
        <time>2015-02-11T13:24:22Z</time>
      </trkpt>
      <trkpt lat="43.42701" lon="6.05707">
        <ele>311.79998779297</ele>
        <time>2015-02-11T13:24:25Z</time>
      </trkpt>
      <trkpt lat="43.42701" lon="6.05714">
        <ele>312.20001220703</ele>
        <time>2015-02-11T13:24:27Z</time>
      </trkpt>
      <trkpt lat="43.42699" lon="6.05718">
        <ele>313.20001220703</ele>
        <time>2015-02-11T13:24:29Z</time>
      </trkpt>
      <trkpt lat="43.42698" lon="6.05724">
        <ele>313.60000610352</ele>
        <time>2015-02-11T13:24:31Z</time>
      </trkpt>
      <trkpt lat="43.42699" lon="6.0573">
        <ele>313.79998779297</ele>
        <time>2015-02-11T13:24:33Z</time>
      </trkpt>
      <trkpt lat="43.427" lon="6.05731">
        <ele>314</ele>
        <time>2015-02-11T13:24:34Z</time>
      </trkpt>
      <trkpt lat="43.42711" lon="6.05734">
        <ele>314.60000610352</ele>
        <time>2015-02-11T13:24:39Z</time>
      </trkpt>
      <trkpt lat="43.42732" lon="6.05738">
        <ele>315</ele>
        <time>2015-02-11T13:24:47Z</time>
      </trkpt>
      <trkpt lat="43.42744" lon="6.05739">
        <ele>315.60000610352</ele>
        <time>2015-02-11T13:24:53Z</time>
      </trkpt>
      <trkpt lat="43.42746" lon="6.0574">
        <ele>315.79998779297</ele>
        <time>2015-02-11T13:24:54Z</time>
      </trkpt>
      <trkpt lat="43.4275" lon="6.05741">
        <ele>316.20001220703</ele>
        <time>2015-02-11T13:24:56Z</time>
      </trkpt>
      <trkpt lat="43.42755" lon="6.05736">
        <ele>316.20001220703</ele>
        <time>2015-02-11T13:24:59Z</time>
      </trkpt>
      <trkpt lat="43.42767" lon="6.05728">
        <ele>316.20001220703</ele>
        <time>2015-02-11T13:25:04Z</time>
      </trkpt>
      <trkpt lat="43.42776" lon="6.05731">
        <ele>316.60000610352</ele>
        <time>2015-02-11T13:25:08Z</time>
      </trkpt>
      <trkpt lat="43.42777" lon="6.05732">
        <ele>316.60000610352</ele>
        <time>2015-02-11T13:25:09Z</time>
      </trkpt>
      <trkpt lat="43.42786" lon="6.05735">
        <ele>316.60000610352</ele>
        <time>2015-02-11T13:25:14Z</time>
      </trkpt>
      <trkpt lat="43.42792" lon="6.0574">
        <ele>317.39999389648</ele>
        <time>2015-02-11T13:25:18Z</time>
      </trkpt>
      <trkpt lat="43.42802" lon="6.05741">
        <ele>317.39999389648</ele>
        <time>2015-02-11T13:25:23Z</time>
      </trkpt>
      <trkpt lat="43.42807" lon="6.05739">
        <ele>317.20001220703</ele>
        <time>2015-02-11T13:25:25Z</time>
      </trkpt>
      <trkpt lat="43.42815" lon="6.05735">
        <ele>317</ele>
        <time>2015-02-11T13:25:28Z</time>
      </trkpt>
      <trkpt lat="43.42826" lon="6.05733">
        <ele>317</ele>
        <time>2015-02-11T13:25:33Z</time>
      </trkpt>
      <trkpt lat="43.42836" lon="6.05727">
        <ele>317.39999389648</ele>
        <time>2015-02-11T13:25:39Z</time>
      </trkpt>
      <trkpt lat="43.42842" lon="6.05716">
        <ele>317</ele>
        <time>2015-02-11T13:25:43Z</time>
      </trkpt>
      <trkpt lat="43.42846" lon="6.05696">
        <ele>317.60000610352</ele>
        <time>2015-02-11T13:25:49Z</time>
      </trkpt>
      <trkpt lat="43.42846" lon="6.05692">
        <ele>317.60000610352</ele>
        <time>2015-02-11T13:25:50Z</time>
      </trkpt>
      <trkpt lat="43.42851" lon="6.05662">
        <ele>317.79998779297</ele>
        <time>2015-02-11T13:25:57Z</time>
      </trkpt>
      <trkpt lat="43.42857" lon="6.05621">
        <ele>316.79998779297</ele>
        <time>2015-02-11T13:26:04Z</time>
      </trkpt>
      <trkpt lat="43.42861" lon="6.05578">
        <ele>317.60000610352</ele>
        <time>2015-02-11T13:26:11Z</time>
      </trkpt>
      <trkpt lat="43.42864" lon="6.05551">
        <ele>316.39999389648</ele>
        <time>2015-02-11T13:26:15Z</time>
      </trkpt>
      <trkpt lat="43.42868" lon="6.05543">
        <ele>316.20001220703</ele>
        <time>2015-02-11T13:26:17Z</time>
      </trkpt>
      <trkpt lat="43.42871" lon="6.05541">
        <ele>315.79998779297</ele>
        <time>2015-02-11T13:26:18Z</time>
      </trkpt>
      <trkpt lat="43.42877" lon="6.05542">
        <ele>316.20001220703</ele>
        <time>2015-02-11T13:26:20Z</time>
      </trkpt>
      <trkpt lat="43.42896" lon="6.05549">
        <ele>315.60000610352</ele>
        <time>2015-02-11T13:26:25Z</time>
      </trkpt>
      <trkpt lat="43.4291" lon="6.05553">
        <ele>315</ele>
        <time>2015-02-11T13:26:29Z</time>
      </trkpt>
      <trkpt lat="43.42921" lon="6.05545">
        <ele>314.39999389648</ele>
        <time>2015-02-11T13:26:32Z</time>
      </trkpt>
      <trkpt lat="43.42925" lon="6.05543">
        <ele>314</ele>
        <time>2015-02-11T13:26:33Z</time>
      </trkpt>
      <trkpt lat="43.42929" lon="6.0554">
        <ele>313.79998779297</ele>
        <time>2015-02-11T13:26:34Z</time>
      </trkpt>
      <trkpt lat="43.42939" lon="6.0553">
        <ele>313.79998779297</ele>
        <time>2015-02-11T13:26:37Z</time>
      </trkpt>
      <trkpt lat="43.42944" lon="6.05526">
        <ele>313.20001220703</ele>
        <time>2015-02-11T13:26:39Z</time>
      </trkpt>
      <trkpt lat="43.42953" lon="6.05522">
        <ele>313.60000610352</ele>
        <time>2015-02-11T13:26:42Z</time>
      </trkpt>
      <trkpt lat="43.42959" lon="6.0552">
        <ele>314.39999389648</ele>
        <time>2015-02-11T13:26:44Z</time>
      </trkpt>
      <trkpt lat="43.42966" lon="6.05517">
        <ele>315.39999389648</ele>
        <time>2015-02-11T13:26:47Z</time>
      </trkpt>
      <trkpt lat="43.42971" lon="6.05515">
        <ele>316.60000610352</ele>
        <time>2015-02-11T13:26:50Z</time>
      </trkpt>
      <trkpt lat="43.42974" lon="6.05513">
        <ele>317.20001220703</ele>
        <time>2015-02-11T13:26:52Z</time>
      </trkpt>
      <trkpt lat="43.42976" lon="6.05512">
        <ele>317.39999389648</ele>
        <time>2015-02-11T13:26:53Z</time>
      </trkpt>
      <trkpt lat="43.42982" lon="6.05508">
        <ele>318.39999389648</ele>
        <time>2015-02-11T13:26:57Z</time>
      </trkpt>
      <trkpt lat="43.42988" lon="6.05504">
        <ele>319.39999389648</ele>
        <time>2015-02-11T13:27:00Z</time>
      </trkpt>
      <trkpt lat="43.42995" lon="6.05503">
        <ele>320.79998779297</ele>
        <time>2015-02-11T13:27:05Z</time>
      </trkpt>
      <trkpt lat="43.43003" lon="6.05503">
        <ele>321.60000610352</ele>
        <time>2015-02-11T13:27:10Z</time>
      </trkpt>
      <trkpt lat="43.43008" lon="6.05506">
        <ele>322</ele>
        <time>2015-02-11T13:27:13Z</time>
      </trkpt>
      <trkpt lat="43.43015" lon="6.05521">
        <ele>321</ele>
        <time>2015-02-11T13:27:18Z</time>
      </trkpt>
      <trkpt lat="43.43016" lon="6.05531">
        <ele>320.60000610352</ele>
        <time>2015-02-11T13:27:20Z</time>
      </trkpt>
      <trkpt lat="43.43019" lon="6.05542">
        <ele>319.79998779297</ele>
        <time>2015-02-11T13:27:22Z</time>
      </trkpt>
      <trkpt lat="43.43021" lon="6.05547">
        <ele>319.60000610352</ele>
        <time>2015-02-11T13:27:23Z</time>
      </trkpt>
      <trkpt lat="43.43023" lon="6.05558">
        <ele>319.60000610352</ele>
        <time>2015-02-11T13:27:25Z</time>
      </trkpt>
      <trkpt lat="43.43025" lon="6.05573">
        <ele>318.60000610352</ele>
        <time>2015-02-11T13:27:28Z</time>
      </trkpt>
      <trkpt lat="43.4303" lon="6.05587">
        <ele>318.39999389648</ele>
        <time>2015-02-11T13:27:31Z</time>
      </trkpt>
      <trkpt lat="43.43031" lon="6.05592">
        <ele>318.39999389648</ele>
        <time>2015-02-11T13:27:32Z</time>
      </trkpt>
      <trkpt lat="43.43032" lon="6.05603">
        <ele>318.20001220703</ele>
        <time>2015-02-11T13:27:34Z</time>
      </trkpt>
      <trkpt lat="43.43031" lon="6.05614">
        <ele>317.20001220703</ele>
        <time>2015-02-11T13:27:36Z</time>
      </trkpt>
      <trkpt lat="43.43027" lon="6.05637">
        <ele>315.79998779297</ele>
        <time>2015-02-11T13:27:40Z</time>
      </trkpt>
      <trkpt lat="43.43026" lon="6.05657">
        <ele>315.39999389648</ele>
        <time>2015-02-11T13:27:43Z</time>
      </trkpt>
      <trkpt lat="43.43028" lon="6.05675">
        <ele>314.60000610352</ele>
        <time>2015-02-11T13:27:46Z</time>
      </trkpt>
      <trkpt lat="43.4303" lon="6.05687">
        <ele>313.60000610352</ele>
        <time>2015-02-11T13:27:48Z</time>
      </trkpt>
      <trkpt lat="43.43026" lon="6.05696">
        <ele>313</ele>
        <time>2015-02-11T13:27:50Z</time>
      </trkpt>
      <trkpt lat="43.43023" lon="6.05711">
        <ele>312.39999389648</ele>
        <time>2015-02-11T13:27:53Z</time>
      </trkpt>
      <trkpt lat="43.43021" lon="6.05723">
        <ele>311.20001220703</ele>
        <time>2015-02-11T13:27:55Z</time>
      </trkpt>
      <trkpt lat="43.43012" lon="6.05735">
        <ele>310.60000610352</ele>
        <time>2015-02-11T13:27:58Z</time>
      </trkpt>
      <trkpt lat="43.43007" lon="6.05745">
        <ele>309.60000610352</ele>
        <time>2015-02-11T13:28:00Z</time>
      </trkpt>
      <trkpt lat="43.43004" lon="6.05758">
        <ele>309.60000610352</ele>
        <time>2015-02-11T13:28:02Z</time>
      </trkpt>
      <trkpt lat="43.43001" lon="6.05778">
        <ele>309.60000610352</ele>
        <time>2015-02-11T13:28:06Z</time>
      </trkpt>
      <trkpt lat="43.43005" lon="6.05795">
        <ele>308.39999389648</ele>
        <time>2015-02-11T13:28:09Z</time>
      </trkpt>
      <trkpt lat="43.43005" lon="6.058">
        <ele>307.60000610352</ele>
        <time>2015-02-11T13:28:10Z</time>
      </trkpt>
      <trkpt lat="43.43006" lon="6.05804">
        <ele>306.79998779297</ele>
        <time>2015-02-11T13:28:11Z</time>
      </trkpt>
      <trkpt lat="43.43006" lon="6.05806">
        <ele>306</ele>
        <time>2015-02-11T13:28:12Z</time>
      </trkpt>
      <trkpt lat="43.43006" lon="6.05808">
        <ele>305.39999389648</ele>
        <time>2015-02-11T13:28:13Z</time>
      </trkpt>
      <trkpt lat="43.43006" lon="6.0581">
        <ele>305</ele>
        <time>2015-02-11T13:28:14Z</time>
      </trkpt>
      <trkpt lat="43.43005" lon="6.05816">
        <ele>304.39999389648</ele>
        <time>2015-02-11T13:28:17Z</time>
      </trkpt>
      <trkpt lat="43.43005" lon="6.05823">
        <ele>303.20001220703</ele>
        <time>2015-02-11T13:28:20Z</time>
      </trkpt>
      <trkpt lat="43.43005" lon="6.05841">
        <ele>302</ele>
        <time>2015-02-11T13:28:24Z</time>
      </trkpt>
      <trkpt lat="43.43007" lon="6.05845">
        <ele>301.60000610352</ele>
        <time>2015-02-11T13:28:25Z</time>
      </trkpt>
      <trkpt lat="43.43009" lon="6.05848">
        <ele>300.79998779297</ele>
        <time>2015-02-11T13:28:26Z</time>
      </trkpt>
      <trkpt lat="43.43015" lon="6.05853">
        <ele>298.39999389648</ele>
        <time>2015-02-11T13:28:28Z</time>
      </trkpt>
      <trkpt lat="43.43018" lon="6.05855">
        <ele>297.60000610352</ele>
        <time>2015-02-11T13:28:29Z</time>
      </trkpt>
      <trkpt lat="43.43021" lon="6.05856">
        <ele>297</ele>
        <time>2015-02-11T13:28:30Z</time>
      </trkpt>
      <trkpt lat="43.4303" lon="6.05857">
        <ele>295.20001220703</ele>
        <time>2015-02-11T13:28:32Z</time>
      </trkpt>
      <trkpt lat="43.43034" lon="6.05856">
        <ele>294.79998779297</ele>
        <time>2015-02-11T13:28:33Z</time>
      </trkpt>
      <trkpt lat="43.43039" lon="6.05855">
        <ele>294.20001220703</ele>
        <time>2015-02-11T13:28:34Z</time>
      </trkpt>
      <trkpt lat="43.43054" lon="6.05851">
        <ele>293</ele>
        <time>2015-02-11T13:28:38Z</time>
      </trkpt>
      <trkpt lat="43.43058" lon="6.05849">
        <ele>291.60000610352</ele>
        <time>2015-02-11T13:28:39Z</time>
      </trkpt>
      <trkpt lat="43.43063" lon="6.05848">
        <ele>290</ele>
        <time>2015-02-11T13:28:40Z</time>
      </trkpt>
      <trkpt lat="43.43066" lon="6.05847">
        <ele>288.39999389648</ele>
        <time>2015-02-11T13:28:41Z</time>
      </trkpt>
      <trkpt lat="43.43073" lon="6.05848">
        <ele>287.39999389648</ele>
        <time>2015-02-11T13:28:43Z</time>
      </trkpt>
      <trkpt lat="43.43081" lon="6.05846">
        <ele>286.20001220703</ele>
        <time>2015-02-11T13:28:45Z</time>
      </trkpt>
      <trkpt lat="43.4309" lon="6.05843">
        <ele>284.39999389648</ele>
        <time>2015-02-11T13:28:47Z</time>
      </trkpt>
      <trkpt lat="43.43093" lon="6.05842">
        <ele>283.20001220703</ele>
        <time>2015-02-11T13:28:48Z</time>
      </trkpt>
      <trkpt lat="43.43101" lon="6.05842">
        <ele>281.79998779297</ele>
        <time>2015-02-11T13:28:51Z</time>
      </trkpt>
      <trkpt lat="43.43104" lon="6.05841">
        <ele>281</ele>
        <time>2015-02-11T13:28:52Z</time>
      </trkpt>
      <trkpt lat="43.43108" lon="6.0584">
        <ele>280.39999389648</ele>
        <time>2015-02-11T13:28:53Z</time>
      </trkpt>
      <trkpt lat="43.43116" lon="6.05842">
        <ele>279</ele>
        <time>2015-02-11T13:28:55Z</time>
      </trkpt>
      <trkpt lat="43.4312" lon="6.05842">
        <ele>277.79998779297</ele>
        <time>2015-02-11T13:28:56Z</time>
      </trkpt>
      <trkpt lat="43.43124" lon="6.05842">
        <ele>276.79998779297</ele>
        <time>2015-02-11T13:28:57Z</time>
      </trkpt>
      <trkpt lat="43.4313" lon="6.05842">
        <ele>276.39999389648</ele>
        <time>2015-02-11T13:28:58Z</time>
      </trkpt>
      <trkpt lat="43.43144" lon="6.0584">
        <ele>274.79998779297</ele>
        <time>2015-02-11T13:29:01Z</time>
      </trkpt>
      <trkpt lat="43.4316" lon="6.05834">
        <ele>273.20001220703</ele>
        <time>2015-02-11T13:29:05Z</time>
      </trkpt>
      <trkpt lat="43.43169" lon="6.05831">
        <ele>270.79998779297</ele>
        <time>2015-02-11T13:29:07Z</time>
      </trkpt>
      <trkpt lat="43.43174" lon="6.05829">
        <ele>269.20001220703</ele>
        <time>2015-02-11T13:29:08Z</time>
      </trkpt>
      <trkpt lat="43.43179" lon="6.05827">
        <ele>267.79998779297</ele>
        <time>2015-02-11T13:29:09Z</time>
      </trkpt>
      <trkpt lat="43.43182" lon="6.05821">
        <ele>267</ele>
        <time>2015-02-11T13:29:11Z</time>
      </trkpt>
      <trkpt lat="43.43182" lon="6.05821">
        <ele>266.79998779297</ele>
        <time>2015-02-11T13:29:12Z</time>
      </trkpt>
      <trkpt lat="43.43182" lon="6.05821">
        <ele>266.79998779297</ele>
        <time>2015-02-11T13:29:14Z</time>
      </trkpt>
      <trkpt lat="43.43181" lon="6.05823">
        <ele>266.79998779297</ele>
        <time>2015-02-11T13:29:17Z</time>
      </trkpt>
      <trkpt lat="43.4318" lon="6.05827">
        <ele>266.39999389648</ele>
        <time>2015-02-11T13:29:20Z</time>
      </trkpt>
      <trkpt lat="43.4318" lon="6.05827">
        <ele>266.79998779297</ele>
        <time>2015-02-11T13:29:25Z</time>
      </trkpt>
      <trkpt lat="43.4318" lon="6.05827">
        <ele>266.79998779297</ele>
        <time>2015-02-11T13:29:28Z</time>
      </trkpt>
      <trkpt lat="43.4318" lon="6.05827">
        <ele>267</ele>
        <time>2015-02-11T13:29:37Z</time>
      </trkpt>
      <trkpt lat="43.4318" lon="6.05827">
        <ele>267.39999389648</ele>
        <time>2015-02-11T13:29:50Z</time>
      </trkpt>
      <trkpt lat="43.43179" lon="6.05827">
        <ele>267.20001220703</ele>
        <time>2015-02-11T13:30:01Z</time>
      </trkpt>
      <trkpt lat="43.43179" lon="6.05827">
        <ele>267.20001220703</ele>
        <time>2015-02-11T13:30:04Z</time>
      </trkpt>
      <trkpt lat="43.43179" lon="6.05826">
        <ele>267.20001220703</ele>
        <time>2015-02-11T13:30:16Z</time>
      </trkpt>
      <trkpt lat="43.43181" lon="6.05822">
        <ele>267</ele>
        <time>2015-02-11T13:30:20Z</time>
      </trkpt>
      <trkpt lat="43.4318" lon="6.0582">
        <ele>267.20001220703</ele>
        <time>2015-02-11T13:30:22Z</time>
      </trkpt>
      <trkpt lat="43.43181" lon="6.05818">
        <ele>267.39999389648</ele>
        <time>2015-02-11T13:30:27Z</time>
      </trkpt>
      <trkpt lat="43.43181" lon="6.05818">
        <ele>267.39999389648</ele>
        <time>2015-02-11T13:30:30Z</time>
      </trkpt>
      <trkpt lat="43.4318" lon="6.05818">
        <ele>266.79998779297</ele>
        <time>2015-02-11T13:30:40Z</time>
      </trkpt>
      <trkpt lat="43.4318" lon="6.05818">
        <ele>266.60000610352</ele>
        <time>2015-02-11T13:31:03Z</time>
      </trkpt>
      <trkpt lat="43.4318" lon="6.05817">
        <ele>266.79998779297</ele>
        <time>2015-02-11T13:31:49Z</time>
      </trkpt>
      <trkpt lat="43.4318" lon="6.05817">
        <ele>266.79998779297</ele>
        <time>2015-02-11T13:31:56Z</time>
      </trkpt>
      <trkpt lat="43.4318" lon="6.05818">
        <ele>266.60000610352</ele>
        <time>2015-02-11T13:32:13Z</time>
      </trkpt>
      <trkpt lat="43.4318" lon="6.05818">
        <ele>266.79998779297</ele>
        <time>2015-02-11T13:32:18Z</time>
      </trkpt>
      <trkpt lat="43.43181" lon="6.05818">
        <ele>267.60000610352</ele>
        <time>2015-02-11T13:32:23Z</time>
      </trkpt>
      <trkpt lat="43.43182" lon="6.05816">
        <ele>267.20001220703</ele>
        <time>2015-02-11T13:32:25Z</time>
      </trkpt>
      <trkpt lat="43.43184" lon="6.05811">
        <ele>267.20001220703</ele>
        <time>2015-02-11T13:32:28Z</time>
      </trkpt>
      <trkpt lat="43.43191" lon="6.05797">
        <ele>267.20001220703</ele>
        <time>2015-02-11T13:32:33Z</time>
      </trkpt>
      <trkpt lat="43.43206" lon="6.05776">
        <ele>266.79998779297</ele>
        <time>2015-02-11T13:32:38Z</time>
      </trkpt>
      <trkpt lat="43.43209" lon="6.05772">
        <ele>266.20001220703</ele>
        <time>2015-02-11T13:32:39Z</time>
      </trkpt>
      <trkpt lat="43.43213" lon="6.05767">
        <ele>265.79998779297</ele>
        <time>2015-02-11T13:32:40Z</time>
      </trkpt>
      <trkpt lat="43.43216" lon="6.05754">
        <ele>265.79998779297</ele>
        <time>2015-02-11T13:32:42Z</time>
      </trkpt>
      <trkpt lat="43.43219" lon="6.05736">
        <ele>265.79998779297</ele>
        <time>2015-02-11T13:32:45Z</time>
      </trkpt>
      <trkpt lat="43.4322" lon="6.05724">
        <ele>265.79998779297</ele>
        <time>2015-02-11T13:32:47Z</time>
      </trkpt>
      <trkpt lat="43.43222" lon="6.0571">
        <ele>265.60000610352</ele>
        <time>2015-02-11T13:32:49Z</time>
      </trkpt>
      <trkpt lat="43.43224" lon="6.05695">
        <ele>265.39999389648</ele>
        <time>2015-02-11T13:32:51Z</time>
      </trkpt>
      <trkpt lat="43.43224" lon="6.05688">
        <ele>265.39999389648</ele>
        <time>2015-02-11T13:32:52Z</time>
      </trkpt>
      <trkpt lat="43.43224" lon="6.05664">
        <ele>265.60000610352</ele>
        <time>2015-02-11T13:32:55Z</time>
      </trkpt>
      <trkpt lat="43.43226" lon="6.05649">
        <ele>265.20001220703</ele>
        <time>2015-02-11T13:32:57Z</time>
      </trkpt>
      <trkpt lat="43.43227" lon="6.05641">
        <ele>264.79998779297</ele>
        <time>2015-02-11T13:32:58Z</time>
      </trkpt>
      <trkpt lat="43.43228" lon="6.05633">
        <ele>264.60000610352</ele>
        <time>2015-02-11T13:32:59Z</time>
      </trkpt>
      <trkpt lat="43.43232" lon="6.05596">
        <ele>264.60000610352</ele>
        <time>2015-02-11T13:33:04Z</time>
      </trkpt>
      <trkpt lat="43.43234" lon="6.05563">
        <ele>264.39999389648</ele>
        <time>2015-02-11T13:33:09Z</time>
      </trkpt>
      <trkpt lat="43.43237" lon="6.05558">
        <ele>264.20001220703</ele>
        <time>2015-02-11T13:33:10Z</time>
      </trkpt>
      <trkpt lat="43.43238" lon="6.05553">
        <ele>263.79998779297</ele>
        <time>2015-02-11T13:33:11Z</time>
      </trkpt>
      <trkpt lat="43.43241" lon="6.05543">
        <ele>263.60000610352</ele>
        <time>2015-02-11T13:33:13Z</time>
      </trkpt>
      <trkpt lat="43.43246" lon="6.05521">
        <ele>263.20001220703</ele>
        <time>2015-02-11T13:33:17Z</time>
      </trkpt>
      <trkpt lat="43.4325" lon="6.05509">
        <ele>262.79998779297</ele>
        <time>2015-02-11T13:33:19Z</time>
      </trkpt>
      <trkpt lat="43.43254" lon="6.05496">
        <ele>263.60000610352</ele>
        <time>2015-02-11T13:33:21Z</time>
      </trkpt>
      <trkpt lat="43.43266" lon="6.05458">
        <ele>261.20001220703</ele>
        <time>2015-02-11T13:33:25Z</time>
      </trkpt>
      <trkpt lat="43.43275" lon="6.05438">
        <ele>260</ele>
        <time>2015-02-11T13:33:27Z</time>
      </trkpt>
      <trkpt lat="43.43283" lon="6.05417">
        <ele>259</ele>
        <time>2015-02-11T13:33:29Z</time>
      </trkpt>
      <trkpt lat="43.43288" lon="6.05408">
        <ele>258.60000610352</ele>
        <time>2015-02-11T13:33:30Z</time>
      </trkpt>
      <trkpt lat="43.43295" lon="6.05391">
        <ele>258</ele>
        <time>2015-02-11T13:33:32Z</time>
      </trkpt>
      <trkpt lat="43.43297" lon="6.05384">
        <ele>257.79998779297</ele>
        <time>2015-02-11T13:33:33Z</time>
      </trkpt>
      <trkpt lat="43.43298" lon="6.05378">
        <ele>257.60000610352</ele>
        <time>2015-02-11T13:33:34Z</time>
      </trkpt>
      <trkpt lat="43.43306" lon="6.05362">
        <ele>257.79998779297</ele>
        <time>2015-02-11T13:33:38Z</time>
      </trkpt>
      <trkpt lat="43.43316" lon="6.05342">
        <ele>258.79998779297</ele>
        <time>2015-02-11T13:33:43Z</time>
      </trkpt>
      <trkpt lat="43.43319" lon="6.05337">
        <ele>258.79998779297</ele>
        <time>2015-02-11T13:33:44Z</time>
      </trkpt>
      <trkpt lat="43.43322" lon="6.05327">
        <ele>258.60000610352</ele>
        <time>2015-02-11T13:33:46Z</time>
      </trkpt>
      <trkpt lat="43.43327" lon="6.05315">
        <ele>258.20001220703</ele>
        <time>2015-02-11T13:33:48Z</time>
      </trkpt>
      <trkpt lat="43.43343" lon="6.05279">
        <ele>257.39999389648</ele>
        <time>2015-02-11T13:33:54Z</time>
      </trkpt>
      <trkpt lat="43.43346" lon="6.05272">
        <ele>257.39999389648</ele>
        <time>2015-02-11T13:33:55Z</time>
      </trkpt>
      <trkpt lat="43.43355" lon="6.05254">
        <ele>257.39999389648</ele>
        <time>2015-02-11T13:33:58Z</time>
      </trkpt>
      <trkpt lat="43.43357" lon="6.05248">
        <ele>257.20001220703</ele>
        <time>2015-02-11T13:33:59Z</time>
      </trkpt>
      <trkpt lat="43.43362" lon="6.05234">
        <ele>256.79998779297</ele>
        <time>2015-02-11T13:34:01Z</time>
      </trkpt>
      <trkpt lat="43.4338" lon="6.0518">
        <ele>258</ele>
        <time>2015-02-11T13:34:09Z</time>
      </trkpt>
      <trkpt lat="43.43385" lon="6.05158">
        <ele>258.60000610352</ele>
        <time>2015-02-11T13:34:12Z</time>
      </trkpt>
      <trkpt lat="43.43387" lon="6.05151">
        <ele>258.79998779297</ele>
        <time>2015-02-11T13:34:13Z</time>
      </trkpt>
      <trkpt lat="43.43391" lon="6.05137">
        <ele>258.79998779297</ele>
        <time>2015-02-11T13:34:15Z</time>
      </trkpt>
      <trkpt lat="43.43393" lon="6.05132">
        <ele>259.20001220703</ele>
        <time>2015-02-11T13:34:16Z</time>
      </trkpt>
      <trkpt lat="43.43394" lon="6.05127">
        <ele>259.39999389648</ele>
        <time>2015-02-11T13:34:17Z</time>
      </trkpt>
      <trkpt lat="43.434" lon="6.05109">
        <ele>259.79998779297</ele>
        <time>2015-02-11T13:34:21Z</time>
      </trkpt>
      <trkpt lat="43.43402" lon="6.05101">
        <ele>260.39999389648</ele>
        <time>2015-02-11T13:34:23Z</time>
      </trkpt>
      <trkpt lat="43.43404" lon="6.05097">
        <ele>260.20001220703</ele>
        <time>2015-02-11T13:34:24Z</time>
      </trkpt>
      <trkpt lat="43.43412" lon="6.05066">
        <ele>259.79998779297</ele>
        <time>2015-02-11T13:34:30Z</time>
      </trkpt>
      <trkpt lat="43.43415" lon="6.05052">
        <ele>259.20001220703</ele>
        <time>2015-02-11T13:34:32Z</time>
      </trkpt>
      <trkpt lat="43.43419" lon="6.05027">
        <ele>258.39999389648</ele>
        <time>2015-02-11T13:34:35Z</time>
      </trkpt>
      <trkpt lat="43.43423" lon="6.05009">
        <ele>257.79998779297</ele>
        <time>2015-02-11T13:34:37Z</time>
      </trkpt>
      <trkpt lat="43.43428" lon="6.0498">
        <ele>256.60000610352</ele>
        <time>2015-02-11T13:34:40Z</time>
      </trkpt>
      <trkpt lat="43.43431" lon="6.0496">
        <ele>256</ele>
        <time>2015-02-11T13:34:42Z</time>
      </trkpt>
      <trkpt lat="43.43431" lon="6.04949">
        <ele>256.20001220703</ele>
        <time>2015-02-11T13:34:43Z</time>
      </trkpt>
      <trkpt lat="43.43435" lon="6.04912">
        <ele>255.80000305176</ele>
        <time>2015-02-11T13:34:47Z</time>
      </trkpt>
      <trkpt lat="43.43439" lon="6.04856">
        <ele>256.79998779297</ele>
        <time>2015-02-11T13:34:54Z</time>
      </trkpt>
      <trkpt lat="43.43442" lon="6.04803">
        <ele>257.60000610352</ele>
        <time>2015-02-11T13:35:01Z</time>
      </trkpt>
      <trkpt lat="43.43448" lon="6.04747">
        <ele>258.60000610352</ele>
        <time>2015-02-11T13:35:09Z</time>
      </trkpt>
      <trkpt lat="43.43449" lon="6.04734">
        <ele>259</ele>
        <time>2015-02-11T13:35:11Z</time>
      </trkpt>
      <trkpt lat="43.43454" lon="6.04675">
        <ele>258.79998779297</ele>
        <time>2015-02-11T13:35:20Z</time>
      </trkpt>
      <trkpt lat="43.43456" lon="6.04669">
        <ele>259.20001220703</ele>
        <time>2015-02-11T13:35:21Z</time>
      </trkpt>
      <trkpt lat="43.43465" lon="6.04626">
        <ele>260</ele>
        <time>2015-02-11T13:35:29Z</time>
      </trkpt>
      <trkpt lat="43.43466" lon="6.04621">
        <ele>260.20001220703</ele>
        <time>2015-02-11T13:35:30Z</time>
      </trkpt>
      <trkpt lat="43.4347" lon="6.04584">
        <ele>260.60000610352</ele>
        <time>2015-02-11T13:35:37Z</time>
      </trkpt>
      <trkpt lat="43.43478" lon="6.04566">
        <ele>260.79998779297</ele>
        <time>2015-02-11T13:35:42Z</time>
      </trkpt>
      <trkpt lat="43.43483" lon="6.04553">
        <ele>261.39999389648</ele>
        <time>2015-02-11T13:35:46Z</time>
      </trkpt>
      <trkpt lat="43.43484" lon="6.04543">
        <ele>260.79998779297</ele>
        <time>2015-02-11T13:35:49Z</time>
      </trkpt>
      <trkpt lat="43.43483" lon="6.0454">
        <ele>260.79998779297</ele>
        <time>2015-02-11T13:35:50Z</time>
      </trkpt>
      <trkpt lat="43.43483" lon="6.04523">
        <ele>261</ele>
        <time>2015-02-11T13:35:55Z</time>
      </trkpt>
      <trkpt lat="43.43488" lon="6.04502">
        <ele>260.60000610352</ele>
        <time>2015-02-11T13:36:00Z</time>
      </trkpt>
      <trkpt lat="43.43492" lon="6.04467">
        <ele>260.79998779297</ele>
        <time>2015-02-11T13:36:07Z</time>
      </trkpt>
      <trkpt lat="43.43492" lon="6.0444">
        <ele>260.60000610352</ele>
        <time>2015-02-11T13:36:13Z</time>
      </trkpt>
      <trkpt lat="43.43491" lon="6.04418">
        <ele>260.60000610352</ele>
        <time>2015-02-11T13:36:18Z</time>
      </trkpt>
      <trkpt lat="43.43488" lon="6.0439">
        <ele>260.79998779297</ele>
        <time>2015-02-11T13:36:25Z</time>
      </trkpt>
      <trkpt lat="43.43489" lon="6.04372">
        <ele>261.20001220703</ele>
        <time>2015-02-11T13:36:31Z</time>
      </trkpt>
      <trkpt lat="43.43489" lon="6.0437">
        <ele>261.20001220703</ele>
        <time>2015-02-11T13:36:32Z</time>
      </trkpt>
      <trkpt lat="43.43489" lon="6.04369">
        <ele>261.60000610352</ele>
        <time>2015-02-11T13:36:37Z</time>
      </trkpt>
      <trkpt lat="43.43489" lon="6.04369">
        <ele>261.79998779297</ele>
        <time>2015-02-11T13:37:01Z</time>
      </trkpt>
      <trkpt lat="43.43489" lon="6.04369">
        <ele>261.79998779297</ele>
        <time>2015-02-11T13:37:09Z</time>
      </trkpt>
      <trkpt lat="43.43489" lon="6.04369">
        <ele>261.60000610352</ele>
        <time>2015-02-11T13:37:22Z</time>
      </trkpt>
      <trkpt lat="43.43489" lon="6.04369">
        <ele>262</ele>
        <time>2015-02-11T13:37:47Z</time>
      </trkpt>
      <trkpt lat="43.43489" lon="6.04369">
        <ele>261.60000610352</ele>
        <time>2015-02-11T13:38:02Z</time>
      </trkpt>
      <trkpt lat="43.4349" lon="6.04368">
        <ele>261.60000610352</ele>
        <time>2015-02-11T13:38:09Z</time>
      </trkpt>
      <trkpt lat="43.43491" lon="6.04359">
        <ele>261.79998779297</ele>
        <time>2015-02-11T13:38:12Z</time>
      </trkpt>
      <trkpt lat="43.43493" lon="6.04336">
        <ele>261.60000610352</ele>
        <time>2015-02-11T13:38:17Z</time>
      </trkpt>
      <trkpt lat="43.43494" lon="6.04323">
        <ele>261.79998779297</ele>
        <time>2015-02-11T13:38:19Z</time>
      </trkpt>
      <trkpt lat="43.43496" lon="6.04302">
        <ele>261.60000610352</ele>
        <time>2015-02-11T13:38:22Z</time>
      </trkpt>
      <trkpt lat="43.43503" lon="6.04269">
        <ele>260.79998779297</ele>
        <time>2015-02-11T13:38:27Z</time>
      </trkpt>
      <trkpt lat="43.43505" lon="6.04264">
        <ele>260.60000610352</ele>
        <time>2015-02-11T13:38:28Z</time>
      </trkpt>
      <trkpt lat="43.43509" lon="6.04252">
        <ele>260.60000610352</ele>
        <time>2015-02-11T13:38:30Z</time>
      </trkpt>
      <trkpt lat="43.43522" lon="6.04239">
        <ele>260.39999389648</ele>
        <time>2015-02-11T13:38:33Z</time>
      </trkpt>
      <trkpt lat="43.43533" lon="6.04226">
        <ele>259.79998779297</ele>
        <time>2015-02-11T13:38:37Z</time>
      </trkpt>
      <trkpt lat="43.43538" lon="6.04219">
        <ele>260</ele>
        <time>2015-02-11T13:38:39Z</time>
      </trkpt>
      <trkpt lat="43.43545" lon="6.04198">
        <ele>260.20001220703</ele>
        <time>2015-02-11T13:38:44Z</time>
      </trkpt>
      <trkpt lat="43.4354" lon="6.04181">
        <ele>261</ele>
        <time>2015-02-11T13:38:48Z</time>
      </trkpt>
      <trkpt lat="43.43538" lon="6.04174">
        <ele>261.60000610352</ele>
        <time>2015-02-11T13:38:50Z</time>
      </trkpt>
      <trkpt lat="43.43538" lon="6.04166">
        <ele>261.60000610352</ele>
        <time>2015-02-11T13:38:52Z</time>
      </trkpt>
      <trkpt lat="43.43538" lon="6.04161">
        <ele>261.79998779297</ele>
        <time>2015-02-11T13:38:53Z</time>
      </trkpt>
      <trkpt lat="43.43542" lon="6.04144">
        <ele>262.60000610352</ele>
        <time>2015-02-11T13:38:57Z</time>
      </trkpt>
      <trkpt lat="43.43544" lon="6.0414">
        <ele>262.79998779297</ele>
        <time>2015-02-11T13:38:58Z</time>
      </trkpt>
      <trkpt lat="43.43554" lon="6.04116">
        <ele>263.39999389648</ele>
        <time>2015-02-11T13:39:04Z</time>
      </trkpt>
      <trkpt lat="43.4356" lon="6.04094">
        <ele>263</ele>
        <time>2015-02-11T13:39:10Z</time>
      </trkpt>
      <trkpt lat="43.43568" lon="6.04071">
        <ele>263</ele>
        <time>2015-02-11T13:39:16Z</time>
      </trkpt>
      <trkpt lat="43.4358" lon="6.04051">
        <ele>263.39999389648</ele>
        <time>2015-02-11T13:39:22Z</time>
      </trkpt>
      <trkpt lat="43.43585" lon="6.04042">
        <ele>264</ele>
        <time>2015-02-11T13:39:25Z</time>
      </trkpt>
      <trkpt lat="43.43594" lon="6.04029">
        <ele>265</ele>
        <time>2015-02-11T13:39:30Z</time>
      </trkpt>
      <trkpt lat="43.43601" lon="6.04019">
        <ele>266.20001220703</ele>
        <time>2015-02-11T13:39:34Z</time>
      </trkpt>
      <trkpt lat="43.43603" lon="6.04016">
        <ele>266.20001220703</ele>
        <time>2015-02-11T13:39:35Z</time>
      </trkpt>
      <trkpt lat="43.43608" lon="6.03999">
        <ele>266.79998779297</ele>
        <time>2015-02-11T13:39:40Z</time>
      </trkpt>
      <trkpt lat="43.43614" lon="6.03976">
        <ele>266.20001220703</ele>
        <time>2015-02-11T13:39:46Z</time>
      </trkpt>
      <trkpt lat="43.43614" lon="6.03969">
        <ele>266</ele>
        <time>2015-02-11T13:39:47Z</time>
      </trkpt>
      <trkpt lat="43.43615" lon="6.03953">
        <ele>264.79998779297</ele>
        <time>2015-02-11T13:39:49Z</time>
      </trkpt>
      <trkpt lat="43.43615" lon="6.03948">
        <ele>264.39999389648</ele>
        <time>2015-02-11T13:39:50Z</time>
      </trkpt>
      <trkpt lat="43.43608" lon="6.03937">
        <ele>264</ele>
        <time>2015-02-11T13:39:53Z</time>
      </trkpt>
      <trkpt lat="43.43605" lon="6.0393">
        <ele>263.60000610352</ele>
        <time>2015-02-11T13:39:55Z</time>
      </trkpt>
      <trkpt lat="43.43601" lon="6.03916">
        <ele>264.20001220703</ele>
        <time>2015-02-11T13:39:59Z</time>
      </trkpt>
      <trkpt lat="43.43599" lon="6.03895">
        <ele>264.79998779297</ele>
        <time>2015-02-11T13:40:05Z</time>
      </trkpt>
      <trkpt lat="43.43599" lon="6.03892">
        <ele>265</ele>
        <time>2015-02-11T13:40:06Z</time>
      </trkpt>
      <trkpt lat="43.43598" lon="6.03871">
        <ele>266</ele>
        <time>2015-02-11T13:40:13Z</time>
      </trkpt>
      <trkpt lat="43.43598" lon="6.03868">
        <ele>266.20001220703</ele>
        <time>2015-02-11T13:40:14Z</time>
      </trkpt>
      <trkpt lat="43.43596" lon="6.0385">
        <ele>266.79998779297</ele>
        <time>2015-02-11T13:40:21Z</time>
      </trkpt>
      <trkpt lat="43.43595" lon="6.03839">
        <ele>267.20001220703</ele>
        <time>2015-02-11T13:40:25Z</time>
      </trkpt>
      <trkpt lat="43.43594" lon="6.03831">
        <ele>267.79998779297</ele>
        <time>2015-02-11T13:40:28Z</time>
      </trkpt>
      <trkpt lat="43.43588" lon="6.03814">
        <ele>268</ele>
        <time>2015-02-11T13:40:34Z</time>
      </trkpt>
      <trkpt lat="43.43584" lon="6.03806">
        <ele>268.39999389648</ele>
        <time>2015-02-11T13:40:37Z</time>
      </trkpt>
      <trkpt lat="43.43581" lon="6.038">
        <ele>268.79998779297</ele>
        <time>2015-02-11T13:40:40Z</time>
      </trkpt>
      <trkpt lat="43.43578" lon="6.03792">
        <ele>268.79998779297</ele>
        <time>2015-02-11T13:40:46Z</time>
      </trkpt>
      <trkpt lat="43.43578" lon="6.03792">
        <ele>269</ele>
        <time>2015-02-11T13:40:51Z</time>
      </trkpt>
      <trkpt lat="43.43577" lon="6.03792">
        <ele>268.79998779297</ele>
        <time>2015-02-11T13:40:53Z</time>
      </trkpt>
      <trkpt lat="43.43577" lon="6.03792">
        <ele>269</ele>
        <time>2015-02-11T13:41:09Z</time>
      </trkpt>
      <trkpt lat="43.43577" lon="6.03792">
        <ele>269.20001220703</ele>
        <time>2015-02-11T13:41:13Z</time>
      </trkpt>
      <trkpt lat="43.43578" lon="6.03792">
        <ele>269</ele>
        <time>2015-02-11T13:41:16Z</time>
      </trkpt>
      <trkpt lat="43.43578" lon="6.03791">
        <ele>269.20001220703</ele>
        <time>2015-02-11T13:41:19Z</time>
      </trkpt>
      <trkpt lat="43.43578" lon="6.03791">
        <ele>269.20001220703</ele>
        <time>2015-02-11T13:41:21Z</time>
      </trkpt>
      <trkpt lat="43.43578" lon="6.03791">
        <ele>269.20001220703</ele>
        <time>2015-02-11T13:41:22Z</time>
      </trkpt>
      <trkpt lat="43.43578" lon="6.03791">
        <ele>269</ele>
        <time>2015-02-11T13:41:26Z</time>
      </trkpt>
      <trkpt lat="43.43578" lon="6.03791">
        <ele>269.20001220703</ele>
        <time>2015-02-11T13:41:28Z</time>
      </trkpt>
      <trkpt lat="43.43578" lon="6.03791">
        <ele>269.20001220703</ele>
        <time>2015-02-11T13:41:30Z</time>
      </trkpt>
      <trkpt lat="43.43578" lon="6.03791">
        <ele>269.20001220703</ele>
        <time>2015-02-11T13:41:33Z</time>
      </trkpt>
      <trkpt lat="43.43578" lon="6.0379">
        <ele>269.20001220703</ele>
        <time>2015-02-11T13:41:40Z</time>
      </trkpt>
      <trkpt lat="43.43578" lon="6.0379">
        <ele>269.20001220703</ele>
        <time>2015-02-11T13:41:49Z</time>
      </trkpt>
      <trkpt lat="43.43578" lon="6.03789">
        <ele>269</ele>
        <time>2015-02-11T13:41:55Z</time>
      </trkpt>
      <trkpt lat="43.43577" lon="6.03782">
        <ele>269</ele>
        <time>2015-02-11T13:41:58Z</time>
      </trkpt>
      <trkpt lat="43.43578" lon="6.03779">
        <ele>269</ele>
        <time>2015-02-11T13:42:00Z</time>
      </trkpt>
      <trkpt lat="43.43581" lon="6.03772">
        <ele>268.79998779297</ele>
        <time>2015-02-11T13:42:03Z</time>
      </trkpt>
      <trkpt lat="43.4358" lon="6.03758">
        <ele>268.60000610352</ele>
        <time>2015-02-11T13:42:07Z</time>
      </trkpt>
      <trkpt lat="43.43582" lon="6.03737">
        <ele>267.79998779297</ele>
        <time>2015-02-11T13:42:12Z</time>
      </trkpt>
      <trkpt lat="43.43581" lon="6.03712">
        <ele>267.20001220703</ele>
        <time>2015-02-11T13:42:17Z</time>
      </trkpt>
      <trkpt lat="43.43584" lon="6.03684">
        <ele>266.79998779297</ele>
        <time>2015-02-11T13:42:23Z</time>
      </trkpt>
      <trkpt lat="43.43579" lon="6.03671">
        <ele>267.20001220703</ele>
        <time>2015-02-11T13:42:27Z</time>
      </trkpt>
      <trkpt lat="43.43579" lon="6.03669">
        <ele>267.39999389648</ele>
        <time>2015-02-11T13:42:28Z</time>
      </trkpt>
      <trkpt lat="43.43584" lon="6.03656">
        <ele>267.20001220703</ele>
        <time>2015-02-11T13:42:32Z</time>
      </trkpt>
      <trkpt lat="43.43586" lon="6.03645">
        <ele>266.60000610352</ele>
        <time>2015-02-11T13:42:36Z</time>
      </trkpt>
      <trkpt lat="43.43587" lon="6.03638">
        <ele>266.39999389648</ele>
        <time>2015-02-11T13:42:40Z</time>
      </trkpt>
      <trkpt lat="43.43588" lon="6.03635">
        <ele>266.20001220703</ele>
        <time>2015-02-11T13:42:42Z</time>
      </trkpt>
      <trkpt lat="43.43588" lon="6.03623">
        <ele>266.39999389648</ele>
        <time>2015-02-11T13:42:49Z</time>
      </trkpt>
      <trkpt lat="43.43587" lon="6.03606">
        <ele>266.60000610352</ele>
        <time>2015-02-11T13:42:57Z</time>
      </trkpt>
      <trkpt lat="43.43586" lon="6.03591">
        <ele>266.20001220703</ele>
        <time>2015-02-11T13:43:03Z</time>
      </trkpt>
      <trkpt lat="43.43589" lon="6.03574">
        <ele>266.20001220703</ele>
        <time>2015-02-11T13:43:10Z</time>
      </trkpt>
      <trkpt lat="43.43594" lon="6.03559">
        <ele>266.79998779297</ele>
        <time>2015-02-11T13:43:17Z</time>
      </trkpt>
      <trkpt lat="43.43602" lon="6.03548">
        <ele>267</ele>
        <time>2015-02-11T13:43:23Z</time>
      </trkpt>
      <trkpt lat="43.43607" lon="6.03532">
        <ele>266.39999389648</ele>
        <time>2015-02-11T13:43:29Z</time>
      </trkpt>
      <trkpt lat="43.43614" lon="6.03513">
        <ele>267.20001220703</ele>
        <time>2015-02-11T13:43:36Z</time>
      </trkpt>
      <trkpt lat="43.43614" lon="6.0351">
        <ele>267.60000610352</ele>
        <time>2015-02-11T13:43:38Z</time>
      </trkpt>
      <trkpt lat="43.43615" lon="6.03501">
        <ele>267.20001220703</ele>
        <time>2015-02-11T13:43:41Z</time>
      </trkpt>
      <trkpt lat="43.4362" lon="6.03481">
        <ele>268.20001220703</ele>
        <time>2015-02-11T13:43:48Z</time>
      </trkpt>
      <trkpt lat="43.43628" lon="6.03462">
        <ele>268.60000610352</ele>
        <time>2015-02-11T13:43:55Z</time>
      </trkpt>
      <trkpt lat="43.43631" lon="6.03446">
        <ele>269</ele>
        <time>2015-02-11T13:44:00Z</time>
      </trkpt>
      <trkpt lat="43.43632" lon="6.03424">
        <ele>269.79998779297</ele>
        <time>2015-02-11T13:44:07Z</time>
      </trkpt>
      <trkpt lat="43.4363" lon="6.03399">
        <ele>269.39999389648</ele>
        <time>2015-02-11T13:44:13Z</time>
      </trkpt>
      <trkpt lat="43.43636" lon="6.03386">
        <ele>269.20001220703</ele>
        <time>2015-02-11T13:44:17Z</time>
      </trkpt>
      <trkpt lat="43.4364" lon="6.03377">
        <ele>268.79998779297</ele>
        <time>2015-02-11T13:44:20Z</time>
      </trkpt>
      <trkpt lat="43.43643" lon="6.03373">
        <ele>269.39999389648</ele>
        <time>2015-02-11T13:44:22Z</time>
      </trkpt>
      <trkpt lat="43.43647" lon="6.03363">
        <ele>269</ele>
        <time>2015-02-11T13:44:26Z</time>
      </trkpt>
      <trkpt lat="43.43649" lon="6.0336">
        <ele>269.20001220703</ele>
        <time>2015-02-11T13:44:27Z</time>
      </trkpt>
      <trkpt lat="43.43657" lon="6.03342">
        <ele>269.39999389648</ele>
        <time>2015-02-11T13:44:33Z</time>
      </trkpt>
      <trkpt lat="43.43664" lon="6.03327">
        <ele>269.20001220703</ele>
        <time>2015-02-11T13:44:37Z</time>
      </trkpt>
      <trkpt lat="43.43666" lon="6.03323">
        <ele>268.39999389648</ele>
        <time>2015-02-11T13:44:39Z</time>
      </trkpt>
      <trkpt lat="43.43666" lon="6.03321">
        <ele>268.20001220703</ele>
        <time>2015-02-11T13:44:40Z</time>
      </trkpt>
      <trkpt lat="43.43668" lon="6.03311">
        <ele>268</ele>
        <time>2015-02-11T13:44:46Z</time>
      </trkpt>
      <trkpt lat="43.4367" lon="6.03303">
        <ele>268.20001220703</ele>
        <time>2015-02-11T13:44:53Z</time>
      </trkpt>
      <trkpt lat="43.43676" lon="6.03295">
        <ele>268.60000610352</ele>
        <time>2015-02-11T13:45:01Z</time>
      </trkpt>
      <trkpt lat="43.43679" lon="6.0329">
        <ele>269</ele>
        <time>2015-02-11T13:45:05Z</time>
      </trkpt>
      <trkpt lat="43.43679" lon="6.03289">
        <ele>269</ele>
        <time>2015-02-11T13:45:06Z</time>
      </trkpt>
      <trkpt lat="43.43686" lon="6.03275">
        <ele>269</ele>
        <time>2015-02-11T13:45:11Z</time>
      </trkpt>
      <trkpt lat="43.43691" lon="6.03254">
        <ele>269.20001220703</ele>
        <time>2015-02-11T13:45:18Z</time>
      </trkpt>
      <trkpt lat="43.43689" lon="6.03234">
        <ele>269.79998779297</ele>
        <time>2015-02-11T13:45:25Z</time>
      </trkpt>
      <trkpt lat="43.43688" lon="6.0323">
        <ele>269.79998779297</ele>
        <time>2015-02-11T13:45:27Z</time>
      </trkpt>
      <trkpt lat="43.43689" lon="6.03226">
        <ele>269.79998779297</ele>
        <time>2015-02-11T13:45:30Z</time>
      </trkpt>
      <trkpt lat="43.4369" lon="6.03217">
        <ele>270</ele>
        <time>2015-02-11T13:45:35Z</time>
      </trkpt>
      <trkpt lat="43.43692" lon="6.03212">
        <ele>270.20001220703</ele>
        <time>2015-02-11T13:45:37Z</time>
      </trkpt>
      <trkpt lat="43.43695" lon="6.03199">
        <ele>270.39999389648</ele>
        <time>2015-02-11T13:45:42Z</time>
      </trkpt>
      <trkpt lat="43.43697" lon="6.03189">
        <ele>270.60000610352</ele>
        <time>2015-02-11T13:45:47Z</time>
      </trkpt>
      <trkpt lat="43.43697" lon="6.03186">
        <ele>270.60000610352</ele>
        <time>2015-02-11T13:45:48Z</time>
      </trkpt>
      <trkpt lat="43.43694" lon="6.03178">
        <ele>270.60000610352</ele>
        <time>2015-02-11T13:45:52Z</time>
      </trkpt>
      <trkpt lat="43.43693" lon="6.03175">
        <ele>270.60000610352</ele>
        <time>2015-02-11T13:45:53Z</time>
      </trkpt>
      <trkpt lat="43.4369" lon="6.0317">
        <ele>271</ele>
        <time>2015-02-11T13:45:56Z</time>
      </trkpt>
      <trkpt lat="43.43687" lon="6.03167">
        <ele>271.20001220703</ele>
        <time>2015-02-11T13:45:58Z</time>
      </trkpt>
      <trkpt lat="43.43685" lon="6.03162">
        <ele>271.20001220703</ele>
        <time>2015-02-11T13:46:00Z</time>
      </trkpt>
      <trkpt lat="43.43681" lon="6.03155">
        <ele>271.39999389648</ele>
        <time>2015-02-11T13:46:03Z</time>
      </trkpt>
      <trkpt lat="43.4368" lon="6.03153">
        <ele>271.60000610352</ele>
        <time>2015-02-11T13:46:04Z</time>
      </trkpt>
      <trkpt lat="43.43672" lon="6.03145">
        <ele>272.20001220703</ele>
        <time>2015-02-11T13:46:10Z</time>
      </trkpt>
      <trkpt lat="43.4367" lon="6.03142">
        <ele>272.60000610352</ele>
        <time>2015-02-11T13:46:12Z</time>
      </trkpt>
      <trkpt lat="43.43667" lon="6.0314">
        <ele>272.39999389648</ele>
        <time>2015-02-11T13:46:16Z</time>
      </trkpt>
      <trkpt lat="43.43666" lon="6.03139">
        <ele>272.39999389648</ele>
        <time>2015-02-11T13:46:17Z</time>
      </trkpt>
      <trkpt lat="43.43663" lon="6.03135">
        <ele>272.60000610352</ele>
        <time>2015-02-11T13:46:21Z</time>
      </trkpt>
      <trkpt lat="43.4367" lon="6.03131">
        <ele>272.60000610352</ele>
        <time>2015-02-11T13:46:25Z</time>
      </trkpt>
      <trkpt lat="43.4368" lon="6.03127">
        <ele>271.39999389648</ele>
        <time>2015-02-11T13:46:30Z</time>
      </trkpt>
      <trkpt lat="43.43682" lon="6.03125">
        <ele>271.39999389648</ele>
        <time>2015-02-11T13:46:31Z</time>
      </trkpt>
      <trkpt lat="43.4369" lon="6.03119">
        <ele>271.20001220703</ele>
        <time>2015-02-11T13:46:36Z</time>
      </trkpt>
      <trkpt lat="43.4369" lon="6.03116">
        <ele>270.79998779297</ele>
        <time>2015-02-11T13:46:40Z</time>
      </trkpt>
      <trkpt lat="43.43694" lon="6.03106">
        <ele>270.60000610352</ele>
        <time>2015-02-11T13:46:47Z</time>
      </trkpt>
      <trkpt lat="43.43699" lon="6.03086">
        <ele>270.60000610352</ele>
        <time>2015-02-11T13:46:53Z</time>
      </trkpt>
      <trkpt lat="43.43706" lon="6.03072">
        <ele>270.39999389648</ele>
        <time>2015-02-11T13:46:57Z</time>
      </trkpt>
      <trkpt lat="43.43708" lon="6.03069">
        <ele>270.20001220703</ele>
        <time>2015-02-11T13:46:58Z</time>
      </trkpt>
      <trkpt lat="43.43722" lon="6.03057">
        <ele>269.79998779297</ele>
        <time>2015-02-11T13:47:03Z</time>
      </trkpt>
      <trkpt lat="43.43724" lon="6.03055">
        <ele>269.79998779297</ele>
        <time>2015-02-11T13:47:04Z</time>
      </trkpt>
      <trkpt lat="43.43732" lon="6.03049">
        <ele>269.20001220703</ele>
        <time>2015-02-11T13:47:07Z</time>
      </trkpt>
      <trkpt lat="43.43739" lon="6.03044">
        <ele>269</ele>
        <time>2015-02-11T13:47:10Z</time>
      </trkpt>
      <trkpt lat="43.43753" lon="6.03038">
        <ele>268.79998779297</ele>
        <time>2015-02-11T13:47:14Z</time>
      </trkpt>
      <trkpt lat="43.43757" lon="6.03036">
        <ele>268.79998779297</ele>
        <time>2015-02-11T13:47:15Z</time>
      </trkpt>
      <trkpt lat="43.43763" lon="6.0303">
        <ele>268.20001220703</ele>
        <time>2015-02-11T13:47:17Z</time>
      </trkpt>
      <trkpt lat="43.43765" lon="6.03025">
        <ele>267.39999389648</ele>
        <time>2015-02-11T13:47:19Z</time>
      </trkpt>
      <trkpt lat="43.43766" lon="6.03021">
        <ele>267.20001220703</ele>
        <time>2015-02-11T13:47:24Z</time>
      </trkpt>
      <trkpt lat="43.43766" lon="6.03021">
        <ele>267</ele>
        <time>2015-02-11T13:47:25Z</time>
      </trkpt>
      <trkpt lat="43.43768" lon="6.03014">
        <ele>267</ele>
        <time>2015-02-11T13:47:33Z</time>
      </trkpt>
      <trkpt lat="43.4377" lon="6.03011">
        <ele>267.20001220703</ele>
        <time>2015-02-11T13:47:38Z</time>
      </trkpt>
      <trkpt lat="43.43771" lon="6.03011">
        <ele>267.39999389648</ele>
        <time>2015-02-11T13:47:39Z</time>
      </trkpt>
      <trkpt lat="43.43774" lon="6.03003">
        <ele>267.20001220703</ele>
        <time>2015-02-11T13:47:47Z</time>
      </trkpt>
      <trkpt lat="43.4378" lon="6.02993">
        <ele>267.20001220703</ele>
        <time>2015-02-11T13:47:57Z</time>
      </trkpt>
      <trkpt lat="43.43782" lon="6.0299">
        <ele>267.39999389648</ele>
        <time>2015-02-11T13:48:04Z</time>
      </trkpt>
      <trkpt lat="43.43785" lon="6.02982">
        <ele>267.20001220703</ele>
        <time>2015-02-11T13:48:08Z</time>
      </trkpt>
      <trkpt lat="43.43786" lon="6.02981">
        <ele>267.20001220703</ele>
        <time>2015-02-11T13:48:09Z</time>
      </trkpt>
      <trkpt lat="43.43786" lon="6.02979">
        <ele>267.39999389648</ele>
        <time>2015-02-11T13:48:10Z</time>
      </trkpt>
      <trkpt lat="43.43786" lon="6.02978">
        <ele>267.39999389648</ele>
        <time>2015-02-11T13:48:11Z</time>
      </trkpt>
      <trkpt lat="43.43787" lon="6.02976">
        <ele>267.20001220703</ele>
        <time>2015-02-11T13:48:13Z</time>
      </trkpt>
      <trkpt lat="43.43786" lon="6.02976">
        <ele>267.39999389648</ele>
        <time>2015-02-11T13:48:15Z</time>
      </trkpt>
      <trkpt lat="43.43787" lon="6.02976">
        <ele>267.39999389648</ele>
        <time>2015-02-11T13:48:20Z</time>
      </trkpt>
      <trkpt lat="43.43787" lon="6.02976">
        <ele>267.60000610352</ele>
        <time>2015-02-11T13:48:27Z</time>
      </trkpt>
      <trkpt lat="43.43787" lon="6.02976">
        <ele>267.79998779297</ele>
        <time>2015-02-11T13:49:02Z</time>
      </trkpt>
      <trkpt lat="43.43787" lon="6.02976">
        <ele>267.39999389648</ele>
        <time>2015-02-11T13:49:09Z</time>
      </trkpt>
      <trkpt lat="43.43786" lon="6.02977">
        <ele>267.20001220703</ele>
        <time>2015-02-11T13:49:16Z</time>
      </trkpt>
      <trkpt lat="43.43786" lon="6.02977">
        <ele>266.60000610352</ele>
        <time>2015-02-11T13:49:19Z</time>
      </trkpt>
      <trkpt lat="43.43786" lon="6.02977">
        <ele>266.79998779297</ele>
        <time>2015-02-11T13:49:33Z</time>
      </trkpt>
      <trkpt lat="43.43787" lon="6.02976">
        <ele>267</ele>
        <time>2015-02-11T13:50:06Z</time>
      </trkpt>
      <trkpt lat="43.43787" lon="6.02976">
        <ele>267.20001220703</ele>
        <time>2015-02-11T13:50:12Z</time>
      </trkpt>
      <trkpt lat="43.43787" lon="6.02976">
        <ele>267.20001220703</ele>
        <time>2015-02-11T13:50:17Z</time>
      </trkpt>
      <trkpt lat="43.43787" lon="6.02976">
        <ele>267.39999389648</ele>
        <time>2015-02-11T13:50:26Z</time>
      </trkpt>
      <trkpt lat="43.43787" lon="6.02975">
        <ele>267.39999389648</ele>
        <time>2015-02-11T13:50:28Z</time>
      </trkpt>
      <trkpt lat="43.43787" lon="6.02975">
        <ele>267.20001220703</ele>
        <time>2015-02-11T13:50:41Z</time>
      </trkpt>
      <trkpt lat="43.43787" lon="6.02975">
        <ele>267.20001220703</ele>
        <time>2015-02-11T13:50:51Z</time>
      </trkpt>
      <trkpt lat="43.43787" lon="6.02975">
        <ele>267.20001220703</ele>
        <time>2015-02-11T13:50:54Z</time>
      </trkpt>
      <trkpt lat="43.43787" lon="6.02975">
        <ele>267.39999389648</ele>
        <time>2015-02-11T13:50:57Z</time>
      </trkpt>
      <trkpt lat="43.43788" lon="6.02972">
        <ele>267.60000610352</ele>
        <time>2015-02-11T13:51:01Z</time>
      </trkpt>
      <trkpt lat="43.43788" lon="6.0297">
        <ele>267.60000610352</ele>
        <time>2015-02-11T13:51:04Z</time>
      </trkpt>
      <trkpt lat="43.43787" lon="6.02967">
        <ele>267.20001220703</ele>
        <time>2015-02-11T13:51:07Z</time>
      </trkpt>
      <trkpt lat="43.43788" lon="6.02965">
        <ele>267.20001220703</ele>
        <time>2015-02-11T13:51:08Z</time>
      </trkpt>
      <trkpt lat="43.43789" lon="6.02958">
        <ele>267.79998779297</ele>
        <time>2015-02-11T13:51:12Z</time>
      </trkpt>
      <trkpt lat="43.4379" lon="6.02956">
        <ele>267.79998779297</ele>
        <time>2015-02-11T13:51:13Z</time>
      </trkpt>
      <trkpt lat="43.4379" lon="6.02953">
        <ele>267.79998779297</ele>
        <time>2015-02-11T13:51:14Z</time>
      </trkpt>
      <trkpt lat="43.43793" lon="6.02945">
        <ele>268.39999389648</ele>
        <time>2015-02-11T13:51:18Z</time>
      </trkpt>
      <trkpt lat="43.43798" lon="6.02929">
        <ele>268.39999389648</ele>
        <time>2015-02-11T13:51:24Z</time>
      </trkpt>
      <trkpt lat="43.43797" lon="6.02912">
        <ele>268.79998779297</ele>
        <time>2015-02-11T13:51:30Z</time>
      </trkpt>
      <trkpt lat="43.43795" lon="6.02907">
        <ele>269</ele>
        <time>2015-02-11T13:51:33Z</time>
      </trkpt>
      <trkpt lat="43.43796" lon="6.02907">
        <ele>269</ele>
        <time>2015-02-11T13:51:35Z</time>
      </trkpt>
      <trkpt lat="43.43796" lon="6.029">
        <ele>269</ele>
        <time>2015-02-11T13:51:45Z</time>
      </trkpt>
      <trkpt lat="43.43797" lon="6.02884">
        <ele>269.20001220703</ele>
        <time>2015-02-11T13:51:51Z</time>
      </trkpt>
      <trkpt lat="43.43801" lon="6.02868">
        <ele>269.60000610352</ele>
        <time>2015-02-11T13:51:56Z</time>
      </trkpt>
      <trkpt lat="43.43805" lon="6.02858">
        <ele>269.79998779297</ele>
        <time>2015-02-11T13:52:00Z</time>
      </trkpt>
      <trkpt lat="43.43809" lon="6.02846">
        <ele>269.39999389648</ele>
        <time>2015-02-11T13:52:05Z</time>
      </trkpt>
      <trkpt lat="43.43813" lon="6.02831">
        <ele>269.20001220703</ele>
        <time>2015-02-11T13:52:10Z</time>
      </trkpt>
      <trkpt lat="43.43813" lon="6.02823">
        <ele>269.39999389648</ele>
        <time>2015-02-11T13:52:15Z</time>
      </trkpt>
      <trkpt lat="43.43812" lon="6.02823">
        <ele>269.79998779297</ele>
        <time>2015-02-11T13:52:21Z</time>
      </trkpt>
      <trkpt lat="43.4381" lon="6.02814">
        <ele>270.39999389648</ele>
        <time>2015-02-11T13:52:30Z</time>
      </trkpt>
      <trkpt lat="43.43808" lon="6.02807">
        <ele>270.79998779297</ele>
        <time>2015-02-11T13:52:33Z</time>
      </trkpt>
      <trkpt lat="43.43801" lon="6.02799">
        <ele>271.60000610352</ele>
        <time>2015-02-11T13:52:38Z</time>
      </trkpt>
      <trkpt lat="43.43797" lon="6.02789">
        <ele>272</ele>
        <time>2015-02-11T13:52:42Z</time>
      </trkpt>
      <trkpt lat="43.43793" lon="6.0278">
        <ele>272.20001220703</ele>
        <time>2015-02-11T13:52:46Z</time>
      </trkpt>
      <trkpt lat="43.43792" lon="6.02777">
        <ele>272.39999389648</ele>
        <time>2015-02-11T13:52:47Z</time>
      </trkpt>
      <trkpt lat="43.4379" lon="6.02769">
        <ele>272.60000610352</ele>
        <time>2015-02-11T13:52:50Z</time>
      </trkpt>
      <trkpt lat="43.43792" lon="6.02761">
        <ele>272.79998779297</ele>
        <time>2015-02-11T13:52:53Z</time>
      </trkpt>
      <trkpt lat="43.43794" lon="6.0275">
        <ele>272.79998779297</ele>
        <time>2015-02-11T13:52:57Z</time>
      </trkpt>
      <trkpt lat="43.43793" lon="6.02734">
        <ele>272.60000610352</ele>
        <time>2015-02-11T13:53:02Z</time>
      </trkpt>
      <trkpt lat="43.43789" lon="6.02724">
        <ele>272.60000610352</ele>
        <time>2015-02-11T13:53:06Z</time>
      </trkpt>
      <trkpt lat="43.43786" lon="6.02723">
        <ele>272.79998779297</ele>
        <time>2015-02-11T13:53:07Z</time>
      </trkpt>
      <trkpt lat="43.43782" lon="6.02722">
        <ele>273</ele>
        <time>2015-02-11T13:53:09Z</time>
      </trkpt>
      <trkpt lat="43.43776" lon="6.02717">
        <ele>273.20001220703</ele>
        <time>2015-02-11T13:53:12Z</time>
      </trkpt>
      <trkpt lat="43.43773" lon="6.02713">
        <ele>273.20001220703</ele>
        <time>2015-02-11T13:53:14Z</time>
      </trkpt>
      <trkpt lat="43.43769" lon="6.02708">
        <ele>273.79998779297</ele>
        <time>2015-02-11T13:53:17Z</time>
      </trkpt>
      <trkpt lat="43.43769" lon="6.02705">
        <ele>274</ele>
        <time>2015-02-11T13:53:18Z</time>
      </trkpt>
      <trkpt lat="43.43771" lon="6.02703">
        <ele>274</ele>
        <time>2015-02-11T13:53:21Z</time>
      </trkpt>
      <trkpt lat="43.43777" lon="6.027">
        <ele>274</ele>
        <time>2015-02-11T13:53:26Z</time>
      </trkpt>
      <trkpt lat="43.43778" lon="6.02699">
        <ele>274</ele>
        <time>2015-02-11T13:53:27Z</time>
      </trkpt>
      <trkpt lat="43.43784" lon="6.02688">
        <ele>274</ele>
        <time>2015-02-11T13:53:33Z</time>
      </trkpt>
      <trkpt lat="43.43788" lon="6.02678">
        <ele>274</ele>
        <time>2015-02-11T13:53:39Z</time>
      </trkpt>
      <trkpt lat="43.43787" lon="6.0267">
        <ele>274</ele>
        <time>2015-02-11T13:53:43Z</time>
      </trkpt>
      <trkpt lat="43.43788" lon="6.02655">
        <ele>274.60000610352</ele>
        <time>2015-02-11T13:53:49Z</time>
      </trkpt>
      <trkpt lat="43.43787" lon="6.02636">
        <ele>274.79998779297</ele>
        <time>2015-02-11T13:53:56Z</time>
      </trkpt>
      <trkpt lat="43.43794" lon="6.02613">
        <ele>274.79998779297</ele>
        <time>2015-02-11T13:54:04Z</time>
      </trkpt>
      <trkpt lat="43.43794" lon="6.0261">
        <ele>274.79998779297</ele>
        <time>2015-02-11T13:54:05Z</time>
      </trkpt>
      <trkpt lat="43.43796" lon="6.02587">
        <ele>275</ele>
        <time>2015-02-11T13:54:12Z</time>
      </trkpt>
      <trkpt lat="43.43792" lon="6.02565">
        <ele>274.79998779297</ele>
        <time>2015-02-11T13:54:19Z</time>
      </trkpt>
      <trkpt lat="43.43792" lon="6.02562">
        <ele>274.79998779297</ele>
        <time>2015-02-11T13:54:20Z</time>
      </trkpt>
      <trkpt lat="43.43793" lon="6.02549">
        <ele>275</ele>
        <time>2015-02-11T13:54:24Z</time>
      </trkpt>
      <trkpt lat="43.43792" lon="6.02537">
        <ele>275.39999389648</ele>
        <time>2015-02-11T13:54:28Z</time>
      </trkpt>
      <trkpt lat="43.43792" lon="6.02532">
        <ele>275.79998779297</ele>
        <time>2015-02-11T13:54:30Z</time>
      </trkpt>
      <trkpt lat="43.43797" lon="6.02523">
        <ele>275.60000610352</ele>
        <time>2015-02-11T13:54:33Z</time>
      </trkpt>
      <trkpt lat="43.43798" lon="6.0252">
        <ele>275.20001220703</ele>
        <time>2015-02-11T13:54:34Z</time>
      </trkpt>
      <trkpt lat="43.438" lon="6.02505">
        <ele>274.60000610352</ele>
        <time>2015-02-11T13:54:39Z</time>
      </trkpt>
      <trkpt lat="43.438" lon="6.02499">
        <ele>274.20001220703</ele>
        <time>2015-02-11T13:54:41Z</time>
      </trkpt>
      <trkpt lat="43.438" lon="6.02486">
        <ele>273.79998779297</ele>
        <time>2015-02-11T13:54:45Z</time>
      </trkpt>
      <trkpt lat="43.43799" lon="6.02479">
        <ele>273.79998779297</ele>
        <time>2015-02-11T13:54:49Z</time>
      </trkpt>
      <trkpt lat="43.43798" lon="6.02474">
        <ele>274.20001220703</ele>
        <time>2015-02-11T13:54:52Z</time>
      </trkpt>
      <trkpt lat="43.43797" lon="6.02472">
        <ele>274.60000610352</ele>
        <time>2015-02-11T13:54:55Z</time>
      </trkpt>
      <trkpt lat="43.43797" lon="6.02473">
        <ele>274.39999389648</ele>
        <time>2015-02-11T13:55:03Z</time>
      </trkpt>
      <trkpt lat="43.43797" lon="6.02478">
        <ele>273.79998779297</ele>
        <time>2015-02-11T13:55:10Z</time>
      </trkpt>
      <trkpt lat="43.43798" lon="6.02479">
        <ele>273.79998779297</ele>
        <time>2015-02-11T13:55:12Z</time>
      </trkpt>
      <trkpt lat="43.43798" lon="6.0248">
        <ele>273.79998779297</ele>
        <time>2015-02-11T13:55:17Z</time>
      </trkpt>
      <trkpt lat="43.43798" lon="6.0248">
        <ele>273.79998779297</ele>
        <time>2015-02-11T13:55:18Z</time>
      </trkpt>
      <trkpt lat="43.43798" lon="6.02481">
        <ele>273.79998779297</ele>
        <time>2015-02-11T13:55:29Z</time>
      </trkpt>
      <trkpt lat="43.43797" lon="6.02473">
        <ele>274.39999389648</ele>
        <time>2015-02-11T13:55:34Z</time>
      </trkpt>
      <trkpt lat="43.43797" lon="6.02473">
        <ele>274.79998779297</ele>
        <time>2015-02-11T13:55:35Z</time>
      </trkpt>
      <trkpt lat="43.43796" lon="6.02474">
        <ele>274.79998779297</ele>
        <time>2015-02-11T13:55:36Z</time>
      </trkpt>
      <trkpt lat="43.43793" lon="6.02474">
        <ele>275.39999389648</ele>
        <time>2015-02-11T13:55:38Z</time>
      </trkpt>
      <trkpt lat="43.43793" lon="6.02474">
        <ele>276.79998779297</ele>
        <time>2015-02-11T13:55:40Z</time>
      </trkpt>
      <trkpt lat="43.43792" lon="6.02474">
        <ele>277</ele>
        <time>2015-02-11T13:55:42Z</time>
      </trkpt>
      <trkpt lat="43.43792" lon="6.02474">
        <ele>276.20001220703</ele>
        <time>2015-02-11T13:55:45Z</time>
      </trkpt>
      <trkpt lat="43.43792" lon="6.02474">
        <ele>276.20001220703</ele>
        <time>2015-02-11T13:55:53Z</time>
      </trkpt>
      <trkpt lat="43.43792" lon="6.02474">
        <ele>276.20001220703</ele>
        <time>2015-02-11T13:55:58Z</time>
      </trkpt>
      <trkpt lat="43.43792" lon="6.02474">
        <ele>276.20001220703</ele>
        <time>2015-02-11T13:56:00Z</time>
      </trkpt>
      <trkpt lat="43.43792" lon="6.02473">
        <ele>276.39999389648</ele>
        <time>2015-02-11T13:56:04Z</time>
      </trkpt>
      <trkpt lat="43.43792" lon="6.02473">
        <ele>276.20001220703</ele>
        <time>2015-02-11T13:56:06Z</time>
      </trkpt>
      <trkpt lat="43.43792" lon="6.02473">
        <ele>276.79998779297</ele>
        <time>2015-02-11T13:56:14Z</time>
      </trkpt>
      <trkpt lat="43.43792" lon="6.02474">
        <ele>276</ele>
        <time>2015-02-11T13:56:21Z</time>
      </trkpt>
      <trkpt lat="43.43792" lon="6.02474">
        <ele>276</ele>
        <time>2015-02-11T13:56:26Z</time>
      </trkpt>
      <trkpt lat="43.43792" lon="6.02474">
        <ele>275.79998779297</ele>
        <time>2015-02-11T13:56:37Z</time>
      </trkpt>
      <trkpt lat="43.43792" lon="6.02474">
        <ele>276</ele>
        <time>2015-02-11T13:56:39Z</time>
      </trkpt>
      <trkpt lat="43.43791" lon="6.02473">
        <ele>276.60000610352</ele>
        <time>2015-02-11T13:56:43Z</time>
      </trkpt>
      <trkpt lat="43.43791" lon="6.02473">
        <ele>276.79998779297</ele>
        <time>2015-02-11T13:56:48Z</time>
      </trkpt>
      <trkpt lat="43.4379" lon="6.02473">
        <ele>276.79998779297</ele>
        <time>2015-02-11T13:56:56Z</time>
      </trkpt>
      <trkpt lat="43.4379" lon="6.02473">
        <ele>276.79998779297</ele>
        <time>2015-02-11T13:56:59Z</time>
      </trkpt>
      <trkpt lat="43.43787" lon="6.02471">
        <ele>276.60000610352</ele>
        <time>2015-02-11T13:57:06Z</time>
      </trkpt>
      <trkpt lat="43.43781" lon="6.02462">
        <ele>276.39999389648</ele>
        <time>2015-02-11T13:57:12Z</time>
      </trkpt>
      <trkpt lat="43.43781" lon="6.02456">
        <ele>276.60000610352</ele>
        <time>2015-02-11T13:57:16Z</time>
      </trkpt>
      <trkpt lat="43.43779" lon="6.02455">
        <ele>277</ele>
        <time>2015-02-11T13:57:17Z</time>
      </trkpt>
      <trkpt lat="43.43778" lon="6.02455">
        <ele>277.39999389648</ele>
        <time>2015-02-11T13:57:21Z</time>
      </trkpt>
      <trkpt lat="43.43777" lon="6.02452">
        <ele>277.60000610352</ele>
        <time>2015-02-11T13:57:23Z</time>
      </trkpt>
      <trkpt lat="43.43776" lon="6.02447">
        <ele>277.79998779297</ele>
        <time>2015-02-11T13:57:32Z</time>
      </trkpt>
      <trkpt lat="43.43777" lon="6.02446">
        <ele>278</ele>
        <time>2015-02-11T13:57:33Z</time>
      </trkpt>
      <trkpt lat="43.43776" lon="6.02444">
        <ele>278.39999389648</ele>
        <time>2015-02-11T13:57:34Z</time>
      </trkpt>
      <trkpt lat="43.43777" lon="6.02443">
        <ele>278.60000610352</ele>
        <time>2015-02-11T13:57:35Z</time>
      </trkpt>
      <trkpt lat="43.43778" lon="6.0244">
        <ele>278.60000610352</ele>
        <time>2015-02-11T13:57:37Z</time>
      </trkpt>
      <trkpt lat="43.43777" lon="6.02434">
        <ele>278.39999389648</ele>
        <time>2015-02-11T13:57:40Z</time>
      </trkpt>
      <trkpt lat="43.43772" lon="6.02426">
        <ele>278.79998779297</ele>
        <time>2015-02-11T13:57:44Z</time>
      </trkpt>
      <trkpt lat="43.43769" lon="6.02423">
        <ele>278.79998779297</ele>
        <time>2015-02-11T13:57:46Z</time>
      </trkpt>
      <trkpt lat="43.43765" lon="6.02416">
        <ele>278.60000610352</ele>
        <time>2015-02-11T13:57:49Z</time>
      </trkpt>
      <trkpt lat="43.43761" lon="6.02408">
        <ele>279</ele>
        <time>2015-02-11T13:57:52Z</time>
      </trkpt>
      <trkpt lat="43.43758" lon="6.02406">
        <ele>279.39999389648</ele>
        <time>2015-02-11T13:57:54Z</time>
      </trkpt>
      <trkpt lat="43.43755" lon="6.02404">
        <ele>280.39999389648</ele>
        <time>2015-02-11T13:57:56Z</time>
      </trkpt>
      <trkpt lat="43.43753" lon="6.024">
        <ele>280.79998779297</ele>
        <time>2015-02-11T13:57:58Z</time>
      </trkpt>
      <trkpt lat="43.43751" lon="6.02397">
        <ele>281</ele>
        <time>2015-02-11T13:57:59Z</time>
      </trkpt>
      <trkpt lat="43.4375" lon="6.02394">
        <ele>281.60000610352</ele>
        <time>2015-02-11T13:58:01Z</time>
      </trkpt>
      <trkpt lat="43.43744" lon="6.02375">
        <ele>282.20001220703</ele>
        <time>2015-02-11T13:58:08Z</time>
      </trkpt>
      <trkpt lat="43.4374" lon="6.02367">
        <ele>282.79998779297</ele>
        <time>2015-02-11T13:58:11Z</time>
      </trkpt>
      <trkpt lat="43.43737" lon="6.02364">
        <ele>283</ele>
        <time>2015-02-11T13:58:13Z</time>
      </trkpt>
      <trkpt lat="43.43729" lon="6.02366">
        <ele>283.79998779297</ele>
        <time>2015-02-11T13:58:17Z</time>
      </trkpt>
      <trkpt lat="43.43727" lon="6.02364">
        <ele>284.20001220703</ele>
        <time>2015-02-11T13:58:18Z</time>
      </trkpt>
      <trkpt lat="43.43721" lon="6.02351">
        <ele>284.39999389648</ele>
        <time>2015-02-11T13:58:23Z</time>
      </trkpt>
      <trkpt lat="43.43723" lon="6.02337">
        <ele>284</ele>
        <time>2015-02-11T13:58:27Z</time>
      </trkpt>
      <trkpt lat="43.43727" lon="6.02331">
        <ele>282.60000610352</ele>
        <time>2015-02-11T13:58:30Z</time>
      </trkpt>
      <trkpt lat="43.43731" lon="6.02325">
        <ele>281.60000610352</ele>
        <time>2015-02-11T13:58:32Z</time>
      </trkpt>
      <trkpt lat="43.43734" lon="6.02312">
        <ele>280.20001220703</ele>
        <time>2015-02-11T13:58:35Z</time>
      </trkpt>
      <trkpt lat="43.43737" lon="6.02308">
        <ele>279.39999389648</ele>
        <time>2015-02-11T13:58:36Z</time>
      </trkpt>
      <trkpt lat="43.4374" lon="6.02304">
        <ele>279</ele>
        <time>2015-02-11T13:58:37Z</time>
      </trkpt>
      <trkpt lat="43.43747" lon="6.02289">
        <ele>278</ele>
        <time>2015-02-11T13:58:40Z</time>
      </trkpt>
      <trkpt lat="43.43749" lon="6.02284">
        <ele>277.79998779297</ele>
        <time>2015-02-11T13:58:41Z</time>
      </trkpt>
      <trkpt lat="43.43756" lon="6.02267">
        <ele>277</ele>
        <time>2015-02-11T13:58:44Z</time>
      </trkpt>
      <trkpt lat="43.4376" lon="6.02261">
        <ele>276.60000610352</ele>
        <time>2015-02-11T13:58:45Z</time>
      </trkpt>
      <trkpt lat="43.43762" lon="6.02255">
        <ele>276</ele>
        <time>2015-02-11T13:58:46Z</time>
      </trkpt>
      <trkpt lat="43.43765" lon="6.02249">
        <ele>275.60000610352</ele>
        <time>2015-02-11T13:58:47Z</time>
      </trkpt>
      <trkpt lat="43.43766" lon="6.02242">
        <ele>275.20001220703</ele>
        <time>2015-02-11T13:58:48Z</time>
      </trkpt>
      <trkpt lat="43.43769" lon="6.02226">
        <ele>274.39999389648</ele>
        <time>2015-02-11T13:58:51Z</time>
      </trkpt>
      <trkpt lat="43.43769" lon="6.0222">
        <ele>274.39999389648</ele>
        <time>2015-02-11T13:58:52Z</time>
      </trkpt>
      <trkpt lat="43.4377" lon="6.02198">
        <ele>275.39999389648</ele>
        <time>2015-02-11T13:58:56Z</time>
      </trkpt>
      <trkpt lat="43.4377" lon="6.02192">
        <ele>275.60000610352</ele>
        <time>2015-02-11T13:58:57Z</time>
      </trkpt>
      <trkpt lat="43.43772" lon="6.02189">
        <ele>276</ele>
        <time>2015-02-11T13:58:58Z</time>
      </trkpt>
      <trkpt lat="43.43774" lon="6.02185">
        <ele>276.39999389648</ele>
        <time>2015-02-11T13:58:59Z</time>
      </trkpt>
      <trkpt lat="43.43778" lon="6.02177">
        <ele>276.60000610352</ele>
        <time>2015-02-11T13:59:01Z</time>
      </trkpt>
      <trkpt lat="43.43784" lon="6.0216">
        <ele>275.79998779297</ele>
        <time>2015-02-11T13:59:04Z</time>
      </trkpt>
      <trkpt lat="43.43786" lon="6.02156">
        <ele>276</ele>
        <time>2015-02-11T13:59:05Z</time>
      </trkpt>
      <trkpt lat="43.43798" lon="6.02144">
        <ele>275.60000610352</ele>
        <time>2015-02-11T13:59:09Z</time>
      </trkpt>
      <trkpt lat="43.43812" lon="6.02124">
        <ele>276.79998779297</ele>
        <time>2015-02-11T13:59:14Z</time>
      </trkpt>
      <trkpt lat="43.43814" lon="6.02106">
        <ele>277</ele>
        <time>2015-02-11T13:59:18Z</time>
      </trkpt>
      <trkpt lat="43.43818" lon="6.02089">
        <ele>277.79998779297</ele>
        <time>2015-02-11T13:59:22Z</time>
      </trkpt>
      <trkpt lat="43.43822" lon="6.0207">
        <ele>277.39999389648</ele>
        <time>2015-02-11T13:59:26Z</time>
      </trkpt>
      <trkpt lat="43.43831" lon="6.02054">
        <ele>277.20001220703</ele>
        <time>2015-02-11T13:59:30Z</time>
      </trkpt>
      <trkpt lat="43.43831" lon="6.0203">
        <ele>277.20001220703</ele>
        <time>2015-02-11T13:59:34Z</time>
      </trkpt>
      <trkpt lat="43.43832" lon="6.02019">
        <ele>277.20001220703</ele>
        <time>2015-02-11T13:59:36Z</time>
      </trkpt>
      <trkpt lat="43.43833" lon="6.01999">
        <ele>277.79998779297</ele>
        <time>2015-02-11T13:59:40Z</time>
      </trkpt>
      <trkpt lat="43.43834" lon="6.01972">
        <ele>278.20001220703</ele>
        <time>2015-02-11T13:59:46Z</time>
      </trkpt>
      <trkpt lat="43.43837" lon="6.01962">
        <ele>278</ele>
        <time>2015-02-11T13:59:49Z</time>
      </trkpt>
      <trkpt lat="43.43838" lon="6.01952">
        <ele>278</ele>
        <time>2015-02-11T13:59:52Z</time>
      </trkpt>
      <trkpt lat="43.43838" lon="6.01948">
        <ele>277.79998779297</ele>
        <time>2015-02-11T13:59:54Z</time>
      </trkpt>
      <trkpt lat="43.43837" lon="6.01946">
        <ele>277.79998779297</ele>
        <time>2015-02-11T13:59:56Z</time>
      </trkpt>
      <trkpt lat="43.43835" lon="6.01945">
        <ele>277.79998779297</ele>
        <time>2015-02-11T13:59:59Z</time>
      </trkpt>
      <trkpt lat="43.43835" lon="6.01946">
        <ele>277.60000610352</ele>
        <time>2015-02-11T14:00:03Z</time>
      </trkpt>
      <trkpt lat="43.43836" lon="6.01945">
        <ele>277.60000610352</ele>
        <time>2015-02-11T14:00:10Z</time>
      </trkpt>
      <trkpt lat="43.43836" lon="6.01945">
        <ele>277.60000610352</ele>
        <time>2015-02-11T14:00:21Z</time>
      </trkpt>
      <trkpt lat="43.43836" lon="6.01945">
        <ele>277.60000610352</ele>
        <time>2015-02-11T14:00:39Z</time>
      </trkpt>
      <trkpt lat="43.43835" lon="6.01944">
        <ele>277.60000610352</ele>
        <time>2015-02-11T14:00:54Z</time>
      </trkpt>
      <trkpt lat="43.43835" lon="6.01944">
        <ele>277.60000610352</ele>
        <time>2015-02-11T14:01:07Z</time>
      </trkpt>
      <trkpt lat="43.43835" lon="6.01944">
        <ele>277.60000610352</ele>
        <time>2015-02-11T14:01:27Z</time>
      </trkpt>
      <trkpt lat="43.43835" lon="6.01944">
        <ele>277.79998779297</ele>
        <time>2015-02-11T14:01:40Z</time>
      </trkpt>
      <trkpt lat="43.43835" lon="6.01944">
        <ele>277.79998779297</ele>
        <time>2015-02-11T14:02:22Z</time>
      </trkpt>
      <trkpt lat="43.43836" lon="6.01943">
        <ele>277.79998779297</ele>
        <time>2015-02-11T14:02:46Z</time>
      </trkpt>
      <trkpt lat="43.43837" lon="6.01944">
        <ele>277.79998779297</ele>
        <time>2015-02-11T14:02:53Z</time>
      </trkpt>
      <trkpt lat="43.43837" lon="6.01944">
        <ele>278</ele>
        <time>2015-02-11T14:03:01Z</time>
      </trkpt>
      <trkpt lat="43.43837" lon="6.01944">
        <ele>278</ele>
        <time>2015-02-11T14:03:12Z</time>
      </trkpt>
      <trkpt lat="43.43837" lon="6.01944">
        <ele>277.60000610352</ele>
        <time>2015-02-11T14:03:19Z</time>
      </trkpt>
      <trkpt lat="43.43837" lon="6.01944">
        <ele>278</ele>
        <time>2015-02-11T14:03:23Z</time>
      </trkpt>
      <trkpt lat="43.43837" lon="6.01944">
        <ele>278</ele>
        <time>2015-02-11T14:03:49Z</time>
      </trkpt>
      <trkpt lat="43.43837" lon="6.01944">
        <ele>278</ele>
        <time>2015-02-11T14:04:01Z</time>
      </trkpt>
      <trkpt lat="43.43837" lon="6.01944">
        <ele>277.79998779297</ele>
        <time>2015-02-11T14:04:10Z</time>
      </trkpt>
      <trkpt lat="43.43838" lon="6.01943">
        <ele>277.79998779297</ele>
        <time>2015-02-11T14:04:13Z</time>
      </trkpt>
      <trkpt lat="43.43848" lon="6.01922">
        <ele>277.60000610352</ele>
        <time>2015-02-11T14:04:27Z</time>
      </trkpt>
      <trkpt lat="43.43852" lon="6.019">
        <ele>278.60000610352</ele>
        <time>2015-02-11T14:04:32Z</time>
      </trkpt>
      <trkpt lat="43.4386" lon="6.01863">
        <ele>279.20001220703</ele>
        <time>2015-02-11T14:04:40Z</time>
      </trkpt>
      <trkpt lat="43.43862" lon="6.01848">
        <ele>279.39999389648</ele>
        <time>2015-02-11T14:04:43Z</time>
      </trkpt>
      <trkpt lat="43.43865" lon="6.01816">
        <ele>279.79998779297</ele>
        <time>2015-02-11T14:04:49Z</time>
      </trkpt>
      <trkpt lat="43.43868" lon="6.01799">
        <ele>280.79998779297</ele>
        <time>2015-02-11T14:04:53Z</time>
      </trkpt>
      <trkpt lat="43.4387" lon="6.01791">
        <ele>280.79998779297</ele>
        <time>2015-02-11T14:04:55Z</time>
      </trkpt>
      <trkpt lat="43.43872" lon="6.01784">
        <ele>281.39999389648</ele>
        <time>2015-02-11T14:04:57Z</time>
      </trkpt>
      <trkpt lat="43.43875" lon="6.01778">
        <ele>282</ele>
        <time>2015-02-11T14:04:59Z</time>
      </trkpt>
      <trkpt lat="43.43876" lon="6.01771">
        <ele>282.39999389648</ele>
        <time>2015-02-11T14:05:01Z</time>
      </trkpt>
      <trkpt lat="43.43876" lon="6.01755">
        <ele>283.20001220703</ele>
        <time>2015-02-11T14:05:05Z</time>
      </trkpt>
      <trkpt lat="43.43876" lon="6.01746">
        <ele>283.39999389648</ele>
        <time>2015-02-11T14:05:07Z</time>
      </trkpt>
      <trkpt lat="43.43872" lon="6.01729">
        <ele>283.79998779297</ele>
        <time>2015-02-11T14:05:12Z</time>
      </trkpt>
      <trkpt lat="43.4387" lon="6.01723">
        <ele>284.20001220703</ele>
        <time>2015-02-11T14:05:14Z</time>
      </trkpt>
      <trkpt lat="43.43869" lon="6.0172">
        <ele>284.39999389648</ele>
        <time>2015-02-11T14:05:15Z</time>
      </trkpt>
      <trkpt lat="43.43865" lon="6.01703">
        <ele>285.60000610352</ele>
        <time>2015-02-11T14:05:20Z</time>
      </trkpt>
      <trkpt lat="43.43863" lon="6.01686">
        <ele>286</ele>
        <time>2015-02-11T14:05:25Z</time>
      </trkpt>
      <trkpt lat="43.43862" lon="6.01664">
        <ele>286.39999389648</ele>
        <time>2015-02-11T14:05:31Z</time>
      </trkpt>
      <trkpt lat="43.43861" lon="6.01662">
        <ele>286.39999389648</ele>
        <time>2015-02-11T14:05:32Z</time>
      </trkpt>
      <trkpt lat="43.43854" lon="6.01657">
        <ele>286.39999389648</ele>
        <time>2015-02-11T14:05:35Z</time>
      </trkpt>
      <trkpt lat="43.43852" lon="6.01659">
        <ele>286.60000610352</ele>
        <time>2015-02-11T14:05:36Z</time>
      </trkpt>
      <trkpt lat="43.43847" lon="6.01663">
        <ele>287</ele>
        <time>2015-02-11T14:05:39Z</time>
      </trkpt>
      <trkpt lat="43.43843" lon="6.01667">
        <ele>287</ele>
        <time>2015-02-11T14:05:41Z</time>
      </trkpt>
      <trkpt lat="43.43835" lon="6.01674">
        <ele>287.39999389648</ele>
        <time>2015-02-11T14:05:45Z</time>
      </trkpt>
      <trkpt lat="43.43826" lon="6.01681">
        <ele>287.79998779297</ele>
        <time>2015-02-11T14:05:50Z</time>
      </trkpt>
      <trkpt lat="43.43823" lon="6.01682">
        <ele>287.79998779297</ele>
        <time>2015-02-11T14:05:51Z</time>
      </trkpt>
      <trkpt lat="43.43811" lon="6.01691">
        <ele>288</ele>
        <time>2015-02-11T14:05:58Z</time>
      </trkpt>
      <trkpt lat="43.43797" lon="6.01694">
        <ele>288.60000610352</ele>
        <time>2015-02-11T14:06:04Z</time>
      </trkpt>
      <trkpt lat="43.43781" lon="6.01694">
        <ele>289</ele>
        <time>2015-02-11T14:06:11Z</time>
      </trkpt>
      <trkpt lat="43.43773" lon="6.0169">
        <ele>290</ele>
        <time>2015-02-11T14:06:16Z</time>
      </trkpt>
      <trkpt lat="43.43769" lon="6.01688">
        <ele>290.39999389648</ele>
        <time>2015-02-11T14:06:18Z</time>
      </trkpt>
      <trkpt lat="43.43761" lon="6.01685">
        <ele>291.20001220703</ele>
        <time>2015-02-11T14:06:22Z</time>
      </trkpt>
      <trkpt lat="43.43752" lon="6.01682">
        <ele>291.60000610352</ele>
        <time>2015-02-11T14:06:26Z</time>
      </trkpt>
      <trkpt lat="43.43745" lon="6.0168">
        <ele>292.20001220703</ele>
        <time>2015-02-11T14:06:29Z</time>
      </trkpt>
      <trkpt lat="43.43734" lon="6.01677">
        <ele>292.20001220703</ele>
        <time>2015-02-11T14:06:33Z</time>
      </trkpt>
      <trkpt lat="43.43727" lon="6.01673">
        <ele>293.20001220703</ele>
        <time>2015-02-11T14:06:37Z</time>
      </trkpt>
      <trkpt lat="43.43724" lon="6.01672">
        <ele>293.39999389648</ele>
        <time>2015-02-11T14:06:39Z</time>
      </trkpt>
      <trkpt lat="43.43722" lon="6.0167">
        <ele>293.60000610352</ele>
        <time>2015-02-11T14:06:41Z</time>
      </trkpt>
      <trkpt lat="43.43721" lon="6.01669">
        <ele>293.79998779297</ele>
        <time>2015-02-11T14:06:42Z</time>
      </trkpt>
      <trkpt lat="43.4372" lon="6.0167">
        <ele>293.79998779297</ele>
        <time>2015-02-11T14:06:44Z</time>
      </trkpt>
      <trkpt lat="43.4372" lon="6.0167">
        <ele>293.79998779297</ele>
        <time>2015-02-11T14:06:45Z</time>
      </trkpt>
      <trkpt lat="43.4372" lon="6.0167">
        <ele>293.79998779297</ele>
        <time>2015-02-11T14:06:46Z</time>
      </trkpt>
      <trkpt lat="43.4372" lon="6.0167">
        <ele>293.60000610352</ele>
        <time>2015-02-11T14:06:48Z</time>
      </trkpt>
      <trkpt lat="43.4372" lon="6.0167">
        <ele>293.39999389648</ele>
        <time>2015-02-11T14:06:51Z</time>
      </trkpt>
      <trkpt lat="43.4372" lon="6.0167">
        <ele>293.60000610352</ele>
        <time>2015-02-11T14:07:03Z</time>
      </trkpt>
      <trkpt lat="43.4372" lon="6.0167">
        <ele>293.60000610352</ele>
        <time>2015-02-11T14:07:12Z</time>
      </trkpt>
      <trkpt lat="43.4372" lon="6.0167">
        <ele>293.60000610352</ele>
        <time>2015-02-11T14:07:15Z</time>
      </trkpt>
      <trkpt lat="43.4372" lon="6.0167">
        <ele>293.60000610352</ele>
        <time>2015-02-11T14:07:24Z</time>
      </trkpt>
      <trkpt lat="43.4372" lon="6.0167">
        <ele>293.60000610352</ele>
        <time>2015-02-11T14:07:43Z</time>
      </trkpt>
      <trkpt lat="43.4372" lon="6.0167">
        <ele>293.39999389648</ele>
        <time>2015-02-11T14:07:48Z</time>
      </trkpt>
      <trkpt lat="43.4372" lon="6.0167">
        <ele>293.39999389648</ele>
        <time>2015-02-11T14:07:53Z</time>
      </trkpt>
      <trkpt lat="43.4372" lon="6.0167">
        <ele>293.20001220703</ele>
        <time>2015-02-11T14:08:06Z</time>
      </trkpt>
      <trkpt lat="43.4372" lon="6.0167">
        <ele>293.20001220703</ele>
        <time>2015-02-11T14:08:19Z</time>
      </trkpt>
      <trkpt lat="43.4372" lon="6.01669">
        <ele>293.60000610352</ele>
        <time>2015-02-11T14:08:36Z</time>
      </trkpt>
      <trkpt lat="43.43719" lon="6.01669">
        <ele>293.39999389648</ele>
        <time>2015-02-11T14:08:37Z</time>
      </trkpt>
      <trkpt lat="43.43718" lon="6.01669">
        <ele>293.39999389648</ele>
        <time>2015-02-11T14:08:39Z</time>
      </trkpt>
      <trkpt lat="43.43715" lon="6.01666">
        <ele>293.79998779297</ele>
        <time>2015-02-11T14:08:41Z</time>
      </trkpt>
      <trkpt lat="43.43713" lon="6.01664">
        <ele>293.79998779297</ele>
        <time>2015-02-11T14:08:42Z</time>
      </trkpt>
      <trkpt lat="43.43706" lon="6.01655">
        <ele>294</ele>
        <time>2015-02-11T14:08:46Z</time>
      </trkpt>
      <trkpt lat="43.43699" lon="6.01648">
        <ele>294.60000610352</ele>
        <time>2015-02-11T14:08:49Z</time>
      </trkpt>
      <trkpt lat="43.43688" lon="6.01644">
        <ele>294.60000610352</ele>
        <time>2015-02-11T14:08:53Z</time>
      </trkpt>
      <trkpt lat="43.43686" lon="6.01644">
        <ele>294.79998779297</ele>
        <time>2015-02-11T14:08:54Z</time>
      </trkpt>
      <trkpt lat="43.43676" lon="6.0164">
        <ele>295.79998779297</ele>
        <time>2015-02-11T14:08:58Z</time>
      </trkpt>
      <trkpt lat="43.43673" lon="6.01639">
        <ele>296</ele>
        <time>2015-02-11T14:08:59Z</time>
      </trkpt>
      <trkpt lat="43.43668" lon="6.01637">
        <ele>296.39999389648</ele>
        <time>2015-02-11T14:09:01Z</time>
      </trkpt>
      <trkpt lat="43.43663" lon="6.01636">
        <ele>296.39999389648</ele>
        <time>2015-02-11T14:09:03Z</time>
      </trkpt>
      <trkpt lat="43.43657" lon="6.01633">
        <ele>296.79998779297</ele>
        <time>2015-02-11T14:09:06Z</time>
      </trkpt>
      <trkpt lat="43.43646" lon="6.0162">
        <ele>297.60000610352</ele>
        <time>2015-02-11T14:09:11Z</time>
      </trkpt>
      <trkpt lat="43.43635" lon="6.01598">
        <ele>297.39999389648</ele>
        <time>2015-02-11T14:09:18Z</time>
      </trkpt>
      <trkpt lat="43.43626" lon="6.01579">
        <ele>298</ele>
        <time>2015-02-11T14:09:24Z</time>
      </trkpt>
      <trkpt lat="43.43624" lon="6.01577">
        <ele>298.20001220703</ele>
        <time>2015-02-11T14:09:25Z</time>
      </trkpt>
      <trkpt lat="43.43611" lon="6.01562">
        <ele>298.39999389648</ele>
        <time>2015-02-11T14:09:32Z</time>
      </trkpt>
      <trkpt lat="43.43599" lon="6.01553">
        <ele>299</ele>
        <time>2015-02-11T14:09:38Z</time>
      </trkpt>
      <trkpt lat="43.43596" lon="6.01552">
        <ele>299.20001220703</ele>
        <time>2015-02-11T14:09:39Z</time>
      </trkpt>
      <trkpt lat="43.43585" lon="6.01546">
        <ele>300.20001220703</ele>
        <time>2015-02-11T14:09:45Z</time>
      </trkpt>
      <trkpt lat="43.43569" lon="6.01541">
        <ele>301.39999389648</ele>
        <time>2015-02-11T14:09:53Z</time>
      </trkpt>
      <trkpt lat="43.43554" lon="6.01537">
        <ele>302</ele>
        <time>2015-02-11T14:10:01Z</time>
      </trkpt>
      <trkpt lat="43.43552" lon="6.01536">
        <ele>302.20001220703</ele>
        <time>2015-02-11T14:10:02Z</time>
      </trkpt>
      <trkpt lat="43.43539" lon="6.01533">
        <ele>302.79998779297</ele>
        <time>2015-02-11T14:10:08Z</time>
      </trkpt>
      <trkpt lat="43.43531" lon="6.0153">
        <ele>303.39999389648</ele>
        <time>2015-02-11T14:10:12Z</time>
      </trkpt>
      <trkpt lat="43.43523" lon="6.01527">
        <ele>303.60000610352</ele>
        <time>2015-02-11T14:10:16Z</time>
      </trkpt>
      <trkpt lat="43.43507" lon="6.01523">
        <ele>304.39999389648</ele>
        <time>2015-02-11T14:10:22Z</time>
      </trkpt>
      <trkpt lat="43.43504" lon="6.01524">
        <ele>304.60000610352</ele>
        <time>2015-02-11T14:10:23Z</time>
      </trkpt>
      <trkpt lat="43.43499" lon="6.01526">
        <ele>304.79998779297</ele>
        <time>2015-02-11T14:10:25Z</time>
      </trkpt>
      <trkpt lat="43.43494" lon="6.01527">
        <ele>305.39999389648</ele>
        <time>2015-02-11T14:10:27Z</time>
      </trkpt>
      <trkpt lat="43.43493" lon="6.01527">
        <ele>305.39999389648</ele>
        <time>2015-02-11T14:10:28Z</time>
      </trkpt>
      <trkpt lat="43.43491" lon="6.01527">
        <ele>305.79998779297</ele>
        <time>2015-02-11T14:10:29Z</time>
      </trkpt>
      <trkpt lat="43.43488" lon="6.01526">
        <ele>306.60000610352</ele>
        <time>2015-02-11T14:10:31Z</time>
      </trkpt>
      <trkpt lat="43.43481" lon="6.01524">
        <ele>307</ele>
        <time>2015-02-11T14:10:34Z</time>
      </trkpt>
      <trkpt lat="43.43475" lon="6.01524">
        <ele>306.79998779297</ele>
        <time>2015-02-11T14:10:37Z</time>
      </trkpt>
      <trkpt lat="43.43464" lon="6.01521">
        <ele>307.60000610352</ele>
        <time>2015-02-11T14:10:43Z</time>
      </trkpt>
      <trkpt lat="43.43456" lon="6.01517">
        <ele>308.20001220703</ele>
        <time>2015-02-11T14:10:49Z</time>
      </trkpt>
      <trkpt lat="43.43453" lon="6.01514">
        <ele>308.39999389648</ele>
        <time>2015-02-11T14:10:51Z</time>
      </trkpt>
      <trkpt lat="43.4345" lon="6.01507">
        <ele>308.60000610352</ele>
        <time>2015-02-11T14:10:55Z</time>
      </trkpt>
      <trkpt lat="43.43447" lon="6.01502">
        <ele>309</ele>
        <time>2015-02-11T14:10:58Z</time>
      </trkpt>
      <trkpt lat="43.43443" lon="6.0149">
        <ele>309.60000610352</ele>
        <time>2015-02-11T14:11:04Z</time>
      </trkpt>
      <trkpt lat="43.43441" lon="6.01479">
        <ele>309.79998779297</ele>
        <time>2015-02-11T14:11:09Z</time>
      </trkpt>
      <trkpt lat="43.43439" lon="6.01472">
        <ele>310.39999389648</ele>
        <time>2015-02-11T14:11:12Z</time>
      </trkpt>
      <trkpt lat="43.43436" lon="6.0146">
        <ele>310.79998779297</ele>
        <time>2015-02-11T14:11:18Z</time>
      </trkpt>
      <trkpt lat="43.43435" lon="6.01455">
        <ele>311.20001220703</ele>
        <time>2015-02-11T14:11:20Z</time>
      </trkpt>
      <trkpt lat="43.43434" lon="6.01442">
        <ele>311.20001220703</ele>
        <time>2015-02-11T14:11:25Z</time>
      </trkpt>
      <trkpt lat="43.43434" lon="6.01429">
        <ele>312.20001220703</ele>
        <time>2015-02-11T14:11:31Z</time>
      </trkpt>
      <trkpt lat="43.43434" lon="6.01425">
        <ele>312.20001220703</ele>
        <time>2015-02-11T14:11:33Z</time>
      </trkpt>
      <trkpt lat="43.43433" lon="6.01415">
        <ele>313</ele>
        <time>2015-02-11T14:11:38Z</time>
      </trkpt>
      <trkpt lat="43.43432" lon="6.01408">
        <ele>313.39999389648</ele>
        <time>2015-02-11T14:11:42Z</time>
      </trkpt>
      <trkpt lat="43.43432" lon="6.01402">
        <ele>313.39999389648</ele>
        <time>2015-02-11T14:11:45Z</time>
      </trkpt>
      <trkpt lat="43.43431" lon="6.01393">
        <ele>314.39999389648</ele>
        <time>2015-02-11T14:11:49Z</time>
      </trkpt>
      <trkpt lat="43.43431" lon="6.01389">
        <ele>314.79998779297</ele>
        <time>2015-02-11T14:11:51Z</time>
      </trkpt>
      <trkpt lat="43.4343" lon="6.01374">
        <ele>315.39999389648</ele>
        <time>2015-02-11T14:11:58Z</time>
      </trkpt>
      <trkpt lat="43.43429" lon="6.01367">
        <ele>315.39999389648</ele>
        <time>2015-02-11T14:12:01Z</time>
      </trkpt>
      <trkpt lat="43.43427" lon="6.01355">
        <ele>316.20001220703</ele>
        <time>2015-02-11T14:12:06Z</time>
      </trkpt>
      <trkpt lat="43.43425" lon="6.01346">
        <ele>316.39999389648</ele>
        <time>2015-02-11T14:12:10Z</time>
      </trkpt>
      <trkpt lat="43.43424" lon="6.01339">
        <ele>317</ele>
        <time>2015-02-11T14:12:13Z</time>
      </trkpt>
      <trkpt lat="43.43425" lon="6.01335">
        <ele>317.60000610352</ele>
        <time>2015-02-11T14:12:15Z</time>
      </trkpt>
      <trkpt lat="43.43428" lon="6.01329">
        <ele>317.79998779297</ele>
        <time>2015-02-11T14:12:18Z</time>
      </trkpt>
      <trkpt lat="43.43435" lon="6.01321">
        <ele>318.79998779297</ele>
        <time>2015-02-11T14:12:23Z</time>
      </trkpt>
      <trkpt lat="43.43438" lon="6.01316">
        <ele>319.79998779297</ele>
        <time>2015-02-11T14:12:26Z</time>
      </trkpt>
      <trkpt lat="43.4344" lon="6.01313">
        <ele>320.20001220703</ele>
        <time>2015-02-11T14:12:28Z</time>
      </trkpt>
      <trkpt lat="43.43441" lon="6.01309">
        <ele>320.79998779297</ele>
        <time>2015-02-11T14:12:30Z</time>
      </trkpt>
      <trkpt lat="43.43443" lon="6.01303">
        <ele>321.20001220703</ele>
        <time>2015-02-11T14:12:33Z</time>
      </trkpt>
      <trkpt lat="43.43444" lon="6.01301">
        <ele>321.39999389648</ele>
        <time>2015-02-11T14:12:34Z</time>
      </trkpt>
      <trkpt lat="43.43446" lon="6.01298">
        <ele>322</ele>
        <time>2015-02-11T14:12:36Z</time>
      </trkpt>
      <trkpt lat="43.43451" lon="6.0129">
        <ele>322.79998779297</ele>
        <time>2015-02-11T14:12:41Z</time>
      </trkpt>
      <trkpt lat="43.43452" lon="6.01288">
        <ele>323</ele>
        <time>2015-02-11T14:12:42Z</time>
      </trkpt>
      <trkpt lat="43.43452" lon="6.01281">
        <ele>323.20001220703</ele>
        <time>2015-02-11T14:12:46Z</time>
      </trkpt>
      <trkpt lat="43.43452" lon="6.01274">
        <ele>324.20001220703</ele>
        <time>2015-02-11T14:12:49Z</time>
      </trkpt>
      <trkpt lat="43.43455" lon="6.01264">
        <ele>325</ele>
        <time>2015-02-11T14:12:54Z</time>
      </trkpt>
      <trkpt lat="43.43455" lon="6.01261">
        <ele>325.20001220703</ele>
        <time>2015-02-11T14:12:55Z</time>
      </trkpt>
      <trkpt lat="43.43457" lon="6.01256">
        <ele>326</ele>
        <time>2015-02-11T14:12:58Z</time>
      </trkpt>
      <trkpt lat="43.43456" lon="6.01255">
        <ele>325.79998779297</ele>
        <time>2015-02-11T14:13:00Z</time>
      </trkpt>
      <trkpt lat="43.43457" lon="6.01255">
        <ele>325.79998779297</ele>
        <time>2015-02-11T14:13:07Z</time>
      </trkpt>
      <trkpt lat="43.43456" lon="6.01258">
        <ele>325.79998779297</ele>
        <time>2015-02-11T14:13:15Z</time>
      </trkpt>
      <trkpt lat="43.43456" lon="6.01258">
        <ele>325.20001220703</ele>
        <time>2015-02-11T14:13:20Z</time>
      </trkpt>
      <trkpt lat="43.43456" lon="6.01258">
        <ele>325.60000610352</ele>
        <time>2015-02-11T14:13:30Z</time>
      </trkpt>
      <trkpt lat="43.43456" lon="6.01258">
        <ele>325.39999389648</ele>
        <time>2015-02-11T14:14:34Z</time>
      </trkpt>
      <trkpt lat="43.43455" lon="6.01258">
        <ele>325.39999389648</ele>
        <time>2015-02-11T14:14:46Z</time>
      </trkpt>
      <trkpt lat="43.43455" lon="6.01258">
        <ele>325.39999389648</ele>
        <time>2015-02-11T14:15:08Z</time>
      </trkpt>
      <trkpt lat="43.43455" lon="6.01258">
        <ele>325.20001220703</ele>
        <time>2015-02-11T14:15:21Z</time>
      </trkpt>
      <trkpt lat="43.43455" lon="6.01258">
        <ele>325.79998779297</ele>
        <time>2015-02-11T14:15:31Z</time>
      </trkpt>
      <trkpt lat="43.43455" lon="6.01258">
        <ele>325.79998779297</ele>
        <time>2015-02-11T14:15:34Z</time>
      </trkpt>
      <trkpt lat="43.43455" lon="6.01258">
        <ele>325.60000610352</ele>
        <time>2015-02-11T14:15:39Z</time>
      </trkpt>
      <trkpt lat="43.43455" lon="6.01258">
        <ele>325.79998779297</ele>
        <time>2015-02-11T14:15:44Z</time>
      </trkpt>
      <trkpt lat="43.43455" lon="6.01258">
        <ele>325.60000610352</ele>
        <time>2015-02-11T14:15:48Z</time>
      </trkpt>
      <trkpt lat="43.43455" lon="6.01258">
        <ele>325.60000610352</ele>
        <time>2015-02-11T14:15:58Z</time>
      </trkpt>
      <trkpt lat="43.43456" lon="6.01258">
        <ele>325.79998779297</ele>
        <time>2015-02-11T14:16:30Z</time>
      </trkpt>
      <trkpt lat="43.43456" lon="6.01259">
        <ele>325.79998779297</ele>
        <time>2015-02-11T14:16:33Z</time>
      </trkpt>
      <trkpt lat="43.43454" lon="6.01262">
        <ele>325.39999389648</ele>
        <time>2015-02-11T14:16:39Z</time>
      </trkpt>
      <trkpt lat="43.43454" lon="6.01268">
        <ele>325.20001220703</ele>
        <time>2015-02-11T14:16:41Z</time>
      </trkpt>
      <trkpt lat="43.43452" lon="6.01273">
        <ele>324.79998779297</ele>
        <time>2015-02-11T14:16:43Z</time>
      </trkpt>
      <trkpt lat="43.43451" lon="6.01282">
        <ele>324.20001220703</ele>
        <time>2015-02-11T14:16:46Z</time>
      </trkpt>
      <trkpt lat="43.4345" lon="6.01287">
        <ele>323.60000610352</ele>
        <time>2015-02-11T14:16:48Z</time>
      </trkpt>
      <trkpt lat="43.43447" lon="6.01294">
        <ele>323.20001220703</ele>
        <time>2015-02-11T14:16:50Z</time>
      </trkpt>
      <trkpt lat="43.43443" lon="6.01305">
        <ele>322.79998779297</ele>
        <time>2015-02-11T14:16:53Z</time>
      </trkpt>
      <trkpt lat="43.43442" lon="6.01311">
        <ele>322</ele>
        <time>2015-02-11T14:16:55Z</time>
      </trkpt>
      <trkpt lat="43.43437" lon="6.01319">
        <ele>321</ele>
        <time>2015-02-11T14:16:58Z</time>
      </trkpt>
      <trkpt lat="43.43435" lon="6.01321">
        <ele>321.20001220703</ele>
        <time>2015-02-11T14:16:59Z</time>
      </trkpt>
      <trkpt lat="43.43425" lon="6.0133">
        <ele>318.79998779297</ele>
        <time>2015-02-11T14:17:03Z</time>
      </trkpt>
      <trkpt lat="43.43423" lon="6.01332">
        <ele>318.39999389648</ele>
        <time>2015-02-11T14:17:04Z</time>
      </trkpt>
      <trkpt lat="43.43421" lon="6.01337">
        <ele>317.79998779297</ele>
        <time>2015-02-11T14:17:07Z</time>
      </trkpt>
      <trkpt lat="43.43421" lon="6.01339">
        <ele>317.79998779297</ele>
        <time>2015-02-11T14:17:08Z</time>
      </trkpt>
      <trkpt lat="43.43421" lon="6.01341">
        <ele>317.60000610352</ele>
        <time>2015-02-11T14:17:09Z</time>
      </trkpt>
      <trkpt lat="43.43422" lon="6.01342">
        <ele>317.39999389648</ele>
        <time>2015-02-11T14:17:14Z</time>
      </trkpt>
      <trkpt lat="43.43423" lon="6.01342">
        <ele>317.39999389648</ele>
        <time>2015-02-11T14:17:15Z</time>
      </trkpt>
      <trkpt lat="43.43422" lon="6.01342">
        <ele>317.60000610352</ele>
        <time>2015-02-11T14:17:30Z</time>
      </trkpt>
      <trkpt lat="43.43423" lon="6.0134">
        <ele>317.60000610352</ele>
        <time>2015-02-11T14:17:37Z</time>
      </trkpt>
      <trkpt lat="43.43424" lon="6.01334">
        <ele>317.60000610352</ele>
        <time>2015-02-11T14:17:43Z</time>
      </trkpt>
      <trkpt lat="43.43425" lon="6.01331">
        <ele>318.20001220703</ele>
        <time>2015-02-11T14:17:45Z</time>
      </trkpt>
      <trkpt lat="43.43429" lon="6.01325">
        <ele>318.60000610352</ele>
        <time>2015-02-11T14:17:50Z</time>
      </trkpt>
      <trkpt lat="43.4343" lon="6.01324">
        <ele>318.79998779297</ele>
        <time>2015-02-11T14:17:51Z</time>
      </trkpt>
      <trkpt lat="43.43433" lon="6.01321">
        <ele>319.60000610352</ele>
        <time>2015-02-11T14:17:53Z</time>
      </trkpt>
      <trkpt lat="43.43436" lon="6.01318">
        <ele>319.79998779297</ele>
        <time>2015-02-11T14:17:55Z</time>
      </trkpt>
      <trkpt lat="43.43439" lon="6.01315">
        <ele>320.20001220703</ele>
        <time>2015-02-11T14:17:57Z</time>
      </trkpt>
      <trkpt lat="43.4344" lon="6.01311">
        <ele>321.39999389648</ele>
        <time>2015-02-11T14:17:59Z</time>
      </trkpt>
      <trkpt lat="43.43444" lon="6.01305">
        <ele>321.79998779297</ele>
        <time>2015-02-11T14:18:02Z</time>
      </trkpt>
      <trkpt lat="43.43448" lon="6.01293">
        <ele>322.60000610352</ele>
        <time>2015-02-11T14:18:06Z</time>
      </trkpt>
      <trkpt lat="43.4345" lon="6.01291">
        <ele>323</ele>
        <time>2015-02-11T14:18:07Z</time>
      </trkpt>
      <trkpt lat="43.43452" lon="6.01282">
        <ele>323.79998779297</ele>
        <time>2015-02-11T14:18:11Z</time>
      </trkpt>
      <trkpt lat="43.43452" lon="6.0128">
        <ele>324</ele>
        <time>2015-02-11T14:18:12Z</time>
      </trkpt>
      <trkpt lat="43.43452" lon="6.01275">
        <ele>324.60000610352</ele>
        <time>2015-02-11T14:18:14Z</time>
      </trkpt>
      <trkpt lat="43.43453" lon="6.01273">
        <ele>325</ele>
        <time>2015-02-11T14:18:15Z</time>
      </trkpt>
      <trkpt lat="43.43455" lon="6.01263">
        <ele>325.79998779297</ele>
        <time>2015-02-11T14:18:19Z</time>
      </trkpt>
      <trkpt lat="43.43457" lon="6.01258">
        <ele>326</ele>
        <time>2015-02-11T14:18:22Z</time>
      </trkpt>
      <trkpt lat="43.43459" lon="6.0125">
        <ele>327</ele>
        <time>2015-02-11T14:18:26Z</time>
      </trkpt>
      <trkpt lat="43.43467" lon="6.01239">
        <ele>327.39999389648</ele>
        <time>2015-02-11T14:18:33Z</time>
      </trkpt>
      <trkpt lat="43.43471" lon="6.01235">
        <ele>328.20001220703</ele>
        <time>2015-02-11T14:18:36Z</time>
      </trkpt>
      <trkpt lat="43.43475" lon="6.01224">
        <ele>328.60000610352</ele>
        <time>2015-02-11T14:18:42Z</time>
      </trkpt>
      <trkpt lat="43.43476" lon="6.01214">
        <ele>329.20001220703</ele>
        <time>2015-02-11T14:18:47Z</time>
      </trkpt>
      <trkpt lat="43.43477" lon="6.01179">
        <ele>330.20001220703</ele>
        <time>2015-02-11T14:19:03Z</time>
      </trkpt>
      <trkpt lat="43.43477" lon="6.01175">
        <ele>330.60000610352</ele>
        <time>2015-02-11T14:19:05Z</time>
      </trkpt>
      <trkpt lat="43.43475" lon="6.01164">
        <ele>331.39999389648</ele>
        <time>2015-02-11T14:19:11Z</time>
      </trkpt>
      <trkpt lat="43.43475" lon="6.01159">
        <ele>331.60000610352</ele>
        <time>2015-02-11T14:19:13Z</time>
      </trkpt>
      <trkpt lat="43.43477" lon="6.01145">
        <ele>332.20001220703</ele>
        <time>2015-02-11T14:19:19Z</time>
      </trkpt>
      <trkpt lat="43.43482" lon="6.01133">
        <ele>332.79998779297</ele>
        <time>2015-02-11T14:19:25Z</time>
      </trkpt>
      <trkpt lat="43.43484" lon="6.01129">
        <ele>333.20001220703</ele>
        <time>2015-02-11T14:19:27Z</time>
      </trkpt>
      <trkpt lat="43.43491" lon="6.01116">
        <ele>333.79998779297</ele>
        <time>2015-02-11T14:19:34Z</time>
      </trkpt>
      <trkpt lat="43.43492" lon="6.01113">
        <ele>333.79998779297</ele>
        <time>2015-02-11T14:19:35Z</time>
      </trkpt>
      <trkpt lat="43.43499" lon="6.01096">
        <ele>334.60000610352</ele>
        <time>2015-02-11T14:19:43Z</time>
      </trkpt>
      <trkpt lat="43.43501" lon="6.01091">
        <ele>334.79998779297</ele>
        <time>2015-02-11T14:19:45Z</time>
      </trkpt>
      <trkpt lat="43.43502" lon="6.01078">
        <ele>335.39999389648</ele>
        <time>2015-02-11T14:19:50Z</time>
      </trkpt>
      <trkpt lat="43.43501" lon="6.01063">
        <ele>335.79998779297</ele>
        <time>2015-02-11T14:19:56Z</time>
      </trkpt>
      <trkpt lat="43.435" lon="6.01058">
        <ele>336</ele>
        <time>2015-02-11T14:19:58Z</time>
      </trkpt>
      <trkpt lat="43.43498" lon="6.01046">
        <ele>336.39999389648</ele>
        <time>2015-02-11T14:20:03Z</time>
      </trkpt>
      <trkpt lat="43.43496" lon="6.01036">
        <ele>337.20001220703</ele>
        <time>2015-02-11T14:20:07Z</time>
      </trkpt>
      <trkpt lat="43.43496" lon="6.01029">
        <ele>337.39999389648</ele>
        <time>2015-02-11T14:20:10Z</time>
      </trkpt>
      <trkpt lat="43.43495" lon="6.01012">
        <ele>338.39999389648</ele>
        <time>2015-02-11T14:20:17Z</time>
      </trkpt>
      <trkpt lat="43.43495" lon="6.01008">
        <ele>338.60000610352</ele>
        <time>2015-02-11T14:20:19Z</time>
      </trkpt>
      <trkpt lat="43.43496" lon="6.00998">
        <ele>339.39999389648</ele>
        <time>2015-02-11T14:20:23Z</time>
      </trkpt>
      <trkpt lat="43.43499" lon="6.00989">
        <ele>339.79998779297</ele>
        <time>2015-02-11T14:20:27Z</time>
      </trkpt>
      <trkpt lat="43.43499" lon="6.00983">
        <ele>340.60000610352</ele>
        <time>2015-02-11T14:20:29Z</time>
      </trkpt>
      <trkpt lat="43.43501" lon="6.00974">
        <ele>341.79998779297</ele>
        <time>2015-02-11T14:20:32Z</time>
      </trkpt>
      <trkpt lat="43.43502" lon="6.00969">
        <ele>342.60000610352</ele>
        <time>2015-02-11T14:20:34Z</time>
      </trkpt>
      <trkpt lat="43.43503" lon="6.00961">
        <ele>343</ele>
        <time>2015-02-11T14:20:37Z</time>
      </trkpt>
      <trkpt lat="43.43505" lon="6.00951">
        <ele>344.20001220703</ele>
        <time>2015-02-11T14:20:41Z</time>
      </trkpt>
      <trkpt lat="43.43506" lon="6.00941">
        <ele>345.20001220703</ele>
        <time>2015-02-11T14:20:45Z</time>
      </trkpt>
      <trkpt lat="43.43509" lon="6.00927">
        <ele>345.79998779297</ele>
        <time>2015-02-11T14:20:51Z</time>
      </trkpt>
      <trkpt lat="43.43509" lon="6.00921">
        <ele>346.20001220703</ele>
        <time>2015-02-11T14:20:54Z</time>
      </trkpt>
      <trkpt lat="43.4351" lon="6.00912">
        <ele>347</ele>
        <time>2015-02-11T14:20:59Z</time>
      </trkpt>
      <trkpt lat="43.43512" lon="6.00896">
        <ele>348.20001220703</ele>
        <time>2015-02-11T14:21:07Z</time>
      </trkpt>
      <trkpt lat="43.43513" lon="6.00893">
        <ele>348.39999389648</ele>
        <time>2015-02-11T14:21:09Z</time>
      </trkpt>
      <trkpt lat="43.43517" lon="6.00876">
        <ele>349.60000610352</ele>
        <time>2015-02-11T14:21:18Z</time>
      </trkpt>
      <trkpt lat="43.43519" lon="6.00869">
        <ele>350.20001220703</ele>
        <time>2015-02-11T14:21:22Z</time>
      </trkpt>
      <trkpt lat="43.43521" lon="6.00859">
        <ele>350.60000610352</ele>
        <time>2015-02-11T14:21:27Z</time>
      </trkpt>
      <trkpt lat="43.43522" lon="6.00856">
        <ele>351.39999389648</ele>
        <time>2015-02-11T14:21:29Z</time>
      </trkpt>
      <trkpt lat="43.43526" lon="6.00843">
        <ele>352.20001220703</ele>
        <time>2015-02-11T14:21:36Z</time>
      </trkpt>
      <trkpt lat="43.43527" lon="6.00838">
        <ele>352.39999389648</ele>
        <time>2015-02-11T14:21:39Z</time>
      </trkpt>
      <trkpt lat="43.4353" lon="6.00827">
        <ele>353</ele>
        <time>2015-02-11T14:21:45Z</time>
      </trkpt>
      <trkpt lat="43.4353" lon="6.00822">
        <ele>353.39999389648</ele>
        <time>2015-02-11T14:21:48Z</time>
      </trkpt>
      <trkpt lat="43.43531" lon="6.00816">
        <ele>353.60000610352</ele>
        <time>2015-02-11T14:21:52Z</time>
      </trkpt>
      <trkpt lat="43.43532" lon="6.00813">
        <ele>353.39999389648</ele>
        <time>2015-02-11T14:21:54Z</time>
      </trkpt>
      <trkpt lat="43.43533" lon="6.00811">
        <ele>353.39999389648</ele>
        <time>2015-02-11T14:21:58Z</time>
      </trkpt>
      <trkpt lat="43.43532" lon="6.00811">
        <ele>353.20001220703</ele>
        <time>2015-02-11T14:22:01Z</time>
      </trkpt>
      <trkpt lat="43.43532" lon="6.00811">
        <ele>353.20001220703</ele>
        <time>2015-02-11T14:22:06Z</time>
      </trkpt>
      <trkpt lat="43.43532" lon="6.00811">
        <ele>353.20001220703</ele>
        <time>2015-02-11T14:22:12Z</time>
      </trkpt>
      <trkpt lat="43.43532" lon="6.00811">
        <ele>353.20001220703</ele>
        <time>2015-02-11T14:22:15Z</time>
      </trkpt>
      <trkpt lat="43.43533" lon="6.00811">
        <ele>353.20001220703</ele>
        <time>2015-02-11T14:22:18Z</time>
      </trkpt>
      <trkpt lat="43.43533" lon="6.00811">
        <ele>353.20001220703</ele>
        <time>2015-02-11T14:22:22Z</time>
      </trkpt>
      <trkpt lat="43.43532" lon="6.00811">
        <ele>353</ele>
        <time>2015-02-11T14:22:39Z</time>
      </trkpt>
      <trkpt lat="43.43533" lon="6.00812">
        <ele>352.79998779297</ele>
        <time>2015-02-11T14:22:42Z</time>
      </trkpt>
      <trkpt lat="43.43533" lon="6.00811">
        <ele>352.79998779297</ele>
        <time>2015-02-11T14:22:47Z</time>
      </trkpt>
      <trkpt lat="43.43533" lon="6.0081">
        <ele>352.60000610352</ele>
        <time>2015-02-11T14:22:56Z</time>
      </trkpt>
      <trkpt lat="43.43532" lon="6.0081">
        <ele>352.60000610352</ele>
        <time>2015-02-11T14:23:00Z</time>
      </trkpt>
      <trkpt lat="43.43532" lon="6.0081">
        <ele>352.60000610352</ele>
        <time>2015-02-11T14:23:03Z</time>
      </trkpt>
      <trkpt lat="43.43533" lon="6.0081">
        <ele>353</ele>
        <time>2015-02-11T14:23:19Z</time>
      </trkpt>
      <trkpt lat="43.43533" lon="6.0081">
        <ele>352.79998779297</ele>
        <time>2015-02-11T14:23:23Z</time>
      </trkpt>
      <trkpt lat="43.43533" lon="6.00809">
        <ele>353.39999389648</ele>
        <time>2015-02-11T14:23:48Z</time>
      </trkpt>
      <trkpt lat="43.43533" lon="6.00809">
        <ele>353.60000610352</ele>
        <time>2015-02-11T14:23:51Z</time>
      </trkpt>
      <trkpt lat="43.43532" lon="6.00809">
        <ele>353.39999389648</ele>
        <time>2015-02-11T14:24:04Z</time>
      </trkpt>
      <trkpt lat="43.43532" lon="6.00811">
        <ele>353.39999389648</ele>
        <time>2015-02-11T14:24:11Z</time>
      </trkpt>
      <trkpt lat="43.43532" lon="6.00813">
        <ele>353.60000610352</ele>
        <time>2015-02-11T14:24:20Z</time>
      </trkpt>
      <trkpt lat="43.43532" lon="6.00813">
        <ele>353.60000610352</ele>
        <time>2015-02-11T14:24:22Z</time>
      </trkpt>
      <trkpt lat="43.4353" lon="6.00819">
        <ele>353.60000610352</ele>
        <time>2015-02-11T14:24:27Z</time>
      </trkpt>
      <trkpt lat="43.43525" lon="6.00839">
        <ele>353</ele>
        <time>2015-02-11T14:24:32Z</time>
      </trkpt>
      <trkpt lat="43.43518" lon="6.00872">
        <ele>351.79998779297</ele>
        <time>2015-02-11T14:24:37Z</time>
      </trkpt>
      <trkpt lat="43.43514" lon="6.00887">
        <ele>350.39999389648</ele>
        <time>2015-02-11T14:24:39Z</time>
      </trkpt>
      <trkpt lat="43.4351" lon="6.00902">
        <ele>349.20001220703</ele>
        <time>2015-02-11T14:24:41Z</time>
      </trkpt>
      <trkpt lat="43.43508" lon="6.00914">
        <ele>348</ele>
        <time>2015-02-11T14:24:43Z</time>
      </trkpt>
      <trkpt lat="43.43506" lon="6.00926">
        <ele>346.60000610352</ele>
        <time>2015-02-11T14:24:45Z</time>
      </trkpt>
      <trkpt lat="43.43502" lon="6.00948">
        <ele>345.20001220703</ele>
        <time>2015-02-11T14:24:48Z</time>
      </trkpt>
      <trkpt lat="43.43501" lon="6.00954">
        <ele>344.20001220703</ele>
        <time>2015-02-11T14:24:49Z</time>
      </trkpt>
      <trkpt lat="43.43498" lon="6.00971">
        <ele>343.79998779297</ele>
        <time>2015-02-11T14:24:52Z</time>
      </trkpt>
      <trkpt lat="43.43497" lon="6.00976">
        <ele>342.79998779297</ele>
        <time>2015-02-11T14:24:53Z</time>
      </trkpt>
      <trkpt lat="43.43496" lon="6.0098">
        <ele>342.39999389648</ele>
        <time>2015-02-11T14:24:54Z</time>
      </trkpt>
      <trkpt lat="43.43497" lon="6.00982">
        <ele>341.79998779297</ele>
        <time>2015-02-11T14:24:55Z</time>
      </trkpt>
      <trkpt lat="43.43497" lon="6.00981">
        <ele>341.39999389648</ele>
        <time>2015-02-11T14:24:57Z</time>
      </trkpt>
      <trkpt lat="43.43497" lon="6.00981">
        <ele>341.20001220703</ele>
        <time>2015-02-11T14:25:02Z</time>
      </trkpt>
      <trkpt lat="43.43497" lon="6.00981">
        <ele>341.20001220703</ele>
        <time>2015-02-11T14:25:11Z</time>
      </trkpt>
      <trkpt lat="43.43497" lon="6.00981">
        <ele>341.20001220703</ele>
        <time>2015-02-11T14:25:26Z</time>
      </trkpt>
      <trkpt lat="43.43497" lon="6.00981">
        <ele>341.39999389648</ele>
        <time>2015-02-11T14:25:28Z</time>
      </trkpt>
      <trkpt lat="43.43497" lon="6.0098">
        <ele>341.60000610352</ele>
        <time>2015-02-11T14:25:34Z</time>
      </trkpt>
      <trkpt lat="43.43497" lon="6.00979">
        <ele>341.79998779297</ele>
        <time>2015-02-11T14:25:40Z</time>
      </trkpt>
      <trkpt lat="43.43497" lon="6.00979">
        <ele>341.60000610352</ele>
        <time>2015-02-11T14:25:46Z</time>
      </trkpt>
      <trkpt lat="43.43496" lon="6.00979">
        <ele>341.60000610352</ele>
        <time>2015-02-11T14:25:58Z</time>
      </trkpt>
      <trkpt lat="43.43496" lon="6.00978">
        <ele>341.60000610352</ele>
        <time>2015-02-11T14:26:09Z</time>
      </trkpt>
      <trkpt lat="43.43496" lon="6.00978">
        <ele>341.60000610352</ele>
        <time>2015-02-11T14:26:15Z</time>
      </trkpt>
      <trkpt lat="43.43496" lon="6.00977">
        <ele>341.79998779297</ele>
        <time>2015-02-11T14:26:17Z</time>
      </trkpt>
      <trkpt lat="43.43497" lon="6.00967">
        <ele>343</ele>
        <time>2015-02-11T14:26:23Z</time>
      </trkpt>
      <trkpt lat="43.43498" lon="6.00963">
        <ele>343.39999389648</ele>
        <time>2015-02-11T14:26:25Z</time>
      </trkpt>
      <trkpt lat="43.43499" lon="6.00958">
        <ele>344.20001220703</ele>
        <time>2015-02-11T14:26:28Z</time>
      </trkpt>
      <trkpt lat="43.435" lon="6.00957">
        <ele>344.39999389648</ele>
        <time>2015-02-11T14:26:29Z</time>
      </trkpt>
      <trkpt lat="43.435" lon="6.00955">
        <ele>344.39999389648</ele>
        <time>2015-02-11T14:26:30Z</time>
      </trkpt>
      <trkpt lat="43.43502" lon="6.00945">
        <ele>344.79998779297</ele>
        <time>2015-02-11T14:26:34Z</time>
      </trkpt>
      <trkpt lat="43.43503" lon="6.00942">
        <ele>345</ele>
        <time>2015-02-11T14:26:35Z</time>
      </trkpt>
      <trkpt lat="43.43504" lon="6.00938">
        <ele>345.39999389648</ele>
        <time>2015-02-11T14:26:37Z</time>
      </trkpt>
      <trkpt lat="43.43505" lon="6.0093">
        <ele>345.79998779297</ele>
        <time>2015-02-11T14:26:41Z</time>
      </trkpt>
      <trkpt lat="43.43507" lon="6.00918">
        <ele>346.60000610352</ele>
        <time>2015-02-11T14:26:47Z</time>
      </trkpt>
      <trkpt lat="43.43508" lon="6.0091">
        <ele>347.20001220703</ele>
        <time>2015-02-11T14:26:50Z</time>
      </trkpt>
      <trkpt lat="43.43509" lon="6.00905">
        <ele>347.79998779297</ele>
        <time>2015-02-11T14:26:52Z</time>
      </trkpt>
      <trkpt lat="43.43511" lon="6.00894">
        <ele>348.39999389648</ele>
        <time>2015-02-11T14:26:56Z</time>
      </trkpt>
      <trkpt lat="43.43512" lon="6.00887">
        <ele>348.79998779297</ele>
        <time>2015-02-11T14:26:59Z</time>
      </trkpt>
      <trkpt lat="43.43515" lon="6.00875">
        <ele>350.20001220703</ele>
        <time>2015-02-11T14:27:04Z</time>
      </trkpt>
      <trkpt lat="43.4352" lon="6.00862">
        <ele>351.39999389648</ele>
        <time>2015-02-11T14:27:10Z</time>
      </trkpt>
      <trkpt lat="43.43522" lon="6.00853">
        <ele>351.79998779297</ele>
        <time>2015-02-11T14:27:14Z</time>
      </trkpt>
      <trkpt lat="43.43525" lon="6.00844">
        <ele>352.20001220703</ele>
        <time>2015-02-11T14:27:18Z</time>
      </trkpt>
      <trkpt lat="43.43526" lon="6.00841">
        <ele>352.60000610352</ele>
        <time>2015-02-11T14:27:19Z</time>
      </trkpt>
      <trkpt lat="43.43528" lon="6.00827">
        <ele>353.20001220703</ele>
        <time>2015-02-11T14:27:26Z</time>
      </trkpt>
      <trkpt lat="43.43531" lon="6.00815">
        <ele>354</ele>
        <time>2015-02-11T14:27:33Z</time>
      </trkpt>
      <trkpt lat="43.43533" lon="6.00809">
        <ele>354.20001220703</ele>
        <time>2015-02-11T14:27:38Z</time>
      </trkpt>
      <trkpt lat="43.43533" lon="6.00807">
        <ele>354.20001220703</ele>
        <time>2015-02-11T14:27:41Z</time>
      </trkpt>
      <trkpt lat="43.43533" lon="6.00808">
        <ele>354</ele>
        <time>2015-02-11T14:27:46Z</time>
      </trkpt>
      <trkpt lat="43.43534" lon="6.00808">
        <ele>353.79998779297</ele>
        <time>2015-02-11T14:28:01Z</time>
      </trkpt>
      <trkpt lat="43.43535" lon="6.00807">
        <ele>353.60000610352</ele>
        <time>2015-02-11T14:28:10Z</time>
      </trkpt>
      <trkpt lat="43.43535" lon="6.00808">
        <ele>353.60000610352</ele>
        <time>2015-02-11T14:28:13Z</time>
      </trkpt>
      <trkpt lat="43.43535" lon="6.00808">
        <ele>353.79998779297</ele>
        <time>2015-02-11T14:28:16Z</time>
      </trkpt>
      <trkpt lat="43.43535" lon="6.00808">
        <ele>353.79998779297</ele>
        <time>2015-02-11T14:28:19Z</time>
      </trkpt>
      <trkpt lat="43.43535" lon="6.00808">
        <ele>353.39999389648</ele>
        <time>2015-02-11T14:28:23Z</time>
      </trkpt>
      <trkpt lat="43.43535" lon="6.00807">
        <ele>353.20001220703</ele>
        <time>2015-02-11T14:28:34Z</time>
      </trkpt>
      <trkpt lat="43.43535" lon="6.00807">
        <ele>353.39999389648</ele>
        <time>2015-02-11T14:28:37Z</time>
      </trkpt>
      <trkpt lat="43.43534" lon="6.00809">
        <ele>353.39999389648</ele>
        <time>2015-02-11T14:28:53Z</time>
      </trkpt>
      <trkpt lat="43.43534" lon="6.0081">
        <ele>353.60000610352</ele>
        <time>2015-02-11T14:28:54Z</time>
      </trkpt>
      <trkpt lat="43.43533" lon="6.00811">
        <ele>353.79998779297</ele>
        <time>2015-02-11T14:28:55Z</time>
      </trkpt>
      <trkpt lat="43.43532" lon="6.00812">
        <ele>353</ele>
        <time>2015-02-11T14:29:02Z</time>
      </trkpt>
      <trkpt lat="43.43533" lon="6.00812">
        <ele>353</ele>
        <time>2015-02-11T14:29:05Z</time>
      </trkpt>
      <trkpt lat="43.43533" lon="6.00812">
        <ele>353.20001220703</ele>
        <time>2015-02-11T14:29:22Z</time>
      </trkpt>
      <trkpt lat="43.43533" lon="6.00812">
        <ele>353.39999389648</ele>
        <time>2015-02-11T14:30:47Z</time>
      </trkpt>
      <trkpt lat="43.43533" lon="6.00812">
        <ele>353.39999389648</ele>
        <time>2015-02-11T14:31:50Z</time>
      </trkpt>
      <trkpt lat="43.43532" lon="6.00812">
        <ele>353.39999389648</ele>
        <time>2015-02-11T14:31:51Z</time>
      </trkpt>
      <trkpt lat="43.43532" lon="6.00812">
        <ele>353.60000610352</ele>
        <time>2015-02-11T14:32:50Z</time>
      </trkpt>
      <trkpt lat="43.43532" lon="6.00812">
        <ele>353.20001220703</ele>
        <time>2015-02-11T14:33:25Z</time>
      </trkpt>
      <trkpt lat="43.43532" lon="6.00812">
        <ele>353.60000610352</ele>
        <time>2015-02-11T14:33:45Z</time>
      </trkpt>
      <trkpt lat="43.43532" lon="6.00812">
        <ele>353.79998779297</ele>
        <time>2015-02-11T14:33:59Z</time>
      </trkpt>
      <trkpt lat="43.43532" lon="6.00812">
        <ele>353.79998779297</ele>
        <time>2015-02-11T14:34:11Z</time>
      </trkpt>
      <trkpt lat="43.43532" lon="6.00812">
        <ele>353.39999389648</ele>
        <time>2015-02-11T14:34:35Z</time>
      </trkpt>
      <trkpt lat="43.43532" lon="6.00812">
        <ele>353.60000610352</ele>
        <time>2015-02-11T14:34:49Z</time>
      </trkpt>
      <trkpt lat="43.43532" lon="6.00812">
        <ele>353.39999389648</ele>
        <time>2015-02-11T14:35:32Z</time>
      </trkpt>
      <trkpt lat="43.43532" lon="6.00812">
        <ele>353.79998779297</ele>
        <time>2015-02-11T14:36:42Z</time>
      </trkpt>
      <trkpt lat="43.43532" lon="6.00812">
        <ele>354</ele>
        <time>2015-02-11T14:37:00Z</time>
      </trkpt>
      <trkpt lat="43.43533" lon="6.00809">
        <ele>354.20001220703</ele>
        <time>2015-02-11T14:37:04Z</time>
      </trkpt>
      <trkpt lat="43.43535" lon="6.00803">
        <ele>354.20001220703</ele>
        <time>2015-02-11T14:37:06Z</time>
      </trkpt>
      <trkpt lat="43.43537" lon="6.00799">
        <ele>354.39999389648</ele>
        <time>2015-02-11T14:37:07Z</time>
      </trkpt>
      <trkpt lat="43.43542" lon="6.00778">
        <ele>354.20001220703</ele>
        <time>2015-02-11T14:37:11Z</time>
      </trkpt>
      <trkpt lat="43.43546" lon="6.00766">
        <ele>354</ele>
        <time>2015-02-11T14:37:13Z</time>
      </trkpt>
      <trkpt lat="43.43554" lon="6.00739">
        <ele>353.39999389648</ele>
        <time>2015-02-11T14:37:17Z</time>
      </trkpt>
      <trkpt lat="43.43557" lon="6.00731">
        <ele>352.60000610352</ele>
        <time>2015-02-11T14:37:18Z</time>
      </trkpt>
      <trkpt lat="43.43564" lon="6.00715">
        <ele>351.39999389648</ele>
        <time>2015-02-11T14:37:20Z</time>
      </trkpt>
      <trkpt lat="43.43567" lon="6.00706">
        <ele>350.39999389648</ele>
        <time>2015-02-11T14:37:21Z</time>
      </trkpt>
      <trkpt lat="43.43571" lon="6.00697">
        <ele>349.60000610352</ele>
        <time>2015-02-11T14:37:22Z</time>
      </trkpt>
      <trkpt lat="43.43575" lon="6.00689">
        <ele>348.39999389648</ele>
        <time>2015-02-11T14:37:23Z</time>
      </trkpt>
      <trkpt lat="43.43578" lon="6.00682">
        <ele>347</ele>
        <time>2015-02-11T14:37:24Z</time>
      </trkpt>
      <trkpt lat="43.43579" lon="6.00674">
        <ele>346</ele>
        <time>2015-02-11T14:37:25Z</time>
      </trkpt>
      <trkpt lat="43.43579" lon="6.00666">
        <ele>345.79998779297</ele>
        <time>2015-02-11T14:37:26Z</time>
      </trkpt>
      <trkpt lat="43.43573" lon="6.00653">
        <ele>345.20001220703</ele>
        <time>2015-02-11T14:37:28Z</time>
      </trkpt>
      <trkpt lat="43.43569" lon="6.00647">
        <ele>345.39999389648</ele>
        <time>2015-02-11T14:37:29Z</time>
      </trkpt>
      <trkpt lat="43.43565" lon="6.00641">
        <ele>344.39999389648</ele>
        <time>2015-02-11T14:37:30Z</time>
      </trkpt>
      <trkpt lat="43.43555" lon="6.0063">
        <ele>343</ele>
        <time>2015-02-11T14:37:32Z</time>
      </trkpt>
      <trkpt lat="43.43554" lon="6.00625">
        <ele>342.60000610352</ele>
        <time>2015-02-11T14:37:33Z</time>
      </trkpt>
      <trkpt lat="43.43556" lon="6.00613">
        <ele>342</ele>
        <time>2015-02-11T14:37:35Z</time>
      </trkpt>
      <trkpt lat="43.43556" lon="6.00606">
        <ele>341.60000610352</ele>
        <time>2015-02-11T14:37:36Z</time>
      </trkpt>
      <trkpt lat="43.43562" lon="6.00591">
        <ele>341</ele>
        <time>2015-02-11T14:37:38Z</time>
      </trkpt>
      <trkpt lat="43.43565" lon="6.00586">
        <ele>340.20001220703</ele>
        <time>2015-02-11T14:37:39Z</time>
      </trkpt>
      <trkpt lat="43.43575" lon="6.0057">
        <ele>338.60000610352</ele>
        <time>2015-02-11T14:37:42Z</time>
      </trkpt>
      <trkpt lat="43.43578" lon="6.00562">
        <ele>338.39999389648</ele>
        <time>2015-02-11T14:37:43Z</time>
      </trkpt>
      <trkpt lat="43.43581" lon="6.00554">
        <ele>337.79998779297</ele>
        <time>2015-02-11T14:37:44Z</time>
      </trkpt>
      <trkpt lat="43.43586" lon="6.00547">
        <ele>337.20001220703</ele>
        <time>2015-02-11T14:37:45Z</time>
      </trkpt>
      <trkpt lat="43.43597" lon="6.00535">
        <ele>336.60000610352</ele>
        <time>2015-02-11T14:37:47Z</time>
      </trkpt>
      <trkpt lat="43.43602" lon="6.00529">
        <ele>336</ele>
        <time>2015-02-11T14:37:48Z</time>
      </trkpt>
      <trkpt lat="43.43611" lon="6.00514">
        <ele>334.39999389648</ele>
        <time>2015-02-11T14:37:50Z</time>
      </trkpt>
      <trkpt lat="43.43616" lon="6.00497">
        <ele>334.79998779297</ele>
        <time>2015-02-11T14:37:52Z</time>
      </trkpt>
      <trkpt lat="43.4362" lon="6.00478">
        <ele>334.39999389648</ele>
        <time>2015-02-11T14:37:54Z</time>
      </trkpt>
      <trkpt lat="43.43621" lon="6.00469">
        <ele>333.39999389648</ele>
        <time>2015-02-11T14:37:55Z</time>
      </trkpt>
      <trkpt lat="43.43622" lon="6.00461">
        <ele>333</ele>
        <time>2015-02-11T14:37:56Z</time>
      </trkpt>
      <trkpt lat="43.43623" lon="6.0045">
        <ele>332.39999389648</ele>
        <time>2015-02-11T14:37:58Z</time>
      </trkpt>
      <trkpt lat="43.43623" lon="6.00446">
        <ele>331.79998779297</ele>
        <time>2015-02-11T14:37:59Z</time>
      </trkpt>
      <trkpt lat="43.43623" lon="6.00441">
        <ele>331.20001220703</ele>
        <time>2015-02-11T14:38:00Z</time>
      </trkpt>
      <trkpt lat="43.43622" lon="6.00426">
        <ele>329.79998779297</ele>
        <time>2015-02-11T14:38:03Z</time>
      </trkpt>
      <trkpt lat="43.43621" lon="6.00419">
        <ele>329.39999389648</ele>
        <time>2015-02-11T14:38:04Z</time>
      </trkpt>
      <trkpt lat="43.43612" lon="6.00399">
        <ele>328.79998779297</ele>
        <time>2015-02-11T14:38:07Z</time>
      </trkpt>
      <trkpt lat="43.4361" lon="6.00391">
        <ele>328.79998779297</ele>
        <time>2015-02-11T14:38:08Z</time>
      </trkpt>
      <trkpt lat="43.43609" lon="6.00383">
        <ele>328.20001220703</ele>
        <time>2015-02-11T14:38:09Z</time>
      </trkpt>
      <trkpt lat="43.43611" lon="6.00365">
        <ele>327.20001220703</ele>
        <time>2015-02-11T14:38:11Z</time>
      </trkpt>
      <trkpt lat="43.43619" lon="6.00341">
        <ele>326</ele>
        <time>2015-02-11T14:38:14Z</time>
      </trkpt>
      <trkpt lat="43.43631" lon="6.00318">
        <ele>325.39999389648</ele>
        <time>2015-02-11T14:38:17Z</time>
      </trkpt>
      <trkpt lat="43.4364" lon="6.00306">
        <ele>325</ele>
        <time>2015-02-11T14:38:19Z</time>
      </trkpt>
      <trkpt lat="43.43645" lon="6.003">
        <ele>325</ele>
        <time>2015-02-11T14:38:20Z</time>
      </trkpt>
      <trkpt lat="43.43651" lon="6.00294">
        <ele>324.60000610352</ele>
        <time>2015-02-11T14:38:21Z</time>
      </trkpt>
      <trkpt lat="43.43659" lon="6.0028">
        <ele>323.39999389648</ele>
        <time>2015-02-11T14:38:23Z</time>
      </trkpt>
      <trkpt lat="43.43661" lon="6.00277">
        <ele>322.79998779297</ele>
        <time>2015-02-11T14:38:24Z</time>
      </trkpt>
      <trkpt lat="43.43661" lon="6.00275">
        <ele>322.39999389648</ele>
        <time>2015-02-11T14:38:26Z</time>
      </trkpt>
      <trkpt lat="43.43662" lon="6.00275">
        <ele>322.39999389648</ele>
        <time>2015-02-11T14:38:27Z</time>
      </trkpt>
      <trkpt lat="43.43663" lon="6.00273">
        <ele>322.39999389648</ele>
        <time>2015-02-11T14:38:28Z</time>
      </trkpt>
      <trkpt lat="43.4367" lon="6.00266">
        <ele>322.39999389648</ele>
        <time>2015-02-11T14:38:31Z</time>
      </trkpt>
      <trkpt lat="43.43673" lon="6.00258">
        <ele>322</ele>
        <time>2015-02-11T14:38:34Z</time>
      </trkpt>
      <trkpt lat="43.43675" lon="6.00257">
        <ele>321.79998779297</ele>
        <time>2015-02-11T14:38:35Z</time>
      </trkpt>
      <trkpt lat="43.4368" lon="6.00252">
        <ele>321.60000610352</ele>
        <time>2015-02-11T14:38:39Z</time>
      </trkpt>
      <trkpt lat="43.43679" lon="6.00251">
        <ele>321.20001220703</ele>
        <time>2015-02-11T14:38:40Z</time>
      </trkpt>
      <trkpt lat="43.43678" lon="6.00248">
        <ele>321.39999389648</ele>
        <time>2015-02-11T14:38:45Z</time>
      </trkpt>
      <trkpt lat="43.43675" lon="6.00246">
        <ele>321.60000610352</ele>
        <time>2015-02-11T14:38:57Z</time>
      </trkpt>
      <trkpt lat="43.43667" lon="6.00237">
        <ele>321.60000610352</ele>
        <time>2015-02-11T14:39:02Z</time>
      </trkpt>
      <trkpt lat="43.43661" lon="6.0023">
        <ele>321.79998779297</ele>
        <time>2015-02-11T14:39:06Z</time>
      </trkpt>
      <trkpt lat="43.43655" lon="6.00223">
        <ele>322.39999389648</ele>
        <time>2015-02-11T14:39:09Z</time>
      </trkpt>
      <trkpt lat="43.43645" lon="6.00214">
        <ele>323.20001220703</ele>
        <time>2015-02-11T14:39:14Z</time>
      </trkpt>
      <trkpt lat="43.43642" lon="6.00213">
        <ele>323</ele>
        <time>2015-02-11T14:39:15Z</time>
      </trkpt>
      <trkpt lat="43.43633" lon="6.0021">
        <ele>323.39999389648</ele>
        <time>2015-02-11T14:39:19Z</time>
      </trkpt>
      <trkpt lat="43.43626" lon="6.00207">
        <ele>323.79998779297</ele>
        <time>2015-02-11T14:39:23Z</time>
      </trkpt>
      <trkpt lat="43.43615" lon="6.00203">
        <ele>324.39999389648</ele>
        <time>2015-02-11T14:39:29Z</time>
      </trkpt>
      <trkpt lat="43.43613" lon="6.00202">
        <ele>324.20001220703</ele>
        <time>2015-02-11T14:39:30Z</time>
      </trkpt>
      <trkpt lat="43.43602" lon="6.00198">
        <ele>325.39999389648</ele>
        <time>2015-02-11T14:39:36Z</time>
      </trkpt>
      <trkpt lat="43.43601" lon="6.00198">
        <ele>325.39999389648</ele>
        <time>2015-02-11T14:39:37Z</time>
      </trkpt>
      <trkpt lat="43.43599" lon="6.00198">
        <ele>325</ele>
        <time>2015-02-11T14:39:42Z</time>
      </trkpt>
      <trkpt lat="43.43595" lon="6.00197">
        <ele>325.79998779297</ele>
        <time>2015-02-11T14:39:52Z</time>
      </trkpt>
      <trkpt lat="43.43595" lon="6.00196">
        <ele>325.60000610352</ele>
        <time>2015-02-11T14:39:59Z</time>
      </trkpt>
      <trkpt lat="43.43593" lon="6.00195">
        <ele>326</ele>
        <time>2015-02-11T14:40:04Z</time>
      </trkpt>
      <trkpt lat="43.4359" lon="6.00193">
        <ele>326.39999389648</ele>
        <time>2015-02-11T14:40:06Z</time>
      </trkpt>
      <trkpt lat="43.43584" lon="6.00192">
        <ele>327.39999389648</ele>
        <time>2015-02-11T14:40:09Z</time>
      </trkpt>
      <trkpt lat="43.43584" lon="6.00191">
        <ele>327.79998779297</ele>
        <time>2015-02-11T14:40:10Z</time>
      </trkpt>
      <trkpt lat="43.43579" lon="6.00191">
        <ele>328.20001220703</ele>
        <time>2015-02-11T14:40:13Z</time>
      </trkpt>
      <trkpt lat="43.43578" lon="6.00191">
        <ele>328.39999389648</ele>
        <time>2015-02-11T14:40:14Z</time>
      </trkpt>
      <trkpt lat="43.43573" lon="6.00189">
        <ele>328.79998779297</ele>
        <time>2015-02-11T14:40:17Z</time>
      </trkpt>
      <trkpt lat="43.43567" lon="6.00186">
        <ele>329.39999389648</ele>
        <time>2015-02-11T14:40:20Z</time>
      </trkpt>
      <trkpt lat="43.43566" lon="6.00185">
        <ele>329.39999389648</ele>
        <time>2015-02-11T14:40:21Z</time>
      </trkpt>
      <trkpt lat="43.43556" lon="6.00183">
        <ele>330</ele>
        <time>2015-02-11T14:40:26Z</time>
      </trkpt>
      <trkpt lat="43.43554" lon="6.00183">
        <ele>330.20001220703</ele>
        <time>2015-02-11T14:40:27Z</time>
      </trkpt>
      <trkpt lat="43.43541" lon="6.00181">
        <ele>330.79998779297</ele>
        <time>2015-02-11T14:40:34Z</time>
      </trkpt>
      <trkpt lat="43.43539" lon="6.00181">
        <ele>331</ele>
        <time>2015-02-11T14:40:35Z</time>
      </trkpt>
      <trkpt lat="43.43531" lon="6.00179">
        <ele>331.60000610352</ele>
        <time>2015-02-11T14:40:40Z</time>
      </trkpt>
      <trkpt lat="43.43523" lon="6.00177">
        <ele>332</ele>
        <time>2015-02-11T14:40:45Z</time>
      </trkpt>
      <trkpt lat="43.43519" lon="6.00176">
        <ele>332.39999389648</ele>
        <time>2015-02-11T14:40:47Z</time>
      </trkpt>
      <trkpt lat="43.43515" lon="6.00173">
        <ele>333.20001220703</ele>
        <time>2015-02-11T14:40:50Z</time>
      </trkpt>
      <trkpt lat="43.43512" lon="6.00171">
        <ele>333.79998779297</ele>
        <time>2015-02-11T14:40:53Z</time>
      </trkpt>
      <trkpt lat="43.43502" lon="6.00168">
        <ele>334.20001220703</ele>
        <time>2015-02-11T14:40:59Z</time>
      </trkpt>
      <trkpt lat="43.43501" lon="6.00168">
        <ele>334.20001220703</ele>
        <time>2015-02-11T14:41:00Z</time>
      </trkpt>
      <trkpt lat="43.43496" lon="6.00166">
        <ele>334.79998779297</ele>
        <time>2015-02-11T14:41:03Z</time>
      </trkpt>
      <trkpt lat="43.43495" lon="6.00165">
        <ele>334.79998779297</ele>
        <time>2015-02-11T14:41:04Z</time>
      </trkpt>
      <trkpt lat="43.43491" lon="6.00164">
        <ele>335.39999389648</ele>
        <time>2015-02-11T14:41:08Z</time>
      </trkpt>
      <trkpt lat="43.43491" lon="6.00165">
        <ele>335.39999389648</ele>
        <time>2015-02-11T14:41:10Z</time>
      </trkpt>
      <trkpt lat="43.43488" lon="6.00166">
        <ele>335.39999389648</ele>
        <time>2015-02-11T14:41:19Z</time>
      </trkpt>
      <trkpt lat="43.43488" lon="6.00166">
        <ele>335.60000610352</ele>
        <time>2015-02-11T14:41:21Z</time>
      </trkpt>
      <trkpt lat="43.43487" lon="6.00166">
        <ele>335.60000610352</ele>
        <time>2015-02-11T14:41:25Z</time>
      </trkpt>
      <trkpt lat="43.43486" lon="6.00166">
        <ele>335.39999389648</ele>
        <time>2015-02-11T14:41:28Z</time>
      </trkpt>
      <trkpt lat="43.43485" lon="6.00167">
        <ele>335.60000610352</ele>
        <time>2015-02-11T14:41:32Z</time>
      </trkpt>
      <trkpt lat="43.43478" lon="6.00168">
        <ele>336</ele>
        <time>2015-02-11T14:41:36Z</time>
      </trkpt>
      <trkpt lat="43.43475" lon="6.00167">
        <ele>336.60000610352</ele>
        <time>2015-02-11T14:41:38Z</time>
      </trkpt>
      <trkpt lat="43.43472" lon="6.00166">
        <ele>336.79998779297</ele>
        <time>2015-02-11T14:41:40Z</time>
      </trkpt>
      <trkpt lat="43.43471" lon="6.00166">
        <ele>337</ele>
        <time>2015-02-11T14:41:41Z</time>
      </trkpt>
      <trkpt lat="43.43469" lon="6.00166">
        <ele>337.20001220703</ele>
        <time>2015-02-11T14:41:44Z</time>
      </trkpt>
      <trkpt lat="43.43469" lon="6.00166">
        <ele>337.20001220703</ele>
        <time>2015-02-11T14:41:46Z</time>
      </trkpt>
      <trkpt lat="43.43466" lon="6.00167">
        <ele>337.79998779297</ele>
        <time>2015-02-11T14:41:50Z</time>
      </trkpt>
      <trkpt lat="43.43463" lon="6.00168">
        <ele>338</ele>
        <time>2015-02-11T14:41:55Z</time>
      </trkpt>
      <trkpt lat="43.4346" lon="6.00169">
        <ele>338</ele>
        <time>2015-02-11T14:41:58Z</time>
      </trkpt>
      <trkpt lat="43.4346" lon="6.00169">
        <ele>338</ele>
        <time>2015-02-11T14:42:02Z</time>
      </trkpt>
      <trkpt lat="43.43459" lon="6.00169">
        <ele>338</ele>
        <time>2015-02-11T14:42:03Z</time>
      </trkpt>
      <trkpt lat="43.43459" lon="6.00169">
        <ele>338.20001220703</ele>
        <time>2015-02-11T14:42:14Z</time>
      </trkpt>
      <trkpt lat="43.43457" lon="6.00171">
        <ele>338</ele>
        <time>2015-02-11T14:42:22Z</time>
      </trkpt>
      <trkpt lat="43.43453" lon="6.00173">
        <ele>338.79998779297</ele>
        <time>2015-02-11T14:42:27Z</time>
      </trkpt>
      <trkpt lat="43.43449" lon="6.00175">
        <ele>339.39999389648</ele>
        <time>2015-02-11T14:42:31Z</time>
      </trkpt>
      <trkpt lat="43.43448" lon="6.00176">
        <ele>339.20001220703</ele>
        <time>2015-02-11T14:42:36Z</time>
      </trkpt>
      <trkpt lat="43.43445" lon="6.0018">
        <ele>339.39999389648</ele>
        <time>2015-02-11T14:42:46Z</time>
      </trkpt>
      <trkpt lat="43.43442" lon="6.00182">
        <ele>339.79998779297</ele>
        <time>2015-02-11T14:42:50Z</time>
      </trkpt>
      <trkpt lat="43.43441" lon="6.00183">
        <ele>339.79998779297</ele>
        <time>2015-02-11T14:42:54Z</time>
      </trkpt>
      <trkpt lat="43.43441" lon="6.00183">
        <ele>340</ele>
        <time>2015-02-11T14:42:57Z</time>
      </trkpt>
      <trkpt lat="43.43439" lon="6.00183">
        <ele>340.20001220703</ele>
        <time>2015-02-11T14:43:00Z</time>
      </trkpt>
      <trkpt lat="43.43435" lon="6.00181">
        <ele>340</ele>
        <time>2015-02-11T14:43:03Z</time>
      </trkpt>
      <trkpt lat="43.43434" lon="6.00181">
        <ele>341</ele>
        <time>2015-02-11T14:43:06Z</time>
      </trkpt>
      <trkpt lat="43.43433" lon="6.00181">
        <ele>341</ele>
        <time>2015-02-11T14:43:08Z</time>
      </trkpt>
      <trkpt lat="43.43427" lon="6.00177">
        <ele>341.60000610352</ele>
        <time>2015-02-11T14:43:15Z</time>
      </trkpt>
      <trkpt lat="43.43425" lon="6.00176">
        <ele>341.79998779297</ele>
        <time>2015-02-11T14:43:16Z</time>
      </trkpt>
      <trkpt lat="43.43419" lon="6.00173">
        <ele>342</ele>
        <time>2015-02-11T14:43:21Z</time>
      </trkpt>
      <trkpt lat="43.43417" lon="6.00173">
        <ele>342.20001220703</ele>
        <time>2015-02-11T14:43:22Z</time>
      </trkpt>
      <trkpt lat="43.4341" lon="6.00173">
        <ele>343</ele>
        <time>2015-02-11T14:43:27Z</time>
      </trkpt>
      <trkpt lat="43.43407" lon="6.00172">
        <ele>343.39999389648</ele>
        <time>2015-02-11T14:43:29Z</time>
      </trkpt>
      <trkpt lat="43.43405" lon="6.0017">
        <ele>343.60000610352</ele>
        <time>2015-02-11T14:43:31Z</time>
      </trkpt>
      <trkpt lat="43.43404" lon="6.00169">
        <ele>343.39999389648</ele>
        <time>2015-02-11T14:43:32Z</time>
      </trkpt>
      <trkpt lat="43.43399" lon="6.00162">
        <ele>344.39999389648</ele>
        <time>2015-02-11T14:43:38Z</time>
      </trkpt>
      <trkpt lat="43.43398" lon="6.00161">
        <ele>344.60000610352</ele>
        <time>2015-02-11T14:43:39Z</time>
      </trkpt>
      <trkpt lat="43.43392" lon="6.00151">
        <ele>345.39999389648</ele>
        <time>2015-02-11T14:43:47Z</time>
      </trkpt>
      <trkpt lat="43.4339" lon="6.00149">
        <ele>345.60000610352</ele>
        <time>2015-02-11T14:43:49Z</time>
      </trkpt>
      <trkpt lat="43.43388" lon="6.00147">
        <ele>346</ele>
        <time>2015-02-11T14:43:51Z</time>
      </trkpt>
      <trkpt lat="43.43384" lon="6.00146">
        <ele>346.79998779297</ele>
        <time>2015-02-11T14:43:54Z</time>
      </trkpt>
      <trkpt lat="43.43383" lon="6.00146">
        <ele>347</ele>
        <time>2015-02-11T14:43:55Z</time>
      </trkpt>
      <trkpt lat="43.4338" lon="6.00146">
        <ele>347.20001220703</ele>
        <time>2015-02-11T14:43:57Z</time>
      </trkpt>
      <trkpt lat="43.43378" lon="6.00145">
        <ele>347.79998779297</ele>
        <time>2015-02-11T14:44:00Z</time>
      </trkpt>
      <trkpt lat="43.43373" lon="6.00144">
        <ele>348</ele>
        <time>2015-02-11T14:44:03Z</time>
      </trkpt>
      <trkpt lat="43.43372" lon="6.00143">
        <ele>348</ele>
        <time>2015-02-11T14:44:04Z</time>
      </trkpt>
      <trkpt lat="43.43367" lon="6.00139">
        <ele>348.39999389648</ele>
        <time>2015-02-11T14:44:09Z</time>
      </trkpt>
      <trkpt lat="43.43364" lon="6.00135">
        <ele>348.79998779297</ele>
        <time>2015-02-11T14:44:12Z</time>
      </trkpt>
      <trkpt lat="43.43361" lon="6.00134">
        <ele>349.20001220703</ele>
        <time>2015-02-11T14:44:15Z</time>
      </trkpt>
      <trkpt lat="43.43358" lon="6.00129">
        <ele>350</ele>
        <time>2015-02-11T14:44:20Z</time>
      </trkpt>
      <trkpt lat="43.43357" lon="6.00126">
        <ele>350.20001220703</ele>
        <time>2015-02-11T14:44:22Z</time>
      </trkpt>
      <trkpt lat="43.43354" lon="6.00119">
        <ele>351</ele>
        <time>2015-02-11T14:44:29Z</time>
      </trkpt>
      <trkpt lat="43.43353" lon="6.00116">
        <ele>351.20001220703</ele>
        <time>2015-02-11T14:44:31Z</time>
      </trkpt>
      <trkpt lat="43.43353" lon="6.00116">
        <ele>351.20001220703</ele>
        <time>2015-02-11T14:44:35Z</time>
      </trkpt>
      <trkpt lat="43.43353" lon="6.00116">
        <ele>351.20001220703</ele>
        <time>2015-02-11T14:44:36Z</time>
      </trkpt>
      <trkpt lat="43.43351" lon="6.00112">
        <ele>351.79998779297</ele>
        <time>2015-02-11T14:44:41Z</time>
      </trkpt>
      <trkpt lat="43.43351" lon="6.00109">
        <ele>352.20001220703</ele>
        <time>2015-02-11T14:44:46Z</time>
      </trkpt>
      <trkpt lat="43.43351" lon="6.00108">
        <ele>352.20001220703</ele>
        <time>2015-02-11T14:44:51Z</time>
      </trkpt>
      <trkpt lat="43.43351" lon="6.00108">
        <ele>352</ele>
        <time>2015-02-11T14:44:58Z</time>
      </trkpt>
      <trkpt lat="43.4335" lon="6.00108">
        <ele>352.20001220703</ele>
        <time>2015-02-11T14:45:02Z</time>
      </trkpt>
      <trkpt lat="43.4335" lon="6.00108">
        <ele>352.20001220703</ele>
        <time>2015-02-11T14:45:07Z</time>
      </trkpt>
      <trkpt lat="43.4335" lon="6.00106">
        <ele>352.39999389648</ele>
        <time>2015-02-11T14:45:09Z</time>
      </trkpt>
      <trkpt lat="43.43349" lon="6.00104">
        <ele>352.60000610352</ele>
        <time>2015-02-11T14:45:13Z</time>
      </trkpt>
      <trkpt lat="43.43348" lon="6.00102">
        <ele>352.60000610352</ele>
        <time>2015-02-11T14:45:20Z</time>
      </trkpt>
      <trkpt lat="43.43344" lon="6.00093">
        <ele>353.39999389648</ele>
        <time>2015-02-11T14:45:27Z</time>
      </trkpt>
      <trkpt lat="43.43343" lon="6.00085">
        <ele>353.79998779297</ele>
        <time>2015-02-11T14:45:33Z</time>
      </trkpt>
      <trkpt lat="43.43344" lon="6.00083">
        <ele>354.20001220703</ele>
        <time>2015-02-11T14:45:35Z</time>
      </trkpt>
      <trkpt lat="43.43342" lon="6.00078">
        <ele>354.39999389648</ele>
        <time>2015-02-11T14:45:38Z</time>
      </trkpt>
      <trkpt lat="43.43344" lon="6.00073">
        <ele>355</ele>
        <time>2015-02-11T14:45:41Z</time>
      </trkpt>
      <trkpt lat="43.43344" lon="6.00072">
        <ele>355</ele>
        <time>2015-02-11T14:45:42Z</time>
      </trkpt>
      <trkpt lat="43.43344" lon="6.00071">
        <ele>355.20001220703</ele>
        <time>2015-02-11T14:45:43Z</time>
      </trkpt>
      <trkpt lat="43.43341" lon="6.00067">
        <ele>355.60000610352</ele>
        <time>2015-02-11T14:45:46Z</time>
      </trkpt>
      <trkpt lat="43.43339" lon="6.00064">
        <ele>355.79998779297</ele>
        <time>2015-02-11T14:45:48Z</time>
      </trkpt>
      <trkpt lat="43.43339" lon="6.00063">
        <ele>356.39999389648</ele>
        <time>2015-02-11T14:45:50Z</time>
      </trkpt>
      <trkpt lat="43.43338" lon="6.00061">
        <ele>356.79998779297</ele>
        <time>2015-02-11T14:45:53Z</time>
      </trkpt>
      <trkpt lat="43.43333" lon="6.00058">
        <ele>357.20001220703</ele>
        <time>2015-02-11T14:45:58Z</time>
      </trkpt>
      <trkpt lat="43.43332" lon="6.00059">
        <ele>357.60000610352</ele>
        <time>2015-02-11T14:46:05Z</time>
      </trkpt>
      <trkpt lat="43.43332" lon="6.00059">
        <ele>357.79998779297</ele>
        <time>2015-02-11T14:46:09Z</time>
      </trkpt>
      <trkpt lat="43.43329" lon="6.00062">
        <ele>358</ele>
        <time>2015-02-11T14:46:12Z</time>
      </trkpt>
      <trkpt lat="43.43328" lon="6.00063">
        <ele>358</ele>
        <time>2015-02-11T14:46:13Z</time>
      </trkpt>
      <trkpt lat="43.43326" lon="6.00058">
        <ele>357.79998779297</ele>
        <time>2015-02-11T14:46:18Z</time>
      </trkpt>
      <trkpt lat="43.43322" lon="6.00051">
        <ele>358.20001220703</ele>
        <time>2015-02-11T14:46:22Z</time>
      </trkpt>
      <trkpt lat="43.43322" lon="6.0005">
        <ele>358.39999389648</ele>
        <time>2015-02-11T14:46:23Z</time>
      </trkpt>
      <trkpt lat="43.43319" lon="6.00047">
        <ele>359</ele>
        <time>2015-02-11T14:46:26Z</time>
      </trkpt>
      <trkpt lat="43.43318" lon="6.00045">
        <ele>359.20001220703</ele>
        <time>2015-02-11T14:46:28Z</time>
      </trkpt>
      <trkpt lat="43.43317" lon="6.00043">
        <ele>360</ele>
        <time>2015-02-11T14:46:34Z</time>
      </trkpt>
      <trkpt lat="43.43317" lon="6.00043">
        <ele>360</ele>
        <time>2015-02-11T14:46:36Z</time>
      </trkpt>
      <trkpt lat="43.43316" lon="6.00039">
        <ele>360.20001220703</ele>
        <time>2015-02-11T14:46:40Z</time>
      </trkpt>
      <trkpt lat="43.43316" lon="6.00039">
        <ele>360.39999389648</ele>
        <time>2015-02-11T14:46:41Z</time>
      </trkpt>
      <trkpt lat="43.43314" lon="6.00036">
        <ele>361</ele>
        <time>2015-02-11T14:46:46Z</time>
      </trkpt>
      <trkpt lat="43.43312" lon="6.00034">
        <ele>361</ele>
        <time>2015-02-11T14:46:50Z</time>
      </trkpt>
      <trkpt lat="43.43312" lon="6.00034">
        <ele>361.39999389648</ele>
        <time>2015-02-11T14:46:51Z</time>
      </trkpt>
      <trkpt lat="43.43308" lon="6.00034">
        <ele>361.79998779297</ele>
        <time>2015-02-11T14:46:57Z</time>
      </trkpt>
      <trkpt lat="43.43304" lon="6.00034">
        <ele>362.20001220703</ele>
        <time>2015-02-11T14:47:05Z</time>
      </trkpt>
      <trkpt lat="43.43301" lon="6.00033">
        <ele>362.39999389648</ele>
        <time>2015-02-11T14:47:07Z</time>
      </trkpt>
      <trkpt lat="43.43298" lon="6.00032">
        <ele>362.79998779297</ele>
        <time>2015-02-11T14:47:10Z</time>
      </trkpt>
      <trkpt lat="43.43294" lon="6.00031">
        <ele>363.39999389648</ele>
        <time>2015-02-11T14:47:14Z</time>
      </trkpt>
      <trkpt lat="43.43293" lon="6.00031">
        <ele>363.79998779297</ele>
        <time>2015-02-11T14:47:15Z</time>
      </trkpt>
      <trkpt lat="43.43291" lon="6.00032">
        <ele>364.20001220703</ele>
        <time>2015-02-11T14:47:17Z</time>
      </trkpt>
      <trkpt lat="43.4329" lon="6.00033">
        <ele>364.79998779297</ele>
        <time>2015-02-11T14:47:20Z</time>
      </trkpt>
      <trkpt lat="43.43289" lon="6.00032">
        <ele>365.39999389648</ele>
        <time>2015-02-11T14:47:23Z</time>
      </trkpt>
      <trkpt lat="43.43285" lon="6.0003">
        <ele>365.79998779297</ele>
        <time>2015-02-11T14:47:33Z</time>
      </trkpt>
      <trkpt lat="43.43285" lon="6.00029">
        <ele>366</ele>
        <time>2015-02-11T14:47:34Z</time>
      </trkpt>
      <trkpt lat="43.43283" lon="6.00028">
        <ele>366.60000610352</ele>
        <time>2015-02-11T14:47:42Z</time>
      </trkpt>
      <trkpt lat="43.4328" lon="6.00025">
        <ele>367.20001220703</ele>
        <time>2015-02-11T14:47:50Z</time>
      </trkpt>
      <trkpt lat="43.43279" lon="6.00024">
        <ele>367.39999389648</ele>
        <time>2015-02-11T14:47:52Z</time>
      </trkpt>
      <trkpt lat="43.43275" lon="6.00023">
        <ele>368</ele>
        <time>2015-02-11T14:47:58Z</time>
      </trkpt>
      <trkpt lat="43.43274" lon="6.00023">
        <ele>368.20001220703</ele>
        <time>2015-02-11T14:48:01Z</time>
      </trkpt>
      <trkpt lat="43.4327" lon="6.00022">
        <ele>369.20001220703</ele>
        <time>2015-02-11T14:48:09Z</time>
      </trkpt>
      <trkpt lat="43.4327" lon="6.00022">
        <ele>369.39999389648</ele>
        <time>2015-02-11T14:48:11Z</time>
      </trkpt>
      <trkpt lat="43.43269" lon="6.00021">
        <ele>369.60000610352</ele>
        <time>2015-02-11T14:48:14Z</time>
      </trkpt>
      <trkpt lat="43.43268" lon="6.00022">
        <ele>369.79998779297</ele>
        <time>2015-02-11T14:48:17Z</time>
      </trkpt>
      <trkpt lat="43.43268" lon="6.00022">
        <ele>369.60000610352</ele>
        <time>2015-02-11T14:48:22Z</time>
      </trkpt>
      <trkpt lat="43.43267" lon="6.00022">
        <ele>369.60000610352</ele>
        <time>2015-02-11T14:48:27Z</time>
      </trkpt>
      <trkpt lat="43.43267" lon="6.00022">
        <ele>369.60000610352</ele>
        <time>2015-02-11T14:48:28Z</time>
      </trkpt>
      <trkpt lat="43.43265" lon="6.00022">
        <ele>370.39999389648</ele>
        <time>2015-02-11T14:48:34Z</time>
      </trkpt>
      <trkpt lat="43.43265" lon="6.00021">
        <ele>370.60000610352</ele>
        <time>2015-02-11T14:48:37Z</time>
      </trkpt>
      <trkpt lat="43.43264" lon="6.00021">
        <ele>370.79998779297</ele>
        <time>2015-02-11T14:48:45Z</time>
      </trkpt>
      <trkpt lat="43.43263" lon="6.00021">
        <ele>371.39999389648</ele>
        <time>2015-02-11T14:48:53Z</time>
      </trkpt>
      <trkpt lat="43.43262" lon="6.0002">
        <ele>371.39999389648</ele>
        <time>2015-02-11T14:48:55Z</time>
      </trkpt>
      <trkpt lat="43.43261" lon="6.0002">
        <ele>372</ele>
        <time>2015-02-11T14:48:57Z</time>
      </trkpt>
      <trkpt lat="43.43257" lon="6.00021">
        <ele>372.39999389648</ele>
        <time>2015-02-11T14:49:05Z</time>
      </trkpt>
      <trkpt lat="43.43255" lon="6.0002">
        <ele>373.39999389648</ele>
        <time>2015-02-11T14:49:11Z</time>
      </trkpt>
      <trkpt lat="43.43255" lon="6.0002">
        <ele>373.60000610352</ele>
        <time>2015-02-11T14:49:13Z</time>
      </trkpt>
      <trkpt lat="43.43253" lon="6.00022">
        <ele>374.39999389648</ele>
        <time>2015-02-11T14:49:20Z</time>
      </trkpt>
      <trkpt lat="43.43252" lon="6.00022">
        <ele>374.79998779297</ele>
        <time>2015-02-11T14:49:22Z</time>
      </trkpt>
      <trkpt lat="43.43248" lon="6.00022">
        <ele>375.60000610352</ele>
        <time>2015-02-11T14:49:32Z</time>
      </trkpt>
      <trkpt lat="43.43244" lon="6.00019">
        <ele>376.39999389648</ele>
        <time>2015-02-11T14:49:41Z</time>
      </trkpt>
      <trkpt lat="43.43243" lon="6.00018">
        <ele>376.79998779297</ele>
        <time>2015-02-11T14:49:46Z</time>
      </trkpt>
      <trkpt lat="43.43242" lon="6.00017">
        <ele>376.79998779297</ele>
        <time>2015-02-11T14:49:50Z</time>
      </trkpt>
      <trkpt lat="43.4324" lon="6.00017">
        <ele>377.60000610352</ele>
        <time>2015-02-11T14:49:59Z</time>
      </trkpt>
      <trkpt lat="43.43238" lon="6.00016">
        <ele>378</ele>
        <time>2015-02-11T14:50:07Z</time>
      </trkpt>
      <trkpt lat="43.43237" lon="6.00016">
        <ele>378.79998779297</ele>
        <time>2015-02-11T14:50:14Z</time>
      </trkpt>
      <trkpt lat="43.43235" lon="6.00016">
        <ele>379.39999389648</ele>
        <time>2015-02-11T14:50:22Z</time>
      </trkpt>
      <trkpt lat="43.43234" lon="6.00017">
        <ele>379.39999389648</ele>
        <time>2015-02-11T14:50:32Z</time>
      </trkpt>
      <trkpt lat="43.43233" lon="6.00017">
        <ele>380.39999389648</ele>
        <time>2015-02-11T14:50:41Z</time>
      </trkpt>
      <trkpt lat="43.43232" lon="6.00018">
        <ele>380.20001220703</ele>
        <time>2015-02-11T14:50:50Z</time>
      </trkpt>
      <trkpt lat="43.43231" lon="6.00018">
        <ele>380.39999389648</ele>
        <time>2015-02-11T14:50:53Z</time>
      </trkpt>
      <trkpt lat="43.4323" lon="6.00017">
        <ele>381.20001220703</ele>
        <time>2015-02-11T14:50:59Z</time>
      </trkpt>
      <trkpt lat="43.43229" lon="6.00017">
        <ele>381.79998779297</ele>
        <time>2015-02-11T14:51:04Z</time>
      </trkpt>
      <trkpt lat="43.43228" lon="6.00017">
        <ele>382.20001220703</ele>
        <time>2015-02-11T14:51:07Z</time>
      </trkpt>
      <trkpt lat="43.43225" lon="6.00017">
        <ele>382.79998779297</ele>
        <time>2015-02-11T14:51:12Z</time>
      </trkpt>
      <trkpt lat="43.43224" lon="6.00018">
        <ele>383.20001220703</ele>
        <time>2015-02-11T14:51:16Z</time>
      </trkpt>
      <trkpt lat="43.43222" lon="6.00019">
        <ele>383.79998779297</ele>
        <time>2015-02-11T14:51:22Z</time>
      </trkpt>
      <trkpt lat="43.43222" lon="6.0002">
        <ele>384</ele>
        <time>2015-02-11T14:51:28Z</time>
      </trkpt>
      <trkpt lat="43.4322" lon="6.0002">
        <ele>384.39999389648</ele>
        <time>2015-02-11T14:51:37Z</time>
      </trkpt>
      <trkpt lat="43.43217" lon="6.00018">
        <ele>385.20001220703</ele>
        <time>2015-02-11T14:51:42Z</time>
      </trkpt>
      <trkpt lat="43.43217" lon="6.00017">
        <ele>385.60000610352</ele>
        <time>2015-02-11T14:51:44Z</time>
      </trkpt>
      <trkpt lat="43.43214" lon="6.00016">
        <ele>386.39999389648</ele>
        <time>2015-02-11T14:51:51Z</time>
      </trkpt>
      <trkpt lat="43.43213" lon="6.00016">
        <ele>386.79998779297</ele>
        <time>2015-02-11T14:51:53Z</time>
      </trkpt>
      <trkpt lat="43.43208" lon="6.00013">
        <ele>387.79998779297</ele>
        <time>2015-02-11T14:52:03Z</time>
      </trkpt>
      <trkpt lat="43.43207" lon="6.00013">
        <ele>388</ele>
        <time>2015-02-11T14:52:05Z</time>
      </trkpt>
      <trkpt lat="43.43204" lon="6.00012">
        <ele>388.79998779297</ele>
        <time>2015-02-11T14:52:11Z</time>
      </trkpt>
      <trkpt lat="43.43202" lon="6.0001">
        <ele>389.20001220703</ele>
        <time>2015-02-11T14:52:16Z</time>
      </trkpt>
      <trkpt lat="43.43199" lon="6.0001">
        <ele>390.20001220703</ele>
        <time>2015-02-11T14:52:26Z</time>
      </trkpt>
      <trkpt lat="43.43198" lon="6.00011">
        <ele>390.79998779297</ele>
        <time>2015-02-11T14:52:34Z</time>
      </trkpt>
      <trkpt lat="43.43197" lon="6.00012">
        <ele>391.20001220703</ele>
        <time>2015-02-11T14:52:39Z</time>
      </trkpt>
      <trkpt lat="43.43194" lon="6.00009">
        <ele>392</ele>
        <time>2015-02-11T14:52:45Z</time>
      </trkpt>
      <trkpt lat="43.43192" lon="6.00009">
        <ele>392.39999389648</ele>
        <time>2015-02-11T14:52:49Z</time>
      </trkpt>
      <trkpt lat="43.43187" lon="6.00008">
        <ele>393</ele>
        <time>2015-02-11T14:52:56Z</time>
      </trkpt>
      <trkpt lat="43.43186" lon="6.00008">
        <ele>393.60000610352</ele>
        <time>2015-02-11T14:52:59Z</time>
      </trkpt>
      <trkpt lat="43.43181" lon="6.00007">
        <ele>395</ele>
        <time>2015-02-11T14:53:08Z</time>
      </trkpt>
      <trkpt lat="43.43178" lon="6.00006">
        <ele>395.60000610352</ele>
        <time>2015-02-11T14:53:15Z</time>
      </trkpt>
      <trkpt lat="43.43176" lon="6.00005">
        <ele>396</ele>
        <time>2015-02-11T14:53:17Z</time>
      </trkpt>
      <trkpt lat="43.43172" lon="6.00005">
        <ele>396.60000610352</ele>
        <time>2015-02-11T14:53:24Z</time>
      </trkpt>
      <trkpt lat="43.43168" lon="6.00006">
        <ele>397</ele>
        <time>2015-02-11T14:53:33Z</time>
      </trkpt>
      <trkpt lat="43.43166" lon="6.00007">
        <ele>397.20001220703</ele>
        <time>2015-02-11T14:53:35Z</time>
      </trkpt>
      <trkpt lat="43.43164" lon="6.00006">
        <ele>397.39999389648</ele>
        <time>2015-02-11T14:53:37Z</time>
      </trkpt>
      <trkpt lat="43.43161" lon="6.00005">
        <ele>397.79998779297</ele>
        <time>2015-02-11T14:53:39Z</time>
      </trkpt>
      <trkpt lat="43.43159" lon="6.00004">
        <ele>398.39999389648</ele>
        <time>2015-02-11T14:53:42Z</time>
      </trkpt>
      <trkpt lat="43.43153" lon="6.00003">
        <ele>399.20001220703</ele>
        <time>2015-02-11T14:53:47Z</time>
      </trkpt>
      <trkpt lat="43.4315" lon="6.00004">
        <ele>399.20001220703</ele>
        <time>2015-02-11T14:53:50Z</time>
      </trkpt>
      <trkpt lat="43.43148" lon="6.00003">
        <ele>399.39999389648</ele>
        <time>2015-02-11T14:53:51Z</time>
      </trkpt>
      <trkpt lat="43.43147" lon="6.00003">
        <ele>399.79998779297</ele>
        <time>2015-02-11T14:53:53Z</time>
      </trkpt>
      <trkpt lat="43.43146" lon="6.00005">
        <ele>399.39999389648</ele>
        <time>2015-02-11T14:53:57Z</time>
      </trkpt>
      <trkpt lat="43.43143" lon="6.00005">
        <ele>400.20001220703</ele>
        <time>2015-02-11T14:54:09Z</time>
      </trkpt>
      <trkpt lat="43.43143" lon="6.00005">
        <ele>400.60000610352</ele>
        <time>2015-02-11T14:54:12Z</time>
      </trkpt>
      <trkpt lat="43.43141" lon="6.00004">
        <ele>400.60000610352</ele>
        <time>2015-02-11T14:54:19Z</time>
      </trkpt>
      <trkpt lat="43.43135" lon="6.00002">
        <ele>401.39999389648</ele>
        <time>2015-02-11T14:54:27Z</time>
      </trkpt>
      <trkpt lat="43.43127" lon="6">
        <ele>402</ele>
        <time>2015-02-11T14:54:34Z</time>
      </trkpt>
      <trkpt lat="43.43126" lon="5.99998">
        <ele>402.20001220703</ele>
        <time>2015-02-11T14:54:35Z</time>
      </trkpt>
      <trkpt lat="43.43126" lon="5.99999">
        <ele>402.39999389648</ele>
        <time>2015-02-11T14:54:40Z</time>
      </trkpt>
      <trkpt lat="43.43122" lon="5.99996">
        <ele>403.20001220703</ele>
        <time>2015-02-11T14:54:46Z</time>
      </trkpt>
      <trkpt lat="43.43121" lon="5.99996">
        <ele>403.20001220703</ele>
        <time>2015-02-11T14:54:49Z</time>
      </trkpt>
      <trkpt lat="43.43118" lon="5.99998">
        <ele>403.79998779297</ele>
        <time>2015-02-11T14:54:56Z</time>
      </trkpt>
      <trkpt lat="43.43117" lon="6.00001">
        <ele>403.79998779297</ele>
        <time>2015-02-11T14:55:04Z</time>
      </trkpt>
      <trkpt lat="43.43117" lon="6.00004">
        <ele>404</ele>
        <time>2015-02-11T14:55:14Z</time>
      </trkpt>
      <trkpt lat="43.43109" lon="6.00008">
        <ele>403.60000610352</ele>
        <time>2015-02-11T14:55:20Z</time>
      </trkpt>
      <trkpt lat="43.43099" lon="6.00006">
        <ele>404.39999389648</ele>
        <time>2015-02-11T14:55:26Z</time>
      </trkpt>
      <trkpt lat="43.43098" lon="6.00005">
        <ele>404.39999389648</ele>
        <time>2015-02-11T14:55:27Z</time>
      </trkpt>
      <trkpt lat="43.43097" lon="6.00006">
        <ele>404.60000610352</ele>
        <time>2015-02-11T14:55:28Z</time>
      </trkpt>
      <trkpt lat="43.43091" lon="6.00007">
        <ele>405.20001220703</ele>
        <time>2015-02-11T14:55:32Z</time>
      </trkpt>
      <trkpt lat="43.43089" lon="6.00008">
        <ele>405.39999389648</ele>
        <time>2015-02-11T14:55:34Z</time>
      </trkpt>
      <trkpt lat="43.43081" lon="6.00013">
        <ele>406.60000610352</ele>
        <time>2015-02-11T14:55:43Z</time>
      </trkpt>
      <trkpt lat="43.4308" lon="6.00014">
        <ele>406.79998779297</ele>
        <time>2015-02-11T14:55:44Z</time>
      </trkpt>
      <trkpt lat="43.43077" lon="6.00015">
        <ele>407.20001220703</ele>
        <time>2015-02-11T14:55:46Z</time>
      </trkpt>
      <trkpt lat="43.43073" lon="6.00015">
        <ele>407.60000610352</ele>
        <time>2015-02-11T14:55:49Z</time>
      </trkpt>
      <trkpt lat="43.43072" lon="6.00015">
        <ele>407.60000610352</ele>
        <time>2015-02-11T14:55:50Z</time>
      </trkpt>
      <trkpt lat="43.4307" lon="6.00017">
        <ele>407.79998779297</ele>
        <time>2015-02-11T14:55:52Z</time>
      </trkpt>
      <trkpt lat="43.43069" lon="6.00018">
        <ele>408</ele>
        <time>2015-02-11T14:55:53Z</time>
      </trkpt>
      <trkpt lat="43.43065" lon="6.00021">
        <ele>408.20001220703</ele>
        <time>2015-02-11T14:55:56Z</time>
      </trkpt>
      <trkpt lat="43.43061" lon="6.00024">
        <ele>408.60000610352</ele>
        <time>2015-02-11T14:55:59Z</time>
      </trkpt>
      <trkpt lat="43.43059" lon="6.00028">
        <ele>408.60000610352</ele>
        <time>2015-02-11T14:56:02Z</time>
      </trkpt>
      <trkpt lat="43.43052" lon="6.00032">
        <ele>409.20001220703</ele>
        <time>2015-02-11T14:56:09Z</time>
      </trkpt>
      <trkpt lat="43.43051" lon="6.00033">
        <ele>409.60000610352</ele>
        <time>2015-02-11T14:56:14Z</time>
      </trkpt>
      <trkpt lat="43.43051" lon="6.00033">
        <ele>409.39999389648</ele>
        <time>2015-02-11T14:56:19Z</time>
      </trkpt>
      <trkpt lat="43.43051" lon="6.00033">
        <ele>409.39999389648</ele>
        <time>2015-02-11T14:56:26Z</time>
      </trkpt>
      <trkpt lat="43.43051" lon="6.00033">
        <ele>409.20001220703</ele>
        <time>2015-02-11T14:56:38Z</time>
      </trkpt>
      <trkpt lat="43.4305" lon="6.00034">
        <ele>409.60000610352</ele>
        <time>2015-02-11T14:57:05Z</time>
      </trkpt>
      <trkpt lat="43.4305" lon="6.00035">
        <ele>409.39999389648</ele>
        <time>2015-02-11T14:57:23Z</time>
      </trkpt>
      <trkpt lat="43.4305" lon="6.00036">
        <ele>409.60000610352</ele>
        <time>2015-02-11T14:57:33Z</time>
      </trkpt>
      <trkpt lat="43.4305" lon="6.00036">
        <ele>409.60000610352</ele>
        <time>2015-02-11T14:57:59Z</time>
      </trkpt>
      <trkpt lat="43.4305" lon="6.00037">
        <ele>409.79998779297</ele>
        <time>2015-02-11T15:02:27Z</time>
      </trkpt>
      <trkpt lat="43.4305" lon="6.00037">
        <ele>409.79998779297</ele>
        <time>2015-02-11T15:02:33Z</time>
      </trkpt>
      <trkpt lat="43.4305" lon="6.00037">
        <ele>409.39999389648</ele>
        <time>2015-02-11T15:02:40Z</time>
      </trkpt>
      <trkpt lat="43.4305" lon="6.00037">
        <ele>409.79998779297</ele>
        <time>2015-02-11T15:02:53Z</time>
      </trkpt>
      <trkpt lat="43.4305" lon="6.00038">
        <ele>409.60000610352</ele>
        <time>2015-02-11T15:03:14Z</time>
      </trkpt>
      <trkpt lat="43.4305" lon="6.00038">
        <ele>409.79998779297</ele>
        <time>2015-02-11T15:03:36Z</time>
      </trkpt>
      <trkpt lat="43.4305" lon="6.00038">
        <ele>410.20001220703</ele>
        <time>2015-02-11T15:03:47Z</time>
      </trkpt>
      <trkpt lat="43.4305" lon="6.00038">
        <ele>410.20001220703</ele>
        <time>2015-02-11T15:03:52Z</time>
      </trkpt>
      <trkpt lat="43.4305" lon="6.00038">
        <ele>410.20001220703</ele>
        <time>2015-02-11T15:03:58Z</time>
      </trkpt>
      <trkpt lat="43.4305" lon="6.00039">
        <ele>410</ele>
        <time>2015-02-11T15:05:12Z</time>
      </trkpt>
      <trkpt lat="43.4305" lon="6.00039">
        <ele>409.79998779297</ele>
        <time>2015-02-11T15:05:30Z</time>
      </trkpt>
      <trkpt lat="43.4305" lon="6.00039">
        <ele>410</ele>
        <time>2015-02-11T15:07:15Z</time>
      </trkpt>
      <trkpt lat="43.4305" lon="6.00039">
        <ele>410</ele>
        <time>2015-02-11T15:07:45Z</time>
      </trkpt>
      <trkpt lat="43.4305" lon="6.00039">
        <ele>410</ele>
        <time>2015-02-11T15:07:48Z</time>
      </trkpt>
      <trkpt lat="43.4305" lon="6.00041">
        <ele>410.20001220703</ele>
        <time>2015-02-11T15:07:52Z</time>
      </trkpt>
      <trkpt lat="43.43049" lon="6.00044">
        <ele>410</ele>
        <time>2015-02-11T15:07:54Z</time>
      </trkpt>
      <trkpt lat="43.43049" lon="6.00047">
        <ele>410</ele>
        <time>2015-02-11T15:07:55Z</time>
      </trkpt>
      <trkpt lat="43.43049" lon="6.00049">
        <ele>410.20001220703</ele>
        <time>2015-02-11T15:07:56Z</time>
      </trkpt>
      <trkpt lat="43.43049" lon="6.00052">
        <ele>410.79998779297</ele>
        <time>2015-02-11T15:07:57Z</time>
      </trkpt>
      <trkpt lat="43.43049" lon="6.00062">
        <ele>411</ele>
        <time>2015-02-11T15:08:01Z</time>
      </trkpt>
      <trkpt lat="43.4305" lon="6.00073">
        <ele>412</ele>
        <time>2015-02-11T15:08:05Z</time>
      </trkpt>
      <trkpt lat="43.43049" lon="6.00082">
        <ele>412.20001220703</ele>
        <time>2015-02-11T15:08:08Z</time>
      </trkpt>
      <trkpt lat="43.43048" lon="6.00105">
        <ele>412</ele>
        <time>2015-02-11T15:08:15Z</time>
      </trkpt>
      <trkpt lat="43.43049" lon="6.00122">
        <ele>412.20001220703</ele>
        <time>2015-02-11T15:08:20Z</time>
      </trkpt>
      <trkpt lat="43.43049" lon="6.00134">
        <ele>411.20001220703</ele>
        <time>2015-02-11T15:08:23Z</time>
      </trkpt>
      <trkpt lat="43.4305" lon="6.00138">
        <ele>410.79998779297</ele>
        <time>2015-02-11T15:08:24Z</time>
      </trkpt>
      <trkpt lat="43.4305" lon="6.00146">
        <ele>410.60000610352</ele>
        <time>2015-02-11T15:08:26Z</time>
      </trkpt>
      <trkpt lat="43.43046" lon="6.00168">
        <ele>409.20001220703</ele>
        <time>2015-02-11T15:08:31Z</time>
      </trkpt>
      <trkpt lat="43.43035" lon="6.00177">
        <ele>409.20001220703</ele>
        <time>2015-02-11T15:08:36Z</time>
      </trkpt>
      <trkpt lat="43.43019" lon="6.00183">
        <ele>410.20001220703</ele>
        <time>2015-02-11T15:08:43Z</time>
      </trkpt>
      <trkpt lat="43.43017" lon="6.00184">
        <ele>410.39999389648</ele>
        <time>2015-02-11T15:08:44Z</time>
      </trkpt>
      <trkpt lat="43.43005" lon="6.00194">
        <ele>411.39999389648</ele>
        <time>2015-02-11T15:08:50Z</time>
      </trkpt>
      <trkpt lat="43.42999" lon="6.002">
        <ele>411.79998779297</ele>
        <time>2015-02-11T15:08:53Z</time>
      </trkpt>
      <trkpt lat="43.42994" lon="6.00205">
        <ele>412.39999389648</ele>
        <time>2015-02-11T15:08:56Z</time>
      </trkpt>
      <trkpt lat="43.42988" lon="6.00217">
        <ele>413</ele>
        <time>2015-02-11T15:09:00Z</time>
      </trkpt>
      <trkpt lat="43.42982" lon="6.00229">
        <ele>414</ele>
        <time>2015-02-11T15:09:05Z</time>
      </trkpt>
      <trkpt lat="43.42978" lon="6.00237">
        <ele>415.20001220703</ele>
        <time>2015-02-11T15:09:09Z</time>
      </trkpt>
      <trkpt lat="43.42975" lon="6.00248">
        <ele>416.39999389648</ele>
        <time>2015-02-11T15:09:14Z</time>
      </trkpt>
      <trkpt lat="43.42974" lon="6.00252">
        <ele>416.60000610352</ele>
        <time>2015-02-11T15:09:16Z</time>
      </trkpt>
      <trkpt lat="43.42971" lon="6.00262">
        <ele>417.39999389648</ele>
        <time>2015-02-11T15:09:21Z</time>
      </trkpt>
      <trkpt lat="43.42971" lon="6.00263">
        <ele>417.60000610352</ele>
        <time>2015-02-11T15:09:22Z</time>
      </trkpt>
      <trkpt lat="43.42971" lon="6.00265">
        <ele>418</ele>
        <time>2015-02-11T15:09:23Z</time>
      </trkpt>
      <trkpt lat="43.42968" lon="6.00271">
        <ele>418.20001220703</ele>
        <time>2015-02-11T15:09:26Z</time>
      </trkpt>
      <trkpt lat="43.42968" lon="6.00277">
        <ele>418.79998779297</ele>
        <time>2015-02-11T15:09:30Z</time>
      </trkpt>
      <trkpt lat="43.42967" lon="6.00281">
        <ele>419.20001220703</ele>
        <time>2015-02-11T15:09:32Z</time>
      </trkpt>
      <trkpt lat="43.42967" lon="6.00283">
        <ele>419.60000610352</ele>
        <time>2015-02-11T15:09:33Z</time>
      </trkpt>
      <trkpt lat="43.42967" lon="6.00293">
        <ele>420.60000610352</ele>
        <time>2015-02-11T15:09:38Z</time>
      </trkpt>
      <trkpt lat="43.42966" lon="6.00296">
        <ele>420.79998779297</ele>
        <time>2015-02-11T15:09:40Z</time>
      </trkpt>
      <trkpt lat="43.42966" lon="6.00305">
        <ele>421.79998779297</ele>
        <time>2015-02-11T15:09:45Z</time>
      </trkpt>
      <trkpt lat="43.42966" lon="6.00321">
        <ele>422.79998779297</ele>
        <time>2015-02-11T15:09:53Z</time>
      </trkpt>
      <trkpt lat="43.42966" lon="6.00325">
        <ele>422.79998779297</ele>
        <time>2015-02-11T15:09:55Z</time>
      </trkpt>
      <trkpt lat="43.42963" lon="6.00334">
        <ele>423.79998779297</ele>
        <time>2015-02-11T15:10:01Z</time>
      </trkpt>
      <trkpt lat="43.42959" lon="6.00343">
        <ele>424.79998779297</ele>
        <time>2015-02-11T15:10:07Z</time>
      </trkpt>
      <trkpt lat="43.42958" lon="6.00344">
        <ele>425</ele>
        <time>2015-02-11T15:10:08Z</time>
      </trkpt>
      <trkpt lat="43.42958" lon="6.00345">
        <ele>424.79998779297</ele>
        <time>2015-02-11T15:10:09Z</time>
      </trkpt>
      <trkpt lat="43.42952" lon="6.00351">
        <ele>425.20001220703</ele>
        <time>2015-02-11T15:10:15Z</time>
      </trkpt>
      <trkpt lat="43.42945" lon="6.00356">
        <ele>426</ele>
        <time>2015-02-11T15:10:23Z</time>
      </trkpt>
      <trkpt lat="43.42941" lon="6.00359">
        <ele>427</ele>
        <time>2015-02-11T15:10:27Z</time>
      </trkpt>
      <trkpt lat="43.42935" lon="6.00364">
        <ele>427.79998779297</ele>
        <time>2015-02-11T15:10:33Z</time>
      </trkpt>
      <trkpt lat="43.42931" lon="6.00367">
        <ele>429.39999389648</ele>
        <time>2015-02-11T15:10:37Z</time>
      </trkpt>
      <trkpt lat="43.42927" lon="6.00372">
        <ele>430</ele>
        <time>2015-02-11T15:10:42Z</time>
      </trkpt>
      <trkpt lat="43.42924" lon="6.00374">
        <ele>430.39999389648</ele>
        <time>2015-02-11T15:10:44Z</time>
      </trkpt>
      <trkpt lat="43.4292" lon="6.0038">
        <ele>431.60000610352</ele>
        <time>2015-02-11T15:10:49Z</time>
      </trkpt>
      <trkpt lat="43.42914" lon="6.00384">
        <ele>432.79998779297</ele>
        <time>2015-02-11T15:10:55Z</time>
      </trkpt>
      <trkpt lat="43.42912" lon="6.00386">
        <ele>433</ele>
        <time>2015-02-11T15:10:57Z</time>
      </trkpt>
      <trkpt lat="43.42908" lon="6.00394">
        <ele>433.60000610352</ele>
        <time>2015-02-11T15:11:03Z</time>
      </trkpt>
      <trkpt lat="43.42908" lon="6.00403">
        <ele>433.60000610352</ele>
        <time>2015-02-11T15:11:07Z</time>
      </trkpt>
      <trkpt lat="43.42908" lon="6.00409">
        <ele>433.39999389648</ele>
        <time>2015-02-11T15:11:09Z</time>
      </trkpt>
      <trkpt lat="43.4291" lon="6.00427">
        <ele>432.39999389648</ele>
        <time>2015-02-11T15:11:13Z</time>
      </trkpt>
      <trkpt lat="43.42905" lon="6.00439">
        <ele>432.60000610352</ele>
        <time>2015-02-11T15:11:18Z</time>
      </trkpt>
      <trkpt lat="43.42901" lon="6.00454">
        <ele>433.20001220703</ele>
        <time>2015-02-11T15:11:26Z</time>
      </trkpt>
      <trkpt lat="43.42897" lon="6.00468">
        <ele>432.79998779297</ele>
        <time>2015-02-11T15:11:31Z</time>
      </trkpt>
      <trkpt lat="43.42896" lon="6.00471">
        <ele>432.79998779297</ele>
        <time>2015-02-11T15:11:32Z</time>
      </trkpt>
      <trkpt lat="43.42888" lon="6.00485">
        <ele>433.20001220703</ele>
        <time>2015-02-11T15:11:38Z</time>
      </trkpt>
      <trkpt lat="43.42885" lon="6.0049">
        <ele>433</ele>
        <time>2015-02-11T15:11:41Z</time>
      </trkpt>
      <trkpt lat="43.42885" lon="6.0049">
        <ele>432.60000610352</ele>
        <time>2015-02-11T15:11:43Z</time>
      </trkpt>
      <trkpt lat="43.42884" lon="6.00491">
        <ele>432.39999389648</ele>
        <time>2015-02-11T15:11:46Z</time>
      </trkpt>
      <trkpt lat="43.42884" lon="6.00491">
        <ele>432.60000610352</ele>
        <time>2015-02-11T15:11:49Z</time>
      </trkpt>
      <trkpt lat="43.42884" lon="6.00491">
        <ele>432.60000610352</ele>
        <time>2015-02-11T15:11:54Z</time>
      </trkpt>
      <trkpt lat="43.42885" lon="6.00491">
        <ele>432.39999389648</ele>
        <time>2015-02-11T15:12:06Z</time>
      </trkpt>
      <trkpt lat="43.42881" lon="6.00497">
        <ele>432</ele>
        <time>2015-02-11T15:12:14Z</time>
      </trkpt>
      <trkpt lat="43.42879" lon="6.00504">
        <ele>431.60000610352</ele>
        <time>2015-02-11T15:12:16Z</time>
      </trkpt>
      <trkpt lat="43.42878" lon="6.00509">
        <ele>430.79998779297</ele>
        <time>2015-02-11T15:12:18Z</time>
      </trkpt>
      <trkpt lat="43.42878" lon="6.00515">
        <ele>430.60000610352</ele>
        <time>2015-02-11T15:12:19Z</time>
      </trkpt>
      <trkpt lat="43.42878" lon="6.0052">
        <ele>430</ele>
        <time>2015-02-11T15:12:20Z</time>
      </trkpt>
      <trkpt lat="43.42879" lon="6.00528">
        <ele>428.20001220703</ele>
        <time>2015-02-11T15:12:21Z</time>
      </trkpt>
      <trkpt lat="43.42879" lon="6.00537">
        <ele>427.20001220703</ele>
        <time>2015-02-11T15:12:22Z</time>
      </trkpt>
      <trkpt lat="43.42877" lon="6.00556">
        <ele>426.20001220703</ele>
        <time>2015-02-11T15:12:25Z</time>
      </trkpt>
      <trkpt lat="43.42875" lon="6.00572">
        <ele>425.20001220703</ele>
        <time>2015-02-11T15:12:28Z</time>
      </trkpt>
      <trkpt lat="43.42874" lon="6.00579">
        <ele>424.39999389648</ele>
        <time>2015-02-11T15:12:29Z</time>
      </trkpt>
      <trkpt lat="43.42874" lon="6.00585">
        <ele>422.79998779297</ele>
        <time>2015-02-11T15:12:30Z</time>
      </trkpt>
      <trkpt lat="43.42873" lon="6.00593">
        <ele>421.39999389648</ele>
        <time>2015-02-11T15:12:31Z</time>
      </trkpt>
      <trkpt lat="43.42871" lon="6.00599">
        <ele>420.39999389648</ele>
        <time>2015-02-11T15:12:32Z</time>
      </trkpt>
      <trkpt lat="43.4287" lon="6.00602">
        <ele>419.60000610352</ele>
        <time>2015-02-11T15:12:33Z</time>
      </trkpt>
      <trkpt lat="43.42868" lon="6.00619">
        <ele>419</ele>
        <time>2015-02-11T15:12:36Z</time>
      </trkpt>
      <trkpt lat="43.42866" lon="6.00626">
        <ele>417.79998779297</ele>
        <time>2015-02-11T15:12:37Z</time>
      </trkpt>
      <trkpt lat="43.42865" lon="6.00631">
        <ele>415.79998779297</ele>
        <time>2015-02-11T15:12:38Z</time>
      </trkpt>
      <trkpt lat="43.42864" lon="6.00638">
        <ele>414.20001220703</ele>
        <time>2015-02-11T15:12:39Z</time>
      </trkpt>
      <trkpt lat="43.42862" lon="6.00649">
        <ele>411.79998779297</ele>
        <time>2015-02-11T15:12:41Z</time>
      </trkpt>
      <trkpt lat="43.4286" lon="6.00659">
        <ele>411</ele>
        <time>2015-02-11T15:12:43Z</time>
      </trkpt>
      <trkpt lat="43.42859" lon="6.00664">
        <ele>409.79998779297</ele>
        <time>2015-02-11T15:12:44Z</time>
      </trkpt>
      <trkpt lat="43.42855" lon="6.00679">
        <ele>408.79998779297</ele>
        <time>2015-02-11T15:12:46Z</time>
      </trkpt>
      <trkpt lat="43.42853" lon="6.00687">
        <ele>408.79998779297</ele>
        <time>2015-02-11T15:12:47Z</time>
      </trkpt>
      <trkpt lat="43.42851" lon="6.00694">
        <ele>408.39999389648</ele>
        <time>2015-02-11T15:12:48Z</time>
      </trkpt>
      <trkpt lat="43.42851" lon="6.00703">
        <ele>407</ele>
        <time>2015-02-11T15:12:49Z</time>
      </trkpt>
      <trkpt lat="43.42847" lon="6.0072">
        <ele>405.39999389648</ele>
        <time>2015-02-11T15:12:51Z</time>
      </trkpt>
      <trkpt lat="43.42845" lon="6.00728">
        <ele>404.60000610352</ele>
        <time>2015-02-11T15:12:52Z</time>
      </trkpt>
      <trkpt lat="43.42841" lon="6.00744">
        <ele>404.39999389648</ele>
        <time>2015-02-11T15:12:54Z</time>
      </trkpt>
      <trkpt lat="43.42837" lon="6.00764">
        <ele>404.60000610352</ele>
        <time>2015-02-11T15:12:57Z</time>
      </trkpt>
      <trkpt lat="43.42833" lon="6.00769">
        <ele>404</ele>
        <time>2015-02-11T15:12:58Z</time>
      </trkpt>
      <trkpt lat="43.42826" lon="6.00775">
        <ele>403.39999389648</ele>
        <time>2015-02-11T15:13:00Z</time>
      </trkpt>
      <trkpt lat="43.42818" lon="6.00777">
        <ele>403.79998779297</ele>
        <time>2015-02-11T15:13:02Z</time>
      </trkpt>
      <trkpt lat="43.42809" lon="6.00775">
        <ele>404.60000610352</ele>
        <time>2015-02-11T15:13:06Z</time>
      </trkpt>
      <trkpt lat="43.42803" lon="6.00773">
        <ele>405.20001220703</ele>
        <time>2015-02-11T15:13:09Z</time>
      </trkpt>
      <trkpt lat="43.42796" lon="6.00772">
        <ele>406.20001220703</ele>
        <time>2015-02-11T15:13:13Z</time>
      </trkpt>
      <trkpt lat="43.42791" lon="6.0077">
        <ele>407</ele>
        <time>2015-02-11T15:13:16Z</time>
      </trkpt>
      <trkpt lat="43.42786" lon="6.0077">
        <ele>407.79998779297</ele>
        <time>2015-02-11T15:13:19Z</time>
      </trkpt>
      <trkpt lat="43.42785" lon="6.0077">
        <ele>408.60000610352</ele>
        <time>2015-02-11T15:13:20Z</time>
      </trkpt>
      <trkpt lat="43.42776" lon="6.00766">
        <ele>410.39999389648</ele>
        <time>2015-02-11T15:13:25Z</time>
      </trkpt>
      <trkpt lat="43.42768" lon="6.00762">
        <ele>411.79998779297</ele>
        <time>2015-02-11T15:13:31Z</time>
      </trkpt>
      <trkpt lat="43.42766" lon="6.00762">
        <ele>412.20001220703</ele>
        <time>2015-02-11T15:13:32Z</time>
      </trkpt>
      <trkpt lat="43.42764" lon="6.0076">
        <ele>412.60000610352</ele>
        <time>2015-02-11T15:13:34Z</time>
      </trkpt>
      <trkpt lat="43.4276" lon="6.00757">
        <ele>413.20001220703</ele>
        <time>2015-02-11T15:13:37Z</time>
      </trkpt>
      <trkpt lat="43.42758" lon="6.00756">
        <ele>413.79998779297</ele>
        <time>2015-02-11T15:13:39Z</time>
      </trkpt>
      <trkpt lat="43.42755" lon="6.00753">
        <ele>414.39999389648</ele>
        <time>2015-02-11T15:13:42Z</time>
      </trkpt>
      <trkpt lat="43.4275" lon="6.00748">
        <ele>415</ele>
        <time>2015-02-11T15:13:47Z</time>
      </trkpt>
      <trkpt lat="43.42746" lon="6.00747">
        <ele>415.39999389648</ele>
        <time>2015-02-11T15:13:50Z</time>
      </trkpt>
      <trkpt lat="43.42741" lon="6.00748">
        <ele>415.79998779297</ele>
        <time>2015-02-11T15:13:53Z</time>
      </trkpt>
      <trkpt lat="43.42736" lon="6.0075">
        <ele>415.60000610352</ele>
        <time>2015-02-11T15:13:57Z</time>
      </trkpt>
      <trkpt lat="43.42732" lon="6.00751">
        <ele>416</ele>
        <time>2015-02-11T15:14:00Z</time>
      </trkpt>
      <trkpt lat="43.42729" lon="6.00751">
        <ele>416.39999389648</ele>
        <time>2015-02-11T15:14:02Z</time>
      </trkpt>
      <trkpt lat="43.4272" lon="6.00751">
        <ele>416.60000610352</ele>
        <time>2015-02-11T15:14:08Z</time>
      </trkpt>
      <trkpt lat="43.42712" lon="6.00752">
        <ele>416.79998779297</ele>
        <time>2015-02-11T15:14:13Z</time>
      </trkpt>
      <trkpt lat="43.4271" lon="6.00756">
        <ele>416.79998779297</ele>
        <time>2015-02-11T15:14:15Z</time>
      </trkpt>
      <trkpt lat="43.42706" lon="6.00761">
        <ele>417.20001220703</ele>
        <time>2015-02-11T15:14:18Z</time>
      </trkpt>
      <trkpt lat="43.42699" lon="6.00773">
        <ele>416.79998779297</ele>
        <time>2015-02-11T15:14:23Z</time>
      </trkpt>
      <trkpt lat="43.42688" lon="6.00782">
        <ele>416.79998779297</ele>
        <time>2015-02-11T15:14:30Z</time>
      </trkpt>
      <trkpt lat="43.42684" lon="6.00785">
        <ele>417.20001220703</ele>
        <time>2015-02-11T15:14:32Z</time>
      </trkpt>
      <trkpt lat="43.42673" lon="6.00797">
        <ele>417</ele>
        <time>2015-02-11T15:14:37Z</time>
      </trkpt>
      <trkpt lat="43.42657" lon="6.0081">
        <ele>417.20001220703</ele>
        <time>2015-02-11T15:14:43Z</time>
      </trkpt>
      <trkpt lat="43.42646" lon="6.008">
        <ele>416.20001220703</ele>
        <time>2015-02-11T15:14:47Z</time>
      </trkpt>
      <trkpt lat="43.42644" lon="6.008">
        <ele>415.79998779297</ele>
        <time>2015-02-11T15:14:48Z</time>
      </trkpt>
      <trkpt lat="43.42641" lon="6.00805">
        <ele>416.60000610352</ele>
        <time>2015-02-11T15:14:51Z</time>
      </trkpt>
      <trkpt lat="43.42639" lon="6.00808">
        <ele>416.79998779297</ele>
        <time>2015-02-11T15:14:53Z</time>
      </trkpt>
      <trkpt lat="43.42639" lon="6.00816">
        <ele>417</ele>
        <time>2015-02-11T15:14:56Z</time>
      </trkpt>
      <trkpt lat="43.42638" lon="6.00823">
        <ele>417.20001220703</ele>
        <time>2015-02-11T15:14:58Z</time>
      </trkpt>
      <trkpt lat="43.42634" lon="6.00828">
        <ele>417.39999389648</ele>
        <time>2015-02-11T15:15:01Z</time>
      </trkpt>
      <trkpt lat="43.42628" lon="6.00834">
        <ele>418</ele>
        <time>2015-02-11T15:15:08Z</time>
      </trkpt>
      <trkpt lat="43.42624" lon="6.0084">
        <ele>418.20001220703</ele>
        <time>2015-02-11T15:15:13Z</time>
      </trkpt>
      <trkpt lat="43.42623" lon="6.00841">
        <ele>418.39999389648</ele>
        <time>2015-02-11T15:15:14Z</time>
      </trkpt>
      <trkpt lat="43.42618" lon="6.00854">
        <ele>418</ele>
        <time>2015-02-11T15:15:19Z</time>
      </trkpt>
      <trkpt lat="43.42617" lon="6.0086">
        <ele>418.20001220703</ele>
        <time>2015-02-11T15:15:21Z</time>
      </trkpt>
      <trkpt lat="43.42616" lon="6.00878">
        <ele>418.79998779297</ele>
        <time>2015-02-11T15:15:28Z</time>
      </trkpt>
      <trkpt lat="43.42614" lon="6.00904">
        <ele>418.60000610352</ele>
        <time>2015-02-11T15:15:35Z</time>
      </trkpt>
      <trkpt lat="43.42607" lon="6.00928">
        <ele>418.79998779297</ele>
        <time>2015-02-11T15:15:41Z</time>
      </trkpt>
      <trkpt lat="43.42601" lon="6.00957">
        <ele>418.39999389648</ele>
        <time>2015-02-11T15:15:48Z</time>
      </trkpt>
      <trkpt lat="43.42596" lon="6.00985">
        <ele>417.60000610352</ele>
        <time>2015-02-11T15:15:54Z</time>
      </trkpt>
      <trkpt lat="43.42595" lon="6.01021">
        <ele>417.20001220703</ele>
        <time>2015-02-11T15:16:00Z</time>
      </trkpt>
      <trkpt lat="43.42595" lon="6.01029">
        <ele>417.20001220703</ele>
        <time>2015-02-11T15:16:01Z</time>
      </trkpt>
      <trkpt lat="43.42595" lon="6.01036">
        <ele>416.79998779297</ele>
        <time>2015-02-11T15:16:02Z</time>
      </trkpt>
      <trkpt lat="43.42596" lon="6.01043">
        <ele>416.20001220703</ele>
        <time>2015-02-11T15:16:03Z</time>
      </trkpt>
      <trkpt lat="43.42598" lon="6.01057">
        <ele>415.39999389648</ele>
        <time>2015-02-11T15:16:05Z</time>
      </trkpt>
      <trkpt lat="43.42598" lon="6.0107">
        <ele>415.20001220703</ele>
        <time>2015-02-11T15:16:07Z</time>
      </trkpt>
      <trkpt lat="43.42593" lon="6.01076">
        <ele>414.79998779297</ele>
        <time>2015-02-11T15:16:09Z</time>
      </trkpt>
      <trkpt lat="43.42588" lon="6.01078">
        <ele>414.79998779297</ele>
        <time>2015-02-11T15:16:11Z</time>
      </trkpt>
      <trkpt lat="43.42581" lon="6.01081">
        <ele>414.39999389648</ele>
        <time>2015-02-11T15:16:14Z</time>
      </trkpt>
      <trkpt lat="43.4258" lon="6.01085">
        <ele>414</ele>
        <time>2015-02-11T15:16:15Z</time>
      </trkpt>
      <trkpt lat="43.42582" lon="6.011">
        <ele>413.60000610352</ele>
        <time>2015-02-11T15:16:19Z</time>
      </trkpt>
      <trkpt lat="43.42582" lon="6.01104">
        <ele>413.60000610352</ele>
        <time>2015-02-11T15:16:20Z</time>
      </trkpt>
      <trkpt lat="43.42586" lon="6.01125">
        <ele>413.79998779297</ele>
        <time>2015-02-11T15:16:25Z</time>
      </trkpt>
      <trkpt lat="43.42583" lon="6.01131">
        <ele>412.79998779297</ele>
        <time>2015-02-11T15:16:27Z</time>
      </trkpt>
      <trkpt lat="43.4258" lon="6.01132">
        <ele>412.20001220703</ele>
        <time>2015-02-11T15:16:28Z</time>
      </trkpt>
      <trkpt lat="43.42577" lon="6.01131">
        <ele>411.79998779297</ele>
        <time>2015-02-11T15:16:29Z</time>
      </trkpt>
      <trkpt lat="43.4257" lon="6.01132">
        <ele>411.60000610352</ele>
        <time>2015-02-11T15:16:31Z</time>
      </trkpt>
      <trkpt lat="43.42557" lon="6.01131">
        <ele>411</ele>
        <time>2015-02-11T15:16:34Z</time>
      </trkpt>
      <trkpt lat="43.42553" lon="6.0113">
        <ele>410.20001220703</ele>
        <time>2015-02-11T15:16:35Z</time>
      </trkpt>
      <trkpt lat="43.42546" lon="6.0113">
        <ele>409</ele>
        <time>2015-02-11T15:16:37Z</time>
      </trkpt>
      <trkpt lat="43.42541" lon="6.01133">
        <ele>407.39999389648</ele>
        <time>2015-02-11T15:16:39Z</time>
      </trkpt>
      <trkpt lat="43.42538" lon="6.01139">
        <ele>406.39999389648</ele>
        <time>2015-02-11T15:16:42Z</time>
      </trkpt>
      <trkpt lat="43.42538" lon="6.01142">
        <ele>406</ele>
        <time>2015-02-11T15:16:43Z</time>
      </trkpt>
      <trkpt lat="43.42538" lon="6.01161">
        <ele>405.20001220703</ele>
        <time>2015-02-11T15:16:48Z</time>
      </trkpt>
      <trkpt lat="43.42537" lon="6.01166">
        <ele>405</ele>
        <time>2015-02-11T15:16:49Z</time>
      </trkpt>
      <trkpt lat="43.42533" lon="6.01191">
        <ele>403.79998779297</ele>
        <time>2015-02-11T15:16:54Z</time>
      </trkpt>
      <trkpt lat="43.42532" lon="6.01195">
        <ele>403.39999389648</ele>
        <time>2015-02-11T15:16:55Z</time>
      </trkpt>
      <trkpt lat="43.42527" lon="6.012">
        <ele>403</ele>
        <time>2015-02-11T15:16:57Z</time>
      </trkpt>
      <trkpt lat="43.42525" lon="6.01203">
        <ele>402.60000610352</ele>
        <time>2015-02-11T15:16:58Z</time>
      </trkpt>
      <trkpt lat="43.42521" lon="6.01206">
        <ele>401.20001220703</ele>
        <time>2015-02-11T15:17:00Z</time>
      </trkpt>
      <trkpt lat="43.42517" lon="6.01209">
        <ele>399.79998779297</ele>
        <time>2015-02-11T15:17:02Z</time>
      </trkpt>
      <trkpt lat="43.42511" lon="6.01211">
        <ele>398.60000610352</ele>
        <time>2015-02-11T15:17:06Z</time>
      </trkpt>
      <trkpt lat="43.42506" lon="6.01215">
        <ele>397.39999389648</ele>
        <time>2015-02-11T15:17:09Z</time>
      </trkpt>
      <trkpt lat="43.42502" lon="6.01218">
        <ele>396.20001220703</ele>
        <time>2015-02-11T15:17:12Z</time>
      </trkpt>
      <trkpt lat="43.42499" lon="6.01219">
        <ele>395.60000610352</ele>
        <time>2015-02-11T15:17:13Z</time>
      </trkpt>
      <trkpt lat="43.42496" lon="6.0122">
        <ele>395</ele>
        <time>2015-02-11T15:17:14Z</time>
      </trkpt>
      <trkpt lat="43.42492" lon="6.01233">
        <ele>393.79998779297</ele>
        <time>2015-02-11T15:17:18Z</time>
      </trkpt>
      <trkpt lat="43.4249" lon="6.01249">
        <ele>393</ele>
        <time>2015-02-11T15:17:22Z</time>
      </trkpt>
      <trkpt lat="43.4249" lon="6.01248">
        <ele>392.79998779297</ele>
        <time>2015-02-11T15:17:24Z</time>
      </trkpt>
      <trkpt lat="43.4249" lon="6.01248">
        <ele>392.79998779297</ele>
        <time>2015-02-11T15:17:25Z</time>
      </trkpt>
      <trkpt lat="43.42489" lon="6.01248">
        <ele>393</ele>
        <time>2015-02-11T15:17:35Z</time>
      </trkpt>
      <trkpt lat="43.42489" lon="6.01248">
        <ele>392.79998779297</ele>
        <time>2015-02-11T15:17:53Z</time>
      </trkpt>
      <trkpt lat="43.42489" lon="6.01249">
        <ele>393</ele>
        <time>2015-02-11T15:18:06Z</time>
      </trkpt>
      <trkpt lat="43.42489" lon="6.01249">
        <ele>393</ele>
        <time>2015-02-11T15:18:31Z</time>
      </trkpt>
      <trkpt lat="43.42489" lon="6.01249">
        <ele>392.20001220703</ele>
        <time>2015-02-11T15:18:52Z</time>
      </trkpt>
      <trkpt lat="43.42489" lon="6.01249">
        <ele>392.20001220703</ele>
        <time>2015-02-11T15:19:31Z</time>
      </trkpt>
      <trkpt lat="43.42489" lon="6.01249">
        <ele>392</ele>
        <time>2015-02-11T15:19:50Z</time>
      </trkpt>
      <trkpt lat="43.42489" lon="6.01249">
        <ele>391.79998779297</ele>
        <time>2015-02-11T15:20:13Z</time>
      </trkpt>
      <trkpt lat="43.42489" lon="6.01249">
        <ele>391.79998779297</ele>
        <time>2015-02-11T15:20:28Z</time>
      </trkpt>
      <trkpt lat="43.42489" lon="6.01249">
        <ele>392</ele>
        <time>2015-02-11T15:21:49Z</time>
      </trkpt>
      <trkpt lat="43.42489" lon="6.0125">
        <ele>391.79998779297</ele>
        <time>2015-02-11T15:22:27Z</time>
      </trkpt>
      <trkpt lat="43.42489" lon="6.0125">
        <ele>391.79998779297</ele>
        <time>2015-02-11T15:23:55Z</time>
      </trkpt>
      <trkpt lat="43.42489" lon="6.0125">
        <ele>391.79998779297</ele>
        <time>2015-02-11T15:25:31Z</time>
      </trkpt>
      <trkpt lat="43.42489" lon="6.0125">
        <ele>391.79998779297</ele>
        <time>2015-02-11T15:25:38Z</time>
      </trkpt>
      <trkpt lat="43.42489" lon="6.0125">
        <ele>392</ele>
        <time>2015-02-11T15:26:02Z</time>
      </trkpt>
      <trkpt lat="43.42489" lon="6.01249">
        <ele>392.20001220703</ele>
        <time>2015-02-11T15:26:10Z</time>
      </trkpt>
      <trkpt lat="43.42488" lon="6.01247">
        <ele>392.39999389648</ele>
        <time>2015-02-11T15:26:12Z</time>
      </trkpt>
      <trkpt lat="43.42487" lon="6.01246">
        <ele>392.39999389648</ele>
        <time>2015-02-11T15:26:13Z</time>
      </trkpt>
      <trkpt lat="43.42484" lon="6.01241">
        <ele>392.20001220703</ele>
        <time>2015-02-11T15:26:15Z</time>
      </trkpt>
      <trkpt lat="43.42475" lon="6.01227">
        <ele>391.39999389648</ele>
        <time>2015-02-11T15:26:18Z</time>
      </trkpt>
      <trkpt lat="43.42472" lon="6.0122">
        <ele>391.20001220703</ele>
        <time>2015-02-11T15:26:19Z</time>
      </trkpt>
      <trkpt lat="43.42467" lon="6.01205">
        <ele>390.60000610352</ele>
        <time>2015-02-11T15:26:21Z</time>
      </trkpt>
      <trkpt lat="43.4246" lon="6.01185">
        <ele>389.39999389648</ele>
        <time>2015-02-11T15:26:23Z</time>
      </trkpt>
      <trkpt lat="43.42452" lon="6.01164">
        <ele>387.79998779297</ele>
        <time>2015-02-11T15:26:25Z</time>
      </trkpt>
      <trkpt lat="43.42445" lon="6.01141">
        <ele>386.20001220703</ele>
        <time>2015-02-11T15:26:27Z</time>
      </trkpt>
      <trkpt lat="43.42437" lon="6.01118">
        <ele>384</ele>
        <time>2015-02-11T15:26:29Z</time>
      </trkpt>
      <trkpt lat="43.42431" lon="6.01097">
        <ele>382.39999389648</ele>
        <time>2015-02-11T15:26:31Z</time>
      </trkpt>
      <trkpt lat="43.42427" lon="6.01077">
        <ele>380.79998779297</ele>
        <time>2015-02-11T15:26:33Z</time>
      </trkpt>
      <trkpt lat="43.42424" lon="6.01058">
        <ele>379.39999389648</ele>
        <time>2015-02-11T15:26:35Z</time>
      </trkpt>
      <trkpt lat="43.42421" lon="6.01041">
        <ele>377.79998779297</ele>
        <time>2015-02-11T15:26:37Z</time>
      </trkpt>
      <trkpt lat="43.4242" lon="6.01032">
        <ele>377.39999389648</ele>
        <time>2015-02-11T15:26:38Z</time>
      </trkpt>
      <trkpt lat="43.42419" lon="6.01024">
        <ele>376.60000610352</ele>
        <time>2015-02-11T15:26:39Z</time>
      </trkpt>
      <trkpt lat="43.42419" lon="6.01008">
        <ele>375.39999389648</ele>
        <time>2015-02-11T15:26:41Z</time>
      </trkpt>
      <trkpt lat="43.42417" lon="6.00983">
        <ele>374</ele>
        <time>2015-02-11T15:26:44Z</time>
      </trkpt>
      <trkpt lat="43.42417" lon="6.00974">
        <ele>373.79998779297</ele>
        <time>2015-02-11T15:26:45Z</time>
      </trkpt>
      <trkpt lat="43.42416" lon="6.00954">
        <ele>372.20001220703</ele>
        <time>2015-02-11T15:26:47Z</time>
      </trkpt>
      <trkpt lat="43.42416" lon="6.00934">
        <ele>370.79998779297</ele>
        <time>2015-02-11T15:26:49Z</time>
      </trkpt>
      <trkpt lat="43.42415" lon="6.00913">
        <ele>369.60000610352</ele>
        <time>2015-02-11T15:26:51Z</time>
      </trkpt>
      <trkpt lat="43.42414" lon="6.00892">
        <ele>368</ele>
        <time>2015-02-11T15:26:53Z</time>
      </trkpt>
      <trkpt lat="43.42413" lon="6.00874">
        <ele>366.79998779297</ele>
        <time>2015-02-11T15:26:55Z</time>
      </trkpt>
      <trkpt lat="43.42413" lon="6.00856">
        <ele>365.79998779297</ele>
        <time>2015-02-11T15:26:57Z</time>
      </trkpt>
      <trkpt lat="43.42413" lon="6.00838">
        <ele>364.60000610352</ele>
        <time>2015-02-11T15:26:59Z</time>
      </trkpt>
      <trkpt lat="43.42414" lon="6.00821">
        <ele>363.39999389648</ele>
        <time>2015-02-11T15:27:01Z</time>
      </trkpt>
      <trkpt lat="43.42416" lon="6.00803">
        <ele>362.20001220703</ele>
        <time>2015-02-11T15:27:03Z</time>
      </trkpt>
      <trkpt lat="43.42417" lon="6.00793">
        <ele>361.79998779297</ele>
        <time>2015-02-11T15:27:04Z</time>
      </trkpt>
      <trkpt lat="43.42419" lon="6.00773">
        <ele>360.79998779297</ele>
        <time>2015-02-11T15:27:06Z</time>
      </trkpt>
      <trkpt lat="43.42421" lon="6.00753">
        <ele>359.60000610352</ele>
        <time>2015-02-11T15:27:08Z</time>
      </trkpt>
      <trkpt lat="43.42422" lon="6.00733">
        <ele>358.60000610352</ele>
        <time>2015-02-11T15:27:10Z</time>
      </trkpt>
      <trkpt lat="43.42424" lon="6.00714">
        <ele>356.79998779297</ele>
        <time>2015-02-11T15:27:12Z</time>
      </trkpt>
      <trkpt lat="43.42424" lon="6.00697">
        <ele>355.79998779297</ele>
        <time>2015-02-11T15:27:14Z</time>
      </trkpt>
      <trkpt lat="43.42424" lon="6.00669">
        <ele>354.20001220703</ele>
        <time>2015-02-11T15:27:17Z</time>
      </trkpt>
      <trkpt lat="43.42423" lon="6.00659">
        <ele>353.60000610352</ele>
        <time>2015-02-11T15:27:18Z</time>
      </trkpt>
      <trkpt lat="43.42422" lon="6.00649">
        <ele>353</ele>
        <time>2015-02-11T15:27:19Z</time>
      </trkpt>
      <trkpt lat="43.42419" lon="6.00631">
        <ele>352.20001220703</ele>
        <time>2015-02-11T15:27:21Z</time>
      </trkpt>
      <trkpt lat="43.42417" lon="6.00622">
        <ele>351.60000610352</ele>
        <time>2015-02-11T15:27:22Z</time>
      </trkpt>
      <trkpt lat="43.42414" lon="6.00604">
        <ele>350.20001220703</ele>
        <time>2015-02-11T15:27:24Z</time>
      </trkpt>
      <trkpt lat="43.42411" lon="6.00587">
        <ele>349.20001220703</ele>
        <time>2015-02-11T15:27:26Z</time>
      </trkpt>
      <trkpt lat="43.42408" lon="6.0056">
        <ele>347.79998779297</ele>
        <time>2015-02-11T15:27:29Z</time>
      </trkpt>
      <trkpt lat="43.42407" lon="6.00552">
        <ele>347.20001220703</ele>
        <time>2015-02-11T15:27:30Z</time>
      </trkpt>
      <trkpt lat="43.42406" lon="6.00535">
        <ele>346.39999389648</ele>
        <time>2015-02-11T15:27:32Z</time>
      </trkpt>
      <trkpt lat="43.42404" lon="6.00499">
        <ele>344.79998779297</ele>
        <time>2015-02-11T15:27:36Z</time>
      </trkpt>
      <trkpt lat="43.42404" lon="6.00491">
        <ele>344.39999389648</ele>
        <time>2015-02-11T15:27:37Z</time>
      </trkpt>
      <trkpt lat="43.42405" lon="6.00476">
        <ele>343.79998779297</ele>
        <time>2015-02-11T15:27:39Z</time>
      </trkpt>
      <trkpt lat="43.42407" lon="6.00453">
        <ele>343</ele>
        <time>2015-02-11T15:27:42Z</time>
      </trkpt>
      <trkpt lat="43.42409" lon="6.00406">
        <ele>341.39999389648</ele>
        <time>2015-02-11T15:27:47Z</time>
      </trkpt>
      <trkpt lat="43.42408" lon="6.00396">
        <ele>341</ele>
        <time>2015-02-11T15:27:48Z</time>
      </trkpt>
      <trkpt lat="43.42406" lon="6.00375">
        <ele>340.20001220703</ele>
        <time>2015-02-11T15:27:50Z</time>
      </trkpt>
      <trkpt lat="43.42403" lon="6.00355">
        <ele>339.20001220703</ele>
        <time>2015-02-11T15:27:52Z</time>
      </trkpt>
      <trkpt lat="43.42401" lon="6.00345">
        <ele>338.79998779297</ele>
        <time>2015-02-11T15:27:53Z</time>
      </trkpt>
      <trkpt lat="43.42397" lon="6.00319">
        <ele>337.60000610352</ele>
        <time>2015-02-11T15:27:56Z</time>
      </trkpt>
      <trkpt lat="43.42392" lon="6.0029">
        <ele>336.39999389648</ele>
        <time>2015-02-11T15:27:59Z</time>
      </trkpt>
      <trkpt lat="43.42389" lon="6.00255">
        <ele>334.79998779297</ele>
        <time>2015-02-11T15:28:02Z</time>
      </trkpt>
      <trkpt lat="43.42388" lon="6.00243">
        <ele>334.39999389648</ele>
        <time>2015-02-11T15:28:03Z</time>
      </trkpt>
      <trkpt lat="43.42387" lon="6.00231">
        <ele>333.39999389648</ele>
        <time>2015-02-11T15:28:04Z</time>
      </trkpt>
      <trkpt lat="43.42385" lon="6.00219">
        <ele>332</ele>
        <time>2015-02-11T15:28:05Z</time>
      </trkpt>
      <trkpt lat="43.42384" lon="6.00197">
        <ele>330.60000610352</ele>
        <time>2015-02-11T15:28:07Z</time>
      </trkpt>
      <trkpt lat="43.42382" lon="6.00175">
        <ele>329.39999389648</ele>
        <time>2015-02-11T15:28:09Z</time>
      </trkpt>
      <trkpt lat="43.42381" lon="6.00153">
        <ele>328</ele>
        <time>2015-02-11T15:28:11Z</time>
      </trkpt>
      <trkpt lat="43.42378" lon="6.00134">
        <ele>326.60000610352</ele>
        <time>2015-02-11T15:28:13Z</time>
      </trkpt>
      <trkpt lat="43.42376" lon="6.00114">
        <ele>325.39999389648</ele>
        <time>2015-02-11T15:28:15Z</time>
      </trkpt>
      <trkpt lat="43.42374" lon="6.00093">
        <ele>323.79998779297</ele>
        <time>2015-02-11T15:28:17Z</time>
      </trkpt>
      <trkpt lat="43.42372" lon="6.00069">
        <ele>322.79998779297</ele>
        <time>2015-02-11T15:28:19Z</time>
      </trkpt>
      <trkpt lat="43.42371" lon="6.00047">
        <ele>321.60000610352</ele>
        <time>2015-02-11T15:28:21Z</time>
      </trkpt>
      <trkpt lat="43.4237" lon="6.00028">
        <ele>319.79998779297</ele>
        <time>2015-02-11T15:28:23Z</time>
      </trkpt>
      <trkpt lat="43.42369" lon="6.00008">
        <ele>318.39999389648</ele>
        <time>2015-02-11T15:28:25Z</time>
      </trkpt>
      <trkpt lat="43.42368" lon="5.99999">
        <ele>317.79998779297</ele>
        <time>2015-02-11T15:28:26Z</time>
      </trkpt>
      <trkpt lat="43.42368" lon="5.9999">
        <ele>317.39999389648</ele>
        <time>2015-02-11T15:28:27Z</time>
      </trkpt>
      <trkpt lat="43.42368" lon="5.99973">
        <ele>315.79998779297</ele>
        <time>2015-02-11T15:28:29Z</time>
      </trkpt>
      <trkpt lat="43.42366" lon="5.99968">
        <ele>315.60000610352</ele>
        <time>2015-02-11T15:28:30Z</time>
      </trkpt>
      <trkpt lat="43.42364" lon="5.99965">
        <ele>314.60000610352</ele>
        <time>2015-02-11T15:28:31Z</time>
      </trkpt>
      <trkpt lat="43.42361" lon="5.99963">
        <ele>314.20001220703</ele>
        <time>2015-02-11T15:28:32Z</time>
      </trkpt>
      <trkpt lat="43.42355" lon="5.99961">
        <ele>313.20001220703</ele>
        <time>2015-02-11T15:28:35Z</time>
      </trkpt>
      <trkpt lat="43.42353" lon="5.99961">
        <ele>312.79998779297</ele>
        <time>2015-02-11T15:28:36Z</time>
      </trkpt>
      <trkpt lat="43.4235" lon="5.99963">
        <ele>312</ele>
        <time>2015-02-11T15:28:40Z</time>
      </trkpt>
      <trkpt lat="43.4235" lon="5.99963">
        <ele>312</ele>
        <time>2015-02-11T15:28:41Z</time>
      </trkpt>
      <trkpt lat="43.4235" lon="5.99963">
        <ele>312</ele>
        <time>2015-02-11T15:28:49Z</time>
      </trkpt>
      <trkpt lat="43.4235" lon="5.99963">
        <ele>312</ele>
        <time>2015-02-11T15:28:52Z</time>
      </trkpt>
      <trkpt lat="43.4235" lon="5.99963">
        <ele>311.79998779297</ele>
        <time>2015-02-11T15:29:05Z</time>
      </trkpt>
      <trkpt lat="43.42348" lon="5.99965">
        <ele>312</ele>
        <time>2015-02-11T15:29:07Z</time>
      </trkpt>
      <trkpt lat="43.42346" lon="5.99969">
        <ele>312.20001220703</ele>
        <time>2015-02-11T15:29:09Z</time>
      </trkpt>
      <trkpt lat="43.42346" lon="5.99973">
        <ele>312.20001220703</ele>
        <time>2015-02-11T15:29:10Z</time>
      </trkpt>
      <trkpt lat="43.42346" lon="5.99976">
        <ele>312.39999389648</ele>
        <time>2015-02-11T15:29:11Z</time>
      </trkpt>
      <trkpt lat="43.42346" lon="5.99979">
        <ele>312.39999389648</ele>
        <time>2015-02-11T15:29:12Z</time>
      </trkpt>
      <trkpt lat="43.42345" lon="5.99985">
        <ele>312.39999389648</ele>
        <time>2015-02-11T15:29:14Z</time>
      </trkpt>
      <trkpt lat="43.42342" lon="6.00003">
        <ele>313.20001220703</ele>
        <time>2015-02-11T15:29:19Z</time>
      </trkpt>
      <trkpt lat="43.4234" lon="6.0001">
        <ele>313.20001220703</ele>
        <time>2015-02-11T15:29:21Z</time>
      </trkpt>
      <trkpt lat="43.42338" lon="6.0004">
        <ele>313.39999389648</ele>
        <time>2015-02-11T15:29:28Z</time>
      </trkpt>
      <trkpt lat="43.42335" lon="6.00073">
        <ele>314</ele>
        <time>2015-02-11T15:29:35Z</time>
      </trkpt>
      <trkpt lat="43.42332" lon="6.00091">
        <ele>314.39999389648</ele>
        <time>2015-02-11T15:29:39Z</time>
      </trkpt>
      <trkpt lat="43.42332" lon="6.00095">
        <ele>314.60000610352</ele>
        <time>2015-02-11T15:29:40Z</time>
      </trkpt>
      <trkpt lat="43.42328" lon="6.00123">
        <ele>315</ele>
        <time>2015-02-11T15:29:46Z</time>
      </trkpt>
      <trkpt lat="43.42328" lon="6.00144">
        <ele>315.20001220703</ele>
        <time>2015-02-11T15:29:50Z</time>
      </trkpt>
      <trkpt lat="43.42328" lon="6.00149">
        <ele>315.20001220703</ele>
        <time>2015-02-11T15:29:51Z</time>
      </trkpt>
      <trkpt lat="43.42329" lon="6.00159">
        <ele>315.39999389648</ele>
        <time>2015-02-11T15:29:53Z</time>
      </trkpt>
      <trkpt lat="43.42328" lon="6.00163">
        <ele>315.20001220703</ele>
        <time>2015-02-11T15:29:54Z</time>
      </trkpt>
      <trkpt lat="43.42327" lon="6.0017">
        <ele>315.20001220703</ele>
        <time>2015-02-11T15:29:56Z</time>
      </trkpt>
      <trkpt lat="43.42324" lon="6.00186">
        <ele>315.39999389648</ele>
        <time>2015-02-11T15:30:00Z</time>
      </trkpt>
      <trkpt lat="43.4232" lon="6.00216">
        <ele>315.20001220703</ele>
        <time>2015-02-11T15:30:07Z</time>
      </trkpt>
      <trkpt lat="43.42321" lon="6.00233">
        <ele>314.79998779297</ele>
        <time>2015-02-11T15:30:12Z</time>
      </trkpt>
      <trkpt lat="43.42321" lon="6.00241">
        <ele>314.39999389648</ele>
        <time>2015-02-11T15:30:14Z</time>
      </trkpt>
      <trkpt lat="43.42319" lon="6.00249">
        <ele>314.39999389648</ele>
        <time>2015-02-11T15:30:16Z</time>
      </trkpt>
      <trkpt lat="43.42316" lon="6.00271">
        <ele>315</ele>
        <time>2015-02-11T15:30:21Z</time>
      </trkpt>
      <trkpt lat="43.42316" lon="6.00275">
        <ele>315</ele>
        <time>2015-02-11T15:30:22Z</time>
      </trkpt>
      <trkpt lat="43.42315" lon="6.00307">
        <ele>315.39999389648</ele>
        <time>2015-02-11T15:30:29Z</time>
      </trkpt>
      <trkpt lat="43.42306" lon="6.00344">
        <ele>315.20001220703</ele>
        <time>2015-02-11T15:30:36Z</time>
      </trkpt>
      <trkpt lat="43.42301" lon="6.00363">
        <ele>314.20001220703</ele>
        <time>2015-02-11T15:30:39Z</time>
      </trkpt>
      <trkpt lat="43.42301" lon="6.00377">
        <ele>314</ele>
        <time>2015-02-11T15:30:42Z</time>
      </trkpt>
      <trkpt lat="43.42302" lon="6.0039">
        <ele>314.20001220703</ele>
        <time>2015-02-11T15:30:45Z</time>
      </trkpt>
      <trkpt lat="43.42302" lon="6.00394">
        <ele>314.20001220703</ele>
        <time>2015-02-11T15:30:46Z</time>
      </trkpt>
      <trkpt lat="43.42302" lon="6.00409">
        <ele>314.79998779297</ele>
        <time>2015-02-11T15:30:50Z</time>
      </trkpt>
      <trkpt lat="43.42303" lon="6.00417">
        <ele>314.79998779297</ele>
        <time>2015-02-11T15:30:52Z</time>
      </trkpt>
      <trkpt lat="43.42303" lon="6.00424">
        <ele>315.20001220703</ele>
        <time>2015-02-11T15:30:54Z</time>
      </trkpt>
      <trkpt lat="43.42303" lon="6.00444">
        <ele>315.79998779297</ele>
        <time>2015-02-11T15:30:59Z</time>
      </trkpt>
      <trkpt lat="43.42303" lon="6.0047">
        <ele>316.20001220703</ele>
        <time>2015-02-11T15:31:06Z</time>
      </trkpt>
      <trkpt lat="43.42308" lon="6.00491">
        <ele>317.20001220703</ele>
        <time>2015-02-11T15:31:12Z</time>
      </trkpt>
      <trkpt lat="43.42308" lon="6.00509">
        <ele>318.20001220703</ele>
        <time>2015-02-11T15:31:17Z</time>
      </trkpt>
      <trkpt lat="43.42307" lon="6.00516">
        <ele>318.39999389648</ele>
        <time>2015-02-11T15:31:19Z</time>
      </trkpt>
      <trkpt lat="43.42305" lon="6.00543">
        <ele>319.20001220703</ele>
        <time>2015-02-11T15:31:26Z</time>
      </trkpt>
      <trkpt lat="43.42305" lon="6.0057">
        <ele>319.20001220703</ele>
        <time>2015-02-11T15:31:33Z</time>
      </trkpt>
      <trkpt lat="43.42307" lon="6.00584">
        <ele>319.60000610352</ele>
        <time>2015-02-11T15:31:37Z</time>
      </trkpt>
      <trkpt lat="43.42308" lon="6.00593">
        <ele>320</ele>
        <time>2015-02-11T15:31:40Z</time>
      </trkpt>
      <trkpt lat="43.42309" lon="6.00616">
        <ele>320.20001220703</ele>
        <time>2015-02-11T15:31:47Z</time>
      </trkpt>
      <trkpt lat="43.4231" lon="6.00622">
        <ele>320.60000610352</ele>
        <time>2015-02-11T15:31:49Z</time>
      </trkpt>
      <trkpt lat="43.4231" lon="6.00631">
        <ele>320.39999389648</ele>
        <time>2015-02-11T15:31:54Z</time>
      </trkpt>
      <trkpt lat="43.42311" lon="6.00638">
        <ele>320.79998779297</ele>
        <time>2015-02-11T15:31:59Z</time>
      </trkpt>
      <trkpt lat="43.42311" lon="6.0064">
        <ele>320.79998779297</ele>
        <time>2015-02-11T15:32:00Z</time>
      </trkpt>
      <trkpt lat="43.42316" lon="6.00652">
        <ele>321.60000610352</ele>
        <time>2015-02-11T15:32:06Z</time>
      </trkpt>
      <trkpt lat="43.42319" lon="6.00664">
        <ele>322.39999389648</ele>
        <time>2015-02-11T15:32:13Z</time>
      </trkpt>
      <trkpt lat="43.42321" lon="6.00669">
        <ele>322.60000610352</ele>
        <time>2015-02-11T15:32:16Z</time>
      </trkpt>
      <trkpt lat="43.42323" lon="6.00675">
        <ele>323</ele>
        <time>2015-02-11T15:32:20Z</time>
      </trkpt>
      <trkpt lat="43.42323" lon="6.00681">
        <ele>323.20001220703</ele>
        <time>2015-02-11T15:32:23Z</time>
      </trkpt>
      <trkpt lat="43.42321" lon="6.00682">
        <ele>323.20001220703</ele>
        <time>2015-02-11T15:32:24Z</time>
      </trkpt>
      <trkpt lat="43.42322" lon="6.00686">
        <ele>323</ele>
        <time>2015-02-11T15:32:26Z</time>
      </trkpt>
      <trkpt lat="43.42326" lon="6.00692">
        <ele>323</ele>
        <time>2015-02-11T15:32:30Z</time>
      </trkpt>
      <trkpt lat="43.42329" lon="6.00697">
        <ele>323.20001220703</ele>
        <time>2015-02-11T15:32:35Z</time>
      </trkpt>
      <trkpt lat="43.42327" lon="6.00698">
        <ele>323.20001220703</ele>
        <time>2015-02-11T15:32:36Z</time>
      </trkpt>
      <trkpt lat="43.42326" lon="6.007">
        <ele>323</ele>
        <time>2015-02-11T15:32:40Z</time>
      </trkpt>
      <trkpt lat="43.42326" lon="6.007">
        <ele>323.20001220703</ele>
        <time>2015-02-11T15:32:47Z</time>
      </trkpt>
      <trkpt lat="43.42326" lon="6.007">
        <ele>323</ele>
        <time>2015-02-11T15:33:02Z</time>
      </trkpt>
      <trkpt lat="43.42326" lon="6.00701">
        <ele>323</ele>
        <time>2015-02-11T15:33:24Z</time>
      </trkpt>
      <trkpt lat="43.42324" lon="6.007">
        <ele>323</ele>
        <time>2015-02-11T15:33:35Z</time>
      </trkpt>
      <trkpt lat="43.42324" lon="6.00689">
        <ele>323</ele>
        <time>2015-02-11T15:33:39Z</time>
      </trkpt>
      <trkpt lat="43.42324" lon="6.00687">
        <ele>323</ele>
        <time>2015-02-11T15:33:40Z</time>
      </trkpt>
      <trkpt lat="43.42321" lon="6.00669">
        <ele>322.79998779297</ele>
        <time>2015-02-11T15:33:46Z</time>
      </trkpt>
      <trkpt lat="43.42315" lon="6.00649">
        <ele>322.39999389648</ele>
        <time>2015-02-11T15:33:51Z</time>
      </trkpt>
      <trkpt lat="43.42311" lon="6.00633">
        <ele>321</ele>
        <time>2015-02-11T15:33:54Z</time>
      </trkpt>
      <trkpt lat="43.42311" lon="6.00627">
        <ele>320.60000610352</ele>
        <time>2015-02-11T15:33:55Z</time>
      </trkpt>
      <trkpt lat="43.42309" lon="6.00585">
        <ele>320.20001220703</ele>
        <time>2015-02-11T15:34:02Z</time>
      </trkpt>
      <trkpt lat="43.42308" lon="6.00572">
        <ele>319.39999389648</ele>
        <time>2015-02-11T15:34:04Z</time>
      </trkpt>
      <trkpt lat="43.42307" lon="6.00554">
        <ele>319.20001220703</ele>
        <time>2015-02-11T15:34:07Z</time>
      </trkpt>
      <trkpt lat="43.42307" lon="6.00548">
        <ele>319.20001220703</ele>
        <time>2015-02-11T15:34:08Z</time>
      </trkpt>
      <trkpt lat="43.42308" lon="6.00542">
        <ele>319.20001220703</ele>
        <time>2015-02-11T15:34:09Z</time>
      </trkpt>
      <trkpt lat="43.4231" lon="6.00524">
        <ele>318.79998779297</ele>
        <time>2015-02-11T15:34:12Z</time>
      </trkpt>
      <trkpt lat="43.4231" lon="6.0051">
        <ele>318.39999389648</ele>
        <time>2015-02-11T15:34:14Z</time>
      </trkpt>
      <trkpt lat="43.42307" lon="6.00481">
        <ele>317.20001220703</ele>
        <time>2015-02-11T15:34:18Z</time>
      </trkpt>
      <trkpt lat="43.42307" lon="6.00474">
        <ele>317.20001220703</ele>
        <time>2015-02-11T15:34:19Z</time>
      </trkpt>
      <trkpt lat="43.42306" lon="6.00443">
        <ele>316.20001220703</ele>
        <time>2015-02-11T15:34:23Z</time>
      </trkpt>
      <trkpt lat="43.42305" lon="6.00422">
        <ele>316</ele>
        <time>2015-02-11T15:34:26Z</time>
      </trkpt>
      <trkpt lat="43.42305" lon="6.00411">
        <ele>315.39999389648</ele>
        <time>2015-02-11T15:34:29Z</time>
      </trkpt>
      <trkpt lat="43.42304" lon="6.00407">
        <ele>315</ele>
        <time>2015-02-11T15:34:31Z</time>
      </trkpt>
      <trkpt lat="43.42303" lon="6.00407">
        <ele>314.60000610352</ele>
        <time>2015-02-11T15:34:33Z</time>
      </trkpt>
      <trkpt lat="43.42303" lon="6.00406">
        <ele>314</ele>
        <time>2015-02-11T15:34:40Z</time>
      </trkpt>
      <trkpt lat="43.42303" lon="6.00406">
        <ele>314</ele>
        <time>2015-02-11T15:34:41Z</time>
      </trkpt>
      <trkpt lat="43.42303" lon="6.00406">
        <ele>314.20001220703</ele>
        <time>2015-02-11T15:34:45Z</time>
      </trkpt>
      <trkpt lat="43.42303" lon="6.00406">
        <ele>314</ele>
        <time>2015-02-11T15:34:47Z</time>
      </trkpt>
      <trkpt lat="43.42303" lon="6.00406">
        <ele>314</ele>
        <time>2015-02-11T15:34:51Z</time>
      </trkpt>
      <trkpt lat="43.42303" lon="6.00406">
        <ele>314</ele>
        <time>2015-02-11T15:35:07Z</time>
      </trkpt>
      <trkpt lat="43.42303" lon="6.00406">
        <ele>314.79998779297</ele>
        <time>2015-02-11T15:38:01Z</time>
      </trkpt>
      <trkpt lat="43.42303" lon="6.00406">
        <ele>314.79998779297</ele>
        <time>2015-02-11T15:38:05Z</time>
      </trkpt>
      <trkpt lat="43.42303" lon="6.00406">
        <ele>315</ele>
        <time>2015-02-11T15:38:50Z</time>
      </trkpt>
      <trkpt lat="43.42303" lon="6.00406">
        <ele>314.79998779297</ele>
        <time>2015-02-11T15:38:54Z</time>
      </trkpt>
      <trkpt lat="43.42303" lon="6.00406">
        <ele>314.79998779297</ele>
        <time>2015-02-11T15:38:55Z</time>
      </trkpt>
      <trkpt lat="43.42303" lon="6.00406">
        <ele>314.79998779297</ele>
        <time>2015-02-11T15:39:05Z</time>
      </trkpt>
      <trkpt lat="43.42303" lon="6.00406">
        <ele>314.60000610352</ele>
        <time>2015-02-11T15:39:15Z</time>
      </trkpt>
      <trkpt lat="43.42304" lon="6.00406">
        <ele>315</ele>
        <time>2015-02-11T15:39:20Z</time>
      </trkpt>
      <trkpt lat="43.42304" lon="6.00407">
        <ele>315.20001220703</ele>
        <time>2015-02-11T15:39:21Z</time>
      </trkpt>
      <trkpt lat="43.42304" lon="6.00411">
        <ele>315.60000610352</ele>
        <time>2015-02-11T15:39:25Z</time>
      </trkpt>
      <trkpt lat="43.42304" lon="6.00414">
        <ele>315.79998779297</ele>
        <time>2015-02-11T15:39:27Z</time>
      </trkpt>
      <trkpt lat="43.42304" lon="6.00421">
        <ele>316</ele>
        <time>2015-02-11T15:39:30Z</time>
      </trkpt>
      <trkpt lat="43.42304" lon="6.00424">
        <ele>316.20001220703</ele>
        <time>2015-02-11T15:39:31Z</time>
      </trkpt>
      <trkpt lat="43.42304" lon="6.0043">
        <ele>316.39999389648</ele>
        <time>2015-02-11T15:39:33Z</time>
      </trkpt>
      <trkpt lat="43.42305" lon="6.00461">
        <ele>317.20001220703</ele>
        <time>2015-02-11T15:39:40Z</time>
      </trkpt>
      <trkpt lat="43.42306" lon="6.00482">
        <ele>318</ele>
        <time>2015-02-11T15:39:44Z</time>
      </trkpt>
      <trkpt lat="43.42307" lon="6.00487">
        <ele>318.20001220703</ele>
        <time>2015-02-11T15:39:45Z</time>
      </trkpt>
      <trkpt lat="43.42308" lon="6.00491">
        <ele>318.20001220703</ele>
        <time>2015-02-11T15:39:46Z</time>
      </trkpt>
      <trkpt lat="43.42308" lon="6.00505">
        <ele>318.60000610352</ele>
        <time>2015-02-11T15:39:49Z</time>
      </trkpt>
      <trkpt lat="43.42307" lon="6.00514">
        <ele>319</ele>
        <time>2015-02-11T15:39:51Z</time>
      </trkpt>
      <trkpt lat="43.42307" lon="6.00523">
        <ele>319.39999389648</ele>
        <time>2015-02-11T15:39:53Z</time>
      </trkpt>
      <trkpt lat="43.42306" lon="6.00544">
        <ele>319.79998779297</ele>
        <time>2015-02-11T15:39:58Z</time>
      </trkpt>
      <trkpt lat="43.42308" lon="6.00594">
        <ele>320.39999389648</ele>
        <time>2015-02-11T15:40:10Z</time>
      </trkpt>
      <trkpt lat="43.42309" lon="6.00607">
        <ele>320.39999389648</ele>
        <time>2015-02-11T15:40:13Z</time>
      </trkpt>
      <trkpt lat="43.4231" lon="6.00637">
        <ele>321.20001220703</ele>
        <time>2015-02-11T15:40:21Z</time>
      </trkpt>
      <trkpt lat="43.42311" lon="6.00639">
        <ele>321.60000610352</ele>
        <time>2015-02-11T15:40:22Z</time>
      </trkpt>
      <trkpt lat="43.42315" lon="6.00652">
        <ele>322.20001220703</ele>
        <time>2015-02-11T15:40:27Z</time>
      </trkpt>
      <trkpt lat="43.42316" lon="6.00654">
        <ele>322.60000610352</ele>
        <time>2015-02-11T15:40:29Z</time>
      </trkpt>
      <trkpt lat="43.42316" lon="6.00657">
        <ele>322.79998779297</ele>
        <time>2015-02-11T15:40:32Z</time>
      </trkpt>
      <trkpt lat="43.42321" lon="6.00676">
        <ele>323.60000610352</ele>
        <time>2015-02-11T15:40:40Z</time>
      </trkpt>
      <trkpt lat="43.42324" lon="6.00693">
        <ele>323.60000610352</ele>
        <time>2015-02-11T15:40:45Z</time>
      </trkpt>
      <trkpt lat="43.42323" lon="6.00697">
        <ele>323.39999389648</ele>
        <time>2015-02-11T15:40:46Z</time>
      </trkpt>
      <trkpt lat="43.42318" lon="6.00719">
        <ele>323.39999389648</ele>
        <time>2015-02-11T15:40:52Z</time>
      </trkpt>
      <trkpt lat="43.42314" lon="6.00735">
        <ele>324.20001220703</ele>
        <time>2015-02-11T15:40:58Z</time>
      </trkpt>
      <trkpt lat="43.42313" lon="6.00737">
        <ele>324.39999389648</ele>
        <time>2015-02-11T15:41:02Z</time>
      </trkpt>
      <trkpt lat="43.42314" lon="6.00739">
        <ele>323.79998779297</ele>
        <time>2015-02-11T15:41:07Z</time>
      </trkpt>
      <trkpt lat="43.42313" lon="6.00739">
        <ele>323.60000610352</ele>
        <time>2015-02-11T15:41:10Z</time>
      </trkpt>
      <trkpt lat="43.42313" lon="6.00739">
        <ele>323.60000610352</ele>
        <time>2015-02-11T15:41:14Z</time>
      </trkpt>
      <trkpt lat="43.42312" lon="6.00741">
        <ele>324.39999389648</ele>
        <time>2015-02-11T15:41:23Z</time>
      </trkpt>
      <trkpt lat="43.42311" lon="6.00743">
        <ele>324.39999389648</ele>
        <time>2015-02-11T15:41:24Z</time>
      </trkpt>
      <trkpt lat="43.42311" lon="6.00745">
        <ele>324.39999389648</ele>
        <time>2015-02-11T15:41:27Z</time>
      </trkpt>
      <trkpt lat="43.42311" lon="6.00745">
        <ele>324.39999389648</ele>
        <time>2015-02-11T15:41:30Z</time>
      </trkpt>
      <trkpt lat="43.42311" lon="6.00746">
        <ele>323.79998779297</ele>
        <time>2015-02-11T15:41:34Z</time>
      </trkpt>
      <trkpt lat="43.42311" lon="6.00745">
        <ele>323.79998779297</ele>
        <time>2015-02-11T15:41:36Z</time>
      </trkpt>
      <trkpt lat="43.42311" lon="6.00745">
        <ele>323.79998779297</ele>
        <time>2015-02-11T15:41:40Z</time>
      </trkpt>
      <trkpt lat="43.42311" lon="6.00745">
        <ele>324</ele>
        <time>2015-02-11T15:41:42Z</time>
      </trkpt>
      <trkpt lat="43.42311" lon="6.00745">
        <ele>323.79998779297</ele>
        <time>2015-02-11T15:41:50Z</time>
      </trkpt>
      <trkpt lat="43.42312" lon="6.00745">
        <ele>323.79998779297</ele>
        <time>2015-02-11T15:41:56Z</time>
      </trkpt>
      <trkpt lat="43.42311" lon="6.00745">
        <ele>324</ele>
        <time>2015-02-11T15:41:58Z</time>
      </trkpt>
      <trkpt lat="43.42312" lon="6.00745">
        <ele>324.20001220703</ele>
        <time>2015-02-11T15:41:59Z</time>
      </trkpt>
      <trkpt lat="43.42311" lon="6.00748">
        <ele>324.60000610352</ele>
        <time>2015-02-11T15:42:02Z</time>
      </trkpt>
      <trkpt lat="43.42311" lon="6.00749">
        <ele>324.79998779297</ele>
        <time>2015-02-11T15:42:03Z</time>
      </trkpt>
      <trkpt lat="43.42311" lon="6.00752">
        <ele>324.79998779297</ele>
        <time>2015-02-11T15:42:04Z</time>
      </trkpt>
      <trkpt lat="43.42311" lon="6.00754">
        <ele>325</ele>
        <time>2015-02-11T15:42:05Z</time>
      </trkpt>
      <trkpt lat="43.4231" lon="6.00775">
        <ele>325.20001220703</ele>
        <time>2015-02-11T15:42:11Z</time>
      </trkpt>
      <trkpt lat="43.42305" lon="6.00792">
        <ele>325.20001220703</ele>
        <time>2015-02-11T15:42:15Z</time>
      </trkpt>
      <trkpt lat="43.42301" lon="6.00809">
        <ele>325</ele>
        <time>2015-02-11T15:42:18Z</time>
      </trkpt>
      <trkpt lat="43.42298" lon="6.00824">
        <ele>325.20001220703</ele>
        <time>2015-02-11T15:42:21Z</time>
      </trkpt>
      <trkpt lat="43.42297" lon="6.0083">
        <ele>325.39999389648</ele>
        <time>2015-02-11T15:42:22Z</time>
      </trkpt>
      <trkpt lat="43.42294" lon="6.00856">
        <ele>325.39999389648</ele>
        <time>2015-02-11T15:42:27Z</time>
      </trkpt>
      <trkpt lat="43.42292" lon="6.00875">
        <ele>325.20001220703</ele>
        <time>2015-02-11T15:42:31Z</time>
      </trkpt>
      <trkpt lat="43.42289" lon="6.00899">
        <ele>325.39999389648</ele>
        <time>2015-02-11T15:42:36Z</time>
      </trkpt>
      <trkpt lat="43.42285" lon="6.00932">
        <ele>325.20001220703</ele>
        <time>2015-02-11T15:42:42Z</time>
      </trkpt>
      <trkpt lat="43.42281" lon="6.00949">
        <ele>324.60000610352</ele>
        <time>2015-02-11T15:42:45Z</time>
      </trkpt>
      <trkpt lat="43.42279" lon="6.00956">
        <ele>324</ele>
        <time>2015-02-11T15:42:47Z</time>
      </trkpt>
      <trkpt lat="43.42277" lon="6.00962">
        <ele>323.60000610352</ele>
        <time>2015-02-11T15:42:49Z</time>
      </trkpt>
      <trkpt lat="43.42274" lon="6.00971">
        <ele>323</ele>
        <time>2015-02-11T15:42:51Z</time>
      </trkpt>
      <trkpt lat="43.42271" lon="6.00976">
        <ele>322.60000610352</ele>
        <time>2015-02-11T15:42:52Z</time>
      </trkpt>
      <trkpt lat="43.42268" lon="6.00981">
        <ele>322</ele>
        <time>2015-02-11T15:42:53Z</time>
      </trkpt>
      <trkpt lat="43.42258" lon="6.00999">
        <ele>320.60000610352</ele>
        <time>2015-02-11T15:42:56Z</time>
      </trkpt>
      <trkpt lat="43.42254" lon="6.01003">
        <ele>321</ele>
        <time>2015-02-11T15:42:57Z</time>
      </trkpt>
      <trkpt lat="43.42244" lon="6.01005">
        <ele>319.60000610352</ele>
        <time>2015-02-11T15:42:59Z</time>
      </trkpt>
      <trkpt lat="43.4224" lon="6.01002">
        <ele>318.79998779297</ele>
        <time>2015-02-11T15:43:00Z</time>
      </trkpt>
      <trkpt lat="43.42237" lon="6.00996">
        <ele>318.39999389648</ele>
        <time>2015-02-11T15:43:01Z</time>
      </trkpt>
      <trkpt lat="43.42235" lon="6.00989">
        <ele>318.20001220703</ele>
        <time>2015-02-11T15:43:02Z</time>
      </trkpt>
      <trkpt lat="43.42234" lon="6.00981">
        <ele>317.60000610352</ele>
        <time>2015-02-11T15:43:03Z</time>
      </trkpt>
      <trkpt lat="43.42235" lon="6.00973">
        <ele>317</ele>
        <time>2015-02-11T15:43:04Z</time>
      </trkpt>
      <trkpt lat="43.42233" lon="6.00946">
        <ele>315.60000610352</ele>
        <time>2015-02-11T15:43:07Z</time>
      </trkpt>
      <trkpt lat="43.42232" lon="6.00936">
        <ele>315</ele>
        <time>2015-02-11T15:43:08Z</time>
      </trkpt>
      <trkpt lat="43.4223" lon="6.00926">
        <ele>313.79998779297</ele>
        <time>2015-02-11T15:43:09Z</time>
      </trkpt>
      <trkpt lat="43.42225" lon="6.00894">
        <ele>313.60000610352</ele>
        <time>2015-02-11T15:43:12Z</time>
      </trkpt>
      <trkpt lat="43.42222" lon="6.00873">
        <ele>312</ele>
        <time>2015-02-11T15:43:14Z</time>
      </trkpt>
      <trkpt lat="43.4222" lon="6.00852">
        <ele>310.60000610352</ele>
        <time>2015-02-11T15:43:16Z</time>
      </trkpt>
      <trkpt lat="43.42217" lon="6.00822">
        <ele>309.39999389648</ele>
        <time>2015-02-11T15:43:19Z</time>
      </trkpt>
      <trkpt lat="43.42217" lon="6.00812">
        <ele>309</ele>
        <time>2015-02-11T15:43:20Z</time>
      </trkpt>
      <trkpt lat="43.42217" lon="6.00794">
        <ele>308.20001220703</ele>
        <time>2015-02-11T15:43:22Z</time>
      </trkpt>
      <trkpt lat="43.42216" lon="6.00769">
        <ele>306.79998779297</ele>
        <time>2015-02-11T15:43:25Z</time>
      </trkpt>
      <trkpt lat="43.42216" lon="6.00763">
        <ele>306</ele>
        <time>2015-02-11T15:43:26Z</time>
      </trkpt>
      <trkpt lat="43.42215" lon="6.00756">
        <ele>305.39999389648</ele>
        <time>2015-02-11T15:43:27Z</time>
      </trkpt>
      <trkpt lat="43.42213" lon="6.00749">
        <ele>304.20001220703</ele>
        <time>2015-02-11T15:43:29Z</time>
      </trkpt>
      <trkpt lat="43.42208" lon="6.00749">
        <ele>303.20001220703</ele>
        <time>2015-02-11T15:43:32Z</time>
      </trkpt>
      <trkpt lat="43.42205" lon="6.00761">
        <ele>303.20001220703</ele>
        <time>2015-02-11T15:43:35Z</time>
      </trkpt>
      <trkpt lat="43.42204" lon="6.00766">
        <ele>303.39999389648</ele>
        <time>2015-02-11T15:43:36Z</time>
      </trkpt>
      <trkpt lat="43.42204" lon="6.00771">
        <ele>303.60000610352</ele>
        <time>2015-02-11T15:43:37Z</time>
      </trkpt>
      <trkpt lat="43.42203" lon="6.00776">
        <ele>303.60000610352</ele>
        <time>2015-02-11T15:43:38Z</time>
      </trkpt>
      <trkpt lat="43.42202" lon="6.00782">
        <ele>303.60000610352</ele>
        <time>2015-02-11T15:43:39Z</time>
      </trkpt>
      <trkpt lat="43.422" lon="6.00793">
        <ele>303.60000610352</ele>
        <time>2015-02-11T15:43:41Z</time>
      </trkpt>
      <trkpt lat="43.42194" lon="6.00837">
        <ele>303.79998779297</ele>
        <time>2015-02-11T15:43:48Z</time>
      </trkpt>
      <trkpt lat="43.42194" lon="6.00844">
        <ele>303.39999389648</ele>
        <time>2015-02-11T15:43:49Z</time>
      </trkpt>
      <trkpt lat="43.42185" lon="6.00902">
        <ele>303.39999389648</ele>
        <time>2015-02-11T15:43:57Z</time>
      </trkpt>
      <trkpt lat="43.42184" lon="6.0091">
        <ele>303</ele>
        <time>2015-02-11T15:43:58Z</time>
      </trkpt>
      <trkpt lat="43.42177" lon="6.00955">
        <ele>303.20001220703</ele>
        <time>2015-02-11T15:44:04Z</time>
      </trkpt>
      <trkpt lat="43.42167" lon="6.01013">
        <ele>302.60000610352</ele>
        <time>2015-02-11T15:44:12Z</time>
      </trkpt>
      <trkpt lat="43.42166" lon="6.0102">
        <ele>302.39999389648</ele>
        <time>2015-02-11T15:44:13Z</time>
      </trkpt>
      <trkpt lat="43.42159" lon="6.01071">
        <ele>302.39999389648</ele>
        <time>2015-02-11T15:44:20Z</time>
      </trkpt>
      <trkpt lat="43.42155" lon="6.01096">
        <ele>302.79998779297</ele>
        <time>2015-02-11T15:44:24Z</time>
      </trkpt>
      <trkpt lat="43.42153" lon="6.01108">
        <ele>303.20001220703</ele>
        <time>2015-02-11T15:44:26Z</time>
      </trkpt>
      <trkpt lat="43.42149" lon="6.01131">
        <ele>304</ele>
        <time>2015-02-11T15:44:30Z</time>
      </trkpt>
      <trkpt lat="43.42147" lon="6.01144">
        <ele>304.20001220703</ele>
        <time>2015-02-11T15:44:32Z</time>
      </trkpt>
      <trkpt lat="43.42145" lon="6.01157">
        <ele>303.79998779297</ele>
        <time>2015-02-11T15:44:34Z</time>
      </trkpt>
      <trkpt lat="43.42139" lon="6.01183">
        <ele>302.79998779297</ele>
        <time>2015-02-11T15:44:38Z</time>
      </trkpt>
      <trkpt lat="43.42133" lon="6.01207">
        <ele>302.39999389648</ele>
        <time>2015-02-11T15:44:41Z</time>
      </trkpt>
      <trkpt lat="43.4213" lon="6.01225">
        <ele>301.79998779297</ele>
        <time>2015-02-11T15:44:43Z</time>
      </trkpt>
      <trkpt lat="43.42126" lon="6.01242">
        <ele>300.60000610352</ele>
        <time>2015-02-11T15:44:45Z</time>
      </trkpt>
      <trkpt lat="43.42121" lon="6.01267">
        <ele>300</ele>
        <time>2015-02-11T15:44:48Z</time>
      </trkpt>
      <trkpt lat="43.42116" lon="6.0129">
        <ele>299.39999389648</ele>
        <time>2015-02-11T15:44:51Z</time>
      </trkpt>
      <trkpt lat="43.42108" lon="6.01329">
        <ele>299.79998779297</ele>
        <time>2015-02-11T15:44:56Z</time>
      </trkpt>
      <trkpt lat="43.42098" lon="6.01379">
        <ele>298.79998779297</ele>
        <time>2015-02-11T15:45:03Z</time>
      </trkpt>
      <trkpt lat="43.42087" lon="6.01434">
        <ele>299.60000610352</ele>
        <time>2015-02-11T15:45:11Z</time>
      </trkpt>
      <trkpt lat="43.42087" lon="6.0144">
        <ele>299.79998779297</ele>
        <time>2015-02-11T15:45:12Z</time>
      </trkpt>
      <trkpt lat="43.42086" lon="6.01459">
        <ele>300</ele>
        <time>2015-02-11T15:45:16Z</time>
      </trkpt>
      <trkpt lat="43.42086" lon="6.01462">
        <ele>300.60000610352</ele>
        <time>2015-02-11T15:45:17Z</time>
      </trkpt>
      <trkpt lat="43.42085" lon="6.01474">
        <ele>301.20001220703</ele>
        <time>2015-02-11T15:45:20Z</time>
      </trkpt>
      <trkpt lat="43.42085" lon="6.01477">
        <ele>301.79998779297</ele>
        <time>2015-02-11T15:45:21Z</time>
      </trkpt>
      <trkpt lat="43.42085" lon="6.01485">
        <ele>302</ele>
        <time>2015-02-11T15:45:23Z</time>
      </trkpt>
      <trkpt lat="43.42085" lon="6.01501">
        <ele>302.79998779297</ele>
        <time>2015-02-11T15:45:27Z</time>
      </trkpt>
      <trkpt lat="43.42086" lon="6.01509">
        <ele>303.20001220703</ele>
        <time>2015-02-11T15:45:29Z</time>
      </trkpt>
      <trkpt lat="43.42087" lon="6.01522">
        <ele>303.79998779297</ele>
        <time>2015-02-11T15:45:32Z</time>
      </trkpt>
      <trkpt lat="43.42087" lon="6.01538">
        <ele>304.20001220703</ele>
        <time>2015-02-11T15:45:36Z</time>
      </trkpt>
      <trkpt lat="43.42088" lon="6.01556">
        <ele>305.20001220703</ele>
        <time>2015-02-11T15:45:41Z</time>
      </trkpt>
      <trkpt lat="43.42088" lon="6.0156">
        <ele>305.39999389648</ele>
        <time>2015-02-11T15:45:42Z</time>
      </trkpt>
      <trkpt lat="43.42089" lon="6.01585">
        <ele>306.20001220703</ele>
        <time>2015-02-11T15:45:48Z</time>
      </trkpt>
      <trkpt lat="43.42089" lon="6.01589">
        <ele>306.20001220703</ele>
        <time>2015-02-11T15:45:49Z</time>
      </trkpt>
      <trkpt lat="43.42089" lon="6.01604">
        <ele>306.79998779297</ele>
        <time>2015-02-11T15:45:53Z</time>
      </trkpt>
      <trkpt lat="43.42089" lon="6.0161">
        <ele>307</ele>
        <time>2015-02-11T15:45:55Z</time>
      </trkpt>
      <trkpt lat="43.42088" lon="6.01617">
        <ele>307.60000610352</ele>
        <time>2015-02-11T15:45:59Z</time>
      </trkpt>
      <trkpt lat="43.42087" lon="6.01619">
        <ele>307.39999389648</ele>
        <time>2015-02-11T15:46:00Z</time>
      </trkpt>
      <trkpt lat="43.42087" lon="6.01621">
        <ele>307.39999389648</ele>
        <time>2015-02-11T15:46:03Z</time>
      </trkpt>
      <trkpt lat="43.42087" lon="6.01621">
        <ele>307.79998779297</ele>
        <time>2015-02-11T15:46:06Z</time>
      </trkpt>
      <trkpt lat="43.42087" lon="6.01621">
        <ele>307.60000610352</ele>
        <time>2015-02-11T15:46:09Z</time>
      </trkpt>
      <trkpt lat="43.42087" lon="6.01622">
        <ele>307.79998779297</ele>
        <time>2015-02-11T15:46:24Z</time>
      </trkpt>
      <trkpt lat="43.42087" lon="6.01622">
        <ele>308</ele>
        <time>2015-02-11T15:46:27Z</time>
      </trkpt>
      <trkpt lat="43.42087" lon="6.01622">
        <ele>308</ele>
        <time>2015-02-11T15:46:28Z</time>
      </trkpt>
      <trkpt lat="43.42086" lon="6.01622">
        <ele>308.20001220703</ele>
        <time>2015-02-11T15:46:32Z</time>
      </trkpt>
      <trkpt lat="43.42086" lon="6.01622">
        <ele>308</ele>
        <time>2015-02-11T15:46:35Z</time>
      </trkpt>
      <trkpt lat="43.42086" lon="6.01622">
        <ele>308.20001220703</ele>
        <time>2015-02-11T15:46:40Z</time>
      </trkpt>
      <trkpt lat="43.42086" lon="6.01622">
        <ele>308.20001220703</ele>
        <time>2015-02-11T15:46:50Z</time>
      </trkpt>
      <trkpt lat="43.42086" lon="6.01622">
        <ele>308</ele>
        <time>2015-02-11T15:46:59Z</time>
      </trkpt>
      <trkpt lat="43.42086" lon="6.01623">
        <ele>308</ele>
        <time>2015-02-11T15:47:00Z</time>
      </trkpt>
      <trkpt lat="43.42086" lon="6.01623">
        <ele>308.39999389648</ele>
        <time>2015-02-11T15:47:12Z</time>
      </trkpt>
      <trkpt lat="43.42086" lon="6.01623">
        <ele>308.20001220703</ele>
        <time>2015-02-11T15:47:23Z</time>
      </trkpt>
      <trkpt lat="43.42085" lon="6.01625">
        <ele>308</ele>
        <time>2015-02-11T15:47:37Z</time>
      </trkpt>
      <trkpt lat="43.42079" lon="6.01642">
        <ele>308.39999389648</ele>
        <time>2015-02-11T15:47:42Z</time>
      </trkpt>
      <trkpt lat="43.42068" lon="6.01669">
        <ele>307.39999389648</ele>
        <time>2015-02-11T15:47:47Z</time>
      </trkpt>
      <trkpt lat="43.42065" lon="6.01677">
        <ele>306.60000610352</ele>
        <time>2015-02-11T15:47:48Z</time>
      </trkpt>
      <trkpt lat="43.42058" lon="6.01692">
        <ele>304.79998779297</ele>
        <time>2015-02-11T15:47:50Z</time>
      </trkpt>
      <trkpt lat="43.4205" lon="6.01709">
        <ele>303.39999389648</ele>
        <time>2015-02-11T15:47:52Z</time>
      </trkpt>
      <trkpt lat="43.42043" lon="6.01728">
        <ele>302.39999389648</ele>
        <time>2015-02-11T15:47:54Z</time>
      </trkpt>
      <trkpt lat="43.42038" lon="6.01738">
        <ele>301.60000610352</ele>
        <time>2015-02-11T15:47:55Z</time>
      </trkpt>
      <trkpt lat="43.42029" lon="6.01759">
        <ele>300.20001220703</ele>
        <time>2015-02-11T15:47:57Z</time>
      </trkpt>
      <trkpt lat="43.42019" lon="6.0178">
        <ele>298.60000610352</ele>
        <time>2015-02-11T15:47:59Z</time>
      </trkpt>
      <trkpt lat="43.42006" lon="6.0181">
        <ele>297</ele>
        <time>2015-02-11T15:48:02Z</time>
      </trkpt>
      <trkpt lat="43.42003" lon="6.0182">
        <ele>296.39999389648</ele>
        <time>2015-02-11T15:48:04Z</time>
      </trkpt>
      <trkpt lat="43.42001" lon="6.01824">
        <ele>296</ele>
        <time>2015-02-11T15:48:07Z</time>
      </trkpt>
      <trkpt lat="43.42001" lon="6.01826">
        <ele>295.79998779297</ele>
        <time>2015-02-11T15:48:08Z</time>
      </trkpt>
      <trkpt lat="43.41998" lon="6.01833">
        <ele>295.39999389648</ele>
        <time>2015-02-11T15:48:12Z</time>
      </trkpt>
      <trkpt lat="43.41997" lon="6.01838">
        <ele>295.39999389648</ele>
        <time>2015-02-11T15:48:15Z</time>
      </trkpt>
      <trkpt lat="43.41995" lon="6.01845">
        <ele>295.79998779297</ele>
        <time>2015-02-11T15:48:18Z</time>
      </trkpt>
      <trkpt lat="43.41993" lon="6.01854">
        <ele>296.20001220703</ele>
        <time>2015-02-11T15:48:21Z</time>
      </trkpt>
      <trkpt lat="43.4199" lon="6.01871">
        <ele>296.79998779297</ele>
        <time>2015-02-11T15:48:26Z</time>
      </trkpt>
      <trkpt lat="43.4199" lon="6.01872">
        <ele>296.79998779297</ele>
        <time>2015-02-11T15:48:27Z</time>
      </trkpt>
      <trkpt lat="43.4199" lon="6.01873">
        <ele>297</ele>
        <time>2015-02-11T15:48:28Z</time>
      </trkpt>
      <trkpt lat="43.4199" lon="6.01874">
        <ele>297</ele>
        <time>2015-02-11T15:48:33Z</time>
      </trkpt>
      <trkpt lat="43.4199" lon="6.01875">
        <ele>297.20001220703</ele>
        <time>2015-02-11T15:48:41Z</time>
      </trkpt>
      <trkpt lat="43.4199" lon="6.01875">
        <ele>297.20001220703</ele>
        <time>2015-02-11T15:48:51Z</time>
      </trkpt>
      <trkpt lat="43.4199" lon="6.01879">
        <ele>297.39999389648</ele>
        <time>2015-02-11T15:48:57Z</time>
      </trkpt>
      <trkpt lat="43.4199" lon="6.01881">
        <ele>297.39999389648</ele>
        <time>2015-02-11T15:49:03Z</time>
      </trkpt>
      <trkpt lat="43.4199" lon="6.01881">
        <ele>297.39999389648</ele>
        <time>2015-02-11T15:49:05Z</time>
      </trkpt>
      <trkpt lat="43.4199" lon="6.01881">
        <ele>296.60000610352</ele>
        <time>2015-02-11T15:49:12Z</time>
      </trkpt>
      <trkpt lat="43.4199" lon="6.01882">
        <ele>296.79998779297</ele>
        <time>2015-02-11T15:49:15Z</time>
      </trkpt>
      <trkpt lat="43.41991" lon="6.01882">
        <ele>296.79998779297</ele>
        <time>2015-02-11T15:49:26Z</time>
      </trkpt>
      <trkpt lat="43.41991" lon="6.01882">
        <ele>296.79998779297</ele>
        <time>2015-02-11T15:49:48Z</time>
      </trkpt>
      <trkpt lat="43.41991" lon="6.01882">
        <ele>296.39999389648</ele>
        <time>2015-02-11T15:51:13Z</time>
      </trkpt>
      <trkpt lat="43.41991" lon="6.01882">
        <ele>296.20001220703</ele>
        <time>2015-02-11T15:57:53Z</time>
      </trkpt>
      <trkpt lat="43.41991" lon="6.01882">
        <ele>296.20001220703</ele>
        <time>2015-02-11T15:58:11Z</time>
      </trkpt>
      <trkpt lat="43.41991" lon="6.01883">
        <ele>296.79998779297</ele>
        <time>2015-02-11T15:58:15Z</time>
      </trkpt>
      <trkpt lat="43.41991" lon="6.01883">
        <ele>296.79998779297</ele>
        <time>2015-02-11T15:58:16Z</time>
      </trkpt>
      <trkpt lat="43.4199" lon="6.01885">
        <ele>297.20001220703</ele>
        <time>2015-02-11T15:58:17Z</time>
      </trkpt>
      <trkpt lat="43.41988" lon="6.01894">
        <ele>297.20001220703</ele>
        <time>2015-02-11T15:58:20Z</time>
      </trkpt>
      <trkpt lat="43.41985" lon="6.01908">
        <ele>297.60000610352</ele>
        <time>2015-02-11T15:58:24Z</time>
      </trkpt>
      <trkpt lat="43.41984" lon="6.01913">
        <ele>297.79998779297</ele>
        <time>2015-02-11T15:58:25Z</time>
      </trkpt>
      <trkpt lat="43.4198" lon="6.01936">
        <ele>298.39999389648</ele>
        <time>2015-02-11T15:58:30Z</time>
      </trkpt>
      <trkpt lat="43.41974" lon="6.01964">
        <ele>298.39999389648</ele>
        <time>2015-02-11T15:58:35Z</time>
      </trkpt>
      <trkpt lat="43.4197" lon="6.01983">
        <ele>298.20001220703</ele>
        <time>2015-02-11T15:58:38Z</time>
      </trkpt>
      <trkpt lat="43.41962" lon="6.02018">
        <ele>298</ele>
        <time>2015-02-11T15:58:43Z</time>
      </trkpt>
      <trkpt lat="43.41961" lon="6.02025">
        <ele>297.60000610352</ele>
        <time>2015-02-11T15:58:44Z</time>
      </trkpt>
      <trkpt lat="43.41957" lon="6.02056">
        <ele>298.60000610352</ele>
        <time>2015-02-11T15:58:49Z</time>
      </trkpt>
      <trkpt lat="43.41956" lon="6.02061">
        <ele>299</ele>
        <time>2015-02-11T15:58:50Z</time>
      </trkpt>
      <trkpt lat="43.41954" lon="6.02079">
        <ele>299.60000610352</ele>
        <time>2015-02-11T15:58:53Z</time>
      </trkpt>
      <trkpt lat="43.4195" lon="6.02097">
        <ele>300.20001220703</ele>
        <time>2015-02-11T15:58:56Z</time>
      </trkpt>
      <trkpt lat="43.41943" lon="6.02133">
        <ele>299</ele>
        <time>2015-02-11T15:59:01Z</time>
      </trkpt>
      <trkpt lat="43.41939" lon="6.02149">
        <ele>298.60000610352</ele>
        <time>2015-02-11T15:59:03Z</time>
      </trkpt>
      <trkpt lat="43.41933" lon="6.02184">
        <ele>298</ele>
        <time>2015-02-11T15:59:07Z</time>
      </trkpt>
      <trkpt lat="43.41932" lon="6.02201">
        <ele>297.79998779297</ele>
        <time>2015-02-11T15:59:09Z</time>
      </trkpt>
      <trkpt lat="43.4193" lon="6.02218">
        <ele>297.60000610352</ele>
        <time>2015-02-11T15:59:11Z</time>
      </trkpt>
      <trkpt lat="43.41925" lon="6.0224">
        <ele>296.79998779297</ele>
        <time>2015-02-11T15:59:14Z</time>
      </trkpt>
      <trkpt lat="43.41924" lon="6.02247">
        <ele>296.79998779297</ele>
        <time>2015-02-11T15:59:15Z</time>
      </trkpt>
      <trkpt lat="43.41916" lon="6.02292">
        <ele>296.60000610352</ele>
        <time>2015-02-11T15:59:21Z</time>
      </trkpt>
      <trkpt lat="43.41907" lon="6.02349">
        <ele>296</ele>
        <time>2015-02-11T15:59:28Z</time>
      </trkpt>
      <trkpt lat="43.419" lon="6.02383">
        <ele>295.79998779297</ele>
        <time>2015-02-11T15:59:32Z</time>
      </trkpt>
      <trkpt lat="43.41896" lon="6.02402">
        <ele>295.20001220703</ele>
        <time>2015-02-11T15:59:34Z</time>
      </trkpt>
      <trkpt lat="43.41895" lon="6.02412">
        <ele>294.79998779297</ele>
        <time>2015-02-11T15:59:35Z</time>
      </trkpt>
      <trkpt lat="43.41891" lon="6.02434">
        <ele>293.60000610352</ele>
        <time>2015-02-11T15:59:37Z</time>
      </trkpt>
      <trkpt lat="43.41888" lon="6.02457">
        <ele>292.39999389648</ele>
        <time>2015-02-11T15:59:39Z</time>
      </trkpt>
      <trkpt lat="43.41885" lon="6.02481">
        <ele>290.60000610352</ele>
        <time>2015-02-11T15:59:41Z</time>
      </trkpt>
      <trkpt lat="43.41881" lon="6.02515">
        <ele>289.60000610352</ele>
        <time>2015-02-11T15:59:44Z</time>
      </trkpt>
      <trkpt lat="43.41877" lon="6.02566">
        <ele>288.60000610352</ele>
        <time>2015-02-11T15:59:49Z</time>
      </trkpt>
      <trkpt lat="43.41874" lon="6.02594">
        <ele>288.60000610352</ele>
        <time>2015-02-11T15:59:52Z</time>
      </trkpt>
      <trkpt lat="43.41869" lon="6.02655">
        <ele>288.39999389648</ele>
        <time>2015-02-11T15:59:59Z</time>
      </trkpt>
      <trkpt lat="43.41866" lon="6.02719">
        <ele>287.39999389648</ele>
        <time>2015-02-11T16:00:06Z</time>
      </trkpt>
      <trkpt lat="43.41866" lon="6.02748">
        <ele>286.39999389648</ele>
        <time>2015-02-11T16:00:09Z</time>
      </trkpt>
      <trkpt lat="43.41865" lon="6.02775">
        <ele>286</ele>
        <time>2015-02-11T16:00:12Z</time>
      </trkpt>
      <trkpt lat="43.41864" lon="6.02819">
        <ele>285</ele>
        <time>2015-02-11T16:00:17Z</time>
      </trkpt>
      <trkpt lat="43.41864" lon="6.02844">
        <ele>284</ele>
        <time>2015-02-11T16:00:20Z</time>
      </trkpt>
      <trkpt lat="43.41864" lon="6.02861">
        <ele>283.20001220703</ele>
        <time>2015-02-11T16:00:22Z</time>
      </trkpt>
      <trkpt lat="43.41865" lon="6.0287">
        <ele>283</ele>
        <time>2015-02-11T16:00:23Z</time>
      </trkpt>
      <trkpt lat="43.41862" lon="6.02913">
        <ele>282.60000610352</ele>
        <time>2015-02-11T16:00:28Z</time>
      </trkpt>
      <trkpt lat="43.41859" lon="6.02945">
        <ele>283.39999389648</ele>
        <time>2015-02-11T16:00:33Z</time>
      </trkpt>
      <trkpt lat="43.41858" lon="6.02956">
        <ele>284.20001220703</ele>
        <time>2015-02-11T16:00:35Z</time>
      </trkpt>
      <trkpt lat="43.41857" lon="6.0297">
        <ele>285.39999389648</ele>
        <time>2015-02-11T16:00:38Z</time>
      </trkpt>
      <trkpt lat="43.41857" lon="6.02978">
        <ele>286</ele>
        <time>2015-02-11T16:00:40Z</time>
      </trkpt>
      <trkpt lat="43.41857" lon="6.02993">
        <ele>286.39999389648</ele>
        <time>2015-02-11T16:00:44Z</time>
      </trkpt>
      <trkpt lat="43.41858" lon="6.03007">
        <ele>287.39999389648</ele>
        <time>2015-02-11T16:00:48Z</time>
      </trkpt>
      <trkpt lat="43.41859" lon="6.03037">
        <ele>288.79998779297</ele>
        <time>2015-02-11T16:00:56Z</time>
      </trkpt>
      <trkpt lat="43.41861" lon="6.03063">
        <ele>289</ele>
        <time>2015-02-11T16:01:03Z</time>
      </trkpt>
      <trkpt lat="43.41861" lon="6.0308">
        <ele>290</ele>
        <time>2015-02-11T16:01:07Z</time>
      </trkpt>
      <trkpt lat="43.41861" lon="6.03099">
        <ele>289.79998779297</ele>
        <time>2015-02-11T16:01:11Z</time>
      </trkpt>
      <trkpt lat="43.41862" lon="6.03138">
        <ele>290.20001220703</ele>
        <time>2015-02-11T16:01:19Z</time>
      </trkpt>
      <trkpt lat="43.41862" lon="6.03161">
        <ele>290.60000610352</ele>
        <time>2015-02-11T16:01:25Z</time>
      </trkpt>
      <trkpt lat="43.41863" lon="6.03164">
        <ele>290.79998779297</ele>
        <time>2015-02-11T16:01:30Z</time>
      </trkpt>
      <trkpt lat="43.41863" lon="6.03164">
        <ele>291</ele>
        <time>2015-02-11T16:01:35Z</time>
      </trkpt>
      <trkpt lat="43.41862" lon="6.03164">
        <ele>290.79998779297</ele>
        <time>2015-02-11T16:01:40Z</time>
      </trkpt>
      <trkpt lat="43.41863" lon="6.03164">
        <ele>291</ele>
        <time>2015-02-11T16:01:43Z</time>
      </trkpt>
      <trkpt lat="43.41863" lon="6.03165">
        <ele>290.79998779297</ele>
        <time>2015-02-11T16:01:47Z</time>
      </trkpt>
      <trkpt lat="43.41864" lon="6.0317">
        <ele>290.79998779297</ele>
        <time>2015-02-11T16:01:50Z</time>
      </trkpt>
      <trkpt lat="43.41865" lon="6.03178">
        <ele>291</ele>
        <time>2015-02-11T16:01:53Z</time>
      </trkpt>
      <trkpt lat="43.41865" lon="6.03185">
        <ele>291</ele>
        <time>2015-02-11T16:01:55Z</time>
      </trkpt>
      <trkpt lat="43.41865" lon="6.03188">
        <ele>291</ele>
        <time>2015-02-11T16:01:56Z</time>
      </trkpt>
      <trkpt lat="43.41865" lon="6.03211">
        <ele>291.20001220703</ele>
        <time>2015-02-11T16:02:01Z</time>
      </trkpt>
      <trkpt lat="43.41866" lon="6.03232">
        <ele>292</ele>
        <time>2015-02-11T16:02:06Z</time>
      </trkpt>
      <trkpt lat="43.41866" lon="6.03243">
        <ele>292.39999389648</ele>
        <time>2015-02-11T16:02:09Z</time>
      </trkpt>
      <trkpt lat="43.41868" lon="6.03258">
        <ele>293</ele>
        <time>2015-02-11T16:02:13Z</time>
      </trkpt>
      <trkpt lat="43.41869" lon="6.03282">
        <ele>294.39999389648</ele>
        <time>2015-02-11T16:02:20Z</time>
      </trkpt>
      <trkpt lat="43.41869" lon="6.03292">
        <ele>294.20001220703</ele>
        <time>2015-02-11T16:02:24Z</time>
      </trkpt>
      <trkpt lat="43.41869" lon="6.033">
        <ele>294.20001220703</ele>
        <time>2015-02-11T16:02:29Z</time>
      </trkpt>
      <trkpt lat="43.41869" lon="6.03301">
        <ele>294.20001220703</ele>
        <time>2015-02-11T16:02:30Z</time>
      </trkpt>
      <trkpt lat="43.41869" lon="6.03302">
        <ele>294.39999389648</ele>
        <time>2015-02-11T16:02:37Z</time>
      </trkpt>
      <trkpt lat="43.41869" lon="6.03302">
        <ele>294.79998779297</ele>
        <time>2015-02-11T16:02:41Z</time>
      </trkpt>
      <trkpt lat="43.41869" lon="6.03302">
        <ele>294.20001220703</ele>
        <time>2015-02-11T16:02:49Z</time>
      </trkpt>
      <trkpt lat="43.41869" lon="6.03302">
        <ele>294.39999389648</ele>
        <time>2015-02-11T16:03:02Z</time>
      </trkpt>
      <trkpt lat="43.41869" lon="6.03302">
        <ele>294.60000610352</ele>
        <time>2015-02-11T16:03:07Z</time>
      </trkpt>
      <trkpt lat="43.41869" lon="6.03302">
        <ele>294</ele>
        <time>2015-02-11T16:03:18Z</time>
      </trkpt>
      <trkpt lat="43.41869" lon="6.03302">
        <ele>294.20001220703</ele>
        <time>2015-02-11T16:03:19Z</time>
      </trkpt>
      <trkpt lat="43.41869" lon="6.03305">
        <ele>294.39999389648</ele>
        <time>2015-02-11T16:03:23Z</time>
      </trkpt>
      <trkpt lat="43.4187" lon="6.03305">
        <ele>294.39999389648</ele>
        <time>2015-02-11T16:03:24Z</time>
      </trkpt>
      <trkpt lat="43.4187" lon="6.03305">
        <ele>294.20001220703</ele>
        <time>2015-02-11T16:03:30Z</time>
      </trkpt>
      <trkpt lat="43.4187" lon="6.03306">
        <ele>294.20001220703</ele>
        <time>2015-02-11T16:03:34Z</time>
      </trkpt>
      <trkpt lat="43.4187" lon="6.0331">
        <ele>294.20001220703</ele>
        <time>2015-02-11T16:03:36Z</time>
      </trkpt>
      <trkpt lat="43.4187" lon="6.03313">
        <ele>294</ele>
        <time>2015-02-11T16:03:37Z</time>
      </trkpt>
      <trkpt lat="43.41869" lon="6.03316">
        <ele>294.20001220703</ele>
        <time>2015-02-11T16:03:38Z</time>
      </trkpt>
      <trkpt lat="43.41869" lon="6.0332">
        <ele>294.20001220703</ele>
        <time>2015-02-11T16:03:39Z</time>
      </trkpt>
      <trkpt lat="43.41869" lon="6.03324">
        <ele>294.20001220703</ele>
        <time>2015-02-11T16:03:40Z</time>
      </trkpt>
      <trkpt lat="43.41869" lon="6.03329">
        <ele>294.39999389648</ele>
        <time>2015-02-11T16:03:41Z</time>
      </trkpt>
      <trkpt lat="43.41869" lon="6.03334">
        <ele>294.39999389648</ele>
        <time>2015-02-11T16:03:42Z</time>
      </trkpt>
      <trkpt lat="43.41869" lon="6.03346">
        <ele>294.20001220703</ele>
        <time>2015-02-11T16:03:44Z</time>
      </trkpt>
      <trkpt lat="43.41868" lon="6.0336">
        <ele>293.60000610352</ele>
        <time>2015-02-11T16:03:46Z</time>
      </trkpt>
      <trkpt lat="43.41867" lon="6.03374">
        <ele>293</ele>
        <time>2015-02-11T16:03:48Z</time>
      </trkpt>
      <trkpt lat="43.41866" lon="6.03408">
        <ele>292</ele>
        <time>2015-02-11T16:03:52Z</time>
      </trkpt>
      <trkpt lat="43.41865" lon="6.03417">
        <ele>291.79998779297</ele>
        <time>2015-02-11T16:03:53Z</time>
      </trkpt>
      <trkpt lat="43.41864" lon="6.03446">
        <ele>290.60000610352</ele>
        <time>2015-02-11T16:03:56Z</time>
      </trkpt>
      <trkpt lat="43.41864" lon="6.03474">
        <ele>289.20001220703</ele>
        <time>2015-02-11T16:03:59Z</time>
      </trkpt>
      <trkpt lat="43.41865" lon="6.03525">
        <ele>289</ele>
        <time>2015-02-11T16:04:05Z</time>
      </trkpt>
      <trkpt lat="43.41867" lon="6.03563">
        <ele>288.20001220703</ele>
        <time>2015-02-11T16:04:10Z</time>
      </trkpt>
      <trkpt lat="43.41867" lon="6.03571">
        <ele>288.20001220703</ele>
        <time>2015-02-11T16:04:11Z</time>
      </trkpt>
      <trkpt lat="43.41868" lon="6.03578">
        <ele>288.20001220703</ele>
        <time>2015-02-11T16:04:12Z</time>
      </trkpt>
      <trkpt lat="43.4187" lon="6.03622">
        <ele>288.79998779297</ele>
        <time>2015-02-11T16:04:19Z</time>
      </trkpt>
      <trkpt lat="43.4187" lon="6.03628">
        <ele>288.79998779297</ele>
        <time>2015-02-11T16:04:20Z</time>
      </trkpt>
      <trkpt lat="43.41872" lon="6.03653">
        <ele>289.20001220703</ele>
        <time>2015-02-11T16:04:24Z</time>
      </trkpt>
      <trkpt lat="43.41873" lon="6.03671">
        <ele>289.60000610352</ele>
        <time>2015-02-11T16:04:27Z</time>
      </trkpt>
      <trkpt lat="43.41874" lon="6.03682">
        <ele>289.79998779297</ele>
        <time>2015-02-11T16:04:29Z</time>
      </trkpt>
      <trkpt lat="43.41875" lon="6.03698">
        <ele>290.39999389648</ele>
        <time>2015-02-11T16:04:32Z</time>
      </trkpt>
      <trkpt lat="43.41877" lon="6.03709">
        <ele>290.60000610352</ele>
        <time>2015-02-11T16:04:34Z</time>
      </trkpt>
      <trkpt lat="43.41878" lon="6.03724">
        <ele>291.20001220703</ele>
        <time>2015-02-11T16:04:37Z</time>
      </trkpt>
      <trkpt lat="43.41879" lon="6.0374">
        <ele>291.39999389648</ele>
        <time>2015-02-11T16:04:40Z</time>
      </trkpt>
      <trkpt lat="43.4188" lon="6.03762">
        <ele>291.60000610352</ele>
        <time>2015-02-11T16:04:44Z</time>
      </trkpt>
      <trkpt lat="43.4188" lon="6.03804">
        <ele>290.79998779297</ele>
        <time>2015-02-11T16:04:51Z</time>
      </trkpt>
      <trkpt lat="43.4188" lon="6.03811">
        <ele>290.79998779297</ele>
        <time>2015-02-11T16:04:52Z</time>
      </trkpt>
      <trkpt lat="43.4188" lon="6.03831">
        <ele>290.39999389648</ele>
        <time>2015-02-11T16:04:55Z</time>
      </trkpt>
      <trkpt lat="43.41879" lon="6.03855">
        <ele>289.39999389648</ele>
        <time>2015-02-11T16:04:58Z</time>
      </trkpt>
      <trkpt lat="43.41878" lon="6.03863">
        <ele>289</ele>
        <time>2015-02-11T16:04:59Z</time>
      </trkpt>
      <trkpt lat="43.41877" lon="6.0389">
        <ele>287.60000610352</ele>
        <time>2015-02-11T16:05:02Z</time>
      </trkpt>
      <trkpt lat="43.41877" lon="6.0391">
        <ele>286.60000610352</ele>
        <time>2015-02-11T16:05:04Z</time>
      </trkpt>
      <trkpt lat="43.41879" lon="6.03938">
        <ele>286.20001220703</ele>
        <time>2015-02-11T16:05:07Z</time>
      </trkpt>
      <trkpt lat="43.41879" lon="6.03954">
        <ele>285.79998779297</ele>
        <time>2015-02-11T16:05:09Z</time>
      </trkpt>
      <trkpt lat="43.41876" lon="6.03989">
        <ele>285.20001220703</ele>
        <time>2015-02-11T16:05:13Z</time>
      </trkpt>
      <trkpt lat="43.41875" lon="6.03997">
        <ele>284.39999389648</ele>
        <time>2015-02-11T16:05:14Z</time>
      </trkpt>
      <trkpt lat="43.41875" lon="6.04005">
        <ele>283.79998779297</ele>
        <time>2015-02-11T16:05:15Z</time>
      </trkpt>
      <trkpt lat="43.41874" lon="6.04034">
        <ele>282.60000610352</ele>
        <time>2015-02-11T16:05:18Z</time>
      </trkpt>
      <trkpt lat="43.41875" lon="6.04054">
        <ele>282</ele>
        <time>2015-02-11T16:05:20Z</time>
      </trkpt>
      <trkpt lat="43.41876" lon="6.04063">
        <ele>281.60000610352</ele>
        <time>2015-02-11T16:05:21Z</time>
      </trkpt>
      <trkpt lat="43.41878" lon="6.04072">
        <ele>281.60000610352</ele>
        <time>2015-02-11T16:05:22Z</time>
      </trkpt>
      <trkpt lat="43.4188" lon="6.04087">
        <ele>281.39999389648</ele>
        <time>2015-02-11T16:05:24Z</time>
      </trkpt>
      <trkpt lat="43.41877" lon="6.04102">
        <ele>281.39999389648</ele>
        <time>2015-02-11T16:05:27Z</time>
      </trkpt>
      <trkpt lat="43.41872" lon="6.04112">
        <ele>280.20001220703</ele>
        <time>2015-02-11T16:05:29Z</time>
      </trkpt>
      <trkpt lat="43.41872" lon="6.04125">
        <ele>279.20001220703</ele>
        <time>2015-02-11T16:05:31Z</time>
      </trkpt>
      <trkpt lat="43.41879" lon="6.04148">
        <ele>277.79998779297</ele>
        <time>2015-02-11T16:05:34Z</time>
      </trkpt>
      <trkpt lat="43.41881" lon="6.04156">
        <ele>276.79998779297</ele>
        <time>2015-02-11T16:05:35Z</time>
      </trkpt>
      <trkpt lat="43.41882" lon="6.04166">
        <ele>275.79998779297</ele>
        <time>2015-02-11T16:05:36Z</time>
      </trkpt>
      <trkpt lat="43.41879" lon="6.04183">
        <ele>273.79998779297</ele>
        <time>2015-02-11T16:05:38Z</time>
      </trkpt>
      <trkpt lat="43.41876" lon="6.04189">
        <ele>272.60000610352</ele>
        <time>2015-02-11T16:05:39Z</time>
      </trkpt>
      <trkpt lat="43.41866" lon="6.04194">
        <ele>271.79998779297</ele>
        <time>2015-02-11T16:05:41Z</time>
      </trkpt>
      <trkpt lat="43.41861" lon="6.04194">
        <ele>271.20001220703</ele>
        <time>2015-02-11T16:05:42Z</time>
      </trkpt>
      <trkpt lat="43.41846" lon="6.04195">
        <ele>270.39999389648</ele>
        <time>2015-02-11T16:05:46Z</time>
      </trkpt>
      <trkpt lat="43.41843" lon="6.04195">
        <ele>270.39999389648</ele>
        <time>2015-02-11T16:05:47Z</time>
      </trkpt>
      <trkpt lat="43.41839" lon="6.04193">
        <ele>270</ele>
        <time>2015-02-11T16:05:48Z</time>
      </trkpt>
      <trkpt lat="43.41834" lon="6.04187">
        <ele>269.60000610352</ele>
        <time>2015-02-11T16:05:49Z</time>
      </trkpt>
      <trkpt lat="43.41817" lon="6.04189">
        <ele>269.79998779297</ele>
        <time>2015-02-11T16:05:52Z</time>
      </trkpt>
      <trkpt lat="43.41812" lon="6.04187">
        <ele>269.60000610352</ele>
        <time>2015-02-11T16:05:53Z</time>
      </trkpt>
      <trkpt lat="43.41802" lon="6.04185">
        <ele>269.20001220703</ele>
        <time>2015-02-11T16:05:56Z</time>
      </trkpt>
      <trkpt lat="43.41799" lon="6.04186">
        <ele>269</ele>
        <time>2015-02-11T16:05:57Z</time>
      </trkpt>
      <trkpt lat="43.41791" lon="6.04193">
        <ele>268.79998779297</ele>
        <time>2015-02-11T16:06:00Z</time>
      </trkpt>
      <trkpt lat="43.41776" lon="6.04209">
        <ele>268.20001220703</ele>
        <time>2015-02-11T16:06:04Z</time>
      </trkpt>
      <trkpt lat="43.41771" lon="6.04212">
        <ele>267.79998779297</ele>
        <time>2015-02-11T16:06:05Z</time>
      </trkpt>
      <trkpt lat="43.41756" lon="6.04223">
        <ele>266.60000610352</ele>
        <time>2015-02-11T16:06:08Z</time>
      </trkpt>
      <trkpt lat="43.41743" lon="6.04245">
        <ele>265.60000610352</ele>
        <time>2015-02-11T16:06:11Z</time>
      </trkpt>
      <trkpt lat="43.41734" lon="6.04263">
        <ele>264.39999389648</ele>
        <time>2015-02-11T16:06:13Z</time>
      </trkpt>
      <trkpt lat="43.41723" lon="6.04278">
        <ele>263.79998779297</ele>
        <time>2015-02-11T16:06:15Z</time>
      </trkpt>
      <trkpt lat="43.417" lon="6.04306">
        <ele>261.79998779297</ele>
        <time>2015-02-11T16:06:19Z</time>
      </trkpt>
      <trkpt lat="43.41689" lon="6.04322">
        <ele>260.39999389648</ele>
        <time>2015-02-11T16:06:21Z</time>
      </trkpt>
      <trkpt lat="43.41685" lon="6.04332">
        <ele>259.79998779297</ele>
        <time>2015-02-11T16:06:22Z</time>
      </trkpt>
      <trkpt lat="43.41677" lon="6.04352">
        <ele>258.79998779297</ele>
        <time>2015-02-11T16:06:24Z</time>
      </trkpt>
      <trkpt lat="43.41668" lon="6.04372">
        <ele>257.39999389648</ele>
        <time>2015-02-11T16:06:26Z</time>
      </trkpt>
      <trkpt lat="43.41654" lon="6.04386">
        <ele>256.60000610352</ele>
        <time>2015-02-11T16:06:28Z</time>
      </trkpt>
      <trkpt lat="43.41646" lon="6.04391">
        <ele>256.20001220703</ele>
        <time>2015-02-11T16:06:29Z</time>
      </trkpt>
      <trkpt lat="43.41637" lon="6.04395">
        <ele>256</ele>
        <time>2015-02-11T16:06:30Z</time>
      </trkpt>
      <trkpt lat="43.4162" lon="6.04404">
        <ele>254.60000610352</ele>
        <time>2015-02-11T16:06:32Z</time>
      </trkpt>
      <trkpt lat="43.41611" lon="6.04409">
        <ele>254</ele>
        <time>2015-02-11T16:06:33Z</time>
      </trkpt>
      <trkpt lat="43.41594" lon="6.04416">
        <ele>253</ele>
        <time>2015-02-11T16:06:35Z</time>
      </trkpt>
      <trkpt lat="43.41585" lon="6.04418">
        <ele>252.60000610352</ele>
        <time>2015-02-11T16:06:36Z</time>
      </trkpt>
      <trkpt lat="43.41576" lon="6.04419">
        <ele>252</ele>
        <time>2015-02-11T16:06:37Z</time>
      </trkpt>
      <trkpt lat="43.41564" lon="6.04422">
        <ele>250.39999389648</ele>
        <time>2015-02-11T16:06:39Z</time>
      </trkpt>
      <trkpt lat="43.4156" lon="6.04426">
        <ele>249.39999389648</ele>
        <time>2015-02-11T16:06:40Z</time>
      </trkpt>
      <trkpt lat="43.41555" lon="6.04448">
        <ele>248.80000305176</ele>
        <time>2015-02-11T16:06:43Z</time>
      </trkpt>
      <trkpt lat="43.41556" lon="6.04463">
        <ele>248.19999694824</ele>
        <time>2015-02-11T16:06:45Z</time>
      </trkpt>
      <trkpt lat="43.41556" lon="6.04496">
        <ele>247.39999389648</ele>
        <time>2015-02-11T16:06:49Z</time>
      </trkpt>
      <trkpt lat="43.41556" lon="6.04513">
        <ele>247.39999389648</ele>
        <time>2015-02-11T16:06:51Z</time>
      </trkpt>
      <trkpt lat="43.41552" lon="6.04529">
        <ele>247</ele>
        <time>2015-02-11T16:06:53Z</time>
      </trkpt>
      <trkpt lat="43.41545" lon="6.04543">
        <ele>246.19999694824</ele>
        <time>2015-02-11T16:06:55Z</time>
      </trkpt>
      <trkpt lat="43.41541" lon="6.04557">
        <ele>245.60000610352</ele>
        <time>2015-02-11T16:06:57Z</time>
      </trkpt>
      <trkpt lat="43.41534" lon="6.04588">
        <ele>245.19999694824</ele>
        <time>2015-02-11T16:07:01Z</time>
      </trkpt>
      <trkpt lat="43.41526" lon="6.046">
        <ele>244.39999389648</ele>
        <time>2015-02-11T16:07:03Z</time>
      </trkpt>
      <trkpt lat="43.41521" lon="6.04606">
        <ele>243.80000305176</ele>
        <time>2015-02-11T16:07:04Z</time>
      </trkpt>
      <trkpt lat="43.41516" lon="6.04611">
        <ele>243.60000610352</ele>
        <time>2015-02-11T16:07:05Z</time>
      </trkpt>
      <trkpt lat="43.41504" lon="6.0462">
        <ele>242</ele>
        <time>2015-02-11T16:07:07Z</time>
      </trkpt>
      <trkpt lat="43.41496" lon="6.04622">
        <ele>241</ele>
        <time>2015-02-11T16:07:08Z</time>
      </trkpt>
      <trkpt lat="43.41488" lon="6.04623">
        <ele>240.39999389648</ele>
        <time>2015-02-11T16:07:09Z</time>
      </trkpt>
      <trkpt lat="43.41471" lon="6.04625">
        <ele>238.60000610352</ele>
        <time>2015-02-11T16:07:11Z</time>
      </trkpt>
      <trkpt lat="43.41453" lon="6.0463">
        <ele>238.39999389648</ele>
        <time>2015-02-11T16:07:13Z</time>
      </trkpt>
      <trkpt lat="43.41435" lon="6.04634">
        <ele>237.80000305176</ele>
        <time>2015-02-11T16:07:15Z</time>
      </trkpt>
      <trkpt lat="43.41417" lon="6.04636">
        <ele>236.60000610352</ele>
        <time>2015-02-11T16:07:17Z</time>
      </trkpt>
      <trkpt lat="43.41402" lon="6.04641">
        <ele>235.19999694824</ele>
        <time>2015-02-11T16:07:19Z</time>
      </trkpt>
      <trkpt lat="43.41398" lon="6.04654">
        <ele>234.19999694824</ele>
        <time>2015-02-11T16:07:21Z</time>
      </trkpt>
      <trkpt lat="43.41398" lon="6.04669">
        <ele>234</ele>
        <time>2015-02-11T16:07:23Z</time>
      </trkpt>
      <trkpt lat="43.41399" lon="6.04677">
        <ele>233.60000610352</ele>
        <time>2015-02-11T16:07:24Z</time>
      </trkpt>
      <trkpt lat="43.414" lon="6.04693">
        <ele>234</ele>
        <time>2015-02-11T16:07:26Z</time>
      </trkpt>
      <trkpt lat="43.41401" lon="6.0471">
        <ele>233.39999389648</ele>
        <time>2015-02-11T16:07:28Z</time>
      </trkpt>
      <trkpt lat="43.41396" lon="6.04726">
        <ele>233.60000610352</ele>
        <time>2015-02-11T16:07:30Z</time>
      </trkpt>
      <trkpt lat="43.4138" lon="6.04736">
        <ele>233.19999694824</ele>
        <time>2015-02-11T16:07:33Z</time>
      </trkpt>
      <trkpt lat="43.41369" lon="6.04742">
        <ele>232.80000305176</ele>
        <time>2015-02-11T16:07:35Z</time>
      </trkpt>
      <trkpt lat="43.41366" lon="6.04748">
        <ele>232.39999389648</ele>
        <time>2015-02-11T16:07:36Z</time>
      </trkpt>
      <trkpt lat="43.41366" lon="6.0477">
        <ele>231.80000305176</ele>
        <time>2015-02-11T16:07:39Z</time>
      </trkpt>
      <trkpt lat="43.4136" lon="6.0479">
        <ele>231.60000610352</ele>
        <time>2015-02-11T16:07:42Z</time>
      </trkpt>
      <trkpt lat="43.41345" lon="6.04799">
        <ele>231</ele>
        <time>2015-02-11T16:07:45Z</time>
      </trkpt>
      <trkpt lat="43.41323" lon="6.04807">
        <ele>230.60000610352</ele>
        <time>2015-02-11T16:07:49Z</time>
      </trkpt>
      <trkpt lat="43.4132" lon="6.04808">
        <ele>230.39999389648</ele>
        <time>2015-02-11T16:07:50Z</time>
      </trkpt>
      <trkpt lat="43.41313" lon="6.04813">
        <ele>229.39999389648</ele>
        <time>2015-02-11T16:07:54Z</time>
      </trkpt>
      <trkpt lat="43.41314" lon="6.04814">
        <ele>229</ele>
        <time>2015-02-11T16:07:59Z</time>
      </trkpt>
      <trkpt lat="43.41313" lon="6.04816">
        <ele>229</ele>
        <time>2015-02-11T16:08:15Z</time>
      </trkpt>
      <trkpt lat="43.41314" lon="6.0482">
        <ele>229.19999694824</ele>
        <time>2015-02-11T16:08:17Z</time>
      </trkpt>
      <trkpt lat="43.41317" lon="6.0483">
        <ele>229.39999389648</ele>
        <time>2015-02-11T16:08:20Z</time>
      </trkpt>
      <trkpt lat="43.4132" lon="6.04836">
        <ele>229.60000610352</ele>
        <time>2015-02-11T16:08:22Z</time>
      </trkpt>
      <trkpt lat="43.41322" lon="6.04839">
        <ele>229.80000305176</ele>
        <time>2015-02-11T16:08:23Z</time>
      </trkpt>
      <trkpt lat="43.41324" lon="6.04843">
        <ele>230</ele>
        <time>2015-02-11T16:08:24Z</time>
      </trkpt>
      <trkpt lat="43.41331" lon="6.04853">
        <ele>230.39999389648</ele>
        <time>2015-02-11T16:08:27Z</time>
      </trkpt>
      <trkpt lat="43.41333" lon="6.04857">
        <ele>230.60000610352</ele>
        <time>2015-02-11T16:08:28Z</time>
      </trkpt>
      <trkpt lat="43.41349" lon="6.04888">
        <ele>230.80000305176</ele>
        <time>2015-02-11T16:08:35Z</time>
      </trkpt>
      <trkpt lat="43.41352" lon="6.04892">
        <ele>230.80000305176</ele>
        <time>2015-02-11T16:08:36Z</time>
      </trkpt>
      <trkpt lat="43.41359" lon="6.0491">
        <ele>230.80000305176</ele>
        <time>2015-02-11T16:08:41Z</time>
      </trkpt>
      <trkpt lat="43.4137" lon="6.04928">
        <ele>231</ele>
        <time>2015-02-11T16:08:46Z</time>
      </trkpt>
      <trkpt lat="43.41379" lon="6.04941">
        <ele>231.19999694824</ele>
        <time>2015-02-11T16:08:49Z</time>
      </trkpt>
      <trkpt lat="43.41391" lon="6.04961">
        <ele>231.19999694824</ele>
        <time>2015-02-11T16:08:53Z</time>
      </trkpt>
      <trkpt lat="43.41402" lon="6.04984">
        <ele>230.80000305176</ele>
        <time>2015-02-11T16:08:57Z</time>
      </trkpt>
      <trkpt lat="43.41405" lon="6.0499">
        <ele>230.60000610352</ele>
        <time>2015-02-11T16:08:58Z</time>
      </trkpt>
      <trkpt lat="43.41413" lon="6.05009">
        <ele>230.19999694824</ele>
        <time>2015-02-11T16:09:01Z</time>
      </trkpt>
      <trkpt lat="43.41419" lon="6.05022">
        <ele>229.80000305176</ele>
        <time>2015-02-11T16:09:03Z</time>
      </trkpt>
      <trkpt lat="43.41425" lon="6.05034">
        <ele>229.60000610352</ele>
        <time>2015-02-11T16:09:05Z</time>
      </trkpt>
      <trkpt lat="43.41431" lon="6.05046">
        <ele>229.19999694824</ele>
        <time>2015-02-11T16:09:07Z</time>
      </trkpt>
      <trkpt lat="43.41448" lon="6.05083">
        <ele>229.39999389648</ele>
        <time>2015-02-11T16:09:13Z</time>
      </trkpt>
      <trkpt lat="43.41474" lon="6.05138">
        <ele>228.80000305176</ele>
        <time>2015-02-11T16:09:22Z</time>
      </trkpt>
      <trkpt lat="43.4148" lon="6.0515">
        <ele>228.39999389648</ele>
        <time>2015-02-11T16:09:24Z</time>
      </trkpt>
      <trkpt lat="43.41497" lon="6.05185">
        <ele>228.60000610352</ele>
        <time>2015-02-11T16:09:30Z</time>
      </trkpt>
      <trkpt lat="43.4152" lon="6.05234">
        <ele>229.19999694824</ele>
        <time>2015-02-11T16:09:40Z</time>
      </trkpt>
      <trkpt lat="43.41531" lon="6.05258">
        <ele>229.60000610352</ele>
        <time>2015-02-11T16:09:45Z</time>
      </trkpt>
      <trkpt lat="43.41535" lon="6.05272">
        <ele>230.39999389648</ele>
        <time>2015-02-11T16:09:48Z</time>
      </trkpt>
      <trkpt lat="43.41545" lon="6.0531">
        <ele>230.39999389648</ele>
        <time>2015-02-11T16:09:56Z</time>
      </trkpt>
      <trkpt lat="43.41553" lon="6.05335">
        <ele>230.60000610352</ele>
        <time>2015-02-11T16:10:01Z</time>
      </trkpt>
      <trkpt lat="43.41561" lon="6.05353">
        <ele>231.19999694824</ele>
        <time>2015-02-11T16:10:05Z</time>
      </trkpt>
      <trkpt lat="43.41579" lon="6.05403">
        <ele>232</ele>
        <time>2015-02-11T16:10:15Z</time>
      </trkpt>
      <trkpt lat="43.41594" lon="6.05452">
        <ele>232.19999694824</ele>
        <time>2015-02-11T16:10:24Z</time>
      </trkpt>
      <trkpt lat="43.41608" lon="6.05502">
        <ele>232.60000610352</ele>
        <time>2015-02-11T16:10:33Z</time>
      </trkpt>
      <trkpt lat="43.41622" lon="6.05554">
        <ele>232.60000610352</ele>
        <time>2015-02-11T16:10:42Z</time>
      </trkpt>
      <trkpt lat="43.41626" lon="6.05572">
        <ele>232.80000305176</ele>
        <time>2015-02-11T16:10:45Z</time>
      </trkpt>
      <trkpt lat="43.41632" lon="6.05597">
        <ele>232.80000305176</ele>
        <time>2015-02-11T16:10:50Z</time>
      </trkpt>
      <trkpt lat="43.41633" lon="6.05616">
        <ele>233.19999694824</ele>
        <time>2015-02-11T16:10:54Z</time>
      </trkpt>
      <trkpt lat="43.41636" lon="6.05637">
        <ele>233.19999694824</ele>
        <time>2015-02-11T16:10:58Z</time>
      </trkpt>
      <trkpt lat="43.41639" lon="6.05676">
        <ele>234.19999694824</ele>
        <time>2015-02-11T16:11:06Z</time>
      </trkpt>
      <trkpt lat="43.4164" lon="6.05691">
        <ele>234.19999694824</ele>
        <time>2015-02-11T16:11:09Z</time>
      </trkpt>
      <trkpt lat="43.41642" lon="6.0573">
        <ele>234.39999389648</ele>
        <time>2015-02-11T16:11:17Z</time>
      </trkpt>
      <trkpt lat="43.41642" lon="6.05793">
        <ele>234.39999389648</ele>
        <time>2015-02-11T16:11:29Z</time>
      </trkpt>
      <trkpt lat="43.4164" lon="6.05846">
        <ele>234.39999389648</ele>
        <time>2015-02-11T16:11:38Z</time>
      </trkpt>
      <trkpt lat="43.41638" lon="6.05883">
        <ele>234</ele>
        <time>2015-02-11T16:11:44Z</time>
      </trkpt>
      <trkpt lat="43.41635" lon="6.05919">
        <ele>233.19999694824</ele>
        <time>2015-02-11T16:11:50Z</time>
      </trkpt>
      <trkpt lat="43.41635" lon="6.05925">
        <ele>233.19999694824</ele>
        <time>2015-02-11T16:11:51Z</time>
      </trkpt>
      <trkpt lat="43.41634" lon="6.05931">
        <ele>233</ele>
        <time>2015-02-11T16:11:52Z</time>
      </trkpt>
      <trkpt lat="43.41627" lon="6.05968">
        <ele>232.19999694824</ele>
        <time>2015-02-11T16:11:58Z</time>
      </trkpt>
      <trkpt lat="43.41626" lon="6.05974">
        <ele>232</ele>
        <time>2015-02-11T16:11:59Z</time>
      </trkpt>
      <trkpt lat="43.41621" lon="6.06002">
        <ele>231.19999694824</ele>
        <time>2015-02-11T16:12:03Z</time>
      </trkpt>
      <trkpt lat="43.4162" lon="6.06009">
        <ele>231</ele>
        <time>2015-02-11T16:12:04Z</time>
      </trkpt>
      <trkpt lat="43.41617" lon="6.06032">
        <ele>230.19999694824</ele>
        <time>2015-02-11T16:12:07Z</time>
      </trkpt>
      <trkpt lat="43.41615" lon="6.06057">
        <ele>229.80000305176</ele>
        <time>2015-02-11T16:12:10Z</time>
      </trkpt>
      <trkpt lat="43.41613" lon="6.06081">
        <ele>229.39999389648</ele>
        <time>2015-02-11T16:12:13Z</time>
      </trkpt>
      <trkpt lat="43.41614" lon="6.06089">
        <ele>229</ele>
        <time>2015-02-11T16:12:14Z</time>
      </trkpt>
      <trkpt lat="43.41617" lon="6.06105">
        <ele>228.60000610352</ele>
        <time>2015-02-11T16:12:16Z</time>
      </trkpt>
      <trkpt lat="43.41623" lon="6.06118">
        <ele>228.60000610352</ele>
        <time>2015-02-11T16:12:18Z</time>
      </trkpt>
      <trkpt lat="43.41627" lon="6.0613">
        <ele>228.60000610352</ele>
        <time>2015-02-11T16:12:20Z</time>
      </trkpt>
      <trkpt lat="43.41626" lon="6.06134">
        <ele>228.80000305176</ele>
        <time>2015-02-11T16:12:21Z</time>
      </trkpt>
      <trkpt lat="43.41618" lon="6.06145">
        <ele>228.60000610352</ele>
        <time>2015-02-11T16:12:25Z</time>
      </trkpt>
      <trkpt lat="43.41617" lon="6.06146">
        <ele>228</ele>
        <time>2015-02-11T16:12:29Z</time>
      </trkpt>
      <trkpt lat="43.41615" lon="6.06149">
        <ele>228</ele>
        <time>2015-02-11T16:12:51Z</time>
      </trkpt>
      <trkpt lat="43.41608" lon="6.06158">
        <ele>228.19999694824</ele>
        <time>2015-02-11T16:12:54Z</time>
      </trkpt>
      <trkpt lat="43.41606" lon="6.06161">
        <ele>228.19999694824</ele>
        <time>2015-02-11T16:12:55Z</time>
      </trkpt>
      <trkpt lat="43.41599" lon="6.06177">
        <ele>228.60000610352</ele>
        <time>2015-02-11T16:12:59Z</time>
      </trkpt>
      <trkpt lat="43.41598" lon="6.06181">
        <ele>228.60000610352</ele>
        <time>2015-02-11T16:13:00Z</time>
      </trkpt>
      <trkpt lat="43.41599" lon="6.06197">
        <ele>229.19999694824</ele>
        <time>2015-02-11T16:13:04Z</time>
      </trkpt>
      <trkpt lat="43.41608" lon="6.06212">
        <ele>229.60000610352</ele>
        <time>2015-02-11T16:13:08Z</time>
      </trkpt>
      <trkpt lat="43.41608" lon="6.06216">
        <ele>229.80000305176</ele>
        <time>2015-02-11T16:13:09Z</time>
      </trkpt>
      <trkpt lat="43.41607" lon="6.06231">
        <ele>230</ele>
        <time>2015-02-11T16:13:13Z</time>
      </trkpt>
      <trkpt lat="43.41606" lon="6.06234">
        <ele>230</ele>
        <time>2015-02-11T16:13:14Z</time>
      </trkpt>
      <trkpt lat="43.41605" lon="6.0624">
        <ele>229.80000305176</ele>
        <time>2015-02-11T16:13:18Z</time>
      </trkpt>
      <trkpt lat="43.41603" lon="6.06249">
        <ele>230</ele>
        <time>2015-02-11T16:13:22Z</time>
      </trkpt>
      <trkpt lat="43.41602" lon="6.06253">
        <ele>230</ele>
        <time>2015-02-11T16:13:24Z</time>
      </trkpt>
      <trkpt lat="43.41601" lon="6.06257">
        <ele>230</ele>
        <time>2015-02-11T16:13:28Z</time>
      </trkpt>
      <trkpt lat="43.416" lon="6.06258">
        <ele>230</ele>
        <time>2015-02-11T16:13:30Z</time>
      </trkpt>
      <trkpt lat="43.41595" lon="6.0626">
        <ele>229.80000305176</ele>
        <time>2015-02-11T16:13:35Z</time>
      </trkpt>
      <trkpt lat="43.41586" lon="6.06274">
        <ele>229.60000610352</ele>
        <time>2015-02-11T16:13:40Z</time>
      </trkpt>
      <trkpt lat="43.41586" lon="6.06279">
        <ele>229.39999389648</ele>
        <time>2015-02-11T16:13:41Z</time>
      </trkpt>
      <trkpt lat="43.41585" lon="6.06293">
        <ele>228.80000305176</ele>
        <time>2015-02-11T16:13:44Z</time>
      </trkpt>
      <trkpt lat="43.41583" lon="6.06308">
        <ele>228.60000610352</ele>
        <time>2015-02-11T16:13:48Z</time>
      </trkpt>
      <trkpt lat="43.41581" lon="6.06312">
        <ele>228.39999389648</ele>
        <time>2015-02-11T16:13:49Z</time>
      </trkpt>
      <trkpt lat="43.41576" lon="6.06321">
        <ele>228</ele>
        <time>2015-02-11T16:13:51Z</time>
      </trkpt>
      <trkpt lat="43.41573" lon="6.06327">
        <ele>227.80000305176</ele>
        <time>2015-02-11T16:13:52Z</time>
      </trkpt>
      <trkpt lat="43.41569" lon="6.06332">
        <ele>227.60000610352</ele>
        <time>2015-02-11T16:13:53Z</time>
      </trkpt>
      <trkpt lat="43.41559" lon="6.06351">
        <ele>226.60000610352</ele>
        <time>2015-02-11T16:13:56Z</time>
      </trkpt>
      <trkpt lat="43.41555" lon="6.06367">
        <ele>226.19999694824</ele>
        <time>2015-02-11T16:13:58Z</time>
      </trkpt>
      <trkpt lat="43.41552" lon="6.06384">
        <ele>225.39999389648</ele>
        <time>2015-02-11T16:14:00Z</time>
      </trkpt>
      <trkpt lat="43.41547" lon="6.06412">
        <ele>224</ele>
        <time>2015-02-11T16:14:03Z</time>
      </trkpt>
      <trkpt lat="43.41545" lon="6.06422">
        <ele>223.60000610352</ele>
        <time>2015-02-11T16:14:04Z</time>
      </trkpt>
      <trkpt lat="43.41543" lon="6.06431">
        <ele>223</ele>
        <time>2015-02-11T16:14:05Z</time>
      </trkpt>
      <trkpt lat="43.41542" lon="6.06448">
        <ele>222</ele>
        <time>2015-02-11T16:14:07Z</time>
      </trkpt>
      <trkpt lat="43.41542" lon="6.06456">
        <ele>221.80000305176</ele>
        <time>2015-02-11T16:14:08Z</time>
      </trkpt>
      <trkpt lat="43.41543" lon="6.06464">
        <ele>221.80000305176</ele>
        <time>2015-02-11T16:14:09Z</time>
      </trkpt>
      <trkpt lat="43.41539" lon="6.06483">
        <ele>221.60000610352</ele>
        <time>2015-02-11T16:14:12Z</time>
      </trkpt>
      <trkpt lat="43.41536" lon="6.06489">
        <ele>221.39999389648</ele>
        <time>2015-02-11T16:14:13Z</time>
      </trkpt>
      <trkpt lat="43.41526" lon="6.06508">
        <ele>220.80000305176</ele>
        <time>2015-02-11T16:14:16Z</time>
      </trkpt>
      <trkpt lat="43.41524" lon="6.06516">
        <ele>220.80000305176</ele>
        <time>2015-02-11T16:14:17Z</time>
      </trkpt>
      <trkpt lat="43.41518" lon="6.06547">
        <ele>220.39999389648</ele>
        <time>2015-02-11T16:14:21Z</time>
      </trkpt>
      <trkpt lat="43.41517" lon="6.06555">
        <ele>220.39999389648</ele>
        <time>2015-02-11T16:14:22Z</time>
      </trkpt>
      <trkpt lat="43.41506" lon="6.06622">
        <ele>219.80000305176</ele>
        <time>2015-02-11T16:14:31Z</time>
      </trkpt>
      <trkpt lat="43.41497" lon="6.06673">
        <ele>219</ele>
        <time>2015-02-11T16:14:39Z</time>
      </trkpt>
      <trkpt lat="43.41496" lon="6.06691">
        <ele>218.80000305176</ele>
        <time>2015-02-11T16:14:42Z</time>
      </trkpt>
      <trkpt lat="43.41496" lon="6.06715">
        <ele>219</ele>
        <time>2015-02-11T16:14:46Z</time>
      </trkpt>
      <trkpt lat="43.41495" lon="6.0672">
        <ele>218.60000610352</ele>
        <time>2015-02-11T16:14:47Z</time>
      </trkpt>
      <trkpt lat="43.41492" lon="6.06753">
        <ele>217.60000610352</ele>
        <time>2015-02-11T16:14:52Z</time>
      </trkpt>
      <trkpt lat="43.4149" lon="6.06773">
        <ele>217.19999694824</ele>
        <time>2015-02-11T16:14:55Z</time>
      </trkpt>
      <trkpt lat="43.41485" lon="6.068">
        <ele>216.39999389648</ele>
        <time>2015-02-11T16:14:59Z</time>
      </trkpt>
      <trkpt lat="43.41479" lon="6.06822">
        <ele>216.60000610352</ele>
        <time>2015-02-11T16:15:02Z</time>
      </trkpt>
      <trkpt lat="43.41477" lon="6.06828">
        <ele>216.60000610352</ele>
        <time>2015-02-11T16:15:03Z</time>
      </trkpt>
      <trkpt lat="43.41473" lon="6.06848">
        <ele>216.19999694824</ele>
        <time>2015-02-11T16:15:06Z</time>
      </trkpt>
      <trkpt lat="43.41472" lon="6.06854">
        <ele>216</ele>
        <time>2015-02-11T16:15:07Z</time>
      </trkpt>
      <trkpt lat="43.41473" lon="6.06869">
        <ele>216.39999389648</ele>
        <time>2015-02-11T16:15:10Z</time>
      </trkpt>
      <trkpt lat="43.41473" lon="6.06881">
        <ele>216</ele>
        <time>2015-02-11T16:15:14Z</time>
      </trkpt>
      <trkpt lat="43.41473" lon="6.06884">
        <ele>215.60000610352</ele>
        <time>2015-02-11T16:15:20Z</time>
      </trkpt>
      <trkpt lat="43.41473" lon="6.06887">
        <ele>215.80000305176</ele>
        <time>2015-02-11T16:15:22Z</time>
      </trkpt>
      <trkpt lat="43.41472" lon="6.06892">
        <ele>215.80000305176</ele>
        <time>2015-02-11T16:15:25Z</time>
      </trkpt>
      <trkpt lat="43.41472" lon="6.06909">
        <ele>216.19999694824</ele>
        <time>2015-02-11T16:15:30Z</time>
      </trkpt>
      <trkpt lat="43.41469" lon="6.06916">
        <ele>216.19999694824</ele>
        <time>2015-02-11T16:15:32Z</time>
      </trkpt>
      <trkpt lat="43.41467" lon="6.06931">
        <ele>216</ele>
        <time>2015-02-11T16:15:36Z</time>
      </trkpt>
      <trkpt lat="43.41473" lon="6.06941">
        <ele>215.39999389648</ele>
        <time>2015-02-11T16:15:39Z</time>
      </trkpt>
      <trkpt lat="43.41476" lon="6.06944">
        <ele>215.19999694824</ele>
        <time>2015-02-11T16:15:40Z</time>
      </trkpt>
      <trkpt lat="43.41488" lon="6.06959">
        <ele>215.60000610352</ele>
        <time>2015-02-11T16:15:45Z</time>
      </trkpt>
      <trkpt lat="43.415" lon="6.06967">
        <ele>215.19999694824</ele>
        <time>2015-02-11T16:15:50Z</time>
      </trkpt>
      <trkpt lat="43.41505" lon="6.06972">
        <ele>215.19999694824</ele>
        <time>2015-02-11T16:15:53Z</time>
      </trkpt>
      <trkpt lat="43.41509" lon="6.06973">
        <ele>215.19999694824</ele>
        <time>2015-02-11T16:15:55Z</time>
      </trkpt>
      <trkpt lat="43.41524" lon="6.06973">
        <ele>215.60000610352</ele>
        <time>2015-02-11T16:16:00Z</time>
      </trkpt>
      <trkpt lat="43.41544" lon="6.0697">
        <ele>215.80000305176</ele>
        <time>2015-02-11T16:16:07Z</time>
      </trkpt>
      <trkpt lat="43.41547" lon="6.06968">
        <ele>215.60000610352</ele>
        <time>2015-02-11T16:16:09Z</time>
      </trkpt>
      <trkpt lat="43.41552" lon="6.06969">
        <ele>216</ele>
        <time>2015-02-11T16:16:12Z</time>
      </trkpt>
      <trkpt lat="43.41557" lon="6.06969">
        <ele>216.39999389648</ele>
        <time>2015-02-11T16:16:17Z</time>
      </trkpt>
      <trkpt lat="43.41559" lon="6.06968">
        <ele>216.60000610352</ele>
        <time>2015-02-11T16:16:23Z</time>
      </trkpt>
      <trkpt lat="43.41559" lon="6.06969">
        <ele>216.60000610352</ele>
        <time>2015-02-11T16:16:31Z</time>
      </trkpt>
      <trkpt lat="43.4156" lon="6.06968">
        <ele>216.60000610352</ele>
        <time>2015-02-11T16:16:39Z</time>
      </trkpt>
      <trkpt lat="43.4156" lon="6.06968">
        <ele>216.39999389648</ele>
        <time>2015-02-11T16:16:49Z</time>
      </trkpt>
      <trkpt lat="43.4156" lon="6.06969">
        <ele>216.39999389648</ele>
        <time>2015-02-11T16:17:07Z</time>
      </trkpt>
      <trkpt lat="43.4156" lon="6.06969">
        <ele>216.19999694824</ele>
        <time>2015-02-11T16:17:10Z</time>
      </trkpt>
      <trkpt lat="43.4156" lon="6.06971">
        <ele>216.39999389648</ele>
        <time>2015-02-11T16:17:29Z</time>
      </trkpt>
      <trkpt lat="43.4156" lon="6.06971">
        <ele>216.39999389648</ele>
        <time>2015-02-11T16:17:38Z</time>
      </trkpt>
      <trkpt lat="43.4156" lon="6.06972">
        <ele>216.60000610352</ele>
        <time>2015-02-11T16:17:44Z</time>
      </trkpt>
      <trkpt lat="43.4156" lon="6.06972">
        <ele>216.80000305176</ele>
        <time>2015-02-11T16:17:48Z</time>
      </trkpt>
      <trkpt lat="43.4156" lon="6.06972">
        <ele>216.60000610352</ele>
        <time>2015-02-11T16:17:56Z</time>
      </trkpt>
      <trkpt lat="43.4156" lon="6.06972">
        <ele>216.60000610352</ele>
        <time>2015-02-11T16:18:08Z</time>
      </trkpt>
      <trkpt lat="43.4156" lon="6.06971">
        <ele>216.60000610352</ele>
        <time>2015-02-11T16:18:16Z</time>
      </trkpt>
      <trkpt lat="43.4156" lon="6.06971">
        <ele>216.39999389648</ele>
        <time>2015-02-11T16:18:20Z</time>
      </trkpt>
    </trkseg>
  </trk>
</gpx>